<?xml version="1.0" encoding="UTF-8" standalone="no" ?>
<gpx xmlns="http://www.topografix.com/GPX/1/1" xmlns:xsi="http://www.w3.org/2001/XMLSchema-instance" xsi:schemaLocation="http://www.topografix.com/GPX/1/1 http://www.topografix.com/GPX/1/1/gpx.xsd" version="1.1" creator="VisuGPX - https://www.visugpx.com">
  <metadata>
    <name>Launaguet - Forêt de Buzet 10 08 2022</name>
  </metadata>
  <trk>
    <name><![CDATA[Launaguet - Forêt de Buzet à VTTae  10 08 2022]]></name>
    <extensions>
      <line xmlns="http://www.topografix.com/GPX/gpx_style/0/2">
        <color>00FF00</color>
        <width>4</width>
          <extensions>
            <sens>1</sens>
          </extensions>
      </line>
    </extensions>
    <trkseg>
      <trkpt lat="43.65585" lon="1.4461">
        <ele>188.936528</ele>
        <time>2022-08-10T06:34:42.842Z</time>
      </trkpt>
      <trkpt lat="43.65599" lon="1.44621">
        <ele>188.936528</ele>
        <time>2022-08-10T06:35:11.120Z</time>
      </trkpt>
      <trkpt lat="43.65609" lon="1.44626">
        <ele>188.936528</ele>
        <time>2022-08-10T06:35:15.125Z</time>
      </trkpt>
      <trkpt lat="43.65612" lon="1.44638">
        <ele>188.936528</ele>
        <time>2022-08-10T06:35:19.131Z</time>
      </trkpt>
      <trkpt lat="43.65611" lon="1.44654">
        <ele>188.936528</ele>
        <time>2022-08-10T06:35:22.139Z</time>
      </trkpt>
      <trkpt lat="43.65607" lon="1.44669">
        <ele>188.936528</ele>
        <time>2022-08-10T06:35:25.136Z</time>
      </trkpt>
      <trkpt lat="43.65599" lon="1.4468">
        <ele>188.936528</ele>
        <time>2022-08-10T06:35:28.125Z</time>
      </trkpt>
      <trkpt lat="43.65591" lon="1.44695">
        <ele>188.936528</ele>
        <time>2022-08-10T06:35:31.137Z</time>
      </trkpt>
      <trkpt lat="43.65584" lon="1.4471">
        <ele>188.926624</ele>
        <time>2022-08-10T06:35:34.135Z</time>
      </trkpt>
      <trkpt lat="43.65579" lon="1.4472">
        <ele>188.913595</ele>
        <time>2022-08-10T06:35:36.119Z</time>
      </trkpt>
      <trkpt lat="43.65573" lon="1.44731">
        <ele>188.900488</ele>
        <time>2022-08-10T06:35:38.141Z</time>
      </trkpt>
      <trkpt lat="43.65568" lon="1.44741">
        <ele>188.887206</ele>
        <time>2022-08-10T06:35:40.116Z</time>
      </trkpt>
      <trkpt lat="43.65562" lon="1.44752">
        <ele>188.873511</ele>
        <time>2022-08-10T06:35:42.152Z</time>
      </trkpt>
      <trkpt lat="43.65557" lon="1.44762">
        <ele>188.860066</ele>
        <time>2022-08-10T06:35:44.134Z</time>
      </trkpt>
      <trkpt lat="43.65552" lon="1.44773">
        <ele>188.846353</ele>
        <time>2022-08-10T06:35:46.114Z</time>
      </trkpt>
      <trkpt lat="43.65546" lon="1.44785">
        <ele>188.831982</ele>
        <time>2022-08-10T06:35:48.132Z</time>
      </trkpt>
      <trkpt lat="43.6554" lon="1.44796">
        <ele>188.817782</ele>
        <time>2022-08-10T06:35:50.144Z</time>
      </trkpt>
      <trkpt lat="43.65534" lon="1.44806">
        <ele>188.803859</ele>
        <time>2022-08-10T06:35:52.122Z</time>
      </trkpt>
      <trkpt lat="43.65527" lon="1.44815">
        <ele>188.790395</ele>
        <time>2022-08-10T06:35:54.140Z</time>
      </trkpt>
      <trkpt lat="43.6552" lon="1.44824">
        <ele>188.776725</ele>
        <time>2022-08-10T06:35:56.123Z</time>
      </trkpt>
      <trkpt lat="43.65515" lon="1.44835">
        <ele>188.763184</ele>
        <time>2022-08-10T06:35:58.126Z</time>
      </trkpt>
      <trkpt lat="43.65511" lon="1.44847">
        <ele>188.749723</ele>
        <time>2022-08-10T06:36:00.115Z</time>
      </trkpt>
      <trkpt lat="43.65507" lon="1.44858">
        <ele>188.736328</ele>
        <time>2022-08-10T06:36:02.116Z</time>
      </trkpt>
      <trkpt lat="43.65503" lon="1.44871">
        <ele>188.721835</ele>
        <time>2022-08-10T06:36:04.135Z</time>
      </trkpt>
      <trkpt lat="43.65497" lon="1.44882">
        <ele>188.707631</ele>
        <time>2022-08-10T06:36:06.138Z</time>
      </trkpt>
      <trkpt lat="43.65491" lon="1.44893">
        <ele>188.693515</ele>
        <time>2022-08-10T06:36:08.124Z</time>
      </trkpt>
      <trkpt lat="43.65486" lon="1.44904">
        <ele>188.679651</ele>
        <time>2022-08-10T06:36:10.116Z</time>
      </trkpt>
      <trkpt lat="43.65481" lon="1.44916">
        <ele>188.663122</ele>
        <time>2022-08-10T06:36:12.129Z</time>
      </trkpt>
      <trkpt lat="43.65477" lon="1.44928">
        <ele>188.645295</ele>
        <time>2022-08-10T06:36:14.129Z</time>
      </trkpt>
      <trkpt lat="43.65476" lon="1.44942">
        <ele>188.627157</ele>
        <time>2022-08-10T06:36:16.125Z</time>
      </trkpt>
      <trkpt lat="43.65482" lon="1.44952">
        <ele>188.610268</ele>
        <time>2022-08-10T06:36:18.140Z</time>
      </trkpt>
      <trkpt lat="43.65489" lon="1.44963">
        <ele>188.591843</ele>
        <time>2022-08-10T06:36:20.130Z</time>
      </trkpt>
      <trkpt lat="43.65496" lon="1.44973">
        <ele>188.575319</ele>
        <time>2022-08-10T06:36:22.129Z</time>
      </trkpt>
      <trkpt lat="43.65503" lon="1.44983">
        <ele>188.556719</ele>
        <time>2022-08-10T06:36:24.157Z</time>
      </trkpt>
      <trkpt lat="43.65511" lon="1.44993">
        <ele>188.537456</ele>
        <time>2022-08-10T06:36:26.133Z</time>
      </trkpt>
      <trkpt lat="43.65519" lon="1.45003">
        <ele>188.51777</ele>
        <time>2022-08-10T06:36:28.140Z</time>
      </trkpt>
      <trkpt lat="43.65526" lon="1.45015">
        <ele>188.498853</ele>
        <time>2022-08-10T06:36:30.129Z</time>
      </trkpt>
      <trkpt lat="43.65533" lon="1.45026">
        <ele>188.480085</ele>
        <time>2022-08-10T06:36:32.131Z</time>
      </trkpt>
      <trkpt lat="43.65541" lon="1.45036">
        <ele>188.461172</ele>
        <time>2022-08-10T06:36:34.152Z</time>
      </trkpt>
      <trkpt lat="43.65548" lon="1.45046">
        <ele>188.442522</ele>
        <time>2022-08-10T06:36:36.125Z</time>
      </trkpt>
      <trkpt lat="43.65556" lon="1.45057">
        <ele>188.422826</ele>
        <time>2022-08-10T06:36:38.128Z</time>
      </trkpt>
      <trkpt lat="43.65562" lon="1.45067">
        <ele>188.405333</ele>
        <time>2022-08-10T06:36:40.136Z</time>
      </trkpt>
      <trkpt lat="43.65568" lon="1.45077">
        <ele>188.389294</ele>
        <time>2022-08-10T06:36:43.134Z</time>
      </trkpt>
      <trkpt lat="43.65577" lon="1.45086">
        <ele>188.370109</ele>
        <time>2022-08-10T06:36:46.127Z</time>
      </trkpt>
      <trkpt lat="43.65586" lon="1.45099">
        <ele>188.344582</ele>
        <time>2022-08-10T06:36:49.127Z</time>
      </trkpt>
      <trkpt lat="43.65593" lon="1.45108">
        <ele>188.324637</ele>
        <time>2022-08-10T06:36:51.130Z</time>
      </trkpt>
      <trkpt lat="43.656" lon="1.45119">
        <ele>188.304053</ele>
        <time>2022-08-10T06:36:53.130Z</time>
      </trkpt>
      <trkpt lat="43.65603" lon="1.45133">
        <ele>188.282886</ele>
        <time>2022-08-10T06:36:55.126Z</time>
      </trkpt>
      <trkpt lat="43.65604" lon="1.45148">
        <ele>188.261162</ele>
        <time>2022-08-10T06:36:57.103Z</time>
      </trkpt>
      <trkpt lat="43.65598" lon="1.4516">
        <ele>188.239045</ele>
        <time>2022-08-10T06:36:59.127Z</time>
      </trkpt>
      <trkpt lat="43.65589" lon="1.45168">
        <ele>188.217871</ele>
        <time>2022-08-10T06:37:01.134Z</time>
      </trkpt>
      <trkpt lat="43.65582" lon="1.45178">
        <ele>188.197223</ele>
        <time>2022-08-10T06:37:03.105Z</time>
      </trkpt>
      <trkpt lat="43.65574" lon="1.45188">
        <ele>188.175807</ele>
        <time>2022-08-10T06:37:05.118Z</time>
      </trkpt>
      <trkpt lat="43.65566" lon="1.45197">
        <ele>188.154178</ele>
        <time>2022-08-10T06:37:07.107Z</time>
      </trkpt>
      <trkpt lat="43.65558" lon="1.45206">
        <ele>188.133067</ele>
        <time>2022-08-10T06:37:09.119Z</time>
      </trkpt>
      <trkpt lat="43.65549" lon="1.45215">
        <ele>188.111956</ele>
        <time>2022-08-10T06:37:11.118Z</time>
      </trkpt>
      <trkpt lat="43.65541" lon="1.45224">
        <ele>188.090302</ele>
        <time>2022-08-10T06:37:13.125Z</time>
      </trkpt>
      <trkpt lat="43.65533" lon="1.45233">
        <ele>188.069331</ele>
        <time>2022-08-10T06:37:15.122Z</time>
      </trkpt>
      <trkpt lat="43.65525" lon="1.45242">
        <ele>188.04824</ele>
        <time>2022-08-10T06:37:17.132Z</time>
      </trkpt>
      <trkpt lat="43.65516" lon="1.45251">
        <ele>188.026201</ele>
        <time>2022-08-10T06:37:19.122Z</time>
      </trkpt>
      <trkpt lat="43.65508" lon="1.4526">
        <ele>188.004774</ele>
        <time>2022-08-10T06:37:21.126Z</time>
      </trkpt>
      <trkpt lat="43.655" lon="1.45269">
        <ele>187.997066</ele>
        <time>2022-08-10T06:37:23.119Z</time>
      </trkpt>
      <trkpt lat="43.65491" lon="1.45277">
        <ele>188.000054</ele>
        <time>2022-08-10T06:37:25.119Z</time>
      </trkpt>
      <trkpt lat="43.65484" lon="1.45285">
        <ele>188.002872</ele>
        <time>2022-08-10T06:37:27.126Z</time>
      </trkpt>
      <trkpt lat="43.65476" lon="1.45294">
        <ele>188.005847</ele>
        <time>2022-08-10T06:37:29.098Z</time>
      </trkpt>
      <trkpt lat="43.65468" lon="1.45302">
        <ele>188.008726</ele>
        <time>2022-08-10T06:37:31.130Z</time>
      </trkpt>
      <trkpt lat="43.6546" lon="1.45312">
        <ele>188.011677</ele>
        <time>2022-08-10T06:37:33.110Z</time>
      </trkpt>
      <trkpt lat="43.65452" lon="1.45322">
        <ele>188.014699</ele>
        <time>2022-08-10T06:37:35.138Z</time>
      </trkpt>
      <trkpt lat="43.65446" lon="1.45331">
        <ele>188.017474</ele>
        <time>2022-08-10T06:37:37.133Z</time>
      </trkpt>
      <trkpt lat="43.65443" lon="1.45343">
        <ele>188.020151</ele>
        <time>2022-08-10T06:37:39.113Z</time>
      </trkpt>
      <trkpt lat="43.6544" lon="1.45355">
        <ele>188.02282</ele>
        <time>2022-08-10T06:37:41.121Z</time>
      </trkpt>
      <trkpt lat="43.65444" lon="1.45367">
        <ele>188.025466</ele>
        <time>2022-08-10T06:37:43.134Z</time>
      </trkpt>
      <trkpt lat="43.65452" lon="1.45372">
        <ele>188.028145</ele>
        <time>2022-08-10T06:37:45.124Z</time>
      </trkpt>
      <trkpt lat="43.65463" lon="1.45375">
        <ele>188.031255</ele>
        <time>2022-08-10T06:37:47.125Z</time>
      </trkpt>
      <trkpt lat="43.65473" lon="1.45379">
        <ele>188.034445</ele>
        <time>2022-08-10T06:37:49.122Z</time>
      </trkpt>
      <trkpt lat="43.65484" lon="1.45382">
        <ele>188.037714</ele>
        <time>2022-08-10T06:37:51.115Z</time>
      </trkpt>
      <trkpt lat="43.65495" lon="1.45386">
        <ele>188.041003</ele>
        <time>2022-08-10T06:37:53.115Z</time>
      </trkpt>
      <trkpt lat="43.65506" lon="1.4539">
        <ele>188.044254</ele>
        <time>2022-08-10T06:37:55.121Z</time>
      </trkpt>
      <trkpt lat="43.65517" lon="1.45393">
        <ele>188.047402</ele>
        <time>2022-08-10T06:37:57.127Z</time>
      </trkpt>
      <trkpt lat="43.65527" lon="1.45397">
        <ele>188.083325</ele>
        <time>2022-08-10T06:37:59.144Z</time>
      </trkpt>
      <trkpt lat="43.65537" lon="1.45401">
        <ele>188.121644</ele>
        <time>2022-08-10T06:38:01.144Z</time>
      </trkpt>
      <trkpt lat="43.65548" lon="1.45404">
        <ele>188.160248</ele>
        <time>2022-08-10T06:38:03.148Z</time>
      </trkpt>
      <trkpt lat="43.65558" lon="1.45408">
        <ele>188.199387</ele>
        <time>2022-08-10T06:38:05.125Z</time>
      </trkpt>
      <trkpt lat="43.65569" lon="1.45411">
        <ele>188.238628</ele>
        <time>2022-08-10T06:38:07.125Z</time>
      </trkpt>
      <trkpt lat="43.6558" lon="1.45415">
        <ele>188.278113</ele>
        <time>2022-08-10T06:38:09.144Z</time>
      </trkpt>
      <trkpt lat="43.65591" lon="1.45419">
        <ele>188.318229</ele>
        <time>2022-08-10T06:38:11.137Z</time>
      </trkpt>
      <trkpt lat="43.65601" lon="1.45423">
        <ele>188.35778</ele>
        <time>2022-08-10T06:38:13.133Z</time>
      </trkpt>
      <trkpt lat="43.65612" lon="1.45426">
        <ele>188.397139</ele>
        <time>2022-08-10T06:38:15.133Z</time>
      </trkpt>
      <trkpt lat="43.65623" lon="1.45431">
        <ele>188.437267</ele>
        <time>2022-08-10T06:38:17.126Z</time>
      </trkpt>
      <trkpt lat="43.65633" lon="1.45436">
        <ele>188.47722</ele>
        <time>2022-08-10T06:38:19.110Z</time>
      </trkpt>
      <trkpt lat="43.65644" lon="1.45441">
        <ele>188.516703</ele>
        <time>2022-08-10T06:38:21.123Z</time>
      </trkpt>
      <trkpt lat="43.65654" lon="1.45445">
        <ele>188.554971</ele>
        <time>2022-08-10T06:38:23.119Z</time>
      </trkpt>
      <trkpt lat="43.65665" lon="1.45449">
        <ele>188.593696</ele>
        <time>2022-08-10T06:38:25.163Z</time>
      </trkpt>
      <trkpt lat="43.65675" lon="1.45454">
        <ele>188.632152</ele>
        <time>2022-08-10T06:38:27.132Z</time>
      </trkpt>
      <trkpt lat="43.65685" lon="1.45458">
        <ele>188.671026</ele>
        <time>2022-08-10T06:38:29.130Z</time>
      </trkpt>
      <trkpt lat="43.65696" lon="1.45462">
        <ele>188.726952</ele>
        <time>2022-08-10T06:38:31.119Z</time>
      </trkpt>
      <trkpt lat="43.65706" lon="1.45466">
        <ele>188.799991</ele>
        <time>2022-08-10T06:38:33.096Z</time>
      </trkpt>
      <trkpt lat="43.65716" lon="1.4547">
        <ele>188.871433</ele>
        <time>2022-08-10T06:38:35.137Z</time>
      </trkpt>
      <trkpt lat="43.65725" lon="1.45474">
        <ele>188.938914</ele>
        <time>2022-08-10T06:38:37.145Z</time>
      </trkpt>
      <trkpt lat="43.65734" lon="1.45477">
        <ele>189.002134</ele>
        <time>2022-08-10T06:38:39.145Z</time>
      </trkpt>
      <trkpt lat="43.65743" lon="1.45476">
        <ele>189.0648</ele>
        <time>2022-08-10T06:38:41.122Z</time>
      </trkpt>
      <trkpt lat="43.65753" lon="1.45479">
        <ele>189.132555</ele>
        <time>2022-08-10T06:38:43.146Z</time>
      </trkpt>
      <trkpt lat="43.65762" lon="1.45482">
        <ele>189.199558</ele>
        <time>2022-08-10T06:38:45.133Z</time>
      </trkpt>
      <trkpt lat="43.65772" lon="1.45484">
        <ele>189.269261</ele>
        <time>2022-08-10T06:38:47.133Z</time>
      </trkpt>
      <trkpt lat="43.65783" lon="1.45486">
        <ele>189.340577</ele>
        <time>2022-08-10T06:38:49.154Z</time>
      </trkpt>
      <trkpt lat="43.65793" lon="1.4549">
        <ele>189.412019</ele>
        <time>2022-08-10T06:38:51.135Z</time>
      </trkpt>
      <trkpt lat="43.65803" lon="1.45496">
        <ele>189.488878</ele>
        <time>2022-08-10T06:38:53.118Z</time>
      </trkpt>
      <trkpt lat="43.65814" lon="1.45494">
        <ele>189.566297</ele>
        <time>2022-08-10T06:38:55.143Z</time>
      </trkpt>
      <trkpt lat="43.65826" lon="1.4549">
        <ele>189.647046</ele>
        <time>2022-08-10T06:38:57.129Z</time>
      </trkpt>
      <trkpt lat="43.65837" lon="1.45486">
        <ele>189.725254</ele>
        <time>2022-08-10T06:38:59.137Z</time>
      </trkpt>
      <trkpt lat="43.65847" lon="1.45483">
        <ele>189.800634</ele>
        <time>2022-08-10T06:39:01.140Z</time>
      </trkpt>
      <trkpt lat="43.65858" lon="1.4548">
        <ele>189.874563</ele>
        <time>2022-08-10T06:39:03.133Z</time>
      </trkpt>
      <trkpt lat="43.65869" lon="1.45477">
        <ele>189.882504</ele>
        <time>2022-08-10T06:39:05.137Z</time>
      </trkpt>
      <trkpt lat="43.65879" lon="1.45476">
        <ele>189.734456</ele>
        <time>2022-08-10T06:39:07.109Z</time>
      </trkpt>
      <trkpt lat="43.65889" lon="1.45474">
        <ele>189.587936</ele>
        <time>2022-08-10T06:39:09.108Z</time>
      </trkpt>
      <trkpt lat="43.65899" lon="1.45473">
        <ele>189.441415</ele>
        <time>2022-08-10T06:39:11.122Z</time>
      </trkpt>
      <trkpt lat="43.65909" lon="1.45471">
        <ele>189.299053</ele>
        <time>2022-08-10T06:39:13.135Z</time>
      </trkpt>
      <trkpt lat="43.6592" lon="1.45471">
        <ele>189.137443</ele>
        <time>2022-08-10T06:39:16.143Z</time>
      </trkpt>
      <trkpt lat="43.65924" lon="1.45485">
        <ele>188.977464</ele>
        <time>2022-08-10T06:39:20.122Z</time>
      </trkpt>
      <trkpt lat="43.6593" lon="1.45498">
        <ele>188.819637</ele>
        <time>2022-08-10T06:39:23.152Z</time>
      </trkpt>
      <trkpt lat="43.6594" lon="1.4551">
        <ele>188.641266</ele>
        <time>2022-08-10T06:39:26.140Z</time>
      </trkpt>
      <trkpt lat="43.6595" lon="1.45518">
        <ele>188.465877</ele>
        <time>2022-08-10T06:39:29.125Z</time>
      </trkpt>
      <trkpt lat="43.65962" lon="1.45518">
        <ele>188.291473</ele>
        <time>2022-08-10T06:39:32.133Z</time>
      </trkpt>
      <trkpt lat="43.65973" lon="1.45508">
        <ele>188.104498</ele>
        <time>2022-08-10T06:39:35.118Z</time>
      </trkpt>
      <trkpt lat="43.65982" lon="1.45501">
        <ele>187.964113</ele>
        <time>2022-08-10T06:39:37.139Z</time>
      </trkpt>
      <trkpt lat="43.65993" lon="1.45498">
        <ele>187.806001</ele>
        <time>2022-08-10T06:39:39.118Z</time>
      </trkpt>
      <trkpt lat="43.66005" lon="1.45501">
        <ele>187.629548</ele>
        <time>2022-08-10T06:39:41.137Z</time>
      </trkpt>
      <trkpt lat="43.66018" lon="1.45507">
        <ele>187.43632</ele>
        <time>2022-08-10T06:39:43.132Z</time>
      </trkpt>
      <trkpt lat="43.6603" lon="1.45517">
        <ele>187.315348</ele>
        <time>2022-08-10T06:39:45.134Z</time>
      </trkpt>
      <trkpt lat="43.66043" lon="1.45528">
        <ele>187.246769</ele>
        <time>2022-08-10T06:39:47.134Z</time>
      </trkpt>
      <trkpt lat="43.66055" lon="1.45536">
        <ele>187.181595</ele>
        <time>2022-08-10T06:39:49.126Z</time>
      </trkpt>
      <trkpt lat="43.66068" lon="1.45544">
        <ele>187.118248</ele>
        <time>2022-08-10T06:39:51.120Z</time>
      </trkpt>
      <trkpt lat="43.66081" lon="1.45549">
        <ele>187.057435</ele>
        <time>2022-08-10T06:39:53.123Z</time>
      </trkpt>
      <trkpt lat="43.66093" lon="1.45554">
        <ele>186.998047</ele>
        <time>2022-08-10T06:39:55.154Z</time>
      </trkpt>
      <trkpt lat="43.66105" lon="1.45561">
        <ele>186.939038</ele>
        <time>2022-08-10T06:39:57.153Z</time>
      </trkpt>
      <trkpt lat="43.66117" lon="1.45562">
        <ele>186.882033</ele>
        <time>2022-08-10T06:39:59.109Z</time>
      </trkpt>
      <trkpt lat="43.66126" lon="1.45555">
        <ele>186.834629</ele>
        <time>2022-08-10T06:40:01.127Z</time>
      </trkpt>
      <trkpt lat="43.66138" lon="1.45563">
        <ele>186.77282</ele>
        <time>2022-08-10T06:40:04.150Z</time>
      </trkpt>
      <trkpt lat="43.66146" lon="1.45571">
        <ele>186.728549</ele>
        <time>2022-08-10T06:40:06.126Z</time>
      </trkpt>
      <trkpt lat="43.66153" lon="1.45578">
        <ele>186.686551</ele>
        <time>2022-08-10T06:40:08.136Z</time>
      </trkpt>
      <trkpt lat="43.66164" lon="1.45588">
        <ele>186.627652</ele>
        <time>2022-08-10T06:40:11.141Z</time>
      </trkpt>
      <trkpt lat="43.66173" lon="1.45601">
        <ele>186.564546</ele>
        <time>2022-08-10T06:40:14.163Z</time>
      </trkpt>
      <trkpt lat="43.66181" lon="1.45613">
        <ele>186.510636</ele>
        <time>2022-08-10T06:40:16.135Z</time>
      </trkpt>
      <trkpt lat="43.6619" lon="1.45623">
        <ele>186.457551</ele>
        <time>2022-08-10T06:40:18.138Z</time>
      </trkpt>
      <trkpt lat="43.662" lon="1.45631">
        <ele>186.404871</ele>
        <time>2022-08-10T06:40:20.134Z</time>
      </trkpt>
      <trkpt lat="43.66211" lon="1.45626">
        <ele>186.354657</ele>
        <time>2022-08-10T06:40:22.118Z</time>
      </trkpt>
      <trkpt lat="43.66216" lon="1.45612">
        <ele>186.303191</ele>
        <time>2022-08-10T06:40:24.147Z</time>
      </trkpt>
      <trkpt lat="43.6622" lon="1.45596">
        <ele>186.247077</ele>
        <time>2022-08-10T06:40:26.095Z</time>
      </trkpt>
      <trkpt lat="43.66225" lon="1.45581">
        <ele>186.191155</ele>
        <time>2022-08-10T06:40:28.095Z</time>
      </trkpt>
      <trkpt lat="43.66229" lon="1.45565">
        <ele>186.136639</ele>
        <time>2022-08-10T06:40:30.079Z</time>
      </trkpt>
      <trkpt lat="43.66233" lon="1.4555">
        <ele>186.082845</ele>
        <time>2022-08-10T06:40:32.116Z</time>
      </trkpt>
      <trkpt lat="43.66238" lon="1.45535">
        <ele>186.027651</ele>
        <time>2022-08-10T06:40:34.111Z</time>
      </trkpt>
      <trkpt lat="43.66242" lon="1.45518">
        <ele>185.969396</ele>
        <time>2022-08-10T06:40:36.116Z</time>
      </trkpt>
      <trkpt lat="43.66246" lon="1.45501">
        <ele>185.910491</ele>
        <time>2022-08-10T06:40:38.126Z</time>
      </trkpt>
      <trkpt lat="43.66252" lon="1.45485">
        <ele>185.852196</ele>
        <time>2022-08-10T06:40:40.129Z</time>
      </trkpt>
      <trkpt lat="43.66256" lon="1.4547">
        <ele>185.795427</ele>
        <time>2022-08-10T06:40:42.121Z</time>
      </trkpt>
      <trkpt lat="43.66261" lon="1.45454">
        <ele>185.738723</ele>
        <time>2022-08-10T06:40:44.137Z</time>
      </trkpt>
      <trkpt lat="43.66264" lon="1.45438">
        <ele>185.695501</ele>
        <time>2022-08-10T06:40:46.107Z</time>
      </trkpt>
      <trkpt lat="43.66268" lon="1.45421">
        <ele>185.675046</ele>
        <time>2022-08-10T06:40:48.122Z</time>
      </trkpt>
      <trkpt lat="43.66273" lon="1.45404">
        <ele>185.654968</ele>
        <time>2022-08-10T06:40:50.124Z</time>
      </trkpt>
      <trkpt lat="43.66278" lon="1.45388">
        <ele>185.635268</ele>
        <time>2022-08-10T06:40:52.132Z</time>
      </trkpt>
      <trkpt lat="43.66283" lon="1.45373">
        <ele>185.616166</ele>
        <time>2022-08-10T06:40:54.111Z</time>
      </trkpt>
      <trkpt lat="43.66289" lon="1.45359">
        <ele>185.597283</ele>
        <time>2022-08-10T06:40:56.113Z</time>
      </trkpt>
      <trkpt lat="43.66294" lon="1.45344">
        <ele>185.578592</ele>
        <time>2022-08-10T06:40:58.110Z</time>
      </trkpt>
      <trkpt lat="43.663" lon="1.45331">
        <ele>185.560822</ele>
        <time>2022-08-10T06:41:00.126Z</time>
      </trkpt>
      <trkpt lat="43.66306" lon="1.45318">
        <ele>185.543248</ele>
        <time>2022-08-10T06:41:02.123Z</time>
      </trkpt>
      <trkpt lat="43.66312" lon="1.45305">
        <ele>185.525161</ele>
        <time>2022-08-10T06:41:04.136Z</time>
      </trkpt>
      <trkpt lat="43.66319" lon="1.45292">
        <ele>185.506804</ele>
        <time>2022-08-10T06:41:06.100Z</time>
      </trkpt>
      <trkpt lat="43.66325" lon="1.45278">
        <ele>185.488421</ele>
        <time>2022-08-10T06:41:08.119Z</time>
      </trkpt>
      <trkpt lat="43.66331" lon="1.45265">
        <ele>185.470326</ele>
        <time>2022-08-10T06:41:10.107Z</time>
      </trkpt>
      <trkpt lat="43.66337" lon="1.45252">
        <ele>185.452932</ele>
        <time>2022-08-10T06:41:12.116Z</time>
      </trkpt>
      <trkpt lat="43.66344" lon="1.45239">
        <ele>185.434298</ele>
        <time>2022-08-10T06:41:14.102Z</time>
      </trkpt>
      <trkpt lat="43.6635" lon="1.45221">
        <ele>185.418876</ele>
        <time>2022-08-10T06:41:16.114Z</time>
      </trkpt>
      <trkpt lat="43.66353" lon="1.45206">
        <ele>185.424182</ele>
        <time>2022-08-10T06:41:18.102Z</time>
      </trkpt>
      <trkpt lat="43.66358" lon="1.45193">
        <ele>185.429612</ele>
        <time>2022-08-10T06:41:20.131Z</time>
      </trkpt>
      <trkpt lat="43.66363" lon="1.45177">
        <ele>185.435618</ele>
        <time>2022-08-10T06:41:22.121Z</time>
      </trkpt>
      <trkpt lat="43.6636" lon="1.45162">
        <ele>185.441179</ele>
        <time>2022-08-10T06:41:25.127Z</time>
      </trkpt>
      <trkpt lat="43.66361" lon="1.45146">
        <ele>185.446804</ele>
        <time>2022-08-10T06:41:28.105Z</time>
      </trkpt>
      <trkpt lat="43.6636" lon="1.45132">
        <ele>185.451688</ele>
        <time>2022-08-10T06:41:30.117Z</time>
      </trkpt>
      <trkpt lat="43.66366" lon="1.45119">
        <ele>185.456852</ele>
        <time>2022-08-10T06:41:32.121Z</time>
      </trkpt>
      <trkpt lat="43.66374" lon="1.45108">
        <ele>185.462411</ele>
        <time>2022-08-10T06:41:34.124Z</time>
      </trkpt>
      <trkpt lat="43.66381" lon="1.45096">
        <ele>185.467966</ele>
        <time>2022-08-10T06:41:36.125Z</time>
      </trkpt>
      <trkpt lat="43.66387" lon="1.45081">
        <ele>185.473998</ele>
        <time>2022-08-10T06:41:38.117Z</time>
      </trkpt>
      <trkpt lat="43.66391" lon="1.45065">
        <ele>185.479861</ele>
        <time>2022-08-10T06:41:40.120Z</time>
      </trkpt>
      <trkpt lat="43.66394" lon="1.45049">
        <ele>185.485764</ele>
        <time>2022-08-10T06:41:42.125Z</time>
      </trkpt>
      <trkpt lat="43.66395" lon="1.45032">
        <ele>185.491704</ele>
        <time>2022-08-10T06:41:44.132Z</time>
      </trkpt>
      <trkpt lat="43.66397" lon="1.45016">
        <ele>185.497632</ele>
        <time>2022-08-10T06:41:46.127Z</time>
      </trkpt>
      <trkpt lat="43.66407" lon="1.45005">
        <ele>185.503706</ele>
        <time>2022-08-10T06:41:48.128Z</time>
      </trkpt>
      <trkpt lat="43.66414" lon="1.44991">
        <ele>185.523526</ele>
        <time>2022-08-10T06:41:50.118Z</time>
      </trkpt>
      <trkpt lat="43.66418" lon="1.44975">
        <ele>185.545052</ele>
        <time>2022-08-10T06:41:52.130Z</time>
      </trkpt>
      <trkpt lat="43.66423" lon="1.4496">
        <ele>185.566764</ele>
        <time>2022-08-10T06:41:54.127Z</time>
      </trkpt>
      <trkpt lat="43.66428" lon="1.44945">
        <ele>185.588305</ele>
        <time>2022-08-10T06:41:56.119Z</time>
      </trkpt>
      <trkpt lat="43.66432" lon="1.4493">
        <ele>185.608858</ele>
        <time>2022-08-10T06:41:58.118Z</time>
      </trkpt>
      <trkpt lat="43.66436" lon="1.44915">
        <ele>185.628746</ele>
        <time>2022-08-10T06:42:00.100Z</time>
      </trkpt>
      <trkpt lat="43.66443" lon="1.44903">
        <ele>185.648555</ele>
        <time>2022-08-10T06:42:02.126Z</time>
      </trkpt>
      <trkpt lat="43.66449" lon="1.44889">
        <ele>185.669235</ele>
        <time>2022-08-10T06:42:04.149Z</time>
      </trkpt>
      <trkpt lat="43.66452" lon="1.44874">
        <ele>185.689797</ele>
        <time>2022-08-10T06:42:06.126Z</time>
      </trkpt>
      <trkpt lat="43.66455" lon="1.44859">
        <ele>185.709714</ele>
        <time>2022-08-10T06:42:08.119Z</time>
      </trkpt>
      <trkpt lat="43.66459" lon="1.44844">
        <ele>185.729692</ele>
        <time>2022-08-10T06:42:10.114Z</time>
      </trkpt>
      <trkpt lat="43.66465" lon="1.4483">
        <ele>185.749845</ele>
        <time>2022-08-10T06:42:12.117Z</time>
      </trkpt>
      <trkpt lat="43.66469" lon="1.44816">
        <ele>185.770071</ele>
        <time>2022-08-10T06:42:14.156Z</time>
      </trkpt>
      <trkpt lat="43.66475" lon="1.44802">
        <ele>185.790501</ele>
        <time>2022-08-10T06:42:16.119Z</time>
      </trkpt>
      <trkpt lat="43.66482" lon="1.44789">
        <ele>185.810924</ele>
        <time>2022-08-10T06:42:18.100Z</time>
      </trkpt>
      <trkpt lat="43.66488" lon="1.44776">
        <ele>185.802933</ele>
        <time>2022-08-10T06:42:20.133Z</time>
      </trkpt>
      <trkpt lat="43.66493" lon="1.44761">
        <ele>185.743778</ele>
        <time>2022-08-10T06:42:22.102Z</time>
      </trkpt>
      <trkpt lat="43.66499" lon="1.44747">
        <ele>185.683822</ele>
        <time>2022-08-10T06:42:24.110Z</time>
      </trkpt>
      <trkpt lat="43.66504" lon="1.44732">
        <ele>185.623603</ele>
        <time>2022-08-10T06:42:26.127Z</time>
      </trkpt>
      <trkpt lat="43.66509" lon="1.44717">
        <ele>185.564485</ele>
        <time>2022-08-10T06:42:28.102Z</time>
      </trkpt>
      <trkpt lat="43.66518" lon="1.4471">
        <ele>185.511472</ele>
        <time>2022-08-10T06:42:31.115Z</time>
      </trkpt>
      <trkpt lat="43.6653" lon="1.44717">
        <ele>185.444776</ele>
        <time>2022-08-10T06:42:34.114Z</time>
      </trkpt>
      <trkpt lat="43.6654" lon="1.44723">
        <ele>185.392643</ele>
        <time>2022-08-10T06:42:36.126Z</time>
      </trkpt>
      <trkpt lat="43.66551" lon="1.44731">
        <ele>185.329772</ele>
        <time>2022-08-10T06:42:39.118Z</time>
      </trkpt>
      <trkpt lat="43.66559" lon="1.44739">
        <ele>185.278885</ele>
        <time>2022-08-10T06:42:41.116Z</time>
      </trkpt>
      <trkpt lat="43.66568" lon="1.4475">
        <ele>185.21774</ele>
        <time>2022-08-10T06:42:43.129Z</time>
      </trkpt>
      <trkpt lat="43.66576" lon="1.44763">
        <ele>185.154346</ele>
        <time>2022-08-10T06:42:45.128Z</time>
      </trkpt>
      <trkpt lat="43.66584" lon="1.44775">
        <ele>185.09493</ele>
        <time>2022-08-10T06:42:47.125Z</time>
      </trkpt>
      <trkpt lat="43.66592" lon="1.44785">
        <ele>185.041082</ele>
        <time>2022-08-10T06:42:49.125Z</time>
      </trkpt>
      <trkpt lat="43.666" lon="1.44797">
        <ele>184.980353</ele>
        <time>2022-08-10T06:42:51.128Z</time>
      </trkpt>
      <trkpt lat="43.66608" lon="1.44811">
        <ele>184.918196</ele>
        <time>2022-08-10T06:42:53.124Z</time>
      </trkpt>
      <trkpt lat="43.66616" lon="1.44823">
        <ele>184.875621</ele>
        <time>2022-08-10T06:42:55.122Z</time>
      </trkpt>
      <trkpt lat="43.66624" lon="1.44835">
        <ele>184.83562</ele>
        <time>2022-08-10T06:42:57.122Z</time>
      </trkpt>
      <trkpt lat="43.66632" lon="1.44847">
        <ele>184.795482</ele>
        <time>2022-08-10T06:42:59.118Z</time>
      </trkpt>
      <trkpt lat="43.66642" lon="1.44855">
        <ele>184.756322</ele>
        <time>2022-08-10T06:43:01.123Z</time>
      </trkpt>
      <trkpt lat="43.66653" lon="1.44858">
        <ele>184.717706</ele>
        <time>2022-08-10T06:43:03.118Z</time>
      </trkpt>
      <trkpt lat="43.66664" lon="1.44859">
        <ele>184.679293</ele>
        <time>2022-08-10T06:43:05.112Z</time>
      </trkpt>
      <trkpt lat="43.66675" lon="1.44858">
        <ele>184.639887</ele>
        <time>2022-08-10T06:43:07.103Z</time>
      </trkpt>
      <trkpt lat="43.66687" lon="1.44856">
        <ele>184.598885</ele>
        <time>2022-08-10T06:43:09.117Z</time>
      </trkpt>
      <trkpt lat="43.66699" lon="1.4485">
        <ele>184.557733</ele>
        <time>2022-08-10T06:43:11.117Z</time>
      </trkpt>
      <trkpt lat="43.66709" lon="1.44841">
        <ele>184.516988</ele>
        <time>2022-08-10T06:43:13.099Z</time>
      </trkpt>
      <trkpt lat="43.66719" lon="1.44832">
        <ele>184.475331</ele>
        <time>2022-08-10T06:43:15.125Z</time>
      </trkpt>
      <trkpt lat="43.6673" lon="1.44823">
        <ele>184.43102</ele>
        <time>2022-08-10T06:43:17.112Z</time>
      </trkpt>
      <trkpt lat="43.66742" lon="1.44819">
        <ele>184.388181</ele>
        <time>2022-08-10T06:43:19.131Z</time>
      </trkpt>
      <trkpt lat="43.66753" lon="1.44827">
        <ele>184.347249</ele>
        <time>2022-08-10T06:43:21.131Z</time>
      </trkpt>
      <trkpt lat="43.66757" lon="1.44842">
        <ele>184.306752</ele>
        <time>2022-08-10T06:43:23.112Z</time>
      </trkpt>
      <trkpt lat="43.66758" lon="1.44858">
        <ele>184.269023</ele>
        <time>2022-08-10T06:43:25.115Z</time>
      </trkpt>
      <trkpt lat="43.66763" lon="1.44873">
        <ele>184.232339</ele>
        <time>2022-08-10T06:43:27.119Z</time>
      </trkpt>
      <trkpt lat="43.66771" lon="1.44884">
        <ele>184.196114</ele>
        <time>2022-08-10T06:43:29.117Z</time>
      </trkpt>
      <trkpt lat="43.66781" lon="1.44893">
        <ele>184.159769</ele>
        <time>2022-08-10T06:43:31.125Z</time>
      </trkpt>
      <trkpt lat="43.66791" lon="1.44901">
        <ele>184.121964</ele>
        <time>2022-08-10T06:43:33.130Z</time>
      </trkpt>
      <trkpt lat="43.66802" lon="1.44908">
        <ele>184.084525</ele>
        <time>2022-08-10T06:43:35.114Z</time>
      </trkpt>
      <trkpt lat="43.66813" lon="1.44913">
        <ele>184.047971</ele>
        <time>2022-08-10T06:43:37.129Z</time>
      </trkpt>
      <trkpt lat="43.66824" lon="1.44917">
        <ele>184.011599</ele>
        <time>2022-08-10T06:43:39.130Z</time>
      </trkpt>
      <trkpt lat="43.66836" lon="1.44921">
        <ele>183.975022</ele>
        <time>2022-08-10T06:43:41.107Z</time>
      </trkpt>
      <trkpt lat="43.66847" lon="1.44924">
        <ele>183.938884</ele>
        <time>2022-08-10T06:43:43.153Z</time>
      </trkpt>
      <trkpt lat="43.66858" lon="1.44927">
        <ele>183.904816</ele>
        <time>2022-08-10T06:43:45.097Z</time>
      </trkpt>
      <trkpt lat="43.66869" lon="1.4493">
        <ele>183.868636</ele>
        <time>2022-08-10T06:43:47.109Z</time>
      </trkpt>
      <trkpt lat="43.6688" lon="1.44932">
        <ele>183.831958</ele>
        <time>2022-08-10T06:43:49.132Z</time>
      </trkpt>
      <trkpt lat="43.66892" lon="1.44935">
        <ele>183.795628</ele>
        <time>2022-08-10T06:43:51.138Z</time>
      </trkpt>
      <trkpt lat="43.66903" lon="1.44938">
        <ele>183.759221</ele>
        <time>2022-08-10T06:43:53.127Z</time>
      </trkpt>
      <trkpt lat="43.66915" lon="1.44942">
        <ele>183.734047</ele>
        <time>2022-08-10T06:43:55.104Z</time>
      </trkpt>
      <trkpt lat="43.66924" lon="1.4495">
        <ele>183.731059</ele>
        <time>2022-08-10T06:43:57.134Z</time>
      </trkpt>
      <trkpt lat="43.66932" lon="1.44962">
        <ele>183.728052</ele>
        <time>2022-08-10T06:43:59.116Z</time>
      </trkpt>
      <trkpt lat="43.66937" lon="1.44977">
        <ele>183.725079</ele>
        <time>2022-08-10T06:44:01.144Z</time>
      </trkpt>
      <trkpt lat="43.66942" lon="1.44991">
        <ele>183.722079</ele>
        <time>2022-08-10T06:44:03.134Z</time>
      </trkpt>
      <trkpt lat="43.66948" lon="1.45005">
        <ele>183.719104</ele>
        <time>2022-08-10T06:44:05.147Z</time>
      </trkpt>
      <trkpt lat="43.66953" lon="1.45019">
        <ele>183.716118</ele>
        <time>2022-08-10T06:44:07.122Z</time>
      </trkpt>
      <trkpt lat="43.66959" lon="1.45033">
        <ele>183.713102</ele>
        <time>2022-08-10T06:44:09.147Z</time>
      </trkpt>
      <trkpt lat="43.66965" lon="1.45047">
        <ele>183.710051</ele>
        <time>2022-08-10T06:44:11.133Z</time>
      </trkpt>
      <trkpt lat="43.66971" lon="1.4506">
        <ele>183.707012</ele>
        <time>2022-08-10T06:44:13.125Z</time>
      </trkpt>
      <trkpt lat="43.66979" lon="1.45073">
        <ele>183.703927</ele>
        <time>2022-08-10T06:44:15.122Z</time>
      </trkpt>
      <trkpt lat="43.66986" lon="1.45086">
        <ele>183.700811</ele>
        <time>2022-08-10T06:44:17.133Z</time>
      </trkpt>
      <trkpt lat="43.66993" lon="1.451">
        <ele>183.697711</ele>
        <time>2022-08-10T06:44:19.136Z</time>
      </trkpt>
      <trkpt lat="43.67" lon="1.45113">
        <ele>183.694779</ele>
        <time>2022-08-10T06:44:21.129Z</time>
      </trkpt>
      <trkpt lat="43.67007" lon="1.45126">
        <ele>183.691634</ele>
        <time>2022-08-10T06:44:23.135Z</time>
      </trkpt>
      <trkpt lat="43.67012" lon="1.45141">
        <ele>183.688482</ele>
        <time>2022-08-10T06:44:25.127Z</time>
      </trkpt>
      <trkpt lat="43.67017" lon="1.45157">
        <ele>183.795635</ele>
        <time>2022-08-10T06:44:27.134Z</time>
      </trkpt>
      <trkpt lat="43.67031" lon="1.45158">
        <ele>183.912446</ele>
        <time>2022-08-10T06:44:30.144Z</time>
      </trkpt>
      <trkpt lat="43.67042" lon="1.4515">
        <ele>184.024269</ele>
        <time>2022-08-10T06:44:32.134Z</time>
      </trkpt>
      <trkpt lat="43.67053" lon="1.45142">
        <ele>184.131116</ele>
        <time>2022-08-10T06:44:34.165Z</time>
      </trkpt>
      <trkpt lat="43.67065" lon="1.45139">
        <ele>184.233698</ele>
        <time>2022-08-10T06:44:36.151Z</time>
      </trkpt>
      <trkpt lat="43.67073" lon="1.45149">
        <ele>184.328433</ele>
        <time>2022-08-10T06:44:38.111Z</time>
      </trkpt>
      <trkpt lat="43.67081" lon="1.45159">
        <ele>184.421583</ele>
        <time>2022-08-10T06:44:40.166Z</time>
      </trkpt>
      <trkpt lat="43.67091" lon="1.45159">
        <ele>184.508653</ele>
        <time>2022-08-10T06:44:42.151Z</time>
      </trkpt>
      <trkpt lat="43.67101" lon="1.45154">
        <ele>184.601566</ele>
        <time>2022-08-10T06:44:44.157Z</time>
      </trkpt>
      <trkpt lat="43.67112" lon="1.45149">
        <ele>184.696872</ele>
        <time>2022-08-10T06:44:46.147Z</time>
      </trkpt>
      <trkpt lat="43.67121" lon="1.45143">
        <ele>184.790336</ele>
        <time>2022-08-10T06:44:48.125Z</time>
      </trkpt>
      <trkpt lat="43.67131" lon="1.45137">
        <ele>184.883315</ele>
        <time>2022-08-10T06:44:50.148Z</time>
      </trkpt>
      <trkpt lat="43.67141" lon="1.45134">
        <ele>184.972263</ele>
        <time>2022-08-10T06:44:52.130Z</time>
      </trkpt>
      <trkpt lat="43.67149" lon="1.45143">
        <ele>185.05777</ele>
        <time>2022-08-10T06:44:54.130Z</time>
      </trkpt>
      <trkpt lat="43.67157" lon="1.4515">
        <ele>185.142548</ele>
        <time>2022-08-10T06:44:56.140Z</time>
      </trkpt>
      <trkpt lat="43.67166" lon="1.45146">
        <ele>185.229059</ele>
        <time>2022-08-10T06:44:58.120Z</time>
      </trkpt>
      <trkpt lat="43.67176" lon="1.45139">
        <ele>185.320368</ele>
        <time>2022-08-10T06:45:00.106Z</time>
      </trkpt>
      <trkpt lat="43.67187" lon="1.45133">
        <ele>185.413495</ele>
        <time>2022-08-10T06:45:02.118Z</time>
      </trkpt>
      <trkpt lat="43.67196" lon="1.45125">
        <ele>185.50152</ele>
        <time>2022-08-10T06:45:04.111Z</time>
      </trkpt>
      <trkpt lat="43.67205" lon="1.4512">
        <ele>185.582292</ele>
        <time>2022-08-10T06:45:06.116Z</time>
      </trkpt>
      <trkpt lat="43.67215" lon="1.45129">
        <ele>185.677575</ele>
        <time>2022-08-10T06:45:09.106Z</time>
      </trkpt>
      <trkpt lat="43.67218" lon="1.45143">
        <ele>185.762509</ele>
        <time>2022-08-10T06:45:11.114Z</time>
      </trkpt>
      <trkpt lat="43.67222" lon="1.45158">
        <ele>185.856566</ele>
        <time>2022-08-10T06:45:13.113Z</time>
      </trkpt>
      <trkpt lat="43.67225" lon="1.45173">
        <ele>185.950674</ele>
        <time>2022-08-10T06:45:15.103Z</time>
      </trkpt>
      <trkpt lat="43.67229" lon="1.45188">
        <ele>186.043412</ele>
        <time>2022-08-10T06:45:17.123Z</time>
      </trkpt>
      <trkpt lat="43.67232" lon="1.45203">
        <ele>186.13665</ele>
        <time>2022-08-10T06:45:19.116Z</time>
      </trkpt>
      <trkpt lat="43.67236" lon="1.45218">
        <ele>186.229328</ele>
        <time>2022-08-10T06:45:21.129Z</time>
      </trkpt>
      <trkpt lat="43.6724" lon="1.45233">
        <ele>186.32281</ele>
        <time>2022-08-10T06:45:23.131Z</time>
      </trkpt>
      <trkpt lat="43.67244" lon="1.45247">
        <ele>186.413524</ele>
        <time>2022-08-10T06:45:25.118Z</time>
      </trkpt>
      <trkpt lat="43.67248" lon="1.45261">
        <ele>186.501232</ele>
        <time>2022-08-10T06:45:27.109Z</time>
      </trkpt>
      <trkpt lat="43.67254" lon="1.45274">
        <ele>186.593644</ele>
        <time>2022-08-10T06:45:29.120Z</time>
      </trkpt>
      <trkpt lat="43.67261" lon="1.45285">
        <ele>186.681282</ele>
        <time>2022-08-10T06:45:31.135Z</time>
      </trkpt>
      <trkpt lat="43.67265" lon="1.45298">
        <ele>186.728786</ele>
        <time>2022-08-10T06:45:33.109Z</time>
      </trkpt>
      <trkpt lat="43.6727" lon="1.4531">
        <ele>186.746239</ele>
        <time>2022-08-10T06:45:35.143Z</time>
      </trkpt>
      <trkpt lat="43.67282" lon="1.45313">
        <ele>186.768125</ele>
        <time>2022-08-10T06:45:38.115Z</time>
      </trkpt>
      <trkpt lat="43.67292" lon="1.4531">
        <ele>186.785463</ele>
        <time>2022-08-10T06:45:40.114Z</time>
      </trkpt>
      <trkpt lat="43.67302" lon="1.45307">
        <ele>186.804851</ele>
        <time>2022-08-10T06:45:42.117Z</time>
      </trkpt>
      <trkpt lat="43.67313" lon="1.45302">
        <ele>186.825083</ele>
        <time>2022-08-10T06:45:44.134Z</time>
      </trkpt>
      <trkpt lat="43.67325" lon="1.45298">
        <ele>186.845833</ele>
        <time>2022-08-10T06:45:46.127Z</time>
      </trkpt>
      <trkpt lat="43.67336" lon="1.45301">
        <ele>186.866588</ele>
        <time>2022-08-10T06:45:48.106Z</time>
      </trkpt>
      <trkpt lat="43.67348" lon="1.45304">
        <ele>186.887866</ele>
        <time>2022-08-10T06:45:50.120Z</time>
      </trkpt>
      <trkpt lat="43.6736" lon="1.45307">
        <ele>186.908861</ele>
        <time>2022-08-10T06:45:52.107Z</time>
      </trkpt>
      <trkpt lat="43.67371" lon="1.45309">
        <ele>186.929297</ele>
        <time>2022-08-10T06:45:54.120Z</time>
      </trkpt>
      <trkpt lat="43.67383" lon="1.45306">
        <ele>186.949837</ele>
        <time>2022-08-10T06:45:56.114Z</time>
      </trkpt>
      <trkpt lat="43.67394" lon="1.453">
        <ele>186.970655</ele>
        <time>2022-08-10T06:45:58.105Z</time>
      </trkpt>
      <trkpt lat="43.67405" lon="1.45294">
        <ele>186.991489</ele>
        <time>2022-08-10T06:46:00.122Z</time>
      </trkpt>
      <trkpt lat="43.67415" lon="1.45287">
        <ele>187.01184</ele>
        <time>2022-08-10T06:46:02.116Z</time>
      </trkpt>
      <trkpt lat="43.67426" lon="1.45282">
        <ele>187.032313</ele>
        <time>2022-08-10T06:46:04.149Z</time>
      </trkpt>
      <trkpt lat="43.67436" lon="1.45288">
        <ele>187.041782</ele>
        <time>2022-08-10T06:46:06.135Z</time>
      </trkpt>
      <trkpt lat="43.67442" lon="1.45301">
        <ele>187.048635</ele>
        <time>2022-08-10T06:46:08.121Z</time>
      </trkpt>
      <trkpt lat="43.67447" lon="1.45315">
        <ele>187.055418</ele>
        <time>2022-08-10T06:46:10.119Z</time>
      </trkpt>
      <trkpt lat="43.67451" lon="1.45329">
        <ele>187.062281</ele>
        <time>2022-08-10T06:46:12.107Z</time>
      </trkpt>
      <trkpt lat="43.67456" lon="1.45343">
        <ele>187.069129</ele>
        <time>2022-08-10T06:46:14.106Z</time>
      </trkpt>
      <trkpt lat="43.67461" lon="1.45357">
        <ele>187.075858</ele>
        <time>2022-08-10T06:46:16.133Z</time>
      </trkpt>
      <trkpt lat="43.67467" lon="1.4537">
        <ele>187.082604</ele>
        <time>2022-08-10T06:46:18.126Z</time>
      </trkpt>
      <trkpt lat="43.67475" lon="1.4538">
        <ele>187.08934</ele>
        <time>2022-08-10T06:46:20.136Z</time>
      </trkpt>
      <trkpt lat="43.67482" lon="1.4539">
        <ele>187.095793</ele>
        <time>2022-08-10T06:46:22.118Z</time>
      </trkpt>
      <trkpt lat="43.67491" lon="1.45394">
        <ele>187.101316</ele>
        <time>2022-08-10T06:46:24.159Z</time>
      </trkpt>
      <trkpt lat="43.67499" lon="1.45388">
        <ele>187.107425</ele>
        <time>2022-08-10T06:46:26.108Z</time>
      </trkpt>
      <trkpt lat="43.67509" lon="1.45379">
        <ele>187.11444</ele>
        <time>2022-08-10T06:46:28.117Z</time>
      </trkpt>
      <trkpt lat="43.67517" lon="1.45368">
        <ele>187.121658</ele>
        <time>2022-08-10T06:46:30.119Z</time>
      </trkpt>
      <trkpt lat="43.67525" lon="1.45356">
        <ele>187.128793</ele>
        <time>2022-08-10T06:46:32.121Z</time>
      </trkpt>
      <trkpt lat="43.67535" lon="1.45348">
        <ele>187.135925</ele>
        <time>2022-08-10T06:46:34.132Z</time>
      </trkpt>
      <trkpt lat="43.67546" lon="1.45342">
        <ele>187.142968</ele>
        <time>2022-08-10T06:46:36.125Z</time>
      </trkpt>
      <trkpt lat="43.67556" lon="1.45344">
        <ele>187.133617</ele>
        <time>2022-08-10T06:46:38.113Z</time>
      </trkpt>
      <trkpt lat="43.67566" lon="1.45339">
        <ele>187.097249</ele>
        <time>2022-08-10T06:46:41.122Z</time>
      </trkpt>
      <trkpt lat="43.67575" lon="1.45333">
        <ele>187.066338</ele>
        <time>2022-08-10T06:46:43.103Z</time>
      </trkpt>
      <trkpt lat="43.67584" lon="1.45327">
        <ele>187.032401</ele>
        <time>2022-08-10T06:46:45.111Z</time>
      </trkpt>
      <trkpt lat="43.67595" lon="1.45321">
        <ele>186.995588</ele>
        <time>2022-08-10T06:46:47.108Z</time>
      </trkpt>
      <trkpt lat="43.67606" lon="1.45318">
        <ele>186.957345</ele>
        <time>2022-08-10T06:46:49.114Z</time>
      </trkpt>
      <trkpt lat="43.67618" lon="1.45315">
        <ele>186.920672</ele>
        <time>2022-08-10T06:46:51.123Z</time>
      </trkpt>
      <trkpt lat="43.67629" lon="1.45313">
        <ele>186.883069</ele>
        <time>2022-08-10T06:46:53.102Z</time>
      </trkpt>
      <trkpt lat="43.6764" lon="1.45315">
        <ele>186.845956</ele>
        <time>2022-08-10T06:46:55.107Z</time>
      </trkpt>
      <trkpt lat="43.67651" lon="1.45313">
        <ele>186.812941</ele>
        <time>2022-08-10T06:46:57.106Z</time>
      </trkpt>
      <trkpt lat="43.67663" lon="1.45316">
        <ele>186.771288</ele>
        <time>2022-08-10T06:47:00.097Z</time>
      </trkpt>
      <trkpt lat="43.67674" lon="1.45319">
        <ele>186.735926</ele>
        <time>2022-08-10T06:47:02.120Z</time>
      </trkpt>
      <trkpt lat="43.67685" lon="1.45321">
        <ele>186.69918</ele>
        <time>2022-08-10T06:47:04.105Z</time>
      </trkpt>
      <trkpt lat="43.67696" lon="1.45325">
        <ele>186.663653</ele>
        <time>2022-08-10T06:47:06.114Z</time>
      </trkpt>
      <trkpt lat="43.67706" lon="1.45327">
        <ele>186.630572</ele>
        <time>2022-08-10T06:47:08.110Z</time>
      </trkpt>
      <trkpt lat="43.67716" lon="1.45331">
        <ele>186.596583</ele>
        <time>2022-08-10T06:47:10.105Z</time>
      </trkpt>
      <trkpt lat="43.67726" lon="1.45339">
        <ele>186.571366</ele>
        <time>2022-08-10T06:47:12.118Z</time>
      </trkpt>
      <trkpt lat="43.67735" lon="1.45346">
        <ele>186.636101</ele>
        <time>2022-08-10T06:47:14.110Z</time>
      </trkpt>
      <trkpt lat="43.67745" lon="1.45354">
        <ele>186.702701</ele>
        <time>2022-08-10T06:47:16.110Z</time>
      </trkpt>
      <trkpt lat="43.67755" lon="1.4536">
        <ele>186.768319</ele>
        <time>2022-08-10T06:47:18.112Z</time>
      </trkpt>
      <trkpt lat="43.67765" lon="1.45368">
        <ele>186.834079</ele>
        <time>2022-08-10T06:47:20.116Z</time>
      </trkpt>
      <trkpt lat="43.67775" lon="1.45376">
        <ele>186.900389</ele>
        <time>2022-08-10T06:47:22.107Z</time>
      </trkpt>
      <trkpt lat="43.67785" lon="1.45383">
        <ele>186.965945</ele>
        <time>2022-08-10T06:47:24.105Z</time>
      </trkpt>
      <trkpt lat="43.67794" lon="1.45392">
        <ele>187.032643</ele>
        <time>2022-08-10T06:47:26.108Z</time>
      </trkpt>
      <trkpt lat="43.67805" lon="1.45398">
        <ele>187.099134</ele>
        <time>2022-08-10T06:47:28.080Z</time>
      </trkpt>
      <trkpt lat="43.67815" lon="1.45405">
        <ele>187.1658</ele>
        <time>2022-08-10T06:47:30.086Z</time>
      </trkpt>
      <trkpt lat="43.67823" lon="1.45415">
        <ele>187.229258</ele>
        <time>2022-08-10T06:47:32.100Z</time>
      </trkpt>
      <trkpt lat="43.67832" lon="1.45423">
        <ele>187.294629</ele>
        <time>2022-08-10T06:47:34.100Z</time>
      </trkpt>
      <trkpt lat="43.67842" lon="1.4543">
        <ele>187.359982</ele>
        <time>2022-08-10T06:47:36.109Z</time>
      </trkpt>
      <trkpt lat="43.67852" lon="1.45435">
        <ele>187.420514</ele>
        <time>2022-08-10T06:47:38.114Z</time>
      </trkpt>
      <trkpt lat="43.67862" lon="1.45434">
        <ele>187.478149</ele>
        <time>2022-08-10T06:47:40.117Z</time>
      </trkpt>
      <trkpt lat="43.67872" lon="1.45427">
        <ele>187.544738</ele>
        <time>2022-08-10T06:47:42.126Z</time>
      </trkpt>
      <trkpt lat="43.67881" lon="1.45418">
        <ele>187.610678</ele>
        <time>2022-08-10T06:47:44.100Z</time>
      </trkpt>
      <trkpt lat="43.67891" lon="1.45409">
        <ele>187.627342</ele>
        <time>2022-08-10T06:47:46.108Z</time>
      </trkpt>
      <trkpt lat="43.679" lon="1.45402">
        <ele>187.635062</ele>
        <time>2022-08-10T06:47:48.096Z</time>
      </trkpt>
      <trkpt lat="43.6791" lon="1.45399">
        <ele>187.642564</ele>
        <time>2022-08-10T06:47:50.114Z</time>
      </trkpt>
      <trkpt lat="43.67921" lon="1.45394">
        <ele>187.650725</ele>
        <time>2022-08-10T06:47:52.109Z</time>
      </trkpt>
      <trkpt lat="43.67932" lon="1.45388">
        <ele>187.65907</ele>
        <time>2022-08-10T06:47:54.111Z</time>
      </trkpt>
      <trkpt lat="43.67943" lon="1.45382">
        <ele>187.667286</ele>
        <time>2022-08-10T06:47:56.121Z</time>
      </trkpt>
      <trkpt lat="43.67953" lon="1.45376">
        <ele>187.675687</ele>
        <time>2022-08-10T06:47:58.103Z</time>
      </trkpt>
      <trkpt lat="43.67964" lon="1.4537">
        <ele>187.684081</ele>
        <time>2022-08-10T06:48:00.107Z</time>
      </trkpt>
      <trkpt lat="43.67975" lon="1.45364">
        <ele>187.692191</ele>
        <time>2022-08-10T06:48:02.105Z</time>
      </trkpt>
      <trkpt lat="43.67984" lon="1.45355">
        <ele>187.700441</ele>
        <time>2022-08-10T06:48:04.105Z</time>
      </trkpt>
      <trkpt lat="43.67994" lon="1.45347">
        <ele>187.708602</ele>
        <time>2022-08-10T06:48:06.116Z</time>
      </trkpt>
      <trkpt lat="43.68004" lon="1.4534">
        <ele>187.716636</ele>
        <time>2022-08-10T06:48:08.090Z</time>
      </trkpt>
      <trkpt lat="43.68014" lon="1.45333">
        <ele>187.724791</ele>
        <time>2022-08-10T06:48:10.100Z</time>
      </trkpt>
      <trkpt lat="43.68024" lon="1.45326">
        <ele>187.73285</ele>
        <time>2022-08-10T06:48:12.115Z</time>
      </trkpt>
      <trkpt lat="43.68034" lon="1.45318">
        <ele>187.741035</ele>
        <time>2022-08-10T06:48:14.107Z</time>
      </trkpt>
      <trkpt lat="43.68044" lon="1.4531">
        <ele>187.749077</ele>
        <time>2022-08-10T06:48:16.105Z</time>
      </trkpt>
      <trkpt lat="43.68053" lon="1.45301">
        <ele>187.756564</ele>
        <time>2022-08-10T06:48:18.101Z</time>
      </trkpt>
      <trkpt lat="43.68063" lon="1.45292">
        <ele>187.764238</ele>
        <time>2022-08-10T06:48:20.109Z</time>
      </trkpt>
      <trkpt lat="43.68072" lon="1.45284">
        <ele>187.771896</ele>
        <time>2022-08-10T06:48:22.117Z</time>
      </trkpt>
      <trkpt lat="43.68082" lon="1.45276">
        <ele>187.779602</ele>
        <time>2022-08-10T06:48:24.099Z</time>
      </trkpt>
      <trkpt lat="43.68091" lon="1.45267">
        <ele>187.787224</ele>
        <time>2022-08-10T06:48:26.092Z</time>
      </trkpt>
      <trkpt lat="43.68101" lon="1.45258">
        <ele>187.794844</ele>
        <time>2022-08-10T06:48:28.113Z</time>
      </trkpt>
      <trkpt lat="43.6811" lon="1.4525">
        <ele>187.80244</ele>
        <time>2022-08-10T06:48:30.118Z</time>
      </trkpt>
      <trkpt lat="43.68119" lon="1.45242">
        <ele>187.809703</ele>
        <time>2022-08-10T06:48:32.097Z</time>
      </trkpt>
      <trkpt lat="43.68128" lon="1.45234">
        <ele>187.817018</ele>
        <time>2022-08-10T06:48:34.098Z</time>
      </trkpt>
      <trkpt lat="43.68138" lon="1.45225">
        <ele>187.824391</ele>
        <time>2022-08-10T06:48:36.114Z</time>
      </trkpt>
      <trkpt lat="43.68146" lon="1.45217">
        <ele>187.831622</ele>
        <time>2022-08-10T06:48:38.108Z</time>
      </trkpt>
      <trkpt lat="43.68155" lon="1.45208">
        <ele>187.838858</ele>
        <time>2022-08-10T06:48:40.111Z</time>
      </trkpt>
      <trkpt lat="43.68165" lon="1.45205">
        <ele>187.845457</ele>
        <time>2022-08-10T06:48:42.115Z</time>
      </trkpt>
      <trkpt lat="43.6817" lon="1.45216">
        <ele>187.85201</ele>
        <time>2022-08-10T06:48:44.089Z</time>
      </trkpt>
      <trkpt lat="43.68173" lon="1.45231">
        <ele>187.859358</ele>
        <time>2022-08-10T06:48:46.108Z</time>
      </trkpt>
      <trkpt lat="43.68177" lon="1.45245">
        <ele>187.866603</ele>
        <time>2022-08-10T06:48:48.116Z</time>
      </trkpt>
      <trkpt lat="43.68181" lon="1.45259">
        <ele>187.936584</ele>
        <time>2022-08-10T06:48:50.112Z</time>
      </trkpt>
      <trkpt lat="43.68185" lon="1.45274">
        <ele>188.064727</ele>
        <time>2022-08-10T06:48:52.106Z</time>
      </trkpt>
      <trkpt lat="43.68188" lon="1.45288">
        <ele>188.193311</ele>
        <time>2022-08-10T06:48:54.105Z</time>
      </trkpt>
      <trkpt lat="43.68191" lon="1.45302">
        <ele>188.309563</ele>
        <time>2022-08-10T06:48:56.105Z</time>
      </trkpt>
      <trkpt lat="43.68195" lon="1.45317">
        <ele>188.436539</ele>
        <time>2022-08-10T06:48:58.099Z</time>
      </trkpt>
      <trkpt lat="43.68199" lon="1.45331">
        <ele>188.559325</ele>
        <time>2022-08-10T06:49:00.107Z</time>
      </trkpt>
      <trkpt lat="43.68202" lon="1.45345">
        <ele>188.682828</ele>
        <time>2022-08-10T06:49:02.127Z</time>
      </trkpt>
      <trkpt lat="43.68206" lon="1.45359">
        <ele>188.80903</ele>
        <time>2022-08-10T06:49:04.109Z</time>
      </trkpt>
      <trkpt lat="43.6821" lon="1.45374">
        <ele>188.936775</ele>
        <time>2022-08-10T06:49:06.131Z</time>
      </trkpt>
      <trkpt lat="43.68214" lon="1.45388">
        <ele>189.060277</ele>
        <time>2022-08-10T06:49:08.108Z</time>
      </trkpt>
      <trkpt lat="43.68217" lon="1.45402">
        <ele>189.185387</ele>
        <time>2022-08-10T06:49:10.109Z</time>
      </trkpt>
      <trkpt lat="43.6822" lon="1.45416">
        <ele>189.304126</ele>
        <time>2022-08-10T06:49:12.108Z</time>
      </trkpt>
      <trkpt lat="43.68223" lon="1.4543">
        <ele>189.422644</ele>
        <time>2022-08-10T06:49:14.114Z</time>
      </trkpt>
      <trkpt lat="43.68228" lon="1.45443">
        <ele>189.542907</ele>
        <time>2022-08-10T06:49:16.090Z</time>
      </trkpt>
      <trkpt lat="43.68233" lon="1.45457">
        <ele>189.666406</ele>
        <time>2022-08-10T06:49:18.101Z</time>
      </trkpt>
      <trkpt lat="43.68237" lon="1.4547">
        <ele>189.786729</ele>
        <time>2022-08-10T06:49:20.103Z</time>
      </trkpt>
      <trkpt lat="43.68241" lon="1.45483">
        <ele>189.904639</ele>
        <time>2022-08-10T06:49:22.111Z</time>
      </trkpt>
      <trkpt lat="43.68245" lon="1.45497">
        <ele>190.027736</ele>
        <time>2022-08-10T06:49:24.101Z</time>
      </trkpt>
      <trkpt lat="43.68249" lon="1.45511">
        <ele>190.155036</ele>
        <time>2022-08-10T06:49:26.103Z</time>
      </trkpt>
      <trkpt lat="43.68253" lon="1.45525">
        <ele>190.287522</ele>
        <time>2022-08-10T06:49:28.127Z</time>
      </trkpt>
      <trkpt lat="43.68257" lon="1.45539">
        <ele>190.41672</ele>
        <time>2022-08-10T06:49:30.108Z</time>
      </trkpt>
      <trkpt lat="43.6826" lon="1.45554">
        <ele>190.546343</ele>
        <time>2022-08-10T06:49:32.123Z</time>
      </trkpt>
      <trkpt lat="43.68264" lon="1.45568">
        <ele>190.676862</ele>
        <time>2022-08-10T06:49:34.113Z</time>
      </trkpt>
      <trkpt lat="43.68267" lon="1.45583">
        <ele>190.807033</ele>
        <time>2022-08-10T06:49:36.117Z</time>
      </trkpt>
      <trkpt lat="43.6827" lon="1.45598">
        <ele>190.938367</ele>
        <time>2022-08-10T06:49:38.098Z</time>
      </trkpt>
      <trkpt lat="43.68273" lon="1.45612">
        <ele>191.069516</ele>
        <time>2022-08-10T06:49:40.113Z</time>
      </trkpt>
      <trkpt lat="43.68276" lon="1.45627">
        <ele>191.197269</ele>
        <time>2022-08-10T06:49:42.114Z</time>
      </trkpt>
      <trkpt lat="43.68278" lon="1.45642">
        <ele>191.326366</ele>
        <time>2022-08-10T06:49:44.104Z</time>
      </trkpt>
      <trkpt lat="43.68279" lon="1.45657">
        <ele>191.454231</ele>
        <time>2022-08-10T06:49:46.123Z</time>
      </trkpt>
      <trkpt lat="43.68281" lon="1.45672">
        <ele>191.583982</ele>
        <time>2022-08-10T06:49:48.112Z</time>
      </trkpt>
      <trkpt lat="43.68281" lon="1.45687">
        <ele>191.712058</ele>
        <time>2022-08-10T06:49:50.115Z</time>
      </trkpt>
      <trkpt lat="43.68281" lon="1.45702">
        <ele>191.840986</ele>
        <time>2022-08-10T06:49:52.125Z</time>
      </trkpt>
      <trkpt lat="43.6828" lon="1.45717">
        <ele>191.968471</ele>
        <time>2022-08-10T06:49:54.113Z</time>
      </trkpt>
      <trkpt lat="43.68279" lon="1.45732">
        <ele>192.213784</ele>
        <time>2022-08-10T06:49:56.127Z</time>
      </trkpt>
      <trkpt lat="43.68278" lon="1.45746">
        <ele>192.572613</ele>
        <time>2022-08-10T06:49:58.123Z</time>
      </trkpt>
      <trkpt lat="43.68277" lon="1.4576">
        <ele>192.918537</ele>
        <time>2022-08-10T06:50:00.110Z</time>
      </trkpt>
      <trkpt lat="43.68276" lon="1.45774">
        <ele>193.25191</ele>
        <time>2022-08-10T06:50:02.108Z</time>
      </trkpt>
      <trkpt lat="43.68276" lon="1.45788">
        <ele>193.611644</ele>
        <time>2022-08-10T06:50:04.150Z</time>
      </trkpt>
      <trkpt lat="43.68275" lon="1.45803">
        <ele>193.966854</ele>
        <time>2022-08-10T06:50:06.128Z</time>
      </trkpt>
      <trkpt lat="43.68274" lon="1.45816">
        <ele>194.305133</ele>
        <time>2022-08-10T06:50:08.123Z</time>
      </trkpt>
      <trkpt lat="43.68273" lon="1.4583">
        <ele>194.645865</ele>
        <time>2022-08-10T06:50:10.123Z</time>
      </trkpt>
      <trkpt lat="43.68273" lon="1.45843">
        <ele>194.970902</ele>
        <time>2022-08-10T06:50:12.108Z</time>
      </trkpt>
      <trkpt lat="43.68272" lon="1.45856">
        <ele>195.292011</ele>
        <time>2022-08-10T06:50:14.110Z</time>
      </trkpt>
      <trkpt lat="43.68271" lon="1.4587">
        <ele>195.626373</ele>
        <time>2022-08-10T06:50:16.122Z</time>
      </trkpt>
      <trkpt lat="43.6827" lon="1.45883">
        <ele>195.949434</ele>
        <time>2022-08-10T06:50:18.103Z</time>
      </trkpt>
      <trkpt lat="43.6827" lon="1.45896">
        <ele>196.267819</ele>
        <time>2022-08-10T06:50:21.124Z</time>
      </trkpt>
      <trkpt lat="43.68269" lon="1.45912">
        <ele>196.670734</ele>
        <time>2022-08-10T06:50:25.117Z</time>
      </trkpt>
      <trkpt lat="43.68267" lon="1.45929">
        <ele>197.077171</ele>
        <time>2022-08-10T06:50:28.111Z</time>
      </trkpt>
      <trkpt lat="43.68265" lon="1.45947">
        <ele>197.531714</ele>
        <time>2022-08-10T06:50:31.131Z</time>
      </trkpt>
      <trkpt lat="43.68265" lon="1.45959">
        <ele>197.840564</ele>
        <time>2022-08-10T06:50:33.121Z</time>
      </trkpt>
      <trkpt lat="43.68265" lon="1.45972">
        <ele>198.15586</ele>
        <time>2022-08-10T06:50:35.142Z</time>
      </trkpt>
      <trkpt lat="43.68265" lon="1.45985">
        <ele>198.57415</ele>
        <time>2022-08-10T06:50:37.143Z</time>
      </trkpt>
      <trkpt lat="43.68267" lon="1.46003">
        <ele>199.175763</ele>
        <time>2022-08-10T06:50:40.129Z</time>
      </trkpt>
      <trkpt lat="43.6827" lon="1.46018">
        <ele>199.705564</ele>
        <time>2022-08-10T06:50:43.128Z</time>
      </trkpt>
      <trkpt lat="43.68274" lon="1.46032">
        <ele>200.186465</ele>
        <time>2022-08-10T06:50:46.127Z</time>
      </trkpt>
      <trkpt lat="43.68278" lon="1.46044">
        <ele>200.633992</ele>
        <time>2022-08-10T06:50:49.117Z</time>
      </trkpt>
      <trkpt lat="43.6828" lon="1.46058">
        <ele>201.093331</ele>
        <time>2022-08-10T06:50:52.124Z</time>
      </trkpt>
      <trkpt lat="43.68281" lon="1.46072">
        <ele>201.560825</ele>
        <time>2022-08-10T06:50:55.113Z</time>
      </trkpt>
      <trkpt lat="43.68282" lon="1.46087">
        <ele>202.039067</ele>
        <time>2022-08-10T06:50:58.130Z</time>
      </trkpt>
      <trkpt lat="43.68282" lon="1.46101">
        <ele>202.510492</ele>
        <time>2022-08-10T06:51:01.141Z</time>
      </trkpt>
      <trkpt lat="43.68284" lon="1.46115">
        <ele>202.989554</ele>
        <time>2022-08-10T06:51:04.131Z</time>
      </trkpt>
      <trkpt lat="43.68284" lon="1.4613">
        <ele>203.477658</ele>
        <time>2022-08-10T06:51:07.133Z</time>
      </trkpt>
      <trkpt lat="43.68283" lon="1.46145">
        <ele>203.982777</ele>
        <time>2022-08-10T06:51:10.091Z</time>
      </trkpt>
      <trkpt lat="43.68282" lon="1.46162">
        <ele>204.527637</ele>
        <time>2022-08-10T06:51:13.117Z</time>
      </trkpt>
      <trkpt lat="43.68278" lon="1.46179">
        <ele>205.117565</ele>
        <time>2022-08-10T06:51:16.126Z</time>
      </trkpt>
      <trkpt lat="43.68273" lon="1.46196">
        <ele>205.733203</ele>
        <time>2022-08-10T06:51:19.127Z</time>
      </trkpt>
      <trkpt lat="43.68269" lon="1.46208">
        <ele>206.166413</ele>
        <time>2022-08-10T06:51:21.124Z</time>
      </trkpt>
      <trkpt lat="43.68264" lon="1.4622">
        <ele>206.536366</ele>
        <time>2022-08-10T06:51:23.126Z</time>
      </trkpt>
      <trkpt lat="43.6826" lon="1.46234">
        <ele>206.860658</ele>
        <time>2022-08-10T06:51:25.125Z</time>
      </trkpt>
      <trkpt lat="43.68257" lon="1.46247">
        <ele>207.183548</ele>
        <time>2022-08-10T06:51:27.112Z</time>
      </trkpt>
      <trkpt lat="43.68253" lon="1.4626">
        <ele>207.498687</ele>
        <time>2022-08-10T06:51:29.108Z</time>
      </trkpt>
      <trkpt lat="43.68248" lon="1.46272">
        <ele>207.811024</ele>
        <time>2022-08-10T06:51:31.135Z</time>
      </trkpt>
      <trkpt lat="43.68243" lon="1.46284">
        <ele>208.121309</ele>
        <time>2022-08-10T06:51:33.126Z</time>
      </trkpt>
      <trkpt lat="43.68238" lon="1.46295">
        <ele>208.426195</ele>
        <time>2022-08-10T06:51:35.122Z</time>
      </trkpt>
      <trkpt lat="43.68232" lon="1.46306">
        <ele>208.734666</ele>
        <time>2022-08-10T06:51:37.149Z</time>
      </trkpt>
      <trkpt lat="43.68226" lon="1.46316">
        <ele>209.044418</ele>
        <time>2022-08-10T06:51:39.127Z</time>
      </trkpt>
      <trkpt lat="43.68219" lon="1.46326">
        <ele>209.352862</ele>
        <time>2022-08-10T06:51:41.129Z</time>
      </trkpt>
      <trkpt lat="43.68212" lon="1.46337">
        <ele>209.665089</ele>
        <time>2022-08-10T06:51:43.136Z</time>
      </trkpt>
      <trkpt lat="43.68205" lon="1.46347">
        <ele>209.981015</ele>
        <time>2022-08-10T06:51:45.132Z</time>
      </trkpt>
      <trkpt lat="43.68198" lon="1.46356">
        <ele>210.289918</ele>
        <time>2022-08-10T06:51:47.108Z</time>
      </trkpt>
      <trkpt lat="43.68191" lon="1.46365">
        <ele>210.598623</ele>
        <time>2022-08-10T06:51:49.142Z</time>
      </trkpt>
      <trkpt lat="43.68184" lon="1.46375">
        <ele>210.912713</ele>
        <time>2022-08-10T06:51:51.124Z</time>
      </trkpt>
      <trkpt lat="43.68171" lon="1.46375">
        <ele>211.307525</ele>
        <time>2022-08-10T06:51:54.133Z</time>
      </trkpt>
      <trkpt lat="43.68161" lon="1.46369">
        <ele>211.647636</ele>
        <time>2022-08-10T06:51:57.122Z</time>
      </trkpt>
      <trkpt lat="43.68152" lon="1.46365">
        <ele>211.942479</ele>
        <time>2022-08-10T06:52:00.119Z</time>
      </trkpt>
      <trkpt lat="43.68143" lon="1.46362">
        <ele>212.380037</ele>
        <time>2022-08-10T06:52:04.156Z</time>
      </trkpt>
      <trkpt lat="43.68135" lon="1.46356">
        <ele>212.844708</ele>
        <time>2022-08-10T06:52:07.150Z</time>
      </trkpt>
      <trkpt lat="43.68125" lon="1.4635">
        <ele>213.381194</ele>
        <time>2022-08-10T06:52:11.114Z</time>
      </trkpt>
      <trkpt lat="43.68117" lon="1.46343">
        <ele>213.870134</ele>
        <time>2022-08-10T06:52:15.125Z</time>
      </trkpt>
      <trkpt lat="43.68108" lon="1.46338">
        <ele>214.37861</ele>
        <time>2022-08-10T06:52:19.152Z</time>
      </trkpt>
      <trkpt lat="43.68097" lon="1.46338">
        <ele>214.90877</ele>
        <time>2022-08-10T06:52:23.129Z</time>
      </trkpt>
      <trkpt lat="43.6809" lon="1.46349">
        <ele>215.443748</ele>
        <time>2022-08-10T06:52:27.120Z</time>
      </trkpt>
      <trkpt lat="43.68085" lon="1.46361">
        <ele>215.941646</ele>
        <time>2022-08-10T06:52:30.135Z</time>
      </trkpt>
      <trkpt lat="43.6808" lon="1.46373">
        <ele>216.467553</ele>
        <time>2022-08-10T06:52:33.126Z</time>
      </trkpt>
      <trkpt lat="43.68074" lon="1.46386">
        <ele>217.02263</ele>
        <time>2022-08-10T06:52:36.138Z</time>
      </trkpt>
      <trkpt lat="43.68068" lon="1.464">
        <ele>217.607559</ele>
        <time>2022-08-10T06:52:39.100Z</time>
      </trkpt>
      <trkpt lat="43.68062" lon="1.46415">
        <ele>218.26325</ele>
        <time>2022-08-10T06:52:42.123Z</time>
      </trkpt>
      <trkpt lat="43.68055" lon="1.46431">
        <ele>218.926297</ele>
        <time>2022-08-10T06:52:45.122Z</time>
      </trkpt>
      <trkpt lat="43.6805" lon="1.46442">
        <ele>219.39909</ele>
        <time>2022-08-10T06:52:47.159Z</time>
      </trkpt>
      <trkpt lat="43.68045" lon="1.46454">
        <ele>219.89925</ele>
        <time>2022-08-10T06:52:49.130Z</time>
      </trkpt>
      <trkpt lat="43.68039" lon="1.46466">
        <ele>220.425771</ele>
        <time>2022-08-10T06:52:51.140Z</time>
      </trkpt>
      <trkpt lat="43.68034" lon="1.46479">
        <ele>220.952976</ele>
        <time>2022-08-10T06:52:53.130Z</time>
      </trkpt>
      <trkpt lat="43.68032" lon="1.46493">
        <ele>221.185839</ele>
        <time>2022-08-10T06:52:55.121Z</time>
      </trkpt>
      <trkpt lat="43.6803" lon="1.46507">
        <ele>221.337989</ele>
        <time>2022-08-10T06:52:57.113Z</time>
      </trkpt>
      <trkpt lat="43.68029" lon="1.46522">
        <ele>221.497618</ele>
        <time>2022-08-10T06:52:59.130Z</time>
      </trkpt>
      <trkpt lat="43.68027" lon="1.46536">
        <ele>221.649</ele>
        <time>2022-08-10T06:53:01.129Z</time>
      </trkpt>
      <trkpt lat="43.68024" lon="1.46552">
        <ele>221.824013</ele>
        <time>2022-08-10T06:53:03.118Z</time>
      </trkpt>
      <trkpt lat="43.6802" lon="1.46567">
        <ele>222.003962</ele>
        <time>2022-08-10T06:53:05.125Z</time>
      </trkpt>
      <trkpt lat="43.68014" lon="1.46582">
        <ele>222.17508</ele>
        <time>2022-08-10T06:53:07.110Z</time>
      </trkpt>
      <trkpt lat="43.68009" lon="1.46595">
        <ele>222.34224</ele>
        <time>2022-08-10T06:53:09.119Z</time>
      </trkpt>
      <trkpt lat="43.68003" lon="1.46609">
        <ele>222.511102</ele>
        <time>2022-08-10T06:53:11.113Z</time>
      </trkpt>
      <trkpt lat="43.67995" lon="1.4662">
        <ele>222.674726</ele>
        <time>2022-08-10T06:53:13.125Z</time>
      </trkpt>
      <trkpt lat="43.67988" lon="1.46629">
        <ele>222.825728</ele>
        <time>2022-08-10T06:53:15.106Z</time>
      </trkpt>
      <trkpt lat="43.6798" lon="1.46637">
        <ele>222.962641</ele>
        <time>2022-08-10T06:53:17.114Z</time>
      </trkpt>
      <trkpt lat="43.67972" lon="1.4665">
        <ele>223.153618</ele>
        <time>2022-08-10T06:53:20.109Z</time>
      </trkpt>
      <trkpt lat="43.67965" lon="1.46667">
        <ele>223.356706</ele>
        <time>2022-08-10T06:53:23.121Z</time>
      </trkpt>
      <trkpt lat="43.67961" lon="1.46679">
        <ele>223.500599</ele>
        <time>2022-08-10T06:53:25.118Z</time>
      </trkpt>
      <trkpt lat="43.67955" lon="1.46691">
        <ele>223.654452</ele>
        <time>2022-08-10T06:53:27.126Z</time>
      </trkpt>
      <trkpt lat="43.6795" lon="1.46704">
        <ele>224.060332</ele>
        <time>2022-08-10T06:53:29.115Z</time>
      </trkpt>
      <trkpt lat="43.67945" lon="1.46717">
        <ele>224.640898</ele>
        <time>2022-08-10T06:53:31.121Z</time>
      </trkpt>
      <trkpt lat="43.6794" lon="1.4673">
        <ele>225.208454</ele>
        <time>2022-08-10T06:53:33.120Z</time>
      </trkpt>
      <trkpt lat="43.67936" lon="1.46743">
        <ele>225.745322</ele>
        <time>2022-08-10T06:53:35.115Z</time>
      </trkpt>
      <trkpt lat="43.67931" lon="1.46758">
        <ele>226.412358</ele>
        <time>2022-08-10T06:53:38.121Z</time>
      </trkpt>
      <trkpt lat="43.67927" lon="1.46773">
        <ele>227.024849</ele>
        <time>2022-08-10T06:53:41.119Z</time>
      </trkpt>
      <trkpt lat="43.67921" lon="1.46789">
        <ele>227.70906</ele>
        <time>2022-08-10T06:53:44.099Z</time>
      </trkpt>
      <trkpt lat="43.67915" lon="1.46804">
        <ele>228.395777</ele>
        <time>2022-08-10T06:53:47.118Z</time>
      </trkpt>
      <trkpt lat="43.67908" lon="1.46818">
        <ele>229.052334</ele>
        <time>2022-08-10T06:53:50.099Z</time>
      </trkpt>
      <trkpt lat="43.67899" lon="1.46831">
        <ele>229.742018</ele>
        <time>2022-08-10T06:53:53.129Z</time>
      </trkpt>
      <trkpt lat="43.67891" lon="1.46844">
        <ele>230.438435</ele>
        <time>2022-08-10T06:53:56.124Z</time>
      </trkpt>
      <trkpt lat="43.67884" lon="1.46855">
        <ele>230.956985</ele>
        <time>2022-08-10T06:53:58.114Z</time>
      </trkpt>
      <trkpt lat="43.67878" lon="1.46865">
        <ele>231.475978</ele>
        <time>2022-08-10T06:54:00.121Z</time>
      </trkpt>
      <trkpt lat="43.67872" lon="1.46875">
        <ele>232.0044</ele>
        <time>2022-08-10T06:54:02.126Z</time>
      </trkpt>
      <trkpt lat="43.67866" lon="1.46886">
        <ele>232.522595</ele>
        <time>2022-08-10T06:54:04.160Z</time>
      </trkpt>
      <trkpt lat="43.6786" lon="1.46896">
        <ele>233.047198</ele>
        <time>2022-08-10T06:54:06.135Z</time>
      </trkpt>
      <trkpt lat="43.67855" lon="1.46907">
        <ele>233.516367</ele>
        <time>2022-08-10T06:54:08.131Z</time>
      </trkpt>
      <trkpt lat="43.67849" lon="1.46918">
        <ele>233.862878</ele>
        <time>2022-08-10T06:54:10.102Z</time>
      </trkpt>
      <trkpt lat="43.67843" lon="1.46928">
        <ele>234.212014</ele>
        <time>2022-08-10T06:54:12.112Z</time>
      </trkpt>
      <trkpt lat="43.67837" lon="1.46938">
        <ele>234.565287</ele>
        <time>2022-08-10T06:54:14.119Z</time>
      </trkpt>
      <trkpt lat="43.67831" lon="1.46949">
        <ele>234.916015</ele>
        <time>2022-08-10T06:54:16.115Z</time>
      </trkpt>
      <trkpt lat="43.67826" lon="1.4696">
        <ele>235.271252</ele>
        <time>2022-08-10T06:54:18.122Z</time>
      </trkpt>
      <trkpt lat="43.67821" lon="1.46971">
        <ele>235.61127</ele>
        <time>2022-08-10T06:54:20.131Z</time>
      </trkpt>
      <trkpt lat="43.67812" lon="1.46985">
        <ele>236.100243</ele>
        <time>2022-08-10T06:54:23.127Z</time>
      </trkpt>
      <trkpt lat="43.67801" lon="1.46992">
        <ele>236.560809</ele>
        <time>2022-08-10T06:54:26.124Z</time>
      </trkpt>
      <trkpt lat="43.6779" lon="1.46999">
        <ele>237.006534</ele>
        <time>2022-08-10T06:54:29.118Z</time>
      </trkpt>
      <trkpt lat="43.67778" lon="1.47006">
        <ele>237.463453</ele>
        <time>2022-08-10T06:54:32.137Z</time>
      </trkpt>
      <trkpt lat="43.67767" lon="1.47014">
        <ele>237.91922</ele>
        <time>2022-08-10T06:54:35.126Z</time>
      </trkpt>
      <trkpt lat="43.67756" lon="1.47021">
        <ele>238.38295</ele>
        <time>2022-08-10T06:54:38.123Z</time>
      </trkpt>
      <trkpt lat="43.67744" lon="1.47028">
        <ele>238.85103</ele>
        <time>2022-08-10T06:54:41.109Z</time>
      </trkpt>
      <trkpt lat="43.67732" lon="1.47036">
        <ele>239.340174</ele>
        <time>2022-08-10T06:54:44.116Z</time>
      </trkpt>
      <trkpt lat="43.67724" lon="1.47042">
        <ele>239.685885</ele>
        <time>2022-08-10T06:54:46.119Z</time>
      </trkpt>
      <trkpt lat="43.67715" lon="1.47047">
        <ele>240.018028</ele>
        <time>2022-08-10T06:54:48.102Z</time>
      </trkpt>
      <trkpt lat="43.67706" lon="1.47052">
        <ele>240.222588</ele>
        <time>2022-08-10T06:54:50.109Z</time>
      </trkpt>
      <trkpt lat="43.67694" lon="1.4706">
        <ele>240.495769</ele>
        <time>2022-08-10T06:54:53.134Z</time>
      </trkpt>
      <trkpt lat="43.67685" lon="1.47068">
        <ele>240.725365</ele>
        <time>2022-08-10T06:54:56.122Z</time>
      </trkpt>
      <trkpt lat="43.67679" lon="1.47077">
        <ele>240.918163</ele>
        <time>2022-08-10T06:54:58.127Z</time>
      </trkpt>
      <trkpt lat="43.6767" lon="1.4709">
        <ele>241.191643</ele>
        <time>2022-08-10T06:55:01.122Z</time>
      </trkpt>
      <trkpt lat="43.6766" lon="1.47104">
        <ele>241.475742</ele>
        <time>2022-08-10T06:55:04.118Z</time>
      </trkpt>
      <trkpt lat="43.67654" lon="1.47112">
        <ele>241.666662</ele>
        <time>2022-08-10T06:55:06.118Z</time>
      </trkpt>
      <trkpt lat="43.67644" lon="1.47127">
        <ele>241.961474</ele>
        <time>2022-08-10T06:55:09.134Z</time>
      </trkpt>
      <trkpt lat="43.67638" lon="1.47137">
        <ele>242.169551</ele>
        <time>2022-08-10T06:55:11.097Z</time>
      </trkpt>
      <trkpt lat="43.67632" lon="1.47148">
        <ele>242.375133</ele>
        <time>2022-08-10T06:55:13.147Z</time>
      </trkpt>
      <trkpt lat="43.67626" lon="1.47158">
        <ele>242.579473</ele>
        <time>2022-08-10T06:55:15.130Z</time>
      </trkpt>
      <trkpt lat="43.67619" lon="1.47168">
        <ele>242.782397</ele>
        <time>2022-08-10T06:55:17.113Z</time>
      </trkpt>
      <trkpt lat="43.67612" lon="1.47178">
        <ele>242.988165</ele>
        <time>2022-08-10T06:55:19.126Z</time>
      </trkpt>
      <trkpt lat="43.67605" lon="1.47188">
        <ele>243.197919</ele>
        <time>2022-08-10T06:55:21.130Z</time>
      </trkpt>
      <trkpt lat="43.67598" lon="1.47197">
        <ele>243.404674</ele>
        <time>2022-08-10T06:55:23.127Z</time>
      </trkpt>
      <trkpt lat="43.67589" lon="1.47203">
        <ele>243.611134</ele>
        <time>2022-08-10T06:55:25.100Z</time>
      </trkpt>
      <trkpt lat="43.6758" lon="1.47199">
        <ele>243.741433</ele>
        <time>2022-08-10T06:55:27.135Z</time>
      </trkpt>
      <trkpt lat="43.67572" lon="1.47191">
        <ele>243.439602</ele>
        <time>2022-08-10T06:55:29.115Z</time>
      </trkpt>
      <trkpt lat="43.67563" lon="1.47183">
        <ele>243.137517</ele>
        <time>2022-08-10T06:55:31.135Z</time>
      </trkpt>
      <trkpt lat="43.67555" lon="1.47176">
        <ele>242.842933</ele>
        <time>2022-08-10T06:55:33.138Z</time>
      </trkpt>
      <trkpt lat="43.67546" lon="1.47169">
        <ele>242.546015</ele>
        <time>2022-08-10T06:55:35.129Z</time>
      </trkpt>
      <trkpt lat="43.67537" lon="1.47162">
        <ele>242.240739</ele>
        <time>2022-08-10T06:55:37.124Z</time>
      </trkpt>
      <trkpt lat="43.67528" lon="1.47155">
        <ele>241.934994</ele>
        <time>2022-08-10T06:55:39.130Z</time>
      </trkpt>
      <trkpt lat="43.67519" lon="1.47148">
        <ele>241.628691</ele>
        <time>2022-08-10T06:55:41.121Z</time>
      </trkpt>
      <trkpt lat="43.6751" lon="1.47143">
        <ele>241.328287</ele>
        <time>2022-08-10T06:55:43.135Z</time>
      </trkpt>
      <trkpt lat="43.67501" lon="1.47136">
        <ele>241.034852</ele>
        <time>2022-08-10T06:55:45.133Z</time>
      </trkpt>
      <trkpt lat="43.67494" lon="1.47127">
        <ele>240.739188</ele>
        <time>2022-08-10T06:55:47.125Z</time>
      </trkpt>
      <trkpt lat="43.67485" lon="1.47119">
        <ele>240.426366</ele>
        <time>2022-08-10T06:55:49.131Z</time>
      </trkpt>
      <trkpt lat="43.67474" lon="1.47113">
        <ele>240.076194</ele>
        <time>2022-08-10T06:55:51.137Z</time>
      </trkpt>
      <trkpt lat="43.67462" lon="1.47106">
        <ele>239.697615</ele>
        <time>2022-08-10T06:55:53.139Z</time>
      </trkpt>
      <trkpt lat="43.67449" lon="1.47101">
        <ele>239.288286</ele>
        <time>2022-08-10T06:55:55.136Z</time>
      </trkpt>
      <trkpt lat="43.67435" lon="1.47093">
        <ele>238.829822</ele>
        <time>2022-08-10T06:55:57.120Z</time>
      </trkpt>
      <trkpt lat="43.6742" lon="1.47084">
        <ele>238.320579</ele>
        <time>2022-08-10T06:55:59.128Z</time>
      </trkpt>
      <trkpt lat="43.67403" lon="1.47074">
        <ele>237.707007</ele>
        <time>2022-08-10T06:56:01.148Z</time>
      </trkpt>
      <trkpt lat="43.67394" lon="1.47068">
        <ele>237.378069</ele>
        <time>2022-08-10T06:56:02.118Z</time>
      </trkpt>
      <trkpt lat="43.67385" lon="1.47062">
        <ele>237.033615</ele>
        <time>2022-08-10T06:56:03.127Z</time>
      </trkpt>
      <trkpt lat="43.67376" lon="1.47056">
        <ele>236.669524</ele>
        <time>2022-08-10T06:56:04.152Z</time>
      </trkpt>
      <trkpt lat="43.67366" lon="1.4705">
        <ele>236.303327</ele>
        <time>2022-08-10T06:56:05.145Z</time>
      </trkpt>
      <trkpt lat="43.67357" lon="1.47044">
        <ele>235.959919</ele>
        <time>2022-08-10T06:56:06.134Z</time>
      </trkpt>
      <trkpt lat="43.67348" lon="1.47039">
        <ele>235.650647</ele>
        <time>2022-08-10T06:56:07.139Z</time>
      </trkpt>
      <trkpt lat="43.67335" lon="1.47029">
        <ele>235.137559</ele>
        <time>2022-08-10T06:56:09.139Z</time>
      </trkpt>
      <trkpt lat="43.67326" lon="1.47021">
        <ele>234.768828</ele>
        <time>2022-08-10T06:56:12.123Z</time>
      </trkpt>
      <trkpt lat="43.67315" lon="1.47026">
        <ele>234.371457</ele>
        <time>2022-08-10T06:56:17.131Z</time>
      </trkpt>
      <trkpt lat="43.67308" lon="1.47039">
        <ele>233.972685</ele>
        <time>2022-08-10T06:56:20.132Z</time>
      </trkpt>
      <trkpt lat="43.673" lon="1.47054">
        <ele>233.522147</ele>
        <time>2022-08-10T06:56:23.137Z</time>
      </trkpt>
      <trkpt lat="43.67294" lon="1.4707">
        <ele>233.085813</ele>
        <time>2022-08-10T06:56:26.140Z</time>
      </trkpt>
      <trkpt lat="43.67291" lon="1.47087">
        <ele>232.635757</ele>
        <time>2022-08-10T06:56:29.132Z</time>
      </trkpt>
      <trkpt lat="43.6729" lon="1.471">
        <ele>232.316788</ele>
        <time>2022-08-10T06:56:31.137Z</time>
      </trkpt>
      <trkpt lat="43.6729" lon="1.47113">
        <ele>232.692725</ele>
        <time>2022-08-10T06:56:33.138Z</time>
      </trkpt>
      <trkpt lat="43.67289" lon="1.47126">
        <ele>233.116951</ele>
        <time>2022-08-10T06:56:35.139Z</time>
      </trkpt>
      <trkpt lat="43.67288" lon="1.47139">
        <ele>233.532155</ele>
        <time>2022-08-10T06:56:37.101Z</time>
      </trkpt>
      <trkpt lat="43.67285" lon="1.47151">
        <ele>233.959449</ele>
        <time>2022-08-10T06:56:39.162Z</time>
      </trkpt>
      <trkpt lat="43.67282" lon="1.47164">
        <ele>234.393663</ele>
        <time>2022-08-10T06:56:41.143Z</time>
      </trkpt>
      <trkpt lat="43.67278" lon="1.47176">
        <ele>234.835134</ele>
        <time>2022-08-10T06:56:43.133Z</time>
      </trkpt>
      <trkpt lat="43.67273" lon="1.47189">
        <ele>235.302435</ele>
        <time>2022-08-10T06:56:45.157Z</time>
      </trkpt>
      <trkpt lat="43.67268" lon="1.47202">
        <ele>235.77259</ele>
        <time>2022-08-10T06:56:47.142Z</time>
      </trkpt>
      <trkpt lat="43.67263" lon="1.47215">
        <ele>236.245604</ele>
        <time>2022-08-10T06:56:49.144Z</time>
      </trkpt>
      <trkpt lat="43.67257" lon="1.47227">
        <ele>236.713931</ele>
        <time>2022-08-10T06:56:51.141Z</time>
      </trkpt>
      <trkpt lat="43.67253" lon="1.47239">
        <ele>237.169955</ele>
        <time>2022-08-10T06:56:53.128Z</time>
      </trkpt>
      <trkpt lat="43.67249" lon="1.47252">
        <ele>237.622168</ele>
        <time>2022-08-10T06:56:55.137Z</time>
      </trkpt>
      <trkpt lat="43.67245" lon="1.47265">
        <ele>238.070791</ele>
        <time>2022-08-10T06:56:57.143Z</time>
      </trkpt>
      <trkpt lat="43.67242" lon="1.47278">
        <ele>238.532721</ele>
        <time>2022-08-10T06:56:59.147Z</time>
      </trkpt>
      <trkpt lat="43.67239" lon="1.47293">
        <ele>239.006879</ele>
        <time>2022-08-10T06:57:01.129Z</time>
      </trkpt>
      <trkpt lat="43.67237" lon="1.47307">
        <ele>239.482829</ele>
        <time>2022-08-10T06:57:03.171Z</time>
      </trkpt>
      <trkpt lat="43.67235" lon="1.47321">
        <ele>239.954789</ele>
        <time>2022-08-10T06:57:05.165Z</time>
      </trkpt>
      <trkpt lat="43.67234" lon="1.47336">
        <ele>240.416297</ele>
        <time>2022-08-10T06:57:07.138Z</time>
      </trkpt>
      <trkpt lat="43.67232" lon="1.4735">
        <ele>240.773054</ele>
        <time>2022-08-10T06:57:09.133Z</time>
      </trkpt>
      <trkpt lat="43.6723" lon="1.47365">
        <ele>241.130532</ele>
        <time>2022-08-10T06:57:11.141Z</time>
      </trkpt>
      <trkpt lat="43.67228" lon="1.4738">
        <ele>241.500896</ele>
        <time>2022-08-10T06:57:13.141Z</time>
      </trkpt>
      <trkpt lat="43.67227" lon="1.47395">
        <ele>241.870301</ele>
        <time>2022-08-10T06:57:15.137Z</time>
      </trkpt>
      <trkpt lat="43.67227" lon="1.4741">
        <ele>242.236375</ele>
        <time>2022-08-10T06:57:17.130Z</time>
      </trkpt>
      <trkpt lat="43.67229" lon="1.47425">
        <ele>242.594558</ele>
        <time>2022-08-10T06:57:19.128Z</time>
      </trkpt>
      <trkpt lat="43.67234" lon="1.47438">
        <ele>242.949688</ele>
        <time>2022-08-10T06:57:21.148Z</time>
      </trkpt>
      <trkpt lat="43.67242" lon="1.47449">
        <ele>243.306922</ele>
        <time>2022-08-10T06:57:23.159Z</time>
      </trkpt>
      <trkpt lat="43.6725" lon="1.47458">
        <ele>243.667039</ele>
        <time>2022-08-10T06:57:25.111Z</time>
      </trkpt>
      <trkpt lat="43.6726" lon="1.47464">
        <ele>244.032081</ele>
        <time>2022-08-10T06:57:27.145Z</time>
      </trkpt>
      <trkpt lat="43.67271" lon="1.47469">
        <ele>244.39394</ele>
        <time>2022-08-10T06:57:29.141Z</time>
      </trkpt>
      <trkpt lat="43.67281" lon="1.47473">
        <ele>244.755324</ele>
        <time>2022-08-10T06:57:31.138Z</time>
      </trkpt>
      <trkpt lat="43.67291" lon="1.47478">
        <ele>245.119221</ele>
        <time>2022-08-10T06:57:33.141Z</time>
      </trkpt>
      <trkpt lat="43.67302" lon="1.47483">
        <ele>245.483452</ele>
        <time>2022-08-10T06:57:35.165Z</time>
      </trkpt>
      <trkpt lat="43.67312" lon="1.47487">
        <ele>245.842833</ele>
        <time>2022-08-10T06:57:37.129Z</time>
      </trkpt>
      <trkpt lat="43.67323" lon="1.47491">
        <ele>246.204216</ele>
        <time>2022-08-10T06:57:39.145Z</time>
      </trkpt>
      <trkpt lat="43.67333" lon="1.47495">
        <ele>246.555902</ele>
        <time>2022-08-10T06:57:41.141Z</time>
      </trkpt>
      <trkpt lat="43.67343" lon="1.47499">
        <ele>246.909484</ele>
        <time>2022-08-10T06:57:43.141Z</time>
      </trkpt>
      <trkpt lat="43.67354" lon="1.47504">
        <ele>247.258844</ele>
        <time>2022-08-10T06:57:45.157Z</time>
      </trkpt>
      <trkpt lat="43.67364" lon="1.47508">
        <ele>247.607268</ele>
        <time>2022-08-10T06:57:47.133Z</time>
      </trkpt>
      <trkpt lat="43.67374" lon="1.47513">
        <ele>247.960265</ele>
        <time>2022-08-10T06:57:49.145Z</time>
      </trkpt>
      <trkpt lat="43.67384" lon="1.47518">
        <ele>248.294909</ele>
        <time>2022-08-10T06:57:51.138Z</time>
      </trkpt>
      <trkpt lat="43.67393" lon="1.47522">
        <ele>248.618051</ele>
        <time>2022-08-10T06:57:53.152Z</time>
      </trkpt>
      <trkpt lat="43.67403" lon="1.47527">
        <ele>248.932026</ele>
        <time>2022-08-10T06:57:55.139Z</time>
      </trkpt>
      <trkpt lat="43.67412" lon="1.47531">
        <ele>249.247502</ele>
        <time>2022-08-10T06:57:57.161Z</time>
      </trkpt>
      <trkpt lat="43.67421" lon="1.47536">
        <ele>249.567852</ele>
        <time>2022-08-10T06:57:59.133Z</time>
      </trkpt>
      <trkpt lat="43.6743" lon="1.47542">
        <ele>249.886866</ele>
        <time>2022-08-10T06:58:01.138Z</time>
      </trkpt>
      <trkpt lat="43.67438" lon="1.47549">
        <ele>250.213898</ele>
        <time>2022-08-10T06:58:03.118Z</time>
      </trkpt>
      <trkpt lat="43.67447" lon="1.47558">
        <ele>250.547234</ele>
        <time>2022-08-10T06:58:05.141Z</time>
      </trkpt>
      <trkpt lat="43.67455" lon="1.47566">
        <ele>250.879362</ele>
        <time>2022-08-10T06:58:07.130Z</time>
      </trkpt>
      <trkpt lat="43.67463" lon="1.47575">
        <ele>251.212698</ele>
        <time>2022-08-10T06:58:09.139Z</time>
      </trkpt>
      <trkpt lat="43.67472" lon="1.47584">
        <ele>251.566031</ele>
        <time>2022-08-10T06:58:11.135Z</time>
      </trkpt>
      <trkpt lat="43.67481" lon="1.47593">
        <ele>251.948968</ele>
        <time>2022-08-10T06:58:13.152Z</time>
      </trkpt>
      <trkpt lat="43.67491" lon="1.47604">
        <ele>252.15467</ele>
        <time>2022-08-10T06:58:15.148Z</time>
      </trkpt>
      <trkpt lat="43.67501" lon="1.47614">
        <ele>252.043057</ele>
        <time>2022-08-10T06:58:17.148Z</time>
      </trkpt>
      <trkpt lat="43.67512" lon="1.47625">
        <ele>251.928528</ele>
        <time>2022-08-10T06:58:19.133Z</time>
      </trkpt>
      <trkpt lat="43.67523" lon="1.47635">
        <ele>251.81405</ele>
        <time>2022-08-10T06:58:21.138Z</time>
      </trkpt>
      <trkpt lat="43.67533" lon="1.47646">
        <ele>251.697406</ele>
        <time>2022-08-10T06:58:23.130Z</time>
      </trkpt>
      <trkpt lat="43.67544" lon="1.47656">
        <ele>251.581815</ele>
        <time>2022-08-10T06:58:25.141Z</time>
      </trkpt>
      <trkpt lat="43.67556" lon="1.47666">
        <ele>251.465775</ele>
        <time>2022-08-10T06:58:27.118Z</time>
      </trkpt>
      <trkpt lat="43.67567" lon="1.47675">
        <ele>251.350735</ele>
        <time>2022-08-10T06:58:29.137Z</time>
      </trkpt>
      <trkpt lat="43.67578" lon="1.47684">
        <ele>251.235695</ele>
        <time>2022-08-10T06:58:31.114Z</time>
      </trkpt>
      <trkpt lat="43.67589" lon="1.47693">
        <ele>251.120875</ele>
        <time>2022-08-10T06:58:33.112Z</time>
      </trkpt>
      <trkpt lat="43.67601" lon="1.47701">
        <ele>251.007055</ele>
        <time>2022-08-10T06:58:35.109Z</time>
      </trkpt>
      <trkpt lat="43.67613" lon="1.47709">
        <ele>250.894866</ele>
        <time>2022-08-10T06:58:37.120Z</time>
      </trkpt>
      <trkpt lat="43.67624" lon="1.47715">
        <ele>250.786716</ele>
        <time>2022-08-10T06:58:39.124Z</time>
      </trkpt>
      <trkpt lat="43.67636" lon="1.47719">
        <ele>250.67677</ele>
        <time>2022-08-10T06:58:41.134Z</time>
      </trkpt>
      <trkpt lat="43.67649" lon="1.47721">
        <ele>250.530979</ele>
        <time>2022-08-10T06:58:43.122Z</time>
      </trkpt>
      <trkpt lat="43.67661" lon="1.47721">
        <ele>250.349132</ele>
        <time>2022-08-10T06:58:45.129Z</time>
      </trkpt>
      <trkpt lat="43.67673" lon="1.47721">
        <ele>250.176242</ele>
        <time>2022-08-10T06:58:47.125Z</time>
      </trkpt>
      <trkpt lat="43.67674" lon="1.47737">
        <ele>250.005863</ele>
        <time>2022-08-10T06:58:50.116Z</time>
      </trkpt>
      <trkpt lat="43.67669" lon="1.47748">
        <ele>249.864895</ele>
        <time>2022-08-10T06:58:52.119Z</time>
      </trkpt>
      <trkpt lat="43.67664" lon="1.47765">
        <ele>249.669788</ele>
        <time>2022-08-10T06:58:55.118Z</time>
      </trkpt>
      <trkpt lat="43.67658" lon="1.47777">
        <ele>249.516098</ele>
        <time>2022-08-10T06:58:57.129Z</time>
      </trkpt>
      <trkpt lat="43.67655" lon="1.47793">
        <ele>249.337616</ele>
        <time>2022-08-10T06:59:00.110Z</time>
      </trkpt>
      <trkpt lat="43.67658" lon="1.47805">
        <ele>249.201636</ele>
        <time>2022-08-10T06:59:02.123Z</time>
      </trkpt>
      <trkpt lat="43.67664" lon="1.47817">
        <ele>249.060667</ele>
        <time>2022-08-10T06:59:04.157Z</time>
      </trkpt>
      <trkpt lat="43.67673" lon="1.47825">
        <ele>248.902856</ele>
        <time>2022-08-10T06:59:06.104Z</time>
      </trkpt>
      <trkpt lat="43.67682" lon="1.47832">
        <ele>248.740493</ele>
        <time>2022-08-10T06:59:08.139Z</time>
      </trkpt>
      <trkpt lat="43.6769" lon="1.47841">
        <ele>248.591257</ele>
        <time>2022-08-10T06:59:10.126Z</time>
      </trkpt>
      <trkpt lat="43.6769" lon="1.47854">
        <ele>248.453182</ele>
        <time>2022-08-10T06:59:12.125Z</time>
      </trkpt>
      <trkpt lat="43.67683" lon="1.47868">
        <ele>248.272355</ele>
        <time>2022-08-10T06:59:14.121Z</time>
      </trkpt>
      <trkpt lat="43.67676" lon="1.47886">
        <ele>248.061861</ele>
        <time>2022-08-10T06:59:16.120Z</time>
      </trkpt>
      <trkpt lat="43.6767" lon="1.47906">
        <ele>246.770971</ele>
        <time>2022-08-10T06:59:18.118Z</time>
      </trkpt>
      <trkpt lat="43.67671" lon="1.47928">
        <ele>244.94748</ele>
        <time>2022-08-10T06:59:20.119Z</time>
      </trkpt>
      <trkpt lat="43.67674" lon="1.47949">
        <ele>243.236674</ele>
        <time>2022-08-10T06:59:22.130Z</time>
      </trkpt>
      <trkpt lat="43.67676" lon="1.47963">
        <ele>242.049449</ele>
        <time>2022-08-10T06:59:24.147Z</time>
      </trkpt>
      <trkpt lat="43.67667" lon="1.47968">
        <ele>240.876551</ele>
        <time>2022-08-10T06:59:28.128Z</time>
      </trkpt>
      <trkpt lat="43.67657" lon="1.47971">
        <ele>239.779903</ele>
        <time>2022-08-10T06:59:30.122Z</time>
      </trkpt>
      <trkpt lat="43.67648" lon="1.47975">
        <ele>238.669107</ele>
        <time>2022-08-10T06:59:32.125Z</time>
      </trkpt>
      <trkpt lat="43.6764" lon="1.47992">
        <ele>237.009285</ele>
        <time>2022-08-10T06:59:34.126Z</time>
      </trkpt>
      <trkpt lat="43.67636" lon="1.48004">
        <ele>235.963535</ele>
        <time>2022-08-10T06:59:35.129Z</time>
      </trkpt>
      <trkpt lat="43.67631" lon="1.48024">
        <ele>234.167719</ele>
        <time>2022-08-10T06:59:37.113Z</time>
      </trkpt>
      <trkpt lat="43.67623" lon="1.48036">
        <ele>232.861248</ele>
        <time>2022-08-10T06:59:40.112Z</time>
      </trkpt>
      <trkpt lat="43.67619" lon="1.48022">
        <ele>231.67745</ele>
        <time>2022-08-10T06:59:42.094Z</time>
      </trkpt>
      <trkpt lat="43.67616" lon="1.48005">
        <ele>230.207102</ele>
        <time>2022-08-10T06:59:44.142Z</time>
      </trkpt>
      <trkpt lat="43.67611" lon="1.47992">
        <ele>228.975907</ele>
        <time>2022-08-10T06:59:46.112Z</time>
      </trkpt>
      <trkpt lat="43.67602" lon="1.47981">
        <ele>227.636139</ele>
        <time>2022-08-10T06:59:50.108Z</time>
      </trkpt>
      <trkpt lat="43.6759" lon="1.47977">
        <ele>226.082462</ele>
        <time>2022-08-10T06:59:54.106Z</time>
      </trkpt>
      <trkpt lat="43.67584" lon="1.47989">
        <ele>224.754911</ele>
        <time>2022-08-10T07:00:02.107Z</time>
      </trkpt>
      <trkpt lat="43.67577" lon="1.48">
        <ele>223.397961</ele>
        <time>2022-08-10T07:00:06.099Z</time>
      </trkpt>
      <trkpt lat="43.67566" lon="1.48008">
        <ele>221.804409</ele>
        <time>2022-08-10T07:00:10.077Z</time>
      </trkpt>
      <trkpt lat="43.67567" lon="1.48022">
        <ele>220.534173</ele>
        <time>2022-08-10T07:00:13.091Z</time>
      </trkpt>
      <trkpt lat="43.67558" lon="1.48035">
        <ele>218.830963</ele>
        <time>2022-08-10T07:00:18.088Z</time>
      </trkpt>
      <trkpt lat="43.67551" lon="1.48046">
        <ele>217.483665</ele>
        <time>2022-08-10T07:00:21.099Z</time>
      </trkpt>
      <trkpt lat="43.67538" lon="1.48062">
        <ele>215.232606</ele>
        <time>2022-08-10T07:00:24.082Z</time>
      </trkpt>
      <trkpt lat="43.67525" lon="1.4806">
        <ele>213.527936</ele>
        <time>2022-08-10T07:00:27.085Z</time>
      </trkpt>
      <trkpt lat="43.67516" lon="1.48058">
        <ele>212.338654</ele>
        <time>2022-08-10T07:00:29.093Z</time>
      </trkpt>
      <trkpt lat="43.67505" lon="1.48059">
        <ele>210.949277</ele>
        <time>2022-08-10T07:00:31.099Z</time>
      </trkpt>
      <trkpt lat="43.67494" lon="1.48056">
        <ele>209.50559</ele>
        <time>2022-08-10T07:00:33.087Z</time>
      </trkpt>
      <trkpt lat="43.67482" lon="1.48052">
        <ele>207.960015</ele>
        <time>2022-08-10T07:00:35.082Z</time>
      </trkpt>
      <trkpt lat="43.6747" lon="1.48047">
        <ele>206.363471</ele>
        <time>2022-08-10T07:00:37.077Z</time>
      </trkpt>
      <trkpt lat="43.67458" lon="1.48042">
        <ele>204.754377</ele>
        <time>2022-08-10T07:00:39.090Z</time>
      </trkpt>
      <trkpt lat="43.67447" lon="1.48036">
        <ele>204.156128</ele>
        <time>2022-08-10T07:00:41.098Z</time>
      </trkpt>
      <trkpt lat="43.67435" lon="1.48029">
        <ele>203.90514</ele>
        <time>2022-08-10T07:00:43.090Z</time>
      </trkpt>
      <trkpt lat="43.67424" lon="1.48019">
        <ele>203.644914</ele>
        <time>2022-08-10T07:00:45.088Z</time>
      </trkpt>
      <trkpt lat="43.67414" lon="1.48008">
        <ele>203.394523</ele>
        <time>2022-08-10T07:00:47.099Z</time>
      </trkpt>
      <trkpt lat="43.67406" lon="1.47997">
        <ele>203.161839</ele>
        <time>2022-08-10T07:00:49.107Z</time>
      </trkpt>
      <trkpt lat="43.67398" lon="1.47986">
        <ele>202.942655</ele>
        <time>2022-08-10T07:00:51.095Z</time>
      </trkpt>
      <trkpt lat="43.67391" lon="1.47974">
        <ele>202.726862</ele>
        <time>2022-08-10T07:00:53.074Z</time>
      </trkpt>
      <trkpt lat="43.67383" lon="1.47963">
        <ele>202.50611</ele>
        <time>2022-08-10T07:00:55.081Z</time>
      </trkpt>
      <trkpt lat="43.67375" lon="1.47951">
        <ele>202.269433</ele>
        <time>2022-08-10T07:00:57.093Z</time>
      </trkpt>
      <trkpt lat="43.67366" lon="1.47939">
        <ele>202.025193</ele>
        <time>2022-08-10T07:00:59.074Z</time>
      </trkpt>
      <trkpt lat="43.67357" lon="1.47929">
        <ele>201.789471</ele>
        <time>2022-08-10T07:01:01.089Z</time>
      </trkpt>
      <trkpt lat="43.67348" lon="1.47919">
        <ele>201.564698</ele>
        <time>2022-08-10T07:01:03.090Z</time>
      </trkpt>
      <trkpt lat="43.67339" lon="1.47909">
        <ele>201.34326</ele>
        <time>2022-08-10T07:01:05.099Z</time>
      </trkpt>
      <trkpt lat="43.67331" lon="1.47899">
        <ele>201.127585</ele>
        <time>2022-08-10T07:01:07.081Z</time>
      </trkpt>
      <trkpt lat="43.67322" lon="1.4789">
        <ele>200.905972</ele>
        <time>2022-08-10T07:01:09.124Z</time>
      </trkpt>
      <trkpt lat="43.67309" lon="1.47887">
        <ele>200.704819</ele>
        <time>2022-08-10T07:01:11.096Z</time>
      </trkpt>
      <trkpt lat="43.67296" lon="1.47895">
        <ele>200.53512</ele>
        <time>2022-08-10T07:01:13.092Z</time>
      </trkpt>
      <trkpt lat="43.67286" lon="1.47901">
        <ele>200.406821</ele>
        <time>2022-08-10T07:01:15.094Z</time>
      </trkpt>
      <trkpt lat="43.6728" lon="1.47891">
        <ele>200.295922</ele>
        <time>2022-08-10T07:01:17.091Z</time>
      </trkpt>
      <trkpt lat="43.67274" lon="1.47879">
        <ele>200.175924</ele>
        <time>2022-08-10T07:01:19.078Z</time>
      </trkpt>
      <trkpt lat="43.67267" lon="1.4787">
        <ele>200.052781</ele>
        <time>2022-08-10T07:01:21.103Z</time>
      </trkpt>
      <trkpt lat="43.67258" lon="1.47863">
        <ele>199.931538</ele>
        <time>2022-08-10T07:01:23.086Z</time>
      </trkpt>
      <trkpt lat="43.67247" lon="1.47861">
        <ele>199.808679</ele>
        <time>2022-08-10T07:01:25.089Z</time>
      </trkpt>
      <trkpt lat="43.67236" lon="1.4786">
        <ele>199.677486</ele>
        <time>2022-08-10T07:01:27.093Z</time>
      </trkpt>
      <trkpt lat="43.67225" lon="1.47859">
        <ele>199.539166</ele>
        <time>2022-08-10T07:01:29.087Z</time>
      </trkpt>
      <trkpt lat="43.67214" lon="1.47857">
        <ele>199.411046</ele>
        <time>2022-08-10T07:01:31.089Z</time>
      </trkpt>
      <trkpt lat="43.67203" lon="1.47855">
        <ele>199.272029</ele>
        <time>2022-08-10T07:01:33.096Z</time>
      </trkpt>
      <trkpt lat="43.67192" lon="1.47853">
        <ele>199.147754</ele>
        <time>2022-08-10T07:01:35.096Z</time>
      </trkpt>
      <trkpt lat="43.67182" lon="1.47851">
        <ele>199.019924</ele>
        <time>2022-08-10T07:01:37.088Z</time>
      </trkpt>
      <trkpt lat="43.6717" lon="1.47851">
        <ele>198.87945</ele>
        <time>2022-08-10T07:01:39.089Z</time>
      </trkpt>
      <trkpt lat="43.67158" lon="1.4785">
        <ele>198.738976</ele>
        <time>2022-08-10T07:01:41.100Z</time>
      </trkpt>
      <trkpt lat="43.67146" lon="1.47851">
        <ele>198.600952</ele>
        <time>2022-08-10T07:01:43.105Z</time>
      </trkpt>
      <trkpt lat="43.67135" lon="1.47846">
        <ele>198.470305</ele>
        <time>2022-08-10T07:01:45.108Z</time>
      </trkpt>
      <trkpt lat="43.67123" lon="1.47842">
        <ele>198.340062</ele>
        <time>2022-08-10T07:01:47.091Z</time>
      </trkpt>
      <trkpt lat="43.67112" lon="1.47839">
        <ele>198.208915</ele>
        <time>2022-08-10T07:01:49.097Z</time>
      </trkpt>
      <trkpt lat="43.671" lon="1.47835">
        <ele>198.076005</ele>
        <time>2022-08-10T07:01:51.104Z</time>
      </trkpt>
      <trkpt lat="43.67088" lon="1.47829">
        <ele>197.937993</ele>
        <time>2022-08-10T07:01:53.092Z</time>
      </trkpt>
      <trkpt lat="43.67078" lon="1.4782">
        <ele>197.804851</ele>
        <time>2022-08-10T07:01:55.082Z</time>
      </trkpt>
      <trkpt lat="43.67068" lon="1.47811">
        <ele>197.668556</ele>
        <time>2022-08-10T07:01:57.087Z</time>
      </trkpt>
      <trkpt lat="43.67057" lon="1.47802">
        <ele>197.533947</ele>
        <time>2022-08-10T07:01:59.092Z</time>
      </trkpt>
      <trkpt lat="43.67048" lon="1.47791">
        <ele>197.399854</ele>
        <time>2022-08-10T07:02:01.100Z</time>
      </trkpt>
      <trkpt lat="43.6704" lon="1.47778">
        <ele>197.263138</ele>
        <time>2022-08-10T07:02:03.079Z</time>
      </trkpt>
      <trkpt lat="43.67037" lon="1.47763">
        <ele>197.132398</ele>
        <time>2022-08-10T07:02:05.101Z</time>
      </trkpt>
      <trkpt lat="43.67031" lon="1.47749">
        <ele>197.004799</ele>
        <time>2022-08-10T07:02:07.088Z</time>
      </trkpt>
      <trkpt lat="43.67024" lon="1.47736">
        <ele>196.87623</ele>
        <time>2022-08-10T07:02:09.097Z</time>
      </trkpt>
      <trkpt lat="43.67017" lon="1.47723">
        <ele>196.745518</ele>
        <time>2022-08-10T07:02:11.087Z</time>
      </trkpt>
      <trkpt lat="43.67011" lon="1.47709">
        <ele>196.636832</ele>
        <time>2022-08-10T07:02:13.089Z</time>
      </trkpt>
      <trkpt lat="43.67006" lon="1.47694">
        <ele>196.573432</ele>
        <time>2022-08-10T07:02:15.083Z</time>
      </trkpt>
      <trkpt lat="43.67001" lon="1.47679">
        <ele>196.510755</ele>
        <time>2022-08-10T07:02:17.068Z</time>
      </trkpt>
      <trkpt lat="43.66998" lon="1.47664">
        <ele>196.450448</ele>
        <time>2022-08-10T07:02:19.093Z</time>
      </trkpt>
      <trkpt lat="43.66995" lon="1.47649">
        <ele>196.390243</ele>
        <time>2022-08-10T07:02:21.086Z</time>
      </trkpt>
      <trkpt lat="43.66992" lon="1.47634">
        <ele>196.328794</ele>
        <time>2022-08-10T07:02:23.104Z</time>
      </trkpt>
      <trkpt lat="43.6699" lon="1.47618">
        <ele>196.268544</ele>
        <time>2022-08-10T07:02:25.105Z</time>
      </trkpt>
      <trkpt lat="43.66991" lon="1.47604">
        <ele>196.211678</ele>
        <time>2022-08-10T07:02:27.090Z</time>
      </trkpt>
      <trkpt lat="43.66984" lon="1.47593">
        <ele>196.154509</ele>
        <time>2022-08-10T07:02:29.092Z</time>
      </trkpt>
      <trkpt lat="43.66975" lon="1.47582">
        <ele>196.093782</ele>
        <time>2022-08-10T07:02:31.089Z</time>
      </trkpt>
      <trkpt lat="43.66966" lon="1.47573">
        <ele>196.032722</ele>
        <time>2022-08-10T07:02:33.093Z</time>
      </trkpt>
      <trkpt lat="43.66957" lon="1.47563">
        <ele>195.971788</ele>
        <time>2022-08-10T07:02:35.101Z</time>
      </trkpt>
      <trkpt lat="43.66947" lon="1.47555">
        <ele>195.909706</ele>
        <time>2022-08-10T07:02:37.093Z</time>
      </trkpt>
      <trkpt lat="43.66934" lon="1.47552">
        <ele>195.84273</ele>
        <time>2022-08-10T07:02:39.097Z</time>
      </trkpt>
      <trkpt lat="43.66924" lon="1.47541">
        <ele>195.773044</ele>
        <time>2022-08-10T07:02:41.113Z</time>
      </trkpt>
      <trkpt lat="43.66918" lon="1.47527">
        <ele>195.71058</ele>
        <time>2022-08-10T07:02:43.086Z</time>
      </trkpt>
      <trkpt lat="43.66912" lon="1.47514">
        <ele>195.806101</ele>
        <time>2022-08-10T07:02:45.095Z</time>
      </trkpt>
      <trkpt lat="43.66902" lon="1.47506">
        <ele>195.948059</ele>
        <time>2022-08-10T07:02:47.116Z</time>
      </trkpt>
      <trkpt lat="43.66891" lon="1.47499">
        <ele>196.103542</ele>
        <time>2022-08-10T07:02:49.090Z</time>
      </trkpt>
      <trkpt lat="43.66881" lon="1.47488">
        <ele>196.261772</ele>
        <time>2022-08-10T07:02:51.109Z</time>
      </trkpt>
      <trkpt lat="43.66872" lon="1.47478">
        <ele>196.410495</ele>
        <time>2022-08-10T07:02:53.093Z</time>
      </trkpt>
      <trkpt lat="43.66863" lon="1.47468">
        <ele>196.555939</ele>
        <time>2022-08-10T07:02:55.087Z</time>
      </trkpt>
      <trkpt lat="43.66853" lon="1.47458">
        <ele>196.704123</ele>
        <time>2022-08-10T07:02:57.099Z</time>
      </trkpt>
      <trkpt lat="43.66845" lon="1.47447">
        <ele>196.849499</ele>
        <time>2022-08-10T07:02:59.102Z</time>
      </trkpt>
      <trkpt lat="43.66837" lon="1.47437">
        <ele>196.991838</ele>
        <time>2022-08-10T07:03:01.096Z</time>
      </trkpt>
      <trkpt lat="43.6683" lon="1.47426">
        <ele>197.129482</ele>
        <time>2022-08-10T07:03:03.100Z</time>
      </trkpt>
      <trkpt lat="43.66827" lon="1.47413">
        <ele>197.245368</ele>
        <time>2022-08-10T07:03:05.101Z</time>
      </trkpt>
      <trkpt lat="43.66819" lon="1.47406">
        <ele>197.366084</ele>
        <time>2022-08-10T07:03:08.085Z</time>
      </trkpt>
      <trkpt lat="43.66809" lon="1.474">
        <ele>197.500316</ele>
        <time>2022-08-10T07:03:11.105Z</time>
      </trkpt>
      <trkpt lat="43.66799" lon="1.47392">
        <ele>197.652264</ele>
        <time>2022-08-10T07:03:14.098Z</time>
      </trkpt>
      <trkpt lat="43.6679" lon="1.47384">
        <ele>197.790148</ele>
        <time>2022-08-10T07:03:17.113Z</time>
      </trkpt>
      <trkpt lat="43.66778" lon="1.47378">
        <ele>197.946108</ele>
        <time>2022-08-10T07:03:20.109Z</time>
      </trkpt>
      <trkpt lat="43.66769" lon="1.47375">
        <ele>197.925023</ele>
        <time>2022-08-10T07:03:22.097Z</time>
      </trkpt>
      <trkpt lat="43.66759" lon="1.47371">
        <ele>197.879849</ele>
        <time>2022-08-10T07:03:24.092Z</time>
      </trkpt>
      <trkpt lat="43.66749" lon="1.47367">
        <ele>197.830389</ele>
        <time>2022-08-10T07:03:26.114Z</time>
      </trkpt>
      <trkpt lat="43.66738" lon="1.47363">
        <ele>197.775834</ele>
        <time>2022-08-10T07:03:28.107Z</time>
      </trkpt>
      <trkpt lat="43.66726" lon="1.47359">
        <ele>197.721085</ele>
        <time>2022-08-10T07:03:30.107Z</time>
      </trkpt>
      <trkpt lat="43.66716" lon="1.47354">
        <ele>197.66976</ele>
        <time>2022-08-10T07:03:32.081Z</time>
      </trkpt>
      <trkpt lat="43.66706" lon="1.4735">
        <ele>197.623779</ele>
        <time>2022-08-10T07:03:34.081Z</time>
      </trkpt>
      <trkpt lat="43.66695" lon="1.47347">
        <ele>197.572855</ele>
        <time>2022-08-10T07:03:38.104Z</time>
      </trkpt>
      <trkpt lat="43.66685" lon="1.47343">
        <ele>197.522139</ele>
        <time>2022-08-10T07:03:41.116Z</time>
      </trkpt>
      <trkpt lat="43.66673" lon="1.47338">
        <ele>197.463838</ele>
        <time>2022-08-10T07:03:44.110Z</time>
      </trkpt>
      <trkpt lat="43.6666" lon="1.47334">
        <ele>197.403964</ele>
        <time>2022-08-10T07:03:47.089Z</time>
      </trkpt>
      <trkpt lat="43.66648" lon="1.4733">
        <ele>197.347083</ele>
        <time>2022-08-10T07:03:50.092Z</time>
      </trkpt>
      <trkpt lat="43.66638" lon="1.47332">
        <ele>197.298912</ele>
        <time>2022-08-10T07:03:54.112Z</time>
      </trkpt>
      <trkpt lat="43.66643" lon="1.47347">
        <ele>197.242079</ele>
        <time>2022-08-10T07:03:57.088Z</time>
      </trkpt>
      <trkpt lat="43.66649" lon="1.47359">
        <ele>197.194821</ele>
        <time>2022-08-10T07:03:59.095Z</time>
      </trkpt>
      <trkpt lat="43.66655" lon="1.47371">
        <ele>197.146415</ele>
        <time>2022-08-10T07:04:01.127Z</time>
      </trkpt>
      <trkpt lat="43.66661" lon="1.47384">
        <ele>197.153187</ele>
        <time>2022-08-10T07:04:03.117Z</time>
      </trkpt>
      <trkpt lat="43.66667" lon="1.47397">
        <ele>197.187798</ele>
        <time>2022-08-10T07:04:05.109Z</time>
      </trkpt>
      <trkpt lat="43.66674" lon="1.47411">
        <ele>197.222563</ele>
        <time>2022-08-10T07:04:07.107Z</time>
      </trkpt>
      <trkpt lat="43.6668" lon="1.47424">
        <ele>197.257842</ele>
        <time>2022-08-10T07:04:09.092Z</time>
      </trkpt>
      <trkpt lat="43.66689" lon="1.47435">
        <ele>197.293577</ele>
        <time>2022-08-10T07:04:11.110Z</time>
      </trkpt>
      <trkpt lat="43.66697" lon="1.47446">
        <ele>197.326922</ele>
        <time>2022-08-10T07:04:13.116Z</time>
      </trkpt>
      <trkpt lat="43.66705" lon="1.47455">
        <ele>197.359262</ele>
        <time>2022-08-10T07:04:15.105Z</time>
      </trkpt>
      <trkpt lat="43.66713" lon="1.47465">
        <ele>197.391232</ele>
        <time>2022-08-10T07:04:17.105Z</time>
      </trkpt>
      <trkpt lat="43.66721" lon="1.47472">
        <ele>197.42057</ele>
        <time>2022-08-10T07:04:19.102Z</time>
      </trkpt>
      <trkpt lat="43.6673" lon="1.4748">
        <ele>197.451458</ele>
        <time>2022-08-10T07:04:21.113Z</time>
      </trkpt>
      <trkpt lat="43.66738" lon="1.47486">
        <ele>197.479547</ele>
        <time>2022-08-10T07:04:23.095Z</time>
      </trkpt>
      <trkpt lat="43.66747" lon="1.47492">
        <ele>197.507205</ele>
        <time>2022-08-10T07:04:25.125Z</time>
      </trkpt>
      <trkpt lat="43.66758" lon="1.47501">
        <ele>197.547085</ele>
        <time>2022-08-10T07:04:28.075Z</time>
      </trkpt>
      <trkpt lat="43.66766" lon="1.4751">
        <ele>197.578598</ele>
        <time>2022-08-10T07:04:31.094Z</time>
      </trkpt>
      <trkpt lat="43.66776" lon="1.47512">
        <ele>197.608849</ele>
        <time>2022-08-10T07:04:35.091Z</time>
      </trkpt>
      <trkpt lat="43.66785" lon="1.47509">
        <ele>197.638084</ele>
        <time>2022-08-10T07:04:38.089Z</time>
      </trkpt>
      <trkpt lat="43.66795" lon="1.475">
        <ele>197.670853</ele>
        <time>2022-08-10T07:04:40.079Z</time>
      </trkpt>
      <trkpt lat="43.66808" lon="1.4749">
        <ele>197.415672</ele>
        <time>2022-08-10T07:04:42.075Z</time>
      </trkpt>
      <trkpt lat="43.66823" lon="1.4748">
        <ele>197.141448</ele>
        <time>2022-08-10T07:04:44.084Z</time>
      </trkpt>
      <trkpt lat="43.66832" lon="1.47476">
        <ele>196.988489</ele>
        <time>2022-08-10T07:04:46.095Z</time>
      </trkpt>
      <trkpt lat="43.66842" lon="1.4748">
        <ele>196.830283</ele>
        <time>2022-08-10T07:04:49.071Z</time>
      </trkpt>
      <trkpt lat="43.66853" lon="1.47483">
        <ele>196.63793</ele>
        <time>2022-08-10T07:04:52.091Z</time>
      </trkpt>
      <trkpt lat="43.66859" lon="1.47494">
        <ele>196.47637</ele>
        <time>2022-08-10T07:04:54.078Z</time>
      </trkpt>
      <trkpt lat="43.66866" lon="1.47509">
        <ele>196.270759</ele>
        <time>2022-08-10T07:04:57.101Z</time>
      </trkpt>
      <trkpt lat="43.66873" lon="1.47517">
        <ele>196.120047</ele>
        <time>2022-08-10T07:04:59.087Z</time>
      </trkpt>
      <trkpt lat="43.66882" lon="1.47529">
        <ele>195.917524</ele>
        <time>2022-08-10T07:05:02.083Z</time>
      </trkpt>
      <trkpt lat="43.66892" lon="1.47542">
        <ele>195.680688</ele>
        <time>2022-08-10T07:05:05.096Z</time>
      </trkpt>
      <trkpt lat="43.669" lon="1.47552">
        <ele>195.515262</ele>
        <time>2022-08-10T07:05:08.085Z</time>
      </trkpt>
      <trkpt lat="43.66908" lon="1.47565">
        <ele>195.312339</ele>
        <time>2022-08-10T07:05:11.089Z</time>
      </trkpt>
      <trkpt lat="43.66913" lon="1.47575">
        <ele>195.163132</ele>
        <time>2022-08-10T07:05:13.085Z</time>
      </trkpt>
      <trkpt lat="43.66921" lon="1.47586">
        <ele>194.989195</ele>
        <time>2022-08-10T07:05:15.083Z</time>
      </trkpt>
      <trkpt lat="43.66928" lon="1.47596">
        <ele>194.814993</ele>
        <time>2022-08-10T07:05:18.087Z</time>
      </trkpt>
      <trkpt lat="43.66937" lon="1.47605">
        <ele>194.868585</ele>
        <time>2022-08-10T07:05:21.097Z</time>
      </trkpt>
      <trkpt lat="43.66946" lon="1.47612">
        <ele>195.077186</ele>
        <time>2022-08-10T07:05:24.090Z</time>
      </trkpt>
      <trkpt lat="43.66955" lon="1.47616">
        <ele>195.276823</ele>
        <time>2022-08-10T07:05:26.100Z</time>
      </trkpt>
      <trkpt lat="43.66964" lon="1.47624">
        <ele>195.503316</ele>
        <time>2022-08-10T07:05:28.083Z</time>
      </trkpt>
      <trkpt lat="43.66971" lon="1.47639">
        <ele>195.76876</ele>
        <time>2022-08-10T07:05:31.087Z</time>
      </trkpt>
      <trkpt lat="43.66975" lon="1.47651">
        <ele>195.956356</ele>
        <time>2022-08-10T07:05:33.106Z</time>
      </trkpt>
      <trkpt lat="43.66977" lon="1.47663">
        <ele>196.147126</ele>
        <time>2022-08-10T07:05:36.099Z</time>
      </trkpt>
      <trkpt lat="43.6698" lon="1.47678">
        <ele>196.380137</ele>
        <time>2022-08-10T07:05:40.087Z</time>
      </trkpt>
      <trkpt lat="43.66982" lon="1.47694">
        <ele>196.614132</ele>
        <time>2022-08-10T07:05:44.087Z</time>
      </trkpt>
      <trkpt lat="43.66987" lon="1.47709">
        <ele>196.853316</ele>
        <time>2022-08-10T07:05:47.101Z</time>
      </trkpt>
      <trkpt lat="43.66992" lon="1.47724">
        <ele>197.106451</ele>
        <time>2022-08-10T07:05:50.084Z</time>
      </trkpt>
      <trkpt lat="43.66997" lon="1.4774">
        <ele>197.366044</ele>
        <time>2022-08-10T07:05:53.094Z</time>
      </trkpt>
      <trkpt lat="43.67003" lon="1.47753">
        <ele>197.595796</ele>
        <time>2022-08-10T07:05:56.094Z</time>
      </trkpt>
      <trkpt lat="43.67012" lon="1.47767">
        <ele>197.876634</ele>
        <time>2022-08-10T07:05:59.079Z</time>
      </trkpt>
      <trkpt lat="43.67013" lon="1.47784">
        <ele>198.124032</ele>
        <time>2022-08-10T07:06:02.089Z</time>
      </trkpt>
      <trkpt lat="43.67014" lon="1.47797">
        <ele>198.323698</ele>
        <time>2022-08-10T07:06:05.094Z</time>
      </trkpt>
      <trkpt lat="43.67024" lon="1.47814">
        <ele>198.431228</ele>
        <time>2022-08-10T07:06:36.103Z</time>
      </trkpt>
      <trkpt lat="43.67031" lon="1.47825">
        <ele>198.425234</ele>
        <time>2022-08-10T07:06:48.106Z</time>
      </trkpt>
      <trkpt lat="43.6704" lon="1.47833">
        <ele>198.419758</ele>
        <time>2022-08-10T07:06:53.099Z</time>
      </trkpt>
      <trkpt lat="43.67041" lon="1.47848">
        <ele>198.413785</ele>
        <time>2022-08-10T07:06:57.082Z</time>
      </trkpt>
      <trkpt lat="43.67051" lon="1.47869">
        <ele>198.403764</ele>
        <time>2022-08-10T07:07:32.095Z</time>
      </trkpt>
      <trkpt lat="43.67061" lon="1.47872">
        <ele>198.398312</ele>
        <time>2022-08-10T07:07:36.084Z</time>
      </trkpt>
      <trkpt lat="43.6707" lon="1.47864">
        <ele>198.392621</ele>
        <time>2022-08-10T07:07:39.077Z</time>
      </trkpt>
      <trkpt lat="43.67084" lon="1.47863">
        <ele>198.385253</ele>
        <time>2022-08-10T07:07:42.079Z</time>
      </trkpt>
      <trkpt lat="43.67095" lon="1.47867">
        <ele>198.3791</ele>
        <time>2022-08-10T07:07:44.094Z</time>
      </trkpt>
      <trkpt lat="43.67104" lon="1.4787">
        <ele>198.373959</ele>
        <time>2022-08-10T07:07:46.095Z</time>
      </trkpt>
      <trkpt lat="43.67113" lon="1.47879">
        <ele>198.368253</ele>
        <time>2022-08-10T07:07:49.097Z</time>
      </trkpt>
      <trkpt lat="43.67125" lon="1.47879">
        <ele>198.36176</ele>
        <time>2022-08-10T07:07:52.120Z</time>
      </trkpt>
      <trkpt lat="43.67138" lon="1.47883">
        <ele>198.354323</ele>
        <time>2022-08-10T07:07:55.077Z</time>
      </trkpt>
      <trkpt lat="43.67147" lon="1.47884">
        <ele>198.349262</ele>
        <time>2022-08-10T07:07:57.092Z</time>
      </trkpt>
      <trkpt lat="43.67161" lon="1.47886">
        <ele>198.341966</ele>
        <time>2022-08-10T07:08:00.104Z</time>
      </trkpt>
      <trkpt lat="43.67174" lon="1.47885">
        <ele>198.850882</ele>
        <time>2022-08-10T07:08:03.112Z</time>
      </trkpt>
      <trkpt lat="43.67186" lon="1.47885">
        <ele>199.57197</ele>
        <time>2022-08-10T07:08:06.080Z</time>
      </trkpt>
      <trkpt lat="43.67196" lon="1.47885">
        <ele>200.177107</ele>
        <time>2022-08-10T07:08:09.091Z</time>
      </trkpt>
      <trkpt lat="43.67206" lon="1.47886">
        <ele>200.790791</ele>
        <time>2022-08-10T07:08:11.093Z</time>
      </trkpt>
      <trkpt lat="43.67216" lon="1.47889">
        <ele>201.411688</ele>
        <time>2022-08-10T07:08:13.100Z</time>
      </trkpt>
      <trkpt lat="43.67225" lon="1.47891">
        <ele>201.989722</ele>
        <time>2022-08-10T07:08:15.094Z</time>
      </trkpt>
      <trkpt lat="43.67234" lon="1.47895">
        <ele>202.540026</ele>
        <time>2022-08-10T07:08:17.104Z</time>
      </trkpt>
      <trkpt lat="43.67242" lon="1.47899">
        <ele>203.117526</ele>
        <time>2022-08-10T07:08:19.091Z</time>
      </trkpt>
      <trkpt lat="43.67252" lon="1.479">
        <ele>203.72247</ele>
        <time>2022-08-10T07:08:21.096Z</time>
      </trkpt>
      <trkpt lat="43.67257" lon="1.47912">
        <ele>204.317031</ele>
        <time>2022-08-10T07:08:26.109Z</time>
      </trkpt>
      <trkpt lat="43.6726" lon="1.47928">
        <ele>205.057535</ele>
        <time>2022-08-10T07:08:30.083Z</time>
      </trkpt>
      <trkpt lat="43.67265" lon="1.47941">
        <ele>205.743585</ele>
        <time>2022-08-10T07:08:33.094Z</time>
      </trkpt>
      <trkpt lat="43.67269" lon="1.47954">
        <ele>206.350138</ele>
        <time>2022-08-10T07:08:36.078Z</time>
      </trkpt>
      <trkpt lat="43.67274" lon="1.47968">
        <ele>207.015082</ele>
        <time>2022-08-10T07:08:39.085Z</time>
      </trkpt>
      <trkpt lat="43.6728" lon="1.47982">
        <ele>207.737364</ele>
        <time>2022-08-10T07:08:42.099Z</time>
      </trkpt>
      <trkpt lat="43.67284" lon="1.47994">
        <ele>208.327847</ele>
        <time>2022-08-10T07:08:45.094Z</time>
      </trkpt>
      <trkpt lat="43.67278" lon="1.48008">
        <ele>209.021756</ele>
        <time>2022-08-10T07:08:49.099Z</time>
      </trkpt>
      <trkpt lat="43.67269" lon="1.48012">
        <ele>209.506878</ele>
        <time>2022-08-10T07:08:52.081Z</time>
      </trkpt>
      <trkpt lat="43.67259" lon="1.48018">
        <ele>209.99342</ele>
        <time>2022-08-10T07:08:55.093Z</time>
      </trkpt>
      <trkpt lat="43.6725" lon="1.48024">
        <ele>210.407008</ele>
        <time>2022-08-10T07:08:57.085Z</time>
      </trkpt>
      <trkpt lat="43.67243" lon="1.48034">
        <ele>210.835137</ele>
        <time>2022-08-10T07:08:59.095Z</time>
      </trkpt>
      <trkpt lat="43.67233" lon="1.48039">
        <ele>211.31937</ele>
        <time>2022-08-10T07:09:03.090Z</time>
      </trkpt>
      <trkpt lat="43.6723" lon="1.48052">
        <ele>211.725976</ele>
        <time>2022-08-10T07:09:08.097Z</time>
      </trkpt>
      <trkpt lat="43.67224" lon="1.48068">
        <ele>212.285749</ele>
        <time>2022-08-10T07:09:12.088Z</time>
      </trkpt>
      <trkpt lat="43.67216" lon="1.48082">
        <ele>212.850629</ele>
        <time>2022-08-10T07:09:15.094Z</time>
      </trkpt>
      <trkpt lat="43.67209" lon="1.48091">
        <ele>213.262643</ele>
        <time>2022-08-10T07:09:17.097Z</time>
      </trkpt>
      <trkpt lat="43.67198" lon="1.48092">
        <ele>213.715808</ele>
        <time>2022-08-10T07:09:20.102Z</time>
      </trkpt>
      <trkpt lat="43.67187" lon="1.48088">
        <ele>214.209505</ele>
        <time>2022-08-10T07:09:23.096Z</time>
      </trkpt>
      <trkpt lat="43.6718" lon="1.4808">
        <ele>214.608844</ele>
        <time>2022-08-10T07:09:25.099Z</time>
      </trkpt>
      <trkpt lat="43.6717" lon="1.48071">
        <ele>215.123145</ele>
        <time>2022-08-10T07:09:27.102Z</time>
      </trkpt>
      <trkpt lat="43.67159" lon="1.4806">
        <ele>215.698165</ele>
        <time>2022-08-10T07:09:29.102Z</time>
      </trkpt>
      <trkpt lat="43.67148" lon="1.48048">
        <ele>216.273627</ele>
        <time>2022-08-10T07:09:31.097Z</time>
      </trkpt>
      <trkpt lat="43.67139" lon="1.48037">
        <ele>216.800239</ele>
        <time>2022-08-10T07:09:33.096Z</time>
      </trkpt>
      <trkpt lat="43.67131" lon="1.48027">
        <ele>216.696392</ele>
        <time>2022-08-10T07:09:35.084Z</time>
      </trkpt>
      <trkpt lat="43.67123" lon="1.48017">
        <ele>215.945773</ele>
        <time>2022-08-10T07:09:37.088Z</time>
      </trkpt>
      <trkpt lat="43.67116" lon="1.48006">
        <ele>215.173747</ele>
        <time>2022-08-10T07:09:39.095Z</time>
      </trkpt>
      <trkpt lat="43.67109" lon="1.47995">
        <ele>214.38178</ele>
        <time>2022-08-10T07:09:41.098Z</time>
      </trkpt>
      <trkpt lat="43.67101" lon="1.47983">
        <ele>213.569779</ele>
        <time>2022-08-10T07:09:43.085Z</time>
      </trkpt>
      <trkpt lat="43.67092" lon="1.47971">
        <ele>212.712503</ele>
        <time>2022-08-10T07:09:45.102Z</time>
      </trkpt>
      <trkpt lat="43.67083" lon="1.47959">
        <ele>211.773832</ele>
        <time>2022-08-10T07:09:47.079Z</time>
      </trkpt>
      <trkpt lat="43.67071" lon="1.47944">
        <ele>210.67142</ele>
        <time>2022-08-10T07:09:49.088Z</time>
      </trkpt>
      <trkpt lat="43.67056" lon="1.47928">
        <ele>209.342839</ele>
        <time>2022-08-10T07:09:51.092Z</time>
      </trkpt>
      <trkpt lat="43.67048" lon="1.4792">
        <ele>208.638297</ele>
        <time>2022-08-10T07:09:52.086Z</time>
      </trkpt>
      <trkpt lat="43.67041" lon="1.47912">
        <ele>207.97323</ele>
        <time>2022-08-10T07:09:53.109Z</time>
      </trkpt>
      <trkpt lat="43.67033" lon="1.47905">
        <ele>207.271511</ele>
        <time>2022-08-10T07:09:54.083Z</time>
      </trkpt>
      <trkpt lat="43.67025" lon="1.47898">
        <ele>206.59007</ele>
        <time>2022-08-10T07:09:55.091Z</time>
      </trkpt>
      <trkpt lat="43.67016" lon="1.47891">
        <ele>205.89231</ele>
        <time>2022-08-10T07:09:56.098Z</time>
      </trkpt>
      <trkpt lat="43.67003" lon="1.4788">
        <ele>204.780444</ele>
        <time>2022-08-10T07:09:58.112Z</time>
      </trkpt>
      <trkpt lat="43.66991" lon="1.47873">
        <ele>204.46665</ele>
        <time>2022-08-10T07:10:00.109Z</time>
      </trkpt>
      <trkpt lat="43.66981" lon="1.47877">
        <ele>204.799566</ele>
        <time>2022-08-10T07:10:03.105Z</time>
      </trkpt>
      <trkpt lat="43.66978" lon="1.4789">
        <ele>205.116017</ele>
        <time>2022-08-10T07:10:05.111Z</time>
      </trkpt>
      <trkpt lat="43.66971" lon="1.47901">
        <ele>205.466274</ele>
        <time>2022-08-10T07:10:08.111Z</time>
      </trkpt>
      <trkpt lat="43.66963" lon="1.47916">
        <ele>205.895301</ele>
        <time>2022-08-10T07:10:11.108Z</time>
      </trkpt>
      <trkpt lat="43.66954" lon="1.4793">
        <ele>206.325492</ele>
        <time>2022-08-10T07:10:14.090Z</time>
      </trkpt>
      <trkpt lat="43.66946" lon="1.47943">
        <ele>206.742196</ele>
        <time>2022-08-10T07:10:17.117Z</time>
      </trkpt>
      <trkpt lat="43.66939" lon="1.47957">
        <ele>207.142395</ele>
        <time>2022-08-10T07:10:20.080Z</time>
      </trkpt>
      <trkpt lat="43.66931" lon="1.47972">
        <ele>207.565791</ele>
        <time>2022-08-10T07:10:23.102Z</time>
      </trkpt>
      <trkpt lat="43.66924" lon="1.47987">
        <ele>207.993562</ele>
        <time>2022-08-10T07:10:26.100Z</time>
      </trkpt>
      <trkpt lat="43.66917" lon="1.48002">
        <ele>208.409061</ele>
        <time>2022-08-10T07:10:29.089Z</time>
      </trkpt>
      <trkpt lat="43.66909" lon="1.48015">
        <ele>208.810824</ele>
        <time>2022-08-10T07:10:32.101Z</time>
      </trkpt>
      <trkpt lat="43.66901" lon="1.48028">
        <ele>209.209883</ele>
        <time>2022-08-10T07:10:35.100Z</time>
      </trkpt>
      <trkpt lat="43.66894" lon="1.48041">
        <ele>209.61202</ele>
        <time>2022-08-10T07:10:38.085Z</time>
      </trkpt>
      <trkpt lat="43.66886" lon="1.48056">
        <ele>210.03131</ele>
        <time>2022-08-10T07:10:41.127Z</time>
      </trkpt>
      <trkpt lat="43.6688" lon="1.48072">
        <ele>210.832156</ele>
        <time>2022-08-10T07:10:44.095Z</time>
      </trkpt>
      <trkpt lat="43.66874" lon="1.48088">
        <ele>211.764179</ele>
        <time>2022-08-10T07:10:47.080Z</time>
      </trkpt>
      <trkpt lat="43.66869" lon="1.48103">
        <ele>212.631048</ele>
        <time>2022-08-10T07:10:50.082Z</time>
      </trkpt>
      <trkpt lat="43.66865" lon="1.48119">
        <ele>213.49201</ele>
        <time>2022-08-10T07:10:53.086Z</time>
      </trkpt>
      <trkpt lat="43.66859" lon="1.48134">
        <ele>214.364265</ele>
        <time>2022-08-10T07:10:56.114Z</time>
      </trkpt>
      <trkpt lat="43.66854" lon="1.48149">
        <ele>215.226161</ele>
        <time>2022-08-10T07:10:59.106Z</time>
      </trkpt>
      <trkpt lat="43.66849" lon="1.48165">
        <ele>216.080858</ele>
        <time>2022-08-10T07:11:02.089Z</time>
      </trkpt>
      <trkpt lat="43.66844" lon="1.4818">
        <ele>216.937561</ele>
        <time>2022-08-10T07:11:05.084Z</time>
      </trkpt>
      <trkpt lat="43.66837" lon="1.48192">
        <ele>217.736958</ele>
        <time>2022-08-10T07:11:08.105Z</time>
      </trkpt>
      <trkpt lat="43.66831" lon="1.48204">
        <ele>218.507767</ele>
        <time>2022-08-10T07:11:11.089Z</time>
      </trkpt>
      <trkpt lat="43.66829" lon="1.48219">
        <ele>219.276077</ele>
        <time>2022-08-10T07:11:14.089Z</time>
      </trkpt>
      <trkpt lat="43.66828" lon="1.48235">
        <ele>220.067385</ele>
        <time>2022-08-10T07:11:17.087Z</time>
      </trkpt>
      <trkpt lat="43.66824" lon="1.48249">
        <ele>220.877784</ele>
        <time>2022-08-10T07:11:20.083Z</time>
      </trkpt>
      <trkpt lat="43.6682" lon="1.48263">
        <ele>221.66117</ele>
        <time>2022-08-10T07:11:23.080Z</time>
      </trkpt>
      <trkpt lat="43.66816" lon="1.48278">
        <ele>222.437865</ele>
        <time>2022-08-10T07:11:26.099Z</time>
      </trkpt>
      <trkpt lat="43.66809" lon="1.48288">
        <ele>223.209254</ele>
        <time>2022-08-10T07:11:29.076Z</time>
      </trkpt>
      <trkpt lat="43.66799" lon="1.48296">
        <ele>224.029404</ele>
        <time>2022-08-10T07:11:32.082Z</time>
      </trkpt>
      <trkpt lat="43.6679" lon="1.48303">
        <ele>224.842493</ele>
        <time>2022-08-10T07:11:35.089Z</time>
      </trkpt>
      <trkpt lat="43.66782" lon="1.48314">
        <ele>225.669472</ele>
        <time>2022-08-10T07:11:38.080Z</time>
      </trkpt>
      <trkpt lat="43.66776" lon="1.48327">
        <ele>226.500602</ele>
        <time>2022-08-10T07:11:41.095Z</time>
      </trkpt>
      <trkpt lat="43.66772" lon="1.48341">
        <ele>227.304632</ele>
        <time>2022-08-10T07:11:44.093Z</time>
      </trkpt>
      <trkpt lat="43.66769" lon="1.48355">
        <ele>228.124325</ele>
        <time>2022-08-10T07:11:47.103Z</time>
      </trkpt>
      <trkpt lat="43.66765" lon="1.48369">
        <ele>228.939486</ele>
        <time>2022-08-10T07:11:50.091Z</time>
      </trkpt>
      <trkpt lat="43.66759" lon="1.48382">
        <ele>229.743352</ele>
        <time>2022-08-10T07:11:53.098Z</time>
      </trkpt>
      <trkpt lat="43.66754" lon="1.48395">
        <ele>230.561348</ele>
        <time>2022-08-10T07:11:56.079Z</time>
      </trkpt>
      <trkpt lat="43.66748" lon="1.48408">
        <ele>231.361594</ele>
        <time>2022-08-10T07:11:59.082Z</time>
      </trkpt>
      <trkpt lat="43.66743" lon="1.48421">
        <ele>232.172808</ele>
        <time>2022-08-10T07:12:02.087Z</time>
      </trkpt>
      <trkpt lat="43.66737" lon="1.48434">
        <ele>232.985041</ele>
        <time>2022-08-10T07:12:05.096Z</time>
      </trkpt>
      <trkpt lat="43.66733" lon="1.48448">
        <ele>233.813081</ele>
        <time>2022-08-10T07:12:08.074Z</time>
      </trkpt>
      <trkpt lat="43.66729" lon="1.48462">
        <ele>234.663973</ele>
        <time>2022-08-10T07:12:11.068Z</time>
      </trkpt>
      <trkpt lat="43.66725" lon="1.48478">
        <ele>235.534158</ele>
        <time>2022-08-10T07:12:14.069Z</time>
      </trkpt>
      <trkpt lat="43.6672" lon="1.48492">
        <ele>236.329848</ele>
        <time>2022-08-10T07:12:17.075Z</time>
      </trkpt>
      <trkpt lat="43.66715" lon="1.48506">
        <ele>236.68768</ele>
        <time>2022-08-10T07:12:20.089Z</time>
      </trkpt>
      <trkpt lat="43.66709" lon="1.48518">
        <ele>237.015594</ele>
        <time>2022-08-10T07:12:23.093Z</time>
      </trkpt>
      <trkpt lat="43.66704" lon="1.4853">
        <ele>237.343185</ele>
        <time>2022-08-10T07:12:26.092Z</time>
      </trkpt>
      <trkpt lat="43.66705" lon="1.48543">
        <ele>237.666379</ele>
        <time>2022-08-10T07:12:30.091Z</time>
      </trkpt>
      <trkpt lat="43.66713" lon="1.48552">
        <ele>237.984046</ele>
        <time>2022-08-10T07:12:33.089Z</time>
      </trkpt>
      <trkpt lat="43.66723" lon="1.48559">
        <ele>238.349247</ele>
        <time>2022-08-10T07:12:36.090Z</time>
      </trkpt>
      <trkpt lat="43.66735" lon="1.48562">
        <ele>238.743432</ele>
        <time>2022-08-10T07:12:39.087Z</time>
      </trkpt>
      <trkpt lat="43.66749" lon="1.4856">
        <ele>239.162913</ele>
        <time>2022-08-10T07:12:42.099Z</time>
      </trkpt>
      <trkpt lat="43.66761" lon="1.48556">
        <ele>239.576019</ele>
        <time>2022-08-10T07:12:45.096Z</time>
      </trkpt>
      <trkpt lat="43.66774" lon="1.48551">
        <ele>239.992774</ele>
        <time>2022-08-10T07:12:48.088Z</time>
      </trkpt>
      <trkpt lat="43.66786" lon="1.48545">
        <ele>240.40084</ele>
        <time>2022-08-10T07:12:51.094Z</time>
      </trkpt>
      <trkpt lat="43.66794" lon="1.48541">
        <ele>240.686809</ele>
        <time>2022-08-10T07:12:53.086Z</time>
      </trkpt>
      <trkpt lat="43.66803" lon="1.48535">
        <ele>240.980255</ele>
        <time>2022-08-10T07:12:55.090Z</time>
      </trkpt>
      <trkpt lat="43.66814" lon="1.48533">
        <ele>241.336896</ele>
        <time>2022-08-10T07:12:58.091Z</time>
      </trkpt>
      <trkpt lat="43.66815" lon="1.48549">
        <ele>241.706598</ele>
        <time>2022-08-10T07:13:01.101Z</time>
      </trkpt>
      <trkpt lat="43.66814" lon="1.48563">
        <ele>242.029653</ele>
        <time>2022-08-10T07:13:03.089Z</time>
      </trkpt>
      <trkpt lat="43.66813" lon="1.48578">
        <ele>242.350424</ele>
        <time>2022-08-10T07:13:05.104Z</time>
      </trkpt>
      <trkpt lat="43.66812" lon="1.48593">
        <ele>242.674293</ele>
        <time>2022-08-10T07:13:07.079Z</time>
      </trkpt>
      <trkpt lat="43.66811" lon="1.48608">
        <ele>243.004256</ele>
        <time>2022-08-10T07:13:09.085Z</time>
      </trkpt>
      <trkpt lat="43.6681" lon="1.48624">
        <ele>243.343287</ele>
        <time>2022-08-10T07:13:11.089Z</time>
      </trkpt>
      <trkpt lat="43.66809" lon="1.4864">
        <ele>243.687892</ele>
        <time>2022-08-10T07:13:13.091Z</time>
      </trkpt>
      <trkpt lat="43.66808" lon="1.48656">
        <ele>244.032281</ele>
        <time>2022-08-10T07:13:15.084Z</time>
      </trkpt>
      <trkpt lat="43.66807" lon="1.48672">
        <ele>244.370284</ele>
        <time>2022-08-10T07:13:17.081Z</time>
      </trkpt>
      <trkpt lat="43.66806" lon="1.48688">
        <ele>244.710057</ele>
        <time>2022-08-10T07:13:19.078Z</time>
      </trkpt>
      <trkpt lat="43.66806" lon="1.48704">
        <ele>245.047442</ele>
        <time>2022-08-10T07:13:21.087Z</time>
      </trkpt>
      <trkpt lat="43.66805" lon="1.48719">
        <ele>245.383316</ele>
        <time>2022-08-10T07:13:23.081Z</time>
      </trkpt>
      <trkpt lat="43.66804" lon="1.48735">
        <ele>245.721538</ele>
        <time>2022-08-10T07:13:25.085Z</time>
      </trkpt>
      <trkpt lat="43.66804" lon="1.48751">
        <ele>246.054775</ele>
        <time>2022-08-10T07:13:27.091Z</time>
      </trkpt>
      <trkpt lat="43.66803" lon="1.48766">
        <ele>246.386195</ele>
        <time>2022-08-10T07:13:29.085Z</time>
      </trkpt>
      <trkpt lat="43.66803" lon="1.48782">
        <ele>246.721447</ele>
        <time>2022-08-10T07:13:31.086Z</time>
      </trkpt>
      <trkpt lat="43.66802" lon="1.48798">
        <ele>247.05945</ele>
        <time>2022-08-10T07:13:33.085Z</time>
      </trkpt>
      <trkpt lat="43.668" lon="1.48813">
        <ele>247.333006</ele>
        <time>2022-08-10T07:13:35.091Z</time>
      </trkpt>
      <trkpt lat="43.66799" lon="1.48829">
        <ele>247.425519</ele>
        <time>2022-08-10T07:13:37.090Z</time>
      </trkpt>
      <trkpt lat="43.66798" lon="1.48844">
        <ele>247.515573</ele>
        <time>2022-08-10T07:13:39.090Z</time>
      </trkpt>
      <trkpt lat="43.66798" lon="1.48859">
        <ele>247.606219</ele>
        <time>2022-08-10T07:13:41.100Z</time>
      </trkpt>
      <trkpt lat="43.66797" lon="1.48875">
        <ele>247.69821</ele>
        <time>2022-08-10T07:13:43.082Z</time>
      </trkpt>
      <trkpt lat="43.66796" lon="1.4889">
        <ele>247.790588</ele>
        <time>2022-08-10T07:13:45.073Z</time>
      </trkpt>
      <trkpt lat="43.66796" lon="1.48906">
        <ele>247.883006</ele>
        <time>2022-08-10T07:13:47.093Z</time>
      </trkpt>
      <trkpt lat="43.66795" lon="1.48922">
        <ele>247.977356</ele>
        <time>2022-08-10T07:13:49.105Z</time>
      </trkpt>
      <trkpt lat="43.66794" lon="1.48938">
        <ele>248.072296</ele>
        <time>2022-08-10T07:13:51.080Z</time>
      </trkpt>
      <trkpt lat="43.66793" lon="1.48953">
        <ele>248.16628</ele>
        <time>2022-08-10T07:13:53.079Z</time>
      </trkpt>
      <trkpt lat="43.66792" lon="1.48969">
        <ele>248.261442</ele>
        <time>2022-08-10T07:13:55.094Z</time>
      </trkpt>
      <trkpt lat="43.6679" lon="1.48986">
        <ele>248.357192</ele>
        <time>2022-08-10T07:13:57.089Z</time>
      </trkpt>
      <trkpt lat="43.66789" lon="1.49001">
        <ele>248.451853</ele>
        <time>2022-08-10T07:13:59.095Z</time>
      </trkpt>
      <trkpt lat="43.66787" lon="1.49018">
        <ele>248.549279</ele>
        <time>2022-08-10T07:14:01.096Z</time>
      </trkpt>
      <trkpt lat="43.66785" lon="1.49034">
        <ele>248.64812</ele>
        <time>2022-08-10T07:14:03.092Z</time>
      </trkpt>
      <trkpt lat="43.66783" lon="1.49051">
        <ele>248.747231</ele>
        <time>2022-08-10T07:14:05.104Z</time>
      </trkpt>
      <trkpt lat="43.66779" lon="1.49066">
        <ele>248.86242</ele>
        <time>2022-08-10T07:14:07.088Z</time>
      </trkpt>
      <trkpt lat="43.66773" lon="1.49082">
        <ele>248.985445</ele>
        <time>2022-08-10T07:14:09.091Z</time>
      </trkpt>
      <trkpt lat="43.66767" lon="1.49095">
        <ele>249.105247</ele>
        <time>2022-08-10T07:14:11.089Z</time>
      </trkpt>
      <trkpt lat="43.6676" lon="1.49109">
        <ele>249.225588</ele>
        <time>2022-08-10T07:14:13.100Z</time>
      </trkpt>
      <trkpt lat="43.66754" lon="1.49123">
        <ele>249.343809</ele>
        <time>2022-08-10T07:14:15.086Z</time>
      </trkpt>
      <trkpt lat="43.66748" lon="1.49136">
        <ele>249.458659</ele>
        <time>2022-08-10T07:14:17.089Z</time>
      </trkpt>
      <trkpt lat="43.66742" lon="1.49149">
        <ele>249.572944</ele>
        <time>2022-08-10T07:14:19.091Z</time>
      </trkpt>
      <trkpt lat="43.66736" lon="1.49162">
        <ele>249.686118</ele>
        <time>2022-08-10T07:14:21.105Z</time>
      </trkpt>
      <trkpt lat="43.6673" lon="1.49175">
        <ele>249.799905</ele>
        <time>2022-08-10T07:14:23.086Z</time>
      </trkpt>
      <trkpt lat="43.66723" lon="1.49188">
        <ele>249.912352</ele>
        <time>2022-08-10T07:14:25.083Z</time>
      </trkpt>
      <trkpt lat="43.66717" lon="1.49201">
        <ele>250.023751</ele>
        <time>2022-08-10T07:14:27.087Z</time>
      </trkpt>
      <trkpt lat="43.66711" lon="1.49214">
        <ele>250.136826</ele>
        <time>2022-08-10T07:14:29.096Z</time>
      </trkpt>
      <trkpt lat="43.66705" lon="1.49226">
        <ele>250.249336</ele>
        <time>2022-08-10T07:14:31.094Z</time>
      </trkpt>
      <trkpt lat="43.66698" lon="1.49239">
        <ele>250.361189</ele>
        <time>2022-08-10T07:14:33.089Z</time>
      </trkpt>
      <trkpt lat="43.66691" lon="1.4925">
        <ele>250.470902</ele>
        <time>2022-08-10T07:14:35.101Z</time>
      </trkpt>
      <trkpt lat="43.66682" lon="1.49258">
        <ele>250.578934</ele>
        <time>2022-08-10T07:14:37.086Z</time>
      </trkpt>
      <trkpt lat="43.66674" lon="1.49268">
        <ele>250.760607</ele>
        <time>2022-08-10T07:14:39.095Z</time>
      </trkpt>
      <trkpt lat="43.66668" lon="1.49278">
        <ele>250.947154</ele>
        <time>2022-08-10T07:14:41.108Z</time>
      </trkpt>
      <trkpt lat="43.66661" lon="1.49289">
        <ele>251.137301</ele>
        <time>2022-08-10T07:14:43.078Z</time>
      </trkpt>
      <trkpt lat="43.66654" lon="1.49299">
        <ele>251.321992</ele>
        <time>2022-08-10T07:14:45.088Z</time>
      </trkpt>
      <trkpt lat="43.66647" lon="1.49307">
        <ele>251.509838</ele>
        <time>2022-08-10T07:14:47.091Z</time>
      </trkpt>
      <trkpt lat="43.6664" lon="1.49317">
        <ele>251.692502</ele>
        <time>2022-08-10T07:14:49.088Z</time>
      </trkpt>
      <trkpt lat="43.66639" lon="1.49331">
        <ele>251.884989</ele>
        <time>2022-08-10T07:14:51.100Z</time>
      </trkpt>
      <trkpt lat="43.66638" lon="1.49346">
        <ele>252.095414</ele>
        <time>2022-08-10T07:14:53.097Z</time>
      </trkpt>
      <trkpt lat="43.66636" lon="1.49362">
        <ele>252.307308</ele>
        <time>2022-08-10T07:14:55.101Z</time>
      </trkpt>
      <trkpt lat="43.66629" lon="1.49374">
        <ele>252.516205</ele>
        <time>2022-08-10T07:14:57.109Z</time>
      </trkpt>
      <trkpt lat="43.66621" lon="1.49383">
        <ele>252.71374</ele>
        <time>2022-08-10T07:14:59.093Z</time>
      </trkpt>
      <trkpt lat="43.6661" lon="1.49387">
        <ele>252.933608</ele>
        <time>2022-08-10T07:15:02.090Z</time>
      </trkpt>
      <trkpt lat="43.66597" lon="1.49389">
        <ele>253.172899</ele>
        <time>2022-08-10T07:15:05.092Z</time>
      </trkpt>
      <trkpt lat="43.66587" lon="1.4939">
        <ele>253.357538</ele>
        <time>2022-08-10T07:15:13.109Z</time>
      </trkpt>
      <trkpt lat="43.66578" lon="1.49398">
        <ele>253.561317</ele>
        <time>2022-08-10T07:15:18.110Z</time>
      </trkpt>
      <trkpt lat="43.66579" lon="1.49413">
        <ele>253.771195</ele>
        <time>2022-08-10T07:15:21.128Z</time>
      </trkpt>
      <trkpt lat="43.6658" lon="1.49432">
        <ele>254.001556</ele>
        <time>2022-08-10T07:15:24.130Z</time>
      </trkpt>
      <trkpt lat="43.6658" lon="1.49447">
        <ele>254.068529</ele>
        <time>2022-08-10T07:15:26.120Z</time>
      </trkpt>
      <trkpt lat="43.66578" lon="1.49461">
        <ele>254.136297</ele>
        <time>2022-08-10T07:15:28.097Z</time>
      </trkpt>
      <trkpt lat="43.66575" lon="1.49474">
        <ele>254.19993</ele>
        <time>2022-08-10T07:15:30.086Z</time>
      </trkpt>
      <trkpt lat="43.66572" lon="1.49488">
        <ele>254.268425</ele>
        <time>2022-08-10T07:15:33.108Z</time>
      </trkpt>
      <trkpt lat="43.66581" lon="1.49492">
        <ele>254.330094</ele>
        <time>2022-08-10T07:15:35.091Z</time>
      </trkpt>
      <trkpt lat="43.66587" lon="1.49503">
        <ele>254.392391</ele>
        <time>2022-08-10T07:15:37.099Z</time>
      </trkpt>
      <trkpt lat="43.66588" lon="1.49516">
        <ele>254.455302</ele>
        <time>2022-08-10T07:15:39.092Z</time>
      </trkpt>
      <trkpt lat="43.6659" lon="1.4953">
        <ele>254.51944</ele>
        <time>2022-08-10T07:15:41.099Z</time>
      </trkpt>
      <trkpt lat="43.66594" lon="1.49545">
        <ele>254.596379</ele>
        <time>2022-08-10T07:15:44.114Z</time>
      </trkpt>
      <trkpt lat="43.66603" lon="1.49556">
        <ele>254.673577</ele>
        <time>2022-08-10T07:15:47.104Z</time>
      </trkpt>
      <trkpt lat="43.66613" lon="1.49554">
        <ele>254.739377</ele>
        <time>2022-08-10T07:15:53.107Z</time>
      </trkpt>
      <trkpt lat="43.66622" lon="1.49555">
        <ele>254.800469</ele>
        <time>2022-08-10T07:15:56.098Z</time>
      </trkpt>
      <trkpt lat="43.66631" lon="1.49551">
        <ele>254.863627</ele>
        <time>2022-08-10T07:16:03.117Z</time>
      </trkpt>
      <trkpt lat="43.66627" lon="1.49567">
        <ele>254.941705</ele>
        <time>2022-08-10T07:16:16.115Z</time>
      </trkpt>
      <trkpt lat="43.66621" lon="1.4958">
        <ele>255.015008</ele>
        <time>2022-08-10T07:16:19.098Z</time>
      </trkpt>
      <trkpt lat="43.66609" lon="1.49585">
        <ele>255.095324</ele>
        <time>2022-08-10T07:16:22.092Z</time>
      </trkpt>
      <trkpt lat="43.666" lon="1.49595">
        <ele>255.15878</ele>
        <time>2022-08-10T07:16:25.087Z</time>
      </trkpt>
      <trkpt lat="43.666" lon="1.49611">
        <ele>255.170412</ele>
        <time>2022-08-10T07:16:28.116Z</time>
      </trkpt>
      <trkpt lat="43.66601" lon="1.49625">
        <ele>255.180511</ele>
        <time>2022-08-10T07:16:31.088Z</time>
      </trkpt>
      <trkpt lat="43.66606" lon="1.49636">
        <ele>255.189875</ele>
        <time>2022-08-10T07:16:36.104Z</time>
      </trkpt>
      <trkpt lat="43.66616" lon="1.49647">
        <ele>255.20234</ele>
        <time>2022-08-10T07:16:39.102Z</time>
      </trkpt>
      <trkpt lat="43.66625" lon="1.49649">
        <ele>255.211658</ele>
        <time>2022-08-10T07:16:43.094Z</time>
      </trkpt>
      <trkpt lat="43.66633" lon="1.49635">
        <ele>255.224686</ele>
        <time>2022-08-10T07:16:46.108Z</time>
      </trkpt>
      <trkpt lat="43.6664" lon="1.49644">
        <ele>255.234684</ele>
        <time>2022-08-10T07:16:53.111Z</time>
      </trkpt>
      <trkpt lat="43.6666" lon="1.49664">
        <ele>255.258933</ele>
        <time>2022-08-10T07:17:17.100Z</time>
      </trkpt>
      <trkpt lat="43.66668" lon="1.49673">
        <ele>255.268545</ele>
        <time>2022-08-10T07:17:19.100Z</time>
      </trkpt>
      <trkpt lat="43.66675" lon="1.49684">
        <ele>255.279481</ele>
        <time>2022-08-10T07:17:21.103Z</time>
      </trkpt>
      <trkpt lat="43.66681" lon="1.49697">
        <ele>255.290806</ele>
        <time>2022-08-10T07:17:23.113Z</time>
      </trkpt>
      <trkpt lat="43.66686" lon="1.49711">
        <ele>255.30193</ele>
        <time>2022-08-10T07:17:25.105Z</time>
      </trkpt>
      <trkpt lat="43.66695" lon="1.49716">
        <ele>255.312106</ele>
        <time>2022-08-10T07:17:27.094Z</time>
      </trkpt>
      <trkpt lat="43.66707" lon="1.4972">
        <ele>255.323567</ele>
        <time>2022-08-10T07:17:29.092Z</time>
      </trkpt>
      <trkpt lat="43.66714" lon="1.49731">
        <ele>255.334539</ele>
        <time>2022-08-10T07:17:31.089Z</time>
      </trkpt>
      <trkpt lat="43.66718" lon="1.49745">
        <ele>255.55087</ele>
        <time>2022-08-10T07:17:33.092Z</time>
      </trkpt>
      <trkpt lat="43.6672" lon="1.4976">
        <ele>255.790822</ele>
        <time>2022-08-10T07:17:35.079Z</time>
      </trkpt>
      <trkpt lat="43.6672" lon="1.49773">
        <ele>256.000616</ele>
        <time>2022-08-10T07:17:37.089Z</time>
      </trkpt>
      <trkpt lat="43.66723" lon="1.49792">
        <ele>256.305178</ele>
        <time>2022-08-10T07:17:40.083Z</time>
      </trkpt>
      <trkpt lat="43.66729" lon="1.49802">
        <ele>256.520304</ele>
        <time>2022-08-10T07:17:42.095Z</time>
      </trkpt>
      <trkpt lat="43.66737" lon="1.4981">
        <ele>256.735561</ele>
        <time>2022-08-10T07:17:44.095Z</time>
      </trkpt>
      <trkpt lat="43.66745" lon="1.49817">
        <ele>256.957017</ele>
        <time>2022-08-10T07:17:46.076Z</time>
      </trkpt>
      <trkpt lat="43.66755" lon="1.49823">
        <ele>257.184093</ele>
        <time>2022-08-10T07:17:48.089Z</time>
      </trkpt>
      <trkpt lat="43.66765" lon="1.49827">
        <ele>257.417196</ele>
        <time>2022-08-10T07:17:50.083Z</time>
      </trkpt>
      <trkpt lat="43.66775" lon="1.49834">
        <ele>257.667931</ele>
        <time>2022-08-10T07:17:52.080Z</time>
      </trkpt>
      <trkpt lat="43.66784" lon="1.49844">
        <ele>257.919176</ele>
        <time>2022-08-10T07:17:54.097Z</time>
      </trkpt>
      <trkpt lat="43.66791" lon="1.49855">
        <ele>258.151078</ele>
        <time>2022-08-10T07:17:56.103Z</time>
      </trkpt>
      <trkpt lat="43.66797" lon="1.49866">
        <ele>258.365632</ele>
        <time>2022-08-10T07:17:59.093Z</time>
      </trkpt>
      <trkpt lat="43.66805" lon="1.49878">
        <ele>258.626111</ele>
        <time>2022-08-10T07:18:03.090Z</time>
      </trkpt>
      <trkpt lat="43.66812" lon="1.4989">
        <ele>258.87084</ele>
        <time>2022-08-10T07:18:06.085Z</time>
      </trkpt>
      <trkpt lat="43.66818" lon="1.49901">
        <ele>259.085852</ele>
        <time>2022-08-10T07:18:09.090Z</time>
      </trkpt>
      <trkpt lat="43.66828" lon="1.49912">
        <ele>259.289284</ele>
        <time>2022-08-10T07:18:12.090Z</time>
      </trkpt>
      <trkpt lat="43.66837" lon="1.49922">
        <ele>259.297574</ele>
        <time>2022-08-10T07:18:14.100Z</time>
      </trkpt>
      <trkpt lat="43.66845" lon="1.49933">
        <ele>259.305919</ele>
        <time>2022-08-10T07:18:16.094Z</time>
      </trkpt>
      <trkpt lat="43.66853" lon="1.49941">
        <ele>259.313818</ele>
        <time>2022-08-10T07:18:18.096Z</time>
      </trkpt>
      <trkpt lat="43.66859" lon="1.49954">
        <ele>259.321682</ele>
        <time>2022-08-10T07:18:20.090Z</time>
      </trkpt>
      <trkpt lat="43.6686" lon="1.49969">
        <ele>259.329625</ele>
        <time>2022-08-10T07:18:22.093Z</time>
      </trkpt>
      <trkpt lat="43.66853" lon="1.49981">
        <ele>259.337971</ele>
        <time>2022-08-10T07:18:24.081Z</time>
      </trkpt>
      <trkpt lat="43.66842" lon="1.49988">
        <ele>259.347109</ele>
        <time>2022-08-10T07:18:26.082Z</time>
      </trkpt>
      <trkpt lat="43.66832" lon="1.49997">
        <ele>259.355986</ele>
        <time>2022-08-10T07:18:28.081Z</time>
      </trkpt>
      <trkpt lat="43.66823" lon="1.50009">
        <ele>259.364948</ele>
        <time>2022-08-10T07:18:30.083Z</time>
      </trkpt>
      <trkpt lat="43.66817" lon="1.50021">
        <ele>259.372641</ele>
        <time>2022-08-10T07:18:32.081Z</time>
      </trkpt>
      <trkpt lat="43.66817" lon="1.50035">
        <ele>259.380046</ele>
        <time>2022-08-10T07:18:34.087Z</time>
      </trkpt>
      <trkpt lat="43.6682" lon="1.5005">
        <ele>259.388712</ele>
        <time>2022-08-10T07:18:36.112Z</time>
      </trkpt>
      <trkpt lat="43.66828" lon="1.5006">
        <ele>259.39642</ele>
        <time>2022-08-10T07:18:38.085Z</time>
      </trkpt>
      <trkpt lat="43.6683" lon="1.50072">
        <ele>259.403512</ele>
        <time>2022-08-10T07:18:42.083Z</time>
      </trkpt>
      <trkpt lat="43.66831" lon="1.5009">
        <ele>259.412868</ele>
        <time>2022-08-10T07:18:45.085Z</time>
      </trkpt>
      <trkpt lat="43.66826" lon="1.50101">
        <ele>259.416594</ele>
        <time>2022-08-10T07:18:47.080Z</time>
      </trkpt>
      <trkpt lat="43.6682" lon="1.50114">
        <ele>259.318241</ele>
        <time>2022-08-10T07:18:49.085Z</time>
      </trkpt>
      <trkpt lat="43.66813" lon="1.50127">
        <ele>259.22185</ele>
        <time>2022-08-10T07:18:51.077Z</time>
      </trkpt>
      <trkpt lat="43.66805" lon="1.50139">
        <ele>259.123198</ele>
        <time>2022-08-10T07:18:53.086Z</time>
      </trkpt>
      <trkpt lat="43.66799" lon="1.50151">
        <ele>259.028867</ele>
        <time>2022-08-10T07:18:55.102Z</time>
      </trkpt>
      <trkpt lat="43.66793" lon="1.50166">
        <ele>258.929477</ele>
        <time>2022-08-10T07:18:57.088Z</time>
      </trkpt>
      <trkpt lat="43.66792" lon="1.50182">
        <ele>258.829692</ele>
        <time>2022-08-10T07:18:59.087Z</time>
      </trkpt>
      <trkpt lat="43.66796" lon="1.50198">
        <ele>258.725383</ele>
        <time>2022-08-10T07:19:01.095Z</time>
      </trkpt>
      <trkpt lat="43.66803" lon="1.50212">
        <ele>258.622084</ele>
        <time>2022-08-10T07:19:03.087Z</time>
      </trkpt>
      <trkpt lat="43.66811" lon="1.50223">
        <ele>258.521381</ele>
        <time>2022-08-10T07:19:05.088Z</time>
      </trkpt>
      <trkpt lat="43.66818" lon="1.50237">
        <ele>258.41558</ele>
        <time>2022-08-10T07:19:07.086Z</time>
      </trkpt>
      <trkpt lat="43.66825" lon="1.50253">
        <ele>258.301439</ele>
        <time>2022-08-10T07:19:09.072Z</time>
      </trkpt>
      <trkpt lat="43.66832" lon="1.50269">
        <ele>258.18953</ele>
        <time>2022-08-10T07:19:11.081Z</time>
      </trkpt>
      <trkpt lat="43.66838" lon="1.50287">
        <ele>258.069393</ele>
        <time>2022-08-10T07:19:13.083Z</time>
      </trkpt>
      <trkpt lat="43.66846" lon="1.50304">
        <ele>257.947071</ele>
        <time>2022-08-10T07:19:15.080Z</time>
      </trkpt>
      <trkpt lat="43.66854" lon="1.50318">
        <ele>257.778057</ele>
        <time>2022-08-10T07:19:17.096Z</time>
      </trkpt>
      <trkpt lat="43.66863" lon="1.50334">
        <ele>257.546091</ele>
        <time>2022-08-10T07:19:19.080Z</time>
      </trkpt>
      <trkpt lat="43.66871" lon="1.50351">
        <ele>257.316881</ele>
        <time>2022-08-10T07:19:21.087Z</time>
      </trkpt>
      <trkpt lat="43.66877" lon="1.50368">
        <ele>257.091666</ele>
        <time>2022-08-10T07:19:23.092Z</time>
      </trkpt>
      <trkpt lat="43.6688" lon="1.50385">
        <ele>256.888851</ele>
        <time>2022-08-10T07:19:25.090Z</time>
      </trkpt>
      <trkpt lat="43.66885" lon="1.50401">
        <ele>256.684262</ele>
        <time>2022-08-10T07:19:27.081Z</time>
      </trkpt>
      <trkpt lat="43.66893" lon="1.50417">
        <ele>256.460558</ele>
        <time>2022-08-10T07:19:29.084Z</time>
      </trkpt>
      <trkpt lat="43.66902" lon="1.50432">
        <ele>256.237484</ele>
        <time>2022-08-10T07:19:31.088Z</time>
      </trkpt>
      <trkpt lat="43.6691" lon="1.50447">
        <ele>256.015719</ele>
        <time>2022-08-10T07:19:33.086Z</time>
      </trkpt>
      <trkpt lat="43.66916" lon="1.5046">
        <ele>255.834355</ele>
        <time>2022-08-10T07:19:35.087Z</time>
      </trkpt>
      <trkpt lat="43.66922" lon="1.50474">
        <ele>255.651544</ele>
        <time>2022-08-10T07:19:37.089Z</time>
      </trkpt>
      <trkpt lat="43.66929" lon="1.50485">
        <ele>255.475562</ele>
        <time>2022-08-10T07:19:39.084Z</time>
      </trkpt>
      <trkpt lat="43.6694" lon="1.50499">
        <ele>255.248936</ele>
        <time>2022-08-10T07:19:42.092Z</time>
      </trkpt>
      <trkpt lat="43.66945" lon="1.50511">
        <ele>255.076812</ele>
        <time>2022-08-10T07:19:44.090Z</time>
      </trkpt>
      <trkpt lat="43.66951" lon="1.50527">
        <ele>254.716388</ele>
        <time>2022-08-10T07:19:46.088Z</time>
      </trkpt>
      <trkpt lat="43.66957" lon="1.50541">
        <ele>254.309011</ele>
        <time>2022-08-10T07:19:48.078Z</time>
      </trkpt>
      <trkpt lat="43.66965" lon="1.50548">
        <ele>253.959494</ele>
        <time>2022-08-10T07:19:51.084Z</time>
      </trkpt>
      <trkpt lat="43.66975" lon="1.50541">
        <ele>253.566201</ele>
        <time>2022-08-10T07:19:55.086Z</time>
      </trkpt>
      <trkpt lat="43.66987" lon="1.50532">
        <ele>253.092005</ele>
        <time>2022-08-10T07:19:58.108Z</time>
      </trkpt>
      <trkpt lat="43.66996" lon="1.50525">
        <ele>252.753963</ele>
        <time>2022-08-10T07:20:00.092Z</time>
      </trkpt>
      <trkpt lat="43.67006" lon="1.50518">
        <ele>252.361765</ele>
        <time>2022-08-10T07:20:02.080Z</time>
      </trkpt>
      <trkpt lat="43.67015" lon="1.5051">
        <ele>251.989289</ele>
        <time>2022-08-10T07:20:04.096Z</time>
      </trkpt>
      <trkpt lat="43.67022" lon="1.50496">
        <ele>251.550815</ele>
        <time>2022-08-10T07:20:06.115Z</time>
      </trkpt>
      <trkpt lat="43.67032" lon="1.50485">
        <ele>251.117371</ele>
        <time>2022-08-10T07:20:08.083Z</time>
      </trkpt>
      <trkpt lat="43.67042" lon="1.50469">
        <ele>250.58773</ele>
        <time>2022-08-10T07:20:10.084Z</time>
      </trkpt>
      <trkpt lat="43.67054" lon="1.50457">
        <ele>250.067566</ele>
        <time>2022-08-10T07:20:12.085Z</time>
      </trkpt>
      <trkpt lat="43.67064" lon="1.50442">
        <ele>249.553717</ele>
        <time>2022-08-10T07:20:14.075Z</time>
      </trkpt>
      <trkpt lat="43.67072" lon="1.50425">
        <ele>249.045834</ele>
        <time>2022-08-10T07:20:16.093Z</time>
      </trkpt>
      <trkpt lat="43.6708" lon="1.50408">
        <ele>248.549448</ele>
        <time>2022-08-10T07:20:18.085Z</time>
      </trkpt>
      <trkpt lat="43.67088" lon="1.50391">
        <ele>248.061663</ele>
        <time>2022-08-10T07:20:20.086Z</time>
      </trkpt>
      <trkpt lat="43.67097" lon="1.50376">
        <ele>247.578904</ele>
        <time>2022-08-10T07:20:22.080Z</time>
      </trkpt>
      <trkpt lat="43.67105" lon="1.50362">
        <ele>247.120421</ele>
        <time>2022-08-10T07:20:24.086Z</time>
      </trkpt>
      <trkpt lat="43.67114" lon="1.50349">
        <ele>246.674945</ele>
        <time>2022-08-10T07:20:26.075Z</time>
      </trkpt>
      <trkpt lat="43.67123" lon="1.50336">
        <ele>246.239286</ele>
        <time>2022-08-10T07:20:28.090Z</time>
      </trkpt>
      <trkpt lat="43.67131" lon="1.50322">
        <ele>245.795251</ele>
        <time>2022-08-10T07:20:30.089Z</time>
      </trkpt>
      <trkpt lat="43.67139" lon="1.50308">
        <ele>245.350951</ele>
        <time>2022-08-10T07:20:32.094Z</time>
      </trkpt>
      <trkpt lat="43.67149" lon="1.50296">
        <ele>244.902851</ele>
        <time>2022-08-10T07:20:34.100Z</time>
      </trkpt>
      <trkpt lat="43.67159" lon="1.50284">
        <ele>244.449734</ele>
        <time>2022-08-10T07:20:36.083Z</time>
      </trkpt>
      <trkpt lat="43.67169" lon="1.50272">
        <ele>243.983919</ele>
        <time>2022-08-10T07:20:38.090Z</time>
      </trkpt>
      <trkpt lat="43.6718" lon="1.50259">
        <ele>243.490245</ele>
        <time>2022-08-10T07:20:40.078Z</time>
      </trkpt>
      <trkpt lat="43.67192" lon="1.50245">
        <ele>242.951821</ele>
        <time>2022-08-10T07:20:42.090Z</time>
      </trkpt>
      <trkpt lat="43.67205" lon="1.50229">
        <ele>242.421583</ele>
        <time>2022-08-10T07:20:44.082Z</time>
      </trkpt>
      <trkpt lat="43.67215" lon="1.50211">
        <ele>241.974913</ele>
        <time>2022-08-10T07:20:46.101Z</time>
      </trkpt>
      <trkpt lat="43.67227" lon="1.50196">
        <ele>241.535538</ele>
        <time>2022-08-10T07:20:48.098Z</time>
      </trkpt>
      <trkpt lat="43.67239" lon="1.50182">
        <ele>241.117035</ele>
        <time>2022-08-10T07:20:50.100Z</time>
      </trkpt>
      <trkpt lat="43.67252" lon="1.50172">
        <ele>240.695351</ele>
        <time>2022-08-10T07:20:52.089Z</time>
      </trkpt>
      <trkpt lat="43.67266" lon="1.50162">
        <ele>240.281315</ele>
        <time>2022-08-10T07:20:54.087Z</time>
      </trkpt>
      <trkpt lat="43.67279" lon="1.50152">
        <ele>239.880455</ele>
        <time>2022-08-10T07:20:56.079Z</time>
      </trkpt>
      <trkpt lat="43.67291" lon="1.50141">
        <ele>239.493924</ele>
        <time>2022-08-10T07:20:58.094Z</time>
      </trkpt>
      <trkpt lat="43.67302" lon="1.50126">
        <ele>239.064356</ele>
        <time>2022-08-10T07:21:00.098Z</time>
      </trkpt>
      <trkpt lat="43.67313" lon="1.50111">
        <ele>238.657427</ele>
        <time>2022-08-10T07:21:02.096Z</time>
      </trkpt>
      <trkpt lat="43.67322" lon="1.50097">
        <ele>238.276081</ele>
        <time>2022-08-10T07:21:04.085Z</time>
      </trkpt>
      <trkpt lat="43.67326" lon="1.50077">
        <ele>237.871847</ele>
        <time>2022-08-10T07:21:06.083Z</time>
      </trkpt>
      <trkpt lat="43.67332" lon="1.50061">
        <ele>237.438314</ele>
        <time>2022-08-10T07:21:08.097Z</time>
      </trkpt>
      <trkpt lat="43.67335" lon="1.50045">
        <ele>237.003954</ele>
        <time>2022-08-10T07:21:10.087Z</time>
      </trkpt>
      <trkpt lat="43.67337" lon="1.50032">
        <ele>236.640067</ele>
        <time>2022-08-10T07:21:12.095Z</time>
      </trkpt>
      <trkpt lat="43.67339" lon="1.50019">
        <ele>236.286505</ele>
        <time>2022-08-10T07:21:14.089Z</time>
      </trkpt>
      <trkpt lat="43.67344" lon="1.50005">
        <ele>235.879475</ele>
        <time>2022-08-10T07:21:16.098Z</time>
      </trkpt>
      <trkpt lat="43.67352" lon="1.49995">
        <ele>235.455538</ele>
        <time>2022-08-10T07:21:18.089Z</time>
      </trkpt>
      <trkpt lat="43.67365" lon="1.49986">
        <ele>234.939634</ele>
        <time>2022-08-10T07:21:20.097Z</time>
      </trkpt>
      <trkpt lat="43.67377" lon="1.49975">
        <ele>234.38208</ele>
        <time>2022-08-10T07:21:22.101Z</time>
      </trkpt>
      <trkpt lat="43.67387" lon="1.49959">
        <ele>233.828591</ele>
        <time>2022-08-10T07:21:24.103Z</time>
      </trkpt>
      <trkpt lat="43.67396" lon="1.49942">
        <ele>233.268023</ele>
        <time>2022-08-10T07:21:26.088Z</time>
      </trkpt>
      <trkpt lat="43.67405" lon="1.49925">
        <ele>232.698459</ele>
        <time>2022-08-10T07:21:28.111Z</time>
      </trkpt>
      <trkpt lat="43.67416" lon="1.4991">
        <ele>232.141216</ele>
        <time>2022-08-10T07:21:30.088Z</time>
      </trkpt>
      <trkpt lat="43.67427" lon="1.49896">
        <ele>231.577493</ele>
        <time>2022-08-10T07:21:32.103Z</time>
      </trkpt>
      <trkpt lat="43.67438" lon="1.49881">
        <ele>231.069374</ele>
        <time>2022-08-10T07:21:34.095Z</time>
      </trkpt>
      <trkpt lat="43.67449" lon="1.49865">
        <ele>230.962554</ele>
        <time>2022-08-10T07:21:36.147Z</time>
      </trkpt>
      <trkpt lat="43.67461" lon="1.4985">
        <ele>230.85661</ele>
        <time>2022-08-10T07:21:38.069Z</time>
      </trkpt>
      <trkpt lat="43.6747" lon="1.49829">
        <ele>230.74056</ele>
        <time>2022-08-10T07:21:40.086Z</time>
      </trkpt>
      <trkpt lat="43.67478" lon="1.4981">
        <ele>230.636066</ele>
        <time>2022-08-10T07:21:42.081Z</time>
      </trkpt>
      <trkpt lat="43.67483" lon="1.49799">
        <ele>230.574253</ele>
        <time>2022-08-10T07:21:46.089Z</time>
      </trkpt>
      <trkpt lat="43.67488" lon="1.49788">
        <ele>230.511771</ele>
        <time>2022-08-10T07:21:53.120Z</time>
      </trkpt>
      <trkpt lat="43.67494" lon="1.49778">
        <ele>230.448666</ele>
        <time>2022-08-10T07:21:59.105Z</time>
      </trkpt>
      <trkpt lat="43.67498" lon="1.49766">
        <ele>230.38911</ele>
        <time>2022-08-10T07:22:05.094Z</time>
      </trkpt>
      <trkpt lat="43.67493" lon="1.49752">
        <ele>230.315192</ele>
        <time>2022-08-10T07:22:27.102Z</time>
      </trkpt>
      <trkpt lat="43.67486" lon="1.49741">
        <ele>230.242157</ele>
        <time>2022-08-10T07:22:39.089Z</time>
      </trkpt>
      <trkpt lat="43.67487" lon="1.49726">
        <ele>230.169492</ele>
        <time>2022-08-10T07:22:45.107Z</time>
      </trkpt>
      <trkpt lat="43.67494" lon="1.49711">
        <ele>230.085649</ele>
        <time>2022-08-10T07:22:48.100Z</time>
      </trkpt>
      <trkpt lat="43.675" lon="1.497">
        <ele>230.019517</ele>
        <time>2022-08-10T07:22:51.104Z</time>
      </trkpt>
      <trkpt lat="43.67505" lon="1.49685">
        <ele>229.942617</ele>
        <time>2022-08-10T07:22:55.088Z</time>
      </trkpt>
      <trkpt lat="43.67511" lon="1.49669">
        <ele>229.778401</ele>
        <time>2022-08-10T07:22:59.110Z</time>
      </trkpt>
      <trkpt lat="43.67517" lon="1.4966">
        <ele>229.60475</ele>
        <time>2022-08-10T07:23:01.107Z</time>
      </trkpt>
      <trkpt lat="43.67519" lon="1.49646">
        <ele>229.416158</ele>
        <time>2022-08-10T07:23:04.088Z</time>
      </trkpt>
      <trkpt lat="43.67516" lon="1.49634">
        <ele>229.236735</ele>
        <time>2022-08-10T07:23:07.106Z</time>
      </trkpt>
      <trkpt lat="43.67512" lon="1.4962">
        <ele>229.038958</ele>
        <time>2022-08-10T07:23:11.109Z</time>
      </trkpt>
      <trkpt lat="43.67518" lon="1.4961">
        <ele>228.864369</ele>
        <time>2022-08-10T07:23:15.089Z</time>
      </trkpt>
      <trkpt lat="43.67524" lon="1.49601">
        <ele>228.693513</ele>
        <time>2022-08-10T07:23:18.088Z</time>
      </trkpt>
      <trkpt lat="43.67528" lon="1.49587">
        <ele>228.479734</ele>
        <time>2022-08-10T07:23:22.099Z</time>
      </trkpt>
      <trkpt lat="43.67528" lon="1.4957">
        <ele>228.256225</ele>
        <time>2022-08-10T07:23:26.127Z</time>
      </trkpt>
      <trkpt lat="43.67533" lon="1.49555">
        <ele>228.027177</ele>
        <time>2022-08-10T07:23:29.098Z</time>
      </trkpt>
      <trkpt lat="43.67538" lon="1.49543">
        <ele>227.833568</ele>
        <time>2022-08-10T07:23:31.091Z</time>
      </trkpt>
      <trkpt lat="43.67543" lon="1.49528">
        <ele>227.617788</ele>
        <time>2022-08-10T07:23:33.091Z</time>
      </trkpt>
      <trkpt lat="43.67548" lon="1.4951">
        <ele>227.3473</ele>
        <time>2022-08-10T07:23:36.108Z</time>
      </trkpt>
      <trkpt lat="43.67549" lon="1.49494">
        <ele>227.132668</ele>
        <time>2022-08-10T07:23:38.070Z</time>
      </trkpt>
      <trkpt lat="43.6755" lon="1.4948">
        <ele>226.945727</ele>
        <time>2022-08-10T07:23:40.093Z</time>
      </trkpt>
      <trkpt lat="43.67554" lon="1.49468">
        <ele>226.760305</ele>
        <time>2022-08-10T07:23:42.075Z</time>
      </trkpt>
      <trkpt lat="43.67564" lon="1.49459">
        <ele>226.530085</ele>
        <time>2022-08-10T07:23:45.083Z</time>
      </trkpt>
      <trkpt lat="43.67578" lon="1.49459">
        <ele>226.265059</ele>
        <time>2022-08-10T07:23:48.090Z</time>
      </trkpt>
      <trkpt lat="43.67587" lon="1.49453">
        <ele>226.077952</ele>
        <time>2022-08-10T07:23:50.082Z</time>
      </trkpt>
      <trkpt lat="43.67596" lon="1.49439">
        <ele>225.822396</ele>
        <time>2022-08-10T07:23:55.088Z</time>
      </trkpt>
      <trkpt lat="43.67601" lon="1.49429">
        <ele>225.641955</ele>
        <time>2022-08-10T07:23:59.074Z</time>
      </trkpt>
      <trkpt lat="43.67608" lon="1.49419">
        <ele>225.457214</ele>
        <time>2022-08-10T07:24:09.075Z</time>
      </trkpt>
      <trkpt lat="43.67619" lon="1.49411">
        <ele>225.222175</ele>
        <time>2022-08-10T07:24:22.095Z</time>
      </trkpt>
      <trkpt lat="43.67625" lon="1.49402">
        <ele>225.048528</ele>
        <time>2022-08-10T07:24:24.082Z</time>
      </trkpt>
      <trkpt lat="43.67632" lon="1.49392">
        <ele>224.851147</ele>
        <time>2022-08-10T07:24:28.102Z</time>
      </trkpt>
      <trkpt lat="43.67631" lon="1.49379">
        <ele>224.668522</ele>
        <time>2022-08-10T07:24:32.100Z</time>
      </trkpt>
      <trkpt lat="43.67635" lon="1.49366">
        <ele>224.483423</ele>
        <time>2022-08-10T07:24:35.139Z</time>
      </trkpt>
      <trkpt lat="43.67641" lon="1.49356">
        <ele>224.289296</ele>
        <time>2022-08-10T07:24:38.083Z</time>
      </trkpt>
      <trkpt lat="43.67649" lon="1.49344">
        <ele>224.064561</ele>
        <time>2022-08-10T07:24:41.100Z</time>
      </trkpt>
      <trkpt lat="43.67656" lon="1.49334">
        <ele>223.882911</ele>
        <time>2022-08-10T07:24:43.089Z</time>
      </trkpt>
      <trkpt lat="43.67663" lon="1.4932">
        <ele>223.639405</ele>
        <time>2022-08-10T07:24:46.081Z</time>
      </trkpt>
      <trkpt lat="43.67668" lon="1.49302">
        <ele>223.370519</ele>
        <time>2022-08-10T07:24:49.094Z</time>
      </trkpt>
      <trkpt lat="43.6767" lon="1.49289">
        <ele>223.192762</ele>
        <time>2022-08-10T07:24:51.091Z</time>
      </trkpt>
      <trkpt lat="43.67676" lon="1.49277">
        <ele>222.850409</ele>
        <time>2022-08-10T07:24:54.088Z</time>
      </trkpt>
      <trkpt lat="43.67683" lon="1.49265">
        <ele>222.153662</ele>
        <time>2022-08-10T07:24:57.098Z</time>
      </trkpt>
      <trkpt lat="43.67692" lon="1.49256">
        <ele>221.485969</ele>
        <time>2022-08-10T07:24:59.100Z</time>
      </trkpt>
      <trkpt lat="43.67698" lon="1.49245">
        <ele>220.875115</ele>
        <time>2022-08-10T07:25:01.102Z</time>
      </trkpt>
      <trkpt lat="43.67706" lon="1.49232">
        <ele>220.127163</ele>
        <time>2022-08-10T07:25:04.088Z</time>
      </trkpt>
      <trkpt lat="43.6771" lon="1.49221">
        <ele>219.570198</ele>
        <time>2022-08-10T07:25:06.090Z</time>
      </trkpt>
      <trkpt lat="43.67717" lon="1.49208">
        <ele>218.820504</ele>
        <time>2022-08-10T07:25:10.086Z</time>
      </trkpt>
      <trkpt lat="43.67723" lon="1.49195">
        <ele>218.157732</ele>
        <time>2022-08-10T07:25:13.096Z</time>
      </trkpt>
      <trkpt lat="43.67733" lon="1.49184">
        <ele>217.354088</ele>
        <time>2022-08-10T07:25:17.078Z</time>
      </trkpt>
      <trkpt lat="43.6774" lon="1.49172">
        <ele>216.664199</ele>
        <time>2022-08-10T07:25:20.071Z</time>
      </trkpt>
      <trkpt lat="43.67749" lon="1.49161">
        <ele>215.940081</ele>
        <time>2022-08-10T07:25:23.085Z</time>
      </trkpt>
      <trkpt lat="43.67756" lon="1.49152">
        <ele>215.36766</ele>
        <time>2022-08-10T07:25:25.080Z</time>
      </trkpt>
      <trkpt lat="43.67761" lon="1.49137">
        <ele>214.633673</ele>
        <time>2022-08-10T07:25:28.085Z</time>
      </trkpt>
      <trkpt lat="43.67767" lon="1.49127">
        <ele>214.035316</ele>
        <time>2022-08-10T07:25:30.092Z</time>
      </trkpt>
      <trkpt lat="43.67776" lon="1.49117">
        <ele>213.327646</ele>
        <time>2022-08-10T07:25:33.086Z</time>
      </trkpt>
      <trkpt lat="43.67785" lon="1.49105">
        <ele>212.558234</ele>
        <time>2022-08-10T07:25:35.076Z</time>
      </trkpt>
      <trkpt lat="43.67795" lon="1.4909">
        <ele>211.87477</ele>
        <time>2022-08-10T07:25:38.077Z</time>
      </trkpt>
      <trkpt lat="43.67802" lon="1.49077">
        <ele>211.71821</ele>
        <time>2022-08-10T07:25:42.100Z</time>
      </trkpt>
      <trkpt lat="43.67809" lon="1.49067">
        <ele>211.584659</ele>
        <time>2022-08-10T07:25:44.090Z</time>
      </trkpt>
      <trkpt lat="43.67816" lon="1.49058">
        <ele>211.460415</ele>
        <time>2022-08-10T07:25:46.087Z</time>
      </trkpt>
      <trkpt lat="43.67824" lon="1.49046">
        <ele>211.304586</ele>
        <time>2022-08-10T07:25:49.079Z</time>
      </trkpt>
      <trkpt lat="43.67832" lon="1.49035">
        <ele>211.16199</ele>
        <time>2022-08-10T07:25:52.088Z</time>
      </trkpt>
      <trkpt lat="43.67842" lon="1.4902">
        <ele>210.967338</ele>
        <time>2022-08-10T07:25:55.074Z</time>
      </trkpt>
      <trkpt lat="43.6785" lon="1.49008">
        <ele>210.807352</ele>
        <time>2022-08-10T07:25:57.113Z</time>
      </trkpt>
      <trkpt lat="43.67858" lon="1.48994">
        <ele>210.636498</ele>
        <time>2022-08-10T07:25:59.084Z</time>
      </trkpt>
      <trkpt lat="43.67865" lon="1.48985">
        <ele>210.516626</ele>
        <time>2022-08-10T07:26:01.094Z</time>
      </trkpt>
      <trkpt lat="43.67871" lon="1.48972">
        <ele>210.364829</ele>
        <time>2022-08-10T07:26:04.075Z</time>
      </trkpt>
      <trkpt lat="43.67878" lon="1.48956">
        <ele>210.188232</ele>
        <time>2022-08-10T07:26:07.083Z</time>
      </trkpt>
      <trkpt lat="43.67884" lon="1.48944">
        <ele>210.054323</ele>
        <time>2022-08-10T07:26:18.079Z</time>
      </trkpt>
      <trkpt lat="43.67893" lon="1.48931">
        <ele>209.877246</ele>
        <time>2022-08-10T07:26:43.086Z</time>
      </trkpt>
      <trkpt lat="43.67901" lon="1.4892">
        <ele>209.727975</ele>
        <time>2022-08-10T07:26:47.089Z</time>
      </trkpt>
      <trkpt lat="43.67908" lon="1.48907">
        <ele>209.581747</ele>
        <time>2022-08-10T07:26:50.090Z</time>
      </trkpt>
      <trkpt lat="43.67911" lon="1.48895">
        <ele>209.514514</ele>
        <time>2022-08-10T07:26:54.078Z</time>
      </trkpt>
      <trkpt lat="43.6792" lon="1.48886">
        <ele>209.444129</ele>
        <time>2022-08-10T07:26:58.095Z</time>
      </trkpt>
      <trkpt lat="43.67925" lon="1.48875">
        <ele>209.382863</ele>
        <time>2022-08-10T07:27:01.091Z</time>
      </trkpt>
      <trkpt lat="43.67931" lon="1.48865">
        <ele>209.31972</ele>
        <time>2022-08-10T07:27:04.104Z</time>
      </trkpt>
      <trkpt lat="43.6794" lon="1.48855">
        <ele>209.247417</ele>
        <time>2022-08-10T07:27:07.098Z</time>
      </trkpt>
      <trkpt lat="43.67948" lon="1.48847">
        <ele>209.181666</ele>
        <time>2022-08-10T07:27:09.088Z</time>
      </trkpt>
      <trkpt lat="43.67956" lon="1.48839">
        <ele>209.115132</ele>
        <time>2022-08-10T07:27:11.091Z</time>
      </trkpt>
      <trkpt lat="43.67967" lon="1.4883">
        <ele>209.029942</ele>
        <time>2022-08-10T07:27:13.096Z</time>
      </trkpt>
      <trkpt lat="43.67979" lon="1.48822">
        <ele>208.946337</ele>
        <time>2022-08-10T07:27:15.093Z</time>
      </trkpt>
      <trkpt lat="43.67991" lon="1.48815">
        <ele>208.859019</ele>
        <time>2022-08-10T07:27:17.086Z</time>
      </trkpt>
      <trkpt lat="43.68003" lon="1.48806">
        <ele>208.769925</ele>
        <time>2022-08-10T07:27:19.089Z</time>
      </trkpt>
      <trkpt lat="43.68014" lon="1.48796">
        <ele>208.68175</ele>
        <time>2022-08-10T07:27:21.084Z</time>
      </trkpt>
      <trkpt lat="43.68025" lon="1.48788">
        <ele>208.598861</ele>
        <time>2022-08-10T07:27:23.079Z</time>
      </trkpt>
      <trkpt lat="43.68037" lon="1.48781">
        <ele>208.516518</ele>
        <time>2022-08-10T07:27:25.099Z</time>
      </trkpt>
      <trkpt lat="43.68046" lon="1.48773">
        <ele>208.444384</ele>
        <time>2022-08-10T07:27:27.090Z</time>
      </trkpt>
      <trkpt lat="43.68055" lon="1.48775">
        <ele>208.409385</ele>
        <time>2022-08-10T07:27:32.095Z</time>
      </trkpt>
      <trkpt lat="43.68055" lon="1.48791">
        <ele>208.568089</ele>
        <time>2022-08-10T07:27:35.082Z</time>
      </trkpt>
      <trkpt lat="43.68053" lon="1.48804">
        <ele>208.704922</ele>
        <time>2022-08-10T07:27:37.076Z</time>
      </trkpt>
      <trkpt lat="43.68055" lon="1.48819">
        <ele>208.855529</ele>
        <time>2022-08-10T07:27:39.079Z</time>
      </trkpt>
      <trkpt lat="43.68061" lon="1.48832">
        <ele>209.007669</ele>
        <time>2022-08-10T07:27:41.078Z</time>
      </trkpt>
      <trkpt lat="43.68069" lon="1.48843">
        <ele>209.162951</ele>
        <time>2022-08-10T07:27:43.083Z</time>
      </trkpt>
      <trkpt lat="43.68077" lon="1.48853">
        <ele>209.316772</ele>
        <time>2022-08-10T07:27:45.100Z</time>
      </trkpt>
      <trkpt lat="43.68086" lon="1.48862">
        <ele>209.464826</ele>
        <time>2022-08-10T07:27:47.080Z</time>
      </trkpt>
      <trkpt lat="43.68095" lon="1.4887">
        <ele>209.617106</ele>
        <time>2022-08-10T07:27:49.086Z</time>
      </trkpt>
      <trkpt lat="43.68104" lon="1.48877">
        <ele>209.758725</ele>
        <time>2022-08-10T07:27:51.082Z</time>
      </trkpt>
      <trkpt lat="43.68112" lon="1.48884">
        <ele>209.887122</ele>
        <time>2022-08-10T07:27:53.123Z</time>
      </trkpt>
      <trkpt lat="43.6812" lon="1.4889">
        <ele>210.012817</ele>
        <time>2022-08-10T07:27:55.082Z</time>
      </trkpt>
      <trkpt lat="43.68128" lon="1.48897">
        <ele>210.140032</ele>
        <time>2022-08-10T07:27:57.100Z</time>
      </trkpt>
      <trkpt lat="43.68136" lon="1.48903">
        <ele>210.269812</ele>
        <time>2022-08-10T07:27:59.099Z</time>
      </trkpt>
      <trkpt lat="43.68144" lon="1.48909">
        <ele>210.398625</ele>
        <time>2022-08-10T07:28:01.108Z</time>
      </trkpt>
      <trkpt lat="43.68153" lon="1.48916">
        <ele>210.533143</ele>
        <time>2022-08-10T07:28:03.121Z</time>
      </trkpt>
      <trkpt lat="43.68162" lon="1.48924">
        <ele>210.679156</ele>
        <time>2022-08-10T07:28:05.092Z</time>
      </trkpt>
      <trkpt lat="43.68172" lon="1.4893">
        <ele>210.829836</ele>
        <time>2022-08-10T07:28:07.113Z</time>
      </trkpt>
      <trkpt lat="43.68181" lon="1.48937">
        <ele>211.49267</ele>
        <time>2022-08-10T07:28:09.096Z</time>
      </trkpt>
      <trkpt lat="43.68191" lon="1.48943">
        <ele>212.351548</ele>
        <time>2022-08-10T07:28:11.113Z</time>
      </trkpt>
      <trkpt lat="43.682" lon="1.48953">
        <ele>213.234282</ele>
        <time>2022-08-10T07:28:13.086Z</time>
      </trkpt>
      <trkpt lat="43.68207" lon="1.48969">
        <ele>214.296533</ele>
        <time>2022-08-10T07:28:15.093Z</time>
      </trkpt>
      <trkpt lat="43.68218" lon="1.48979">
        <ele>215.324063</ele>
        <time>2022-08-10T07:28:17.106Z</time>
      </trkpt>
      <trkpt lat="43.68229" lon="1.48985">
        <ele>216.249762</ele>
        <time>2022-08-10T07:28:19.112Z</time>
      </trkpt>
      <trkpt lat="43.68239" lon="1.48992">
        <ele>217.096744</ele>
        <time>2022-08-10T07:28:21.113Z</time>
      </trkpt>
      <trkpt lat="43.68249" lon="1.4899">
        <ele>217.918763</ele>
        <time>2022-08-10T07:28:23.110Z</time>
      </trkpt>
      <trkpt lat="43.68258" lon="1.48986">
        <ele>218.672999</ele>
        <time>2022-08-10T07:28:25.116Z</time>
      </trkpt>
      <trkpt lat="43.68261" lon="1.48973">
        <ele>219.410101</ele>
        <time>2022-08-10T07:28:28.093Z</time>
      </trkpt>
      <trkpt lat="43.6826" lon="1.48958">
        <ele>220.265152</ele>
        <time>2022-08-10T07:28:31.128Z</time>
      </trkpt>
      <trkpt lat="43.68262" lon="1.48945">
        <ele>221.037962</ele>
        <time>2022-08-10T07:28:34.132Z</time>
      </trkpt>
      <trkpt lat="43.68264" lon="1.48932">
        <ele>221.791602</ele>
        <time>2022-08-10T07:28:37.089Z</time>
      </trkpt>
      <trkpt lat="43.68268" lon="1.48918">
        <ele>222.625411</ele>
        <time>2022-08-10T07:28:41.091Z</time>
      </trkpt>
      <trkpt lat="43.6827" lon="1.48906">
        <ele>223.360529</ele>
        <time>2022-08-10T07:28:45.128Z</time>
      </trkpt>
      <trkpt lat="43.68273" lon="1.48891">
        <ele>224.237162</ele>
        <time>2022-08-10T07:28:49.099Z</time>
      </trkpt>
      <trkpt lat="43.68278" lon="1.48876">
        <ele>225.304662</ele>
        <time>2022-08-10T07:28:54.104Z</time>
      </trkpt>
      <trkpt lat="43.6828" lon="1.48861">
        <ele>226.95628</ele>
        <time>2022-08-10T07:28:58.084Z</time>
      </trkpt>
      <trkpt lat="43.68282" lon="1.48845">
        <ele>228.711181</ele>
        <time>2022-08-10T07:29:02.113Z</time>
      </trkpt>
      <trkpt lat="43.68286" lon="1.4883">
        <ele>230.408582</ele>
        <time>2022-08-10T07:29:06.087Z</time>
      </trkpt>
      <trkpt lat="43.68289" lon="1.48816">
        <ele>232.013962</ele>
        <time>2022-08-10T07:29:10.095Z</time>
      </trkpt>
      <trkpt lat="43.68293" lon="1.48802">
        <ele>233.65532</ele>
        <time>2022-08-10T07:29:14.096Z</time>
      </trkpt>
      <trkpt lat="43.68295" lon="1.48788">
        <ele>235.184064</ele>
        <time>2022-08-10T07:29:18.098Z</time>
      </trkpt>
      <trkpt lat="43.68299" lon="1.48775">
        <ele>236.759973</ele>
        <time>2022-08-10T07:29:22.105Z</time>
      </trkpt>
      <trkpt lat="43.68304" lon="1.48761">
        <ele>238.426548</ele>
        <time>2022-08-10T07:29:26.100Z</time>
      </trkpt>
      <trkpt lat="43.68308" lon="1.48747">
        <ele>240.015754</ele>
        <time>2022-08-10T07:29:30.096Z</time>
      </trkpt>
      <trkpt lat="43.68313" lon="1.48734">
        <ele>241.66721</ele>
        <time>2022-08-10T07:29:34.094Z</time>
      </trkpt>
      <trkpt lat="43.68318" lon="1.48721">
        <ele>243.276255</ele>
        <time>2022-08-10T07:29:39.085Z</time>
      </trkpt>
      <trkpt lat="43.68323" lon="1.48707">
        <ele>244.968898</ele>
        <time>2022-08-10T07:29:43.104Z</time>
      </trkpt>
      <trkpt lat="43.68327" lon="1.48693">
        <ele>246.540398</ele>
        <time>2022-08-10T07:29:47.088Z</time>
      </trkpt>
      <trkpt lat="43.6833" lon="1.48682">
        <ele>247.887202</ele>
        <time>2022-08-10T07:29:51.101Z</time>
      </trkpt>
      <trkpt lat="43.68335" lon="1.48671">
        <ele>249.319479</ele>
        <time>2022-08-10T07:29:55.097Z</time>
      </trkpt>
      <trkpt lat="43.6834" lon="1.48658">
        <ele>250.865627</ele>
        <time>2022-08-10T07:29:59.084Z</time>
      </trkpt>
      <trkpt lat="43.68344" lon="1.48645">
        <ele>252.071501</ele>
        <time>2022-08-10T07:30:02.089Z</time>
      </trkpt>
      <trkpt lat="43.68347" lon="1.48633">
        <ele>252.352427</ele>
        <time>2022-08-10T07:30:05.101Z</time>
      </trkpt>
      <trkpt lat="43.6835" lon="1.48617">
        <ele>252.682177</ele>
        <time>2022-08-10T07:30:08.086Z</time>
      </trkpt>
      <trkpt lat="43.68355" lon="1.48602">
        <ele>253.020558</ele>
        <time>2022-08-10T07:30:11.080Z</time>
      </trkpt>
      <trkpt lat="43.68358" lon="1.48588">
        <ele>253.340326</ele>
        <time>2022-08-10T07:30:14.094Z</time>
      </trkpt>
      <trkpt lat="43.68356" lon="1.48575">
        <ele>253.6196</ele>
        <time>2022-08-10T07:30:20.097Z</time>
      </trkpt>
      <trkpt lat="43.68365" lon="1.48574">
        <ele>253.884681</ele>
        <time>2022-08-10T07:30:30.093Z</time>
      </trkpt>
      <trkpt lat="43.68356" lon="1.48577">
        <ele>254.157945</ele>
        <time>2022-08-10T07:31:18.098Z</time>
      </trkpt>
      <trkpt lat="43.68365" lon="1.48586">
        <ele>254.486768</ele>
        <time>2022-08-10T07:31:28.089Z</time>
      </trkpt>
      <trkpt lat="43.68375" lon="1.48592">
        <ele>254.805518</ele>
        <time>2022-08-10T07:31:32.091Z</time>
      </trkpt>
      <trkpt lat="43.68385" lon="1.48598">
        <ele>255.103311</ele>
        <time>2022-08-10T07:31:37.092Z</time>
      </trkpt>
      <trkpt lat="43.68395" lon="1.48603">
        <ele>255.406393</ele>
        <time>2022-08-10T07:31:42.088Z</time>
      </trkpt>
      <trkpt lat="43.68406" lon="1.4861">
        <ele>255.765082</ele>
        <time>2022-08-10T07:31:46.086Z</time>
      </trkpt>
      <trkpt lat="43.68415" lon="1.48616">
        <ele>256.071746</ele>
        <time>2022-08-10T07:31:49.086Z</time>
      </trkpt>
      <trkpt lat="43.68425" lon="1.48618">
        <ele>256.351619</ele>
        <time>2022-08-10T07:31:55.083Z</time>
      </trkpt>
      <trkpt lat="43.68435" lon="1.48619">
        <ele>256.64567</ele>
        <time>2022-08-10T07:32:01.114Z</time>
      </trkpt>
      <trkpt lat="43.68444" lon="1.48617">
        <ele>256.905486</ele>
        <time>2022-08-10T07:32:07.088Z</time>
      </trkpt>
      <trkpt lat="43.68434" lon="1.48609">
        <ele>257.147422</ele>
        <time>2022-08-10T07:32:11.099Z</time>
      </trkpt>
      <trkpt lat="43.68424" lon="1.48604">
        <ele>256.971145</ele>
        <time>2022-08-10T07:32:16.087Z</time>
      </trkpt>
      <trkpt lat="43.6842" lon="1.48592">
        <ele>256.811858</ele>
        <time>2022-08-10T07:32:21.105Z</time>
      </trkpt>
      <trkpt lat="43.68426" lon="1.48577">
        <ele>256.610275</ele>
        <time>2022-08-10T07:32:24.098Z</time>
      </trkpt>
      <trkpt lat="43.68432" lon="1.48564">
        <ele>256.445677</ele>
        <time>2022-08-10T07:32:26.108Z</time>
      </trkpt>
      <trkpt lat="43.68438" lon="1.48551">
        <ele>256.267073</ele>
        <time>2022-08-10T07:32:28.086Z</time>
      </trkpt>
      <trkpt lat="43.68444" lon="1.48537">
        <ele>256.082965</ele>
        <time>2022-08-10T07:32:30.089Z</time>
      </trkpt>
      <trkpt lat="43.68451" lon="1.48523">
        <ele>255.895273</ele>
        <time>2022-08-10T07:32:32.097Z</time>
      </trkpt>
      <trkpt lat="43.68459" lon="1.4851">
        <ele>255.702695</ele>
        <time>2022-08-10T07:32:34.100Z</time>
      </trkpt>
      <trkpt lat="43.68467" lon="1.48497">
        <ele>255.507524</ele>
        <time>2022-08-10T07:32:36.098Z</time>
      </trkpt>
      <trkpt lat="43.68475" lon="1.48485">
        <ele>255.318776</ele>
        <time>2022-08-10T07:32:38.104Z</time>
      </trkpt>
      <trkpt lat="43.68484" lon="1.48473">
        <ele>255.125205</ele>
        <time>2022-08-10T07:32:40.092Z</time>
      </trkpt>
      <trkpt lat="43.68492" lon="1.48461">
        <ele>254.932409</ele>
        <time>2022-08-10T07:32:42.088Z</time>
      </trkpt>
      <trkpt lat="43.68501" lon="1.48448">
        <ele>254.734718</ele>
        <time>2022-08-10T07:32:44.116Z</time>
      </trkpt>
      <trkpt lat="43.68511" lon="1.48438">
        <ele>254.532158</ele>
        <time>2022-08-10T07:32:46.091Z</time>
      </trkpt>
      <trkpt lat="43.68522" lon="1.48428">
        <ele>254.332325</ele>
        <time>2022-08-10T07:32:48.094Z</time>
      </trkpt>
      <trkpt lat="43.68534" lon="1.48419">
        <ele>254.162056</ele>
        <time>2022-08-10T07:32:50.099Z</time>
      </trkpt>
      <trkpt lat="43.68545" lon="1.48411">
        <ele>253.995963</ele>
        <time>2022-08-10T07:32:52.098Z</time>
      </trkpt>
      <trkpt lat="43.68556" lon="1.48402">
        <ele>253.826161</ele>
        <time>2022-08-10T07:32:54.109Z</time>
      </trkpt>
      <trkpt lat="43.68567" lon="1.48394">
        <ele>253.660526</ele>
        <time>2022-08-10T07:32:56.098Z</time>
      </trkpt>
      <trkpt lat="43.68577" lon="1.48385">
        <ele>253.495023</ele>
        <time>2022-08-10T07:32:58.102Z</time>
      </trkpt>
      <trkpt lat="43.68588" lon="1.48376">
        <ele>253.328633</ele>
        <time>2022-08-10T07:33:00.089Z</time>
      </trkpt>
      <trkpt lat="43.68598" lon="1.48366">
        <ele>253.171085</ele>
        <time>2022-08-10T07:33:02.111Z</time>
      </trkpt>
      <trkpt lat="43.68608" lon="1.48358">
        <ele>253.010301</ele>
        <time>2022-08-10T07:33:04.099Z</time>
      </trkpt>
      <trkpt lat="43.68618" lon="1.48349">
        <ele>252.851631</ele>
        <time>2022-08-10T07:33:06.100Z</time>
      </trkpt>
      <trkpt lat="43.68627" lon="1.48337">
        <ele>252.6898</ele>
        <time>2022-08-10T07:33:08.106Z</time>
      </trkpt>
      <trkpt lat="43.68635" lon="1.48324">
        <ele>252.525867</ele>
        <time>2022-08-10T07:33:10.105Z</time>
      </trkpt>
      <trkpt lat="43.68643" lon="1.4831">
        <ele>252.353332</ele>
        <time>2022-08-10T07:33:12.095Z</time>
      </trkpt>
      <trkpt lat="43.68651" lon="1.48296">
        <ele>252.183937</ele>
        <time>2022-08-10T07:33:14.112Z</time>
      </trkpt>
      <trkpt lat="43.68658" lon="1.48282">
        <ele>252.016949</ele>
        <time>2022-08-10T07:33:16.107Z</time>
      </trkpt>
      <trkpt lat="43.68665" lon="1.48267">
        <ele>251.687122</ele>
        <time>2022-08-10T07:33:18.096Z</time>
      </trkpt>
      <trkpt lat="43.68673" lon="1.48254">
        <ele>251.31668</ele>
        <time>2022-08-10T07:33:20.095Z</time>
      </trkpt>
      <trkpt lat="43.68681" lon="1.4825">
        <ele>251.030917</ele>
        <time>2022-08-10T07:33:24.091Z</time>
      </trkpt>
      <trkpt lat="43.68693" lon="1.48256">
        <ele>250.631851</ele>
        <time>2022-08-10T07:33:27.111Z</time>
      </trkpt>
      <trkpt lat="43.68704" lon="1.4826">
        <ele>250.300665</ele>
        <time>2022-08-10T07:33:29.105Z</time>
      </trkpt>
      <trkpt lat="43.68715" lon="1.48266">
        <ele>249.940267</ele>
        <time>2022-08-10T07:33:31.113Z</time>
      </trkpt>
      <trkpt lat="43.68726" lon="1.48272">
        <ele>249.580333</ele>
        <time>2022-08-10T07:33:33.096Z</time>
      </trkpt>
      <trkpt lat="43.68736" lon="1.48279">
        <ele>249.214278</ele>
        <time>2022-08-10T07:33:35.099Z</time>
      </trkpt>
      <trkpt lat="43.68747" lon="1.48286">
        <ele>248.867831</ele>
        <time>2022-08-10T07:33:37.132Z</time>
      </trkpt>
      <trkpt lat="43.68757" lon="1.48294">
        <ele>248.506966</ele>
        <time>2022-08-10T07:33:40.107Z</time>
      </trkpt>
      <trkpt lat="43.68771" lon="1.48299">
        <ele>248.049012</ele>
        <time>2022-08-10T07:33:43.109Z</time>
      </trkpt>
      <trkpt lat="43.68783" lon="1.48303">
        <ele>247.666966</ele>
        <time>2022-08-10T07:33:45.094Z</time>
      </trkpt>
      <trkpt lat="43.68796" lon="1.48308">
        <ele>247.268353</ele>
        <time>2022-08-10T07:33:47.103Z</time>
      </trkpt>
      <trkpt lat="43.6881" lon="1.48312">
        <ele>246.830634</ele>
        <time>2022-08-10T07:33:49.113Z</time>
      </trkpt>
      <trkpt lat="43.68826" lon="1.48315">
        <ele>246.173085</ele>
        <time>2022-08-10T07:33:51.117Z</time>
      </trkpt>
      <trkpt lat="43.68843" lon="1.48317">
        <ele>244.933758</ele>
        <time>2022-08-10T07:33:53.102Z</time>
      </trkpt>
      <trkpt lat="43.68857" lon="1.48319">
        <ele>243.905212</ele>
        <time>2022-08-10T07:33:55.106Z</time>
      </trkpt>
      <trkpt lat="43.68868" lon="1.4832">
        <ele>243.105722</ele>
        <time>2022-08-10T07:33:57.109Z</time>
      </trkpt>
      <trkpt lat="43.68878" lon="1.48319">
        <ele>242.314297</ele>
        <time>2022-08-10T07:34:01.111Z</time>
      </trkpt>
      <trkpt lat="43.6889" lon="1.48316">
        <ele>241.470938</ele>
        <time>2022-08-10T07:34:04.097Z</time>
      </trkpt>
      <trkpt lat="43.68899" lon="1.48312">
        <ele>240.742271</ele>
        <time>2022-08-10T07:34:06.099Z</time>
      </trkpt>
      <trkpt lat="43.6891" lon="1.48311">
        <ele>239.97964</ele>
        <time>2022-08-10T07:34:08.116Z</time>
      </trkpt>
      <trkpt lat="43.68918" lon="1.48322">
        <ele>239.145879</ele>
        <time>2022-08-10T07:34:10.113Z</time>
      </trkpt>
      <trkpt lat="43.68923" lon="1.48342">
        <ele>238.027065</ele>
        <time>2022-08-10T07:34:12.109Z</time>
      </trkpt>
      <trkpt lat="43.68925" lon="1.4836">
        <ele>237.033915</ele>
        <time>2022-08-10T07:34:14.095Z</time>
      </trkpt>
      <trkpt lat="43.68934" lon="1.48347">
        <ele>236.103354</ele>
        <time>2022-08-10T07:34:19.111Z</time>
      </trkpt>
      <trkpt lat="43.68937" lon="1.4833">
        <ele>235.159667</ele>
        <time>2022-08-10T07:34:21.116Z</time>
      </trkpt>
      <trkpt lat="43.68941" lon="1.48312">
        <ele>234.137786</ele>
        <time>2022-08-10T07:34:23.095Z</time>
      </trkpt>
      <trkpt lat="43.68945" lon="1.48292">
        <ele>233.17921</ele>
        <time>2022-08-10T07:34:25.105Z</time>
      </trkpt>
      <trkpt lat="43.68951" lon="1.48272">
        <ele>232.613125</ele>
        <time>2022-08-10T07:34:27.090Z</time>
      </trkpt>
      <trkpt lat="43.68956" lon="1.48251">
        <ele>232.032052</ele>
        <time>2022-08-10T07:34:29.089Z</time>
      </trkpt>
      <trkpt lat="43.68959" lon="1.4823">
        <ele>231.461395</ele>
        <time>2022-08-10T07:34:31.108Z</time>
      </trkpt>
      <trkpt lat="43.68964" lon="1.48211">
        <ele>230.905914</ele>
        <time>2022-08-10T07:34:33.100Z</time>
      </trkpt>
      <trkpt lat="43.68972" lon="1.48193">
        <ele>230.360596</ele>
        <time>2022-08-10T07:34:35.091Z</time>
      </trkpt>
      <trkpt lat="43.68973" lon="1.48175">
        <ele>229.89815</ele>
        <time>2022-08-10T07:34:37.090Z</time>
      </trkpt>
      <trkpt lat="43.68973" lon="1.48162">
        <ele>229.556176</ele>
        <time>2022-08-10T07:34:39.116Z</time>
      </trkpt>
      <trkpt lat="43.68976" lon="1.4815">
        <ele>229.215831</ele>
        <time>2022-08-10T07:34:41.115Z</time>
      </trkpt>
      <trkpt lat="43.68984" lon="1.48134">
        <ele>228.680698</ele>
        <time>2022-08-10T07:34:43.114Z</time>
      </trkpt>
      <trkpt lat="43.68993" lon="1.48117">
        <ele>228.128418</ele>
        <time>2022-08-10T07:34:45.097Z</time>
      </trkpt>
      <trkpt lat="43.68998" lon="1.48099">
        <ele>227.623526</ele>
        <time>2022-08-10T07:34:47.095Z</time>
      </trkpt>
      <trkpt lat="43.69005" lon="1.48083">
        <ele>227.108476</ele>
        <time>2022-08-10T07:34:49.113Z</time>
      </trkpt>
      <trkpt lat="43.69015" lon="1.48067">
        <ele>226.835865</ele>
        <time>2022-08-10T07:34:51.098Z</time>
      </trkpt>
      <trkpt lat="43.69018" lon="1.48054">
        <ele>227.187994</ele>
        <time>2022-08-10T07:34:53.119Z</time>
      </trkpt>
      <trkpt lat="43.69023" lon="1.48044">
        <ele>227.5059</ele>
        <time>2022-08-10T07:34:56.092Z</time>
      </trkpt>
      <trkpt lat="43.69029" lon="1.48033">
        <ele>227.854948</ele>
        <time>2022-08-10T07:35:02.107Z</time>
      </trkpt>
      <trkpt lat="43.69037" lon="1.48024">
        <ele>228.225323</ele>
        <time>2022-08-10T07:35:05.097Z</time>
      </trkpt>
      <trkpt lat="43.69046" lon="1.48016">
        <ele>228.584587</ele>
        <time>2022-08-10T07:35:07.092Z</time>
      </trkpt>
      <trkpt lat="43.69056" lon="1.48011">
        <ele>228.965041</ele>
        <time>2022-08-10T07:35:09.108Z</time>
      </trkpt>
      <trkpt lat="43.69065" lon="1.48007">
        <ele>229.297974</ele>
        <time>2022-08-10T07:35:11.095Z</time>
      </trkpt>
      <trkpt lat="43.69075" lon="1.48003">
        <ele>229.678964</ele>
        <time>2022-08-10T07:35:14.112Z</time>
      </trkpt>
      <trkpt lat="43.69087" lon="1.47999">
        <ele>230.097863</ele>
        <time>2022-08-10T07:35:18.095Z</time>
      </trkpt>
      <trkpt lat="43.69098" lon="1.47994">
        <ele>230.506701</ele>
        <time>2022-08-10T07:35:22.113Z</time>
      </trkpt>
      <trkpt lat="43.69108" lon="1.4799">
        <ele>230.871181</ele>
        <time>2022-08-10T07:35:25.108Z</time>
      </trkpt>
      <trkpt lat="43.69121" lon="1.47985">
        <ele>231.343146</ele>
        <time>2022-08-10T07:35:28.099Z</time>
      </trkpt>
      <trkpt lat="43.69131" lon="1.4799">
        <ele>231.714333</ele>
        <time>2022-08-10T07:35:32.086Z</time>
      </trkpt>
      <trkpt lat="43.69138" lon="1.47999">
        <ele>232.059728</ele>
        <time>2022-08-10T07:35:35.085Z</time>
      </trkpt>
      <trkpt lat="43.69146" lon="1.48008">
        <ele>232.425684</ele>
        <time>2022-08-10T07:35:38.086Z</time>
      </trkpt>
      <trkpt lat="43.69155" lon="1.48012">
        <ele>232.763118</ele>
        <time>2022-08-10T07:35:42.087Z</time>
      </trkpt>
      <trkpt lat="43.69162" lon="1.47999">
        <ele>233.118461</ele>
        <time>2022-08-10T07:35:44.074Z</time>
      </trkpt>
      <trkpt lat="43.69171" lon="1.47988">
        <ele>233.324743</ele>
        <time>2022-08-10T07:35:46.096Z</time>
      </trkpt>
      <trkpt lat="43.69181" lon="1.47988">
        <ele>233.493797</ele>
        <time>2022-08-10T07:35:48.082Z</time>
      </trkpt>
      <trkpt lat="43.69191" lon="1.47992">
        <ele>233.672147</ele>
        <time>2022-08-10T07:35:50.072Z</time>
      </trkpt>
      <trkpt lat="43.69201" lon="1.47994">
        <ele>233.837742</ele>
        <time>2022-08-10T07:35:52.092Z</time>
      </trkpt>
      <trkpt lat="43.6921" lon="1.47997">
        <ele>234.004932</ele>
        <time>2022-08-10T07:35:54.124Z</time>
      </trkpt>
      <trkpt lat="43.6922" lon="1.48">
        <ele>234.178806</ele>
        <time>2022-08-10T07:35:56.124Z</time>
      </trkpt>
      <trkpt lat="43.6923" lon="1.48003">
        <ele>234.351571</ele>
        <time>2022-08-10T07:35:58.087Z</time>
      </trkpt>
      <trkpt lat="43.6924" lon="1.48002">
        <ele>234.533537</ele>
        <time>2022-08-10T07:36:00.087Z</time>
      </trkpt>
      <trkpt lat="43.69252" lon="1.47996">
        <ele>234.74543</ele>
        <time>2022-08-10T07:36:02.094Z</time>
      </trkpt>
      <trkpt lat="43.69265" lon="1.47989">
        <ele>234.989213</ele>
        <time>2022-08-10T07:36:04.102Z</time>
      </trkpt>
      <trkpt lat="43.69276" lon="1.4798">
        <ele>235.210319</ele>
        <time>2022-08-10T07:36:06.111Z</time>
      </trkpt>
      <trkpt lat="43.69281" lon="1.47964">
        <ele>235.432824</ele>
        <time>2022-08-10T07:36:08.080Z</time>
      </trkpt>
      <trkpt lat="43.69281" lon="1.47946">
        <ele>235.656851</ele>
        <time>2022-08-10T07:36:10.091Z</time>
      </trkpt>
      <trkpt lat="43.69282" lon="1.47928">
        <ele>235.877305</ele>
        <time>2022-08-10T07:36:12.089Z</time>
      </trkpt>
      <trkpt lat="43.69284" lon="1.47913">
        <ele>236.071737</ele>
        <time>2022-08-10T07:36:14.091Z</time>
      </trkpt>
      <trkpt lat="43.69286" lon="1.47898">
        <ele>236.487672</ele>
        <time>2022-08-10T07:36:16.106Z</time>
      </trkpt>
      <trkpt lat="43.6929" lon="1.47887">
        <ele>236.982062</ele>
        <time>2022-08-10T07:36:18.078Z</time>
      </trkpt>
      <trkpt lat="43.69297" lon="1.47873">
        <ele>237.614989</ele>
        <time>2022-08-10T07:36:21.087Z</time>
      </trkpt>
      <trkpt lat="43.69304" lon="1.47861">
        <ele>238.198229</ele>
        <time>2022-08-10T07:36:24.091Z</time>
      </trkpt>
      <trkpt lat="43.69311" lon="1.4785">
        <ele>238.788303</ele>
        <time>2022-08-10T07:36:27.089Z</time>
      </trkpt>
      <trkpt lat="43.69318" lon="1.47838">
        <ele>239.365103</ele>
        <time>2022-08-10T07:36:30.093Z</time>
      </trkpt>
      <trkpt lat="43.69324" lon="1.47825">
        <ele>239.958055</ele>
        <time>2022-08-10T07:36:33.074Z</time>
      </trkpt>
      <trkpt lat="43.6933" lon="1.47812">
        <ele>240.550536</ele>
        <time>2022-08-10T07:36:36.086Z</time>
      </trkpt>
      <trkpt lat="43.69336" lon="1.47799">
        <ele>241.143831</ele>
        <time>2022-08-10T07:36:39.105Z</time>
      </trkpt>
      <trkpt lat="43.69343" lon="1.47787">
        <ele>241.731427</ele>
        <time>2022-08-10T07:36:42.085Z</time>
      </trkpt>
      <trkpt lat="43.69353" lon="1.47782">
        <ele>242.311801</ele>
        <time>2022-08-10T07:36:45.084Z</time>
      </trkpt>
      <trkpt lat="43.69366" lon="1.47781">
        <ele>242.972245</ele>
        <time>2022-08-10T07:36:48.088Z</time>
      </trkpt>
      <trkpt lat="43.69375" lon="1.47781">
        <ele>243.456461</ele>
        <time>2022-08-10T07:36:50.087Z</time>
      </trkpt>
      <trkpt lat="43.69384" lon="1.4778">
        <ele>243.968143</ele>
        <time>2022-08-10T07:36:52.094Z</time>
      </trkpt>
      <trkpt lat="43.69394" lon="1.47781">
        <ele>244.468392</ele>
        <time>2022-08-10T07:36:54.077Z</time>
      </trkpt>
      <trkpt lat="43.69404" lon="1.4778">
        <ele>245.000485</ele>
        <time>2022-08-10T07:36:56.078Z</time>
      </trkpt>
      <trkpt lat="43.69414" lon="1.4778">
        <ele>245.532746</ele>
        <time>2022-08-10T07:36:58.088Z</time>
      </trkpt>
      <trkpt lat="43.69423" lon="1.4778">
        <ele>245.95317</ele>
        <time>2022-08-10T07:37:00.078Z</time>
      </trkpt>
      <trkpt lat="43.69435" lon="1.47779">
        <ele>246.450004</ele>
        <time>2022-08-10T07:37:03.089Z</time>
      </trkpt>
      <trkpt lat="43.69446" lon="1.47767">
        <ele>247.010183</ele>
        <time>2022-08-10T07:37:06.089Z</time>
      </trkpt>
      <trkpt lat="43.69451" lon="1.47755">
        <ele>247.412705</ele>
        <time>2022-08-10T07:37:08.089Z</time>
      </trkpt>
      <trkpt lat="43.69456" lon="1.47744">
        <ele>247.807288</ele>
        <time>2022-08-10T07:37:10.084Z</time>
      </trkpt>
      <trkpt lat="43.69461" lon="1.47732">
        <ele>248.201715</ele>
        <time>2022-08-10T07:37:12.081Z</time>
      </trkpt>
      <trkpt lat="43.69466" lon="1.4772">
        <ele>248.613075</ele>
        <time>2022-08-10T07:37:14.085Z</time>
      </trkpt>
      <trkpt lat="43.69471" lon="1.47708">
        <ele>249.010196</ele>
        <time>2022-08-10T07:37:16.081Z</time>
      </trkpt>
      <trkpt lat="43.69476" lon="1.47698">
        <ele>249.379112</ele>
        <time>2022-08-10T07:37:18.086Z</time>
      </trkpt>
      <trkpt lat="43.69481" lon="1.47686">
        <ele>249.779979</ele>
        <time>2022-08-10T07:37:20.091Z</time>
      </trkpt>
      <trkpt lat="43.69485" lon="1.47673">
        <ele>250.184853</ele>
        <time>2022-08-10T07:37:22.076Z</time>
      </trkpt>
      <trkpt lat="43.69487" lon="1.4766">
        <ele>250.576493</ele>
        <time>2022-08-10T07:37:24.089Z</time>
      </trkpt>
      <trkpt lat="43.69488" lon="1.47647">
        <ele>250.966698</ele>
        <time>2022-08-10T07:37:26.094Z</time>
      </trkpt>
      <trkpt lat="43.6949" lon="1.47634">
        <ele>251.357599</ele>
        <time>2022-08-10T07:37:28.101Z</time>
      </trkpt>
      <trkpt lat="43.69492" lon="1.47618">
        <ele>251.835505</ele>
        <time>2022-08-10T07:37:31.088Z</time>
      </trkpt>
      <trkpt lat="43.69494" lon="1.47605">
        <ele>252.236064</ele>
        <time>2022-08-10T07:37:33.093Z</time>
      </trkpt>
      <trkpt lat="43.69497" lon="1.47589">
        <ele>252.725416</ele>
        <time>2022-08-10T07:37:36.093Z</time>
      </trkpt>
      <trkpt lat="43.69502" lon="1.47576">
        <ele>253.104704</ele>
        <time>2022-08-10T07:37:38.094Z</time>
      </trkpt>
      <trkpt lat="43.69511" lon="1.47562">
        <ele>253.480359</ele>
        <time>2022-08-10T07:37:41.085Z</time>
      </trkpt>
      <trkpt lat="43.69517" lon="1.47552">
        <ele>253.737743</ele>
        <time>2022-08-10T07:37:43.081Z</time>
      </trkpt>
      <trkpt lat="43.69526" lon="1.47539">
        <ele>254.098881</ele>
        <time>2022-08-10T07:37:46.105Z</time>
      </trkpt>
      <trkpt lat="43.69534" lon="1.47526">
        <ele>254.449496</ele>
        <time>2022-08-10T07:37:49.088Z</time>
      </trkpt>
      <trkpt lat="43.69541" lon="1.47516">
        <ele>254.734186</ele>
        <time>2022-08-10T07:37:52.084Z</time>
      </trkpt>
      <trkpt lat="43.69551" lon="1.47521">
        <ele>255.049265</ele>
        <time>2022-08-10T07:37:56.105Z</time>
      </trkpt>
      <trkpt lat="43.69562" lon="1.47531">
        <ele>255.398525</ele>
        <time>2022-08-10T07:37:59.089Z</time>
      </trkpt>
      <trkpt lat="43.69569" lon="1.47538">
        <ele>255.656988</ele>
        <time>2022-08-10T07:38:01.099Z</time>
      </trkpt>
      <trkpt lat="43.69576" lon="1.47549">
        <ele>255.935675</ele>
        <time>2022-08-10T07:38:03.085Z</time>
      </trkpt>
      <trkpt lat="43.6958" lon="1.47562">
        <ele>256.231066</ele>
        <time>2022-08-10T07:38:05.081Z</time>
      </trkpt>
      <trkpt lat="43.69582" lon="1.47578">
        <ele>256.558996</ele>
        <time>2022-08-10T07:38:07.101Z</time>
      </trkpt>
      <trkpt lat="43.69584" lon="1.47594">
        <ele>256.886926</ele>
        <time>2022-08-10T07:38:09.075Z</time>
      </trkpt>
      <trkpt lat="43.69588" lon="1.47609">
        <ele>257.196589</ele>
        <time>2022-08-10T07:38:11.092Z</time>
      </trkpt>
      <trkpt lat="43.69593" lon="1.47622">
        <ele>257.499382</ele>
        <time>2022-08-10T07:38:13.084Z</time>
      </trkpt>
      <trkpt lat="43.69599" lon="1.47636">
        <ele>257.825718</ele>
        <time>2022-08-10T07:38:15.090Z</time>
      </trkpt>
      <trkpt lat="43.69605" lon="1.4765">
        <ele>258.08012</ele>
        <time>2022-08-10T07:38:17.089Z</time>
      </trkpt>
      <trkpt lat="43.6961" lon="1.47664">
        <ele>258.182548</ele>
        <time>2022-08-10T07:38:19.084Z</time>
      </trkpt>
      <trkpt lat="43.69616" lon="1.47678">
        <ele>258.284085</ele>
        <time>2022-08-10T07:38:21.089Z</time>
      </trkpt>
      <trkpt lat="43.69621" lon="1.47691">
        <ele>258.384613</ele>
        <time>2022-08-10T07:38:23.085Z</time>
      </trkpt>
      <trkpt lat="43.69627" lon="1.47704">
        <ele>258.484899</ele>
        <time>2022-08-10T07:38:25.081Z</time>
      </trkpt>
      <trkpt lat="43.69632" lon="1.47718">
        <ele>258.587327</ele>
        <time>2022-08-10T07:38:27.092Z</time>
      </trkpt>
      <trkpt lat="43.69638" lon="1.47731">
        <ele>258.686149</ele>
        <time>2022-08-10T07:38:29.080Z</time>
      </trkpt>
      <trkpt lat="43.69643" lon="1.47743">
        <ele>258.772792</ele>
        <time>2022-08-10T07:38:31.099Z</time>
      </trkpt>
      <trkpt lat="43.69645" lon="1.47755">
        <ele>258.85479</ele>
        <time>2022-08-10T07:38:34.103Z</time>
      </trkpt>
      <trkpt lat="43.6965" lon="1.47766">
        <ele>258.944139</ele>
        <time>2022-08-10T07:38:37.098Z</time>
      </trkpt>
      <trkpt lat="43.69657" lon="1.47774">
        <ele>259.025281</ele>
        <time>2022-08-10T07:38:39.096Z</time>
      </trkpt>
      <trkpt lat="43.69665" lon="1.47783">
        <ele>259.113079</ele>
        <time>2022-08-10T07:38:41.105Z</time>
      </trkpt>
      <trkpt lat="43.69673" lon="1.47793">
        <ele>259.210064</ele>
        <time>2022-08-10T07:38:43.094Z</time>
      </trkpt>
      <trkpt lat="43.69682" lon="1.47803">
        <ele>259.312993</ele>
        <time>2022-08-10T07:38:45.115Z</time>
      </trkpt>
      <trkpt lat="43.69691" lon="1.47813">
        <ele>259.416886</ele>
        <time>2022-08-10T07:38:47.099Z</time>
      </trkpt>
      <trkpt lat="43.697" lon="1.47823">
        <ele>259.522161</ele>
        <time>2022-08-10T07:38:49.110Z</time>
      </trkpt>
      <trkpt lat="43.6971" lon="1.47832">
        <ele>259.628371</ele>
        <time>2022-08-10T07:38:51.092Z</time>
      </trkpt>
      <trkpt lat="43.69721" lon="1.47837">
        <ele>259.435675</ele>
        <time>2022-08-10T07:38:53.100Z</time>
      </trkpt>
      <trkpt lat="43.69732" lon="1.4784">
        <ele>259.092456</ele>
        <time>2022-08-10T07:38:55.091Z</time>
      </trkpt>
      <trkpt lat="43.69743" lon="1.47841">
        <ele>258.746459</ele>
        <time>2022-08-10T07:38:57.095Z</time>
      </trkpt>
      <trkpt lat="43.69755" lon="1.4784">
        <ele>258.384769</ele>
        <time>2022-08-10T07:38:59.105Z</time>
      </trkpt>
      <trkpt lat="43.69768" lon="1.47837">
        <ele>258.003547</ele>
        <time>2022-08-10T07:39:01.100Z</time>
      </trkpt>
      <trkpt lat="43.69781" lon="1.47833">
        <ele>257.605815</ele>
        <time>2022-08-10T07:39:03.095Z</time>
      </trkpt>
      <trkpt lat="43.69794" lon="1.47828">
        <ele>257.198036</ele>
        <time>2022-08-10T07:39:05.111Z</time>
      </trkpt>
      <trkpt lat="43.69807" lon="1.47822">
        <ele>256.778641</ele>
        <time>2022-08-10T07:39:07.104Z</time>
      </trkpt>
      <trkpt lat="43.69821" lon="1.47817">
        <ele>256.349372</ele>
        <time>2022-08-10T07:39:09.109Z</time>
      </trkpt>
      <trkpt lat="43.69835" lon="1.47811">
        <ele>255.902187</ele>
        <time>2022-08-10T07:39:11.100Z</time>
      </trkpt>
      <trkpt lat="43.6985" lon="1.47805">
        <ele>255.446772</ele>
        <time>2022-08-10T07:39:13.124Z</time>
      </trkpt>
      <trkpt lat="43.69865" lon="1.47802">
        <ele>254.97485</ele>
        <time>2022-08-10T07:39:15.095Z</time>
      </trkpt>
      <trkpt lat="43.6988" lon="1.47792">
        <ele>254.476366</ele>
        <time>2022-08-10T07:39:17.088Z</time>
      </trkpt>
      <trkpt lat="43.69893" lon="1.47776">
        <ele>253.752799</ele>
        <time>2022-08-10T07:39:19.091Z</time>
      </trkpt>
      <trkpt lat="43.69905" lon="1.47759">
        <ele>252.860194</ele>
        <time>2022-08-10T07:39:21.085Z</time>
      </trkpt>
      <trkpt lat="43.69917" lon="1.47741">
        <ele>251.952134</ele>
        <time>2022-08-10T07:39:23.105Z</time>
      </trkpt>
      <trkpt lat="43.69923" lon="1.47732">
        <ele>251.482535</ele>
        <time>2022-08-10T07:39:24.109Z</time>
      </trkpt>
      <trkpt lat="43.6993" lon="1.47723">
        <ele>251.012937</ele>
        <time>2022-08-10T07:39:25.092Z</time>
      </trkpt>
      <trkpt lat="43.69936" lon="1.47714">
        <ele>250.530734</ele>
        <time>2022-08-10T07:39:26.098Z</time>
      </trkpt>
      <trkpt lat="43.69943" lon="1.47705">
        <ele>250.028582</ele>
        <time>2022-08-10T07:39:27.101Z</time>
      </trkpt>
      <trkpt lat="43.6995" lon="1.47695">
        <ele>249.507449</ele>
        <time>2022-08-10T07:39:28.097Z</time>
      </trkpt>
      <trkpt lat="43.69957" lon="1.47685">
        <ele>248.969435</ele>
        <time>2022-08-10T07:39:29.108Z</time>
      </trkpt>
      <trkpt lat="43.69965" lon="1.47675">
        <ele>248.426697</ele>
        <time>2022-08-10T07:39:30.094Z</time>
      </trkpt>
      <trkpt lat="43.69973" lon="1.47665">
        <ele>247.877805</ele>
        <time>2022-08-10T07:39:31.097Z</time>
      </trkpt>
      <trkpt lat="43.6998" lon="1.47655">
        <ele>247.335268</ele>
        <time>2022-08-10T07:39:32.116Z</time>
      </trkpt>
      <trkpt lat="43.69988" lon="1.47646">
        <ele>246.804607</ele>
        <time>2022-08-10T07:39:33.113Z</time>
      </trkpt>
      <trkpt lat="43.69997" lon="1.47638">
        <ele>246.256624</ele>
        <time>2022-08-10T07:39:34.106Z</time>
      </trkpt>
      <trkpt lat="43.70006" lon="1.47632">
        <ele>245.742855</ele>
        <time>2022-08-10T07:39:35.107Z</time>
      </trkpt>
      <trkpt lat="43.70015" lon="1.47627">
        <ele>245.224603</ele>
        <time>2022-08-10T07:39:36.108Z</time>
      </trkpt>
      <trkpt lat="43.70025" lon="1.47623">
        <ele>244.872533</ele>
        <time>2022-08-10T07:39:37.096Z</time>
      </trkpt>
      <trkpt lat="43.70035" lon="1.47621">
        <ele>244.736167</ele>
        <time>2022-08-10T07:39:38.101Z</time>
      </trkpt>
      <trkpt lat="43.70045" lon="1.4762">
        <ele>244.5988</ele>
        <time>2022-08-10T07:39:39.097Z</time>
      </trkpt>
      <trkpt lat="43.70054" lon="1.4762">
        <ele>244.46443</ele>
        <time>2022-08-10T07:39:40.105Z</time>
      </trkpt>
      <trkpt lat="43.70064" lon="1.47622">
        <ele>244.330842</ele>
        <time>2022-08-10T07:39:41.102Z</time>
      </trkpt>
      <trkpt lat="43.70073" lon="1.47624">
        <ele>244.19891</ele>
        <time>2022-08-10T07:39:42.095Z</time>
      </trkpt>
      <trkpt lat="43.70083" lon="1.47626">
        <ele>244.068506</ele>
        <time>2022-08-10T07:39:43.122Z</time>
      </trkpt>
      <trkpt lat="43.70092" lon="1.47628">
        <ele>243.935209</ele>
        <time>2022-08-10T07:39:44.102Z</time>
      </trkpt>
      <trkpt lat="43.70101" lon="1.4763">
        <ele>243.80785</ele>
        <time>2022-08-10T07:39:45.113Z</time>
      </trkpt>
      <trkpt lat="43.70111" lon="1.47631">
        <ele>243.677383</ele>
        <time>2022-08-10T07:39:46.110Z</time>
      </trkpt>
      <trkpt lat="43.7012" lon="1.47632">
        <ele>243.547203</ele>
        <time>2022-08-10T07:39:47.121Z</time>
      </trkpt>
      <trkpt lat="43.70129" lon="1.47631">
        <ele>243.416873</ele>
        <time>2022-08-10T07:39:48.098Z</time>
      </trkpt>
      <trkpt lat="43.70139" lon="1.47628">
        <ele>243.284407</ele>
        <time>2022-08-10T07:39:49.103Z</time>
      </trkpt>
      <trkpt lat="43.70156" lon="1.47621">
        <ele>243.031744</ele>
        <time>2022-08-10T07:39:51.128Z</time>
      </trkpt>
      <trkpt lat="43.70165" lon="1.47617">
        <ele>242.905794</ele>
        <time>2022-08-10T07:39:52.106Z</time>
      </trkpt>
      <trkpt lat="43.70174" lon="1.47613">
        <ele>242.777915</ele>
        <time>2022-08-10T07:39:53.109Z</time>
      </trkpt>
      <trkpt lat="43.7019" lon="1.47608">
        <ele>242.542654</ele>
        <time>2022-08-10T07:39:55.126Z</time>
      </trkpt>
      <trkpt lat="43.70206" lon="1.4761">
        <ele>242.373759</ele>
        <time>2022-08-10T07:39:57.136Z</time>
      </trkpt>
      <trkpt lat="43.70218" lon="1.47618">
        <ele>242.260202</ele>
        <time>2022-08-10T07:39:59.114Z</time>
      </trkpt>
      <trkpt lat="43.70228" lon="1.47627">
        <ele>242.160521</ele>
        <time>2022-08-10T07:40:01.118Z</time>
      </trkpt>
      <trkpt lat="43.70238" lon="1.47634">
        <ele>242.066284</ele>
        <time>2022-08-10T07:40:03.129Z</time>
      </trkpt>
      <trkpt lat="43.70248" lon="1.47642">
        <ele>241.973661</ele>
        <time>2022-08-10T07:40:05.117Z</time>
      </trkpt>
      <trkpt lat="43.70257" lon="1.47649">
        <ele>241.880011</ele>
        <time>2022-08-10T07:40:07.142Z</time>
      </trkpt>
      <trkpt lat="43.70268" lon="1.47657">
        <ele>241.782544</ele>
        <time>2022-08-10T07:40:09.119Z</time>
      </trkpt>
      <trkpt lat="43.70278" lon="1.47664">
        <ele>241.682203</ele>
        <time>2022-08-10T07:40:11.130Z</time>
      </trkpt>
      <trkpt lat="43.70289" lon="1.47671">
        <ele>241.57885</ele>
        <time>2022-08-10T07:40:13.112Z</time>
      </trkpt>
      <trkpt lat="43.70301" lon="1.47679">
        <ele>241.474748</ele>
        <time>2022-08-10T07:40:15.120Z</time>
      </trkpt>
      <trkpt lat="43.70314" lon="1.47686">
        <ele>241.355954</ele>
        <time>2022-08-10T07:40:17.115Z</time>
      </trkpt>
      <trkpt lat="43.70328" lon="1.47692">
        <ele>241.228105</ele>
        <time>2022-08-10T07:40:19.118Z</time>
      </trkpt>
      <trkpt lat="43.70344" lon="1.477">
        <ele>241.091908</ele>
        <time>2022-08-10T07:40:21.114Z</time>
      </trkpt>
      <trkpt lat="43.7036" lon="1.47708">
        <ele>240.945847</ele>
        <time>2022-08-10T07:40:23.120Z</time>
      </trkpt>
      <trkpt lat="43.70376" lon="1.47717">
        <ele>240.602346</ele>
        <time>2022-08-10T07:40:25.112Z</time>
      </trkpt>
      <trkpt lat="43.70392" lon="1.47725">
        <ele>240.24114</ele>
        <time>2022-08-10T07:40:27.125Z</time>
      </trkpt>
      <trkpt lat="43.70409" lon="1.47733">
        <ele>239.888297</ele>
        <time>2022-08-10T07:40:29.135Z</time>
      </trkpt>
      <trkpt lat="43.70424" lon="1.47741">
        <ele>239.539852</ele>
        <time>2022-08-10T07:40:31.115Z</time>
      </trkpt>
      <trkpt lat="43.7044" lon="1.47748">
        <ele>239.194341</ele>
        <time>2022-08-10T07:40:33.098Z</time>
      </trkpt>
      <trkpt lat="43.70456" lon="1.47756">
        <ele>238.853229</ele>
        <time>2022-08-10T07:40:35.129Z</time>
      </trkpt>
      <trkpt lat="43.70471" lon="1.47764">
        <ele>238.520428</ele>
        <time>2022-08-10T07:40:37.169Z</time>
      </trkpt>
      <trkpt lat="43.70483" lon="1.47777">
        <ele>238.195304</ele>
        <time>2022-08-10T07:40:39.124Z</time>
      </trkpt>
      <trkpt lat="43.70492" lon="1.47795">
        <ele>237.870538</ele>
        <time>2022-08-10T07:40:41.138Z</time>
      </trkpt>
      <trkpt lat="43.705" lon="1.47814">
        <ele>237.553085</ele>
        <time>2022-08-10T07:40:43.129Z</time>
      </trkpt>
      <trkpt lat="43.70507" lon="1.47832">
        <ele>237.242355</ele>
        <time>2022-08-10T07:40:45.139Z</time>
      </trkpt>
      <trkpt lat="43.70514" lon="1.4785">
        <ele>237.188403</ele>
        <time>2022-08-10T07:40:47.134Z</time>
      </trkpt>
      <trkpt lat="43.70521" lon="1.47866">
        <ele>237.159774</ele>
        <time>2022-08-10T07:40:49.142Z</time>
      </trkpt>
      <trkpt lat="43.70528" lon="1.47882">
        <ele>237.131997</ele>
        <time>2022-08-10T07:40:51.142Z</time>
      </trkpt>
      <trkpt lat="43.70535" lon="1.47897">
        <ele>237.104519</ele>
        <time>2022-08-10T07:40:53.123Z</time>
      </trkpt>
      <trkpt lat="43.70542" lon="1.47912">
        <ele>237.07788</ele>
        <time>2022-08-10T07:40:55.151Z</time>
      </trkpt>
      <trkpt lat="43.70549" lon="1.47927">
        <ele>237.05202</ele>
        <time>2022-08-10T07:40:57.139Z</time>
      </trkpt>
      <trkpt lat="43.70555" lon="1.47942">
        <ele>237.026988</ele>
        <time>2022-08-10T07:40:59.118Z</time>
      </trkpt>
      <trkpt lat="43.70561" lon="1.47956">
        <ele>237.002147</ele>
        <time>2022-08-10T07:41:01.145Z</time>
      </trkpt>
      <trkpt lat="43.70567" lon="1.4797">
        <ele>236.977863</ele>
        <time>2022-08-10T07:41:03.130Z</time>
      </trkpt>
      <trkpt lat="43.70574" lon="1.47983">
        <ele>236.953553</ele>
        <time>2022-08-10T07:41:05.122Z</time>
      </trkpt>
      <trkpt lat="43.70581" lon="1.47997">
        <ele>236.929113</ele>
        <time>2022-08-10T07:41:07.138Z</time>
      </trkpt>
      <trkpt lat="43.70587" lon="1.4801">
        <ele>236.904672</ele>
        <time>2022-08-10T07:41:09.155Z</time>
      </trkpt>
      <trkpt lat="43.70594" lon="1.48024">
        <ele>236.880367</ele>
        <time>2022-08-10T07:41:11.129Z</time>
      </trkpt>
      <trkpt lat="43.70602" lon="1.48037">
        <ele>236.855434</ele>
        <time>2022-08-10T07:41:13.149Z</time>
      </trkpt>
      <trkpt lat="43.70609" lon="1.4805">
        <ele>236.846215</ele>
        <time>2022-08-10T07:41:15.126Z</time>
      </trkpt>
      <trkpt lat="43.70617" lon="1.48062">
        <ele>236.848931</ele>
        <time>2022-08-10T07:41:17.113Z</time>
      </trkpt>
      <trkpt lat="43.70624" lon="1.48075">
        <ele>236.851664</ele>
        <time>2022-08-10T07:41:19.117Z</time>
      </trkpt>
      <trkpt lat="43.70631" lon="1.48088">
        <ele>236.854371</ele>
        <time>2022-08-10T07:41:21.117Z</time>
      </trkpt>
      <trkpt lat="43.70638" lon="1.48101">
        <ele>236.857077</ele>
        <time>2022-08-10T07:41:23.112Z</time>
      </trkpt>
      <trkpt lat="43.70645" lon="1.48113">
        <ele>236.859748</ele>
        <time>2022-08-10T07:41:25.130Z</time>
      </trkpt>
      <trkpt lat="43.70652" lon="1.48126">
        <ele>236.862332</ele>
        <time>2022-08-10T07:41:27.122Z</time>
      </trkpt>
      <trkpt lat="43.70659" lon="1.48138">
        <ele>236.864892</ele>
        <time>2022-08-10T07:41:29.131Z</time>
      </trkpt>
      <trkpt lat="43.70666" lon="1.48149">
        <ele>236.867448</ele>
        <time>2022-08-10T07:41:31.162Z</time>
      </trkpt>
      <trkpt lat="43.70675" lon="1.4816">
        <ele>236.870057</ele>
        <time>2022-08-10T07:41:33.152Z</time>
      </trkpt>
      <trkpt lat="43.70684" lon="1.48169">
        <ele>236.872783</ele>
        <time>2022-08-10T07:41:35.123Z</time>
      </trkpt>
      <trkpt lat="43.70694" lon="1.48179">
        <ele>236.875642</ele>
        <time>2022-08-10T07:41:37.096Z</time>
      </trkpt>
      <trkpt lat="43.70706" lon="1.48187">
        <ele>236.878584</ele>
        <time>2022-08-10T07:41:39.133Z</time>
      </trkpt>
      <trkpt lat="43.70717" lon="1.48194">
        <ele>236.881554</ele>
        <time>2022-08-10T07:41:41.120Z</time>
      </trkpt>
      <trkpt lat="43.70729" lon="1.48201">
        <ele>236.884576</ele>
        <time>2022-08-10T07:41:43.118Z</time>
      </trkpt>
      <trkpt lat="43.70741" lon="1.48208">
        <ele>236.865931</ele>
        <time>2022-08-10T07:41:45.117Z</time>
      </trkpt>
      <trkpt lat="43.70753" lon="1.48215">
        <ele>236.822299</ele>
        <time>2022-08-10T07:41:47.144Z</time>
      </trkpt>
      <trkpt lat="43.70765" lon="1.48222">
        <ele>236.778668</ele>
        <time>2022-08-10T07:41:49.126Z</time>
      </trkpt>
      <trkpt lat="43.70776" lon="1.4823">
        <ele>236.735343</ele>
        <time>2022-08-10T07:41:51.127Z</time>
      </trkpt>
      <trkpt lat="43.70788" lon="1.48238">
        <ele>236.692434</ele>
        <time>2022-08-10T07:41:53.132Z</time>
      </trkpt>
      <trkpt lat="43.70799" lon="1.48246">
        <ele>236.6495</ele>
        <time>2022-08-10T07:41:55.128Z</time>
      </trkpt>
      <trkpt lat="43.7081" lon="1.48253">
        <ele>236.60751</ele>
        <time>2022-08-10T07:41:57.134Z</time>
      </trkpt>
      <trkpt lat="43.7082" lon="1.48261">
        <ele>236.566434</ele>
        <time>2022-08-10T07:41:59.142Z</time>
      </trkpt>
      <trkpt lat="43.70831" lon="1.48268">
        <ele>236.525165</ele>
        <time>2022-08-10T07:42:01.145Z</time>
      </trkpt>
      <trkpt lat="43.70842" lon="1.48276">
        <ele>236.483896</ele>
        <time>2022-08-10T07:42:03.132Z</time>
      </trkpt>
      <trkpt lat="43.70853" lon="1.48283">
        <ele>236.443043</ele>
        <time>2022-08-10T07:42:05.130Z</time>
      </trkpt>
      <trkpt lat="43.70863" lon="1.48291">
        <ele>236.402687</ele>
        <time>2022-08-10T07:42:07.121Z</time>
      </trkpt>
      <trkpt lat="43.70874" lon="1.48298">
        <ele>236.361498</ele>
        <time>2022-08-10T07:42:09.114Z</time>
      </trkpt>
      <trkpt lat="43.70885" lon="1.48306">
        <ele>236.320534</ele>
        <time>2022-08-10T07:42:11.123Z</time>
      </trkpt>
      <trkpt lat="43.70895" lon="1.48313">
        <ele>236.279375</ele>
        <time>2022-08-10T07:42:13.136Z</time>
      </trkpt>
      <trkpt lat="43.70906" lon="1.48321">
        <ele>236.311528</ele>
        <time>2022-08-10T07:42:15.121Z</time>
      </trkpt>
      <trkpt lat="43.70917" lon="1.48328">
        <ele>236.360403</ele>
        <time>2022-08-10T07:42:17.133Z</time>
      </trkpt>
      <trkpt lat="43.70928" lon="1.48336">
        <ele>236.408589</ele>
        <time>2022-08-10T07:42:19.131Z</time>
      </trkpt>
      <trkpt lat="43.70938" lon="1.48344">
        <ele>236.456143</ele>
        <time>2022-08-10T07:42:21.123Z</time>
      </trkpt>
      <trkpt lat="43.70948" lon="1.48353">
        <ele>236.504084</ele>
        <time>2022-08-10T07:42:23.117Z</time>
      </trkpt>
      <trkpt lat="43.70958" lon="1.48363">
        <ele>236.553021</ele>
        <time>2022-08-10T07:42:25.125Z</time>
      </trkpt>
      <trkpt lat="43.70968" lon="1.48373">
        <ele>236.601832</ele>
        <time>2022-08-10T07:42:27.121Z</time>
      </trkpt>
      <trkpt lat="43.70977" lon="1.48383">
        <ele>236.650789</ele>
        <time>2022-08-10T07:42:29.119Z</time>
      </trkpt>
      <trkpt lat="43.70987" lon="1.48394">
        <ele>236.699282</ele>
        <time>2022-08-10T07:42:31.127Z</time>
      </trkpt>
      <trkpt lat="43.70997" lon="1.48404">
        <ele>236.747744</ele>
        <time>2022-08-10T07:42:33.125Z</time>
      </trkpt>
      <trkpt lat="43.71006" lon="1.48413">
        <ele>236.794579</ele>
        <time>2022-08-10T07:42:35.125Z</time>
      </trkpt>
      <trkpt lat="43.71014" lon="1.48423">
        <ele>236.83837</ele>
        <time>2022-08-10T07:42:38.093Z</time>
      </trkpt>
      <trkpt lat="43.71022" lon="1.48429">
        <ele>236.875005</ele>
        <time>2022-08-10T07:42:44.114Z</time>
      </trkpt>
      <trkpt lat="43.71029" lon="1.48437">
        <ele>236.911446</ele>
        <time>2022-08-10T07:42:46.124Z</time>
      </trkpt>
      <trkpt lat="43.71037" lon="1.48446">
        <ele>236.952001</ele>
        <time>2022-08-10T07:42:48.107Z</time>
      </trkpt>
      <trkpt lat="43.71045" lon="1.48456">
        <ele>237.001642</ele>
        <time>2022-08-10T07:42:50.119Z</time>
      </trkpt>
      <trkpt lat="43.71054" lon="1.48466">
        <ele>237.123521</ele>
        <time>2022-08-10T07:42:52.128Z</time>
      </trkpt>
      <trkpt lat="43.71063" lon="1.48477">
        <ele>237.250941</ele>
        <time>2022-08-10T07:42:54.078Z</time>
      </trkpt>
      <trkpt lat="43.71071" lon="1.48488">
        <ele>237.379405</ele>
        <time>2022-08-10T07:42:56.125Z</time>
      </trkpt>
      <trkpt lat="43.71081" lon="1.48499">
        <ele>237.507256</ele>
        <time>2022-08-10T07:42:58.136Z</time>
      </trkpt>
      <trkpt lat="43.71089" lon="1.48509">
        <ele>237.633951</ele>
        <time>2022-08-10T07:43:00.116Z</time>
      </trkpt>
      <trkpt lat="43.71098" lon="1.4852">
        <ele>237.761473</ele>
        <time>2022-08-10T07:43:02.129Z</time>
      </trkpt>
      <trkpt lat="43.71107" lon="1.4853">
        <ele>237.881508</ele>
        <time>2022-08-10T07:43:04.101Z</time>
      </trkpt>
      <trkpt lat="43.71115" lon="1.4854">
        <ele>238.003699</ele>
        <time>2022-08-10T07:43:06.109Z</time>
      </trkpt>
      <trkpt lat="43.71124" lon="1.48549">
        <ele>238.123751</ele>
        <time>2022-08-10T07:43:08.116Z</time>
      </trkpt>
      <trkpt lat="43.71133" lon="1.48558">
        <ele>238.245427</ele>
        <time>2022-08-10T07:43:10.111Z</time>
      </trkpt>
      <trkpt lat="43.71142" lon="1.48569">
        <ele>238.368126</ele>
        <time>2022-08-10T07:43:12.115Z</time>
      </trkpt>
      <trkpt lat="43.7115" lon="1.48579">
        <ele>238.491805</ele>
        <time>2022-08-10T07:43:14.156Z</time>
      </trkpt>
      <trkpt lat="43.71159" lon="1.4859">
        <ele>238.615529</ele>
        <time>2022-08-10T07:43:16.120Z</time>
      </trkpt>
      <trkpt lat="43.71167" lon="1.48602">
        <ele>238.743506</ele>
        <time>2022-08-10T07:43:18.121Z</time>
      </trkpt>
      <trkpt lat="43.71175" lon="1.48614">
        <ele>238.871615</ele>
        <time>2022-08-10T07:43:20.123Z</time>
      </trkpt>
      <trkpt lat="43.71182" lon="1.48627">
        <ele>238.924888</ele>
        <time>2022-08-10T07:43:22.111Z</time>
      </trkpt>
      <trkpt lat="43.7119" lon="1.48639">
        <ele>238.893258</ele>
        <time>2022-08-10T07:43:24.112Z</time>
      </trkpt>
      <trkpt lat="43.71197" lon="1.48652">
        <ele>238.860674</ele>
        <time>2022-08-10T07:43:26.116Z</time>
      </trkpt>
      <trkpt lat="43.71206" lon="1.48665">
        <ele>238.82776</ele>
        <time>2022-08-10T07:43:28.115Z</time>
      </trkpt>
      <trkpt lat="43.71213" lon="1.48677">
        <ele>238.795305</ele>
        <time>2022-08-10T07:43:30.116Z</time>
      </trkpt>
      <trkpt lat="43.71221" lon="1.4869">
        <ele>238.763233</ele>
        <time>2022-08-10T07:43:32.107Z</time>
      </trkpt>
      <trkpt lat="43.71228" lon="1.48702">
        <ele>238.730928</ele>
        <time>2022-08-10T07:43:34.116Z</time>
      </trkpt>
      <trkpt lat="43.71235" lon="1.48715">
        <ele>238.699346</ele>
        <time>2022-08-10T07:43:36.121Z</time>
      </trkpt>
      <trkpt lat="43.71243" lon="1.48728">
        <ele>238.667906</ele>
        <time>2022-08-10T07:43:38.134Z</time>
      </trkpt>
      <trkpt lat="43.7125" lon="1.4874">
        <ele>238.635475</ele>
        <time>2022-08-10T07:43:40.111Z</time>
      </trkpt>
      <trkpt lat="43.71258" lon="1.48753">
        <ele>238.602843</ele>
        <time>2022-08-10T07:43:42.137Z</time>
      </trkpt>
      <trkpt lat="43.71265" lon="1.48766">
        <ele>238.569971</ele>
        <time>2022-08-10T07:43:44.107Z</time>
      </trkpt>
      <trkpt lat="43.71273" lon="1.4878">
        <ele>238.536812</ele>
        <time>2022-08-10T07:43:46.124Z</time>
      </trkpt>
      <trkpt lat="43.7128" lon="1.48793">
        <ele>238.504263</ele>
        <time>2022-08-10T07:43:48.121Z</time>
      </trkpt>
      <trkpt lat="43.71287" lon="1.48806">
        <ele>238.471579</ele>
        <time>2022-08-10T07:43:50.119Z</time>
      </trkpt>
      <trkpt lat="43.71294" lon="1.48819">
        <ele>238.440432</ele>
        <time>2022-08-10T07:43:52.125Z</time>
      </trkpt>
      <trkpt lat="43.71301" lon="1.48832">
        <ele>238.411826</ele>
        <time>2022-08-10T07:43:54.107Z</time>
      </trkpt>
      <trkpt lat="43.71308" lon="1.48845">
        <ele>238.382929</ele>
        <time>2022-08-10T07:43:56.112Z</time>
      </trkpt>
      <trkpt lat="43.71315" lon="1.48858">
        <ele>238.353742</ele>
        <time>2022-08-10T07:43:58.125Z</time>
      </trkpt>
      <trkpt lat="43.71322" lon="1.48871">
        <ele>238.325553</ele>
        <time>2022-08-10T07:44:00.114Z</time>
      </trkpt>
      <trkpt lat="43.71329" lon="1.48883">
        <ele>238.297373</ele>
        <time>2022-08-10T07:44:02.121Z</time>
      </trkpt>
      <trkpt lat="43.71335" lon="1.48896">
        <ele>238.269927</ele>
        <time>2022-08-10T07:44:04.140Z</time>
      </trkpt>
      <trkpt lat="43.71341" lon="1.48909">
        <ele>238.241311</ele>
        <time>2022-08-10T07:44:06.121Z</time>
      </trkpt>
      <trkpt lat="43.71347" lon="1.48922">
        <ele>238.214069</ele>
        <time>2022-08-10T07:44:08.119Z</time>
      </trkpt>
      <trkpt lat="43.71353" lon="1.48935">
        <ele>238.186893</ele>
        <time>2022-08-10T07:44:10.127Z</time>
      </trkpt>
      <trkpt lat="43.71358" lon="1.48948">
        <ele>238.159718</ele>
        <time>2022-08-10T07:44:12.096Z</time>
      </trkpt>
      <trkpt lat="43.71362" lon="1.48962">
        <ele>238.13292</ele>
        <time>2022-08-10T07:44:14.103Z</time>
      </trkpt>
      <trkpt lat="43.71366" lon="1.48977">
        <ele>238.104442</ele>
        <time>2022-08-10T07:44:16.137Z</time>
      </trkpt>
      <trkpt lat="43.71372" lon="1.48991">
        <ele>238.076521</ele>
        <time>2022-08-10T07:44:18.107Z</time>
      </trkpt>
      <trkpt lat="43.71377" lon="1.49005">
        <ele>238.048112</ele>
        <time>2022-08-10T07:44:20.120Z</time>
      </trkpt>
      <trkpt lat="43.71382" lon="1.49021">
        <ele>238.016618</ele>
        <time>2022-08-10T07:44:22.111Z</time>
      </trkpt>
      <trkpt lat="43.71391" lon="1.49036">
        <ele>237.596587</ele>
        <time>2022-08-10T07:44:24.123Z</time>
      </trkpt>
      <trkpt lat="43.714" lon="1.4905">
        <ele>236.977124</ele>
        <time>2022-08-10T07:44:26.119Z</time>
      </trkpt>
      <trkpt lat="43.71411" lon="1.49064">
        <ele>236.295284</ele>
        <time>2022-08-10T07:44:28.121Z</time>
      </trkpt>
      <trkpt lat="43.71422" lon="1.4908">
        <ele>235.571461</ele>
        <time>2022-08-10T07:44:30.118Z</time>
      </trkpt>
      <trkpt lat="43.71434" lon="1.49096">
        <ele>234.810191</ele>
        <time>2022-08-10T07:44:32.119Z</time>
      </trkpt>
      <trkpt lat="43.71447" lon="1.49114">
        <ele>234.01097</ele>
        <time>2022-08-10T07:44:34.140Z</time>
      </trkpt>
      <trkpt lat="43.71453" lon="1.49123">
        <ele>233.592163</ele>
        <time>2022-08-10T07:44:35.134Z</time>
      </trkpt>
      <trkpt lat="43.71459" lon="1.49132">
        <ele>233.179715</ele>
        <time>2022-08-10T07:44:36.123Z</time>
      </trkpt>
      <trkpt lat="43.71466" lon="1.49142">
        <ele>232.750677</ele>
        <time>2022-08-10T07:44:37.133Z</time>
      </trkpt>
      <trkpt lat="43.71472" lon="1.49152">
        <ele>232.316797</ele>
        <time>2022-08-10T07:44:38.131Z</time>
      </trkpt>
      <trkpt lat="43.71479" lon="1.49162">
        <ele>231.883429</ele>
        <time>2022-08-10T07:44:39.124Z</time>
      </trkpt>
      <trkpt lat="43.71485" lon="1.49172">
        <ele>231.452516</ele>
        <time>2022-08-10T07:44:40.128Z</time>
      </trkpt>
      <trkpt lat="43.71491" lon="1.49183">
        <ele>231.017444</ele>
        <time>2022-08-10T07:44:41.139Z</time>
      </trkpt>
      <trkpt lat="43.71497" lon="1.49193">
        <ele>230.58798</ele>
        <time>2022-08-10T07:44:42.118Z</time>
      </trkpt>
      <trkpt lat="43.71502" lon="1.49204">
        <ele>230.164097</ele>
        <time>2022-08-10T07:44:43.106Z</time>
      </trkpt>
      <trkpt lat="43.71508" lon="1.49214">
        <ele>229.840828</ele>
        <time>2022-08-10T07:44:44.145Z</time>
      </trkpt>
      <trkpt lat="43.71513" lon="1.49225">
        <ele>229.650721</ele>
        <time>2022-08-10T07:44:45.120Z</time>
      </trkpt>
      <trkpt lat="43.71517" lon="1.49236">
        <ele>229.465499</ele>
        <time>2022-08-10T07:44:46.118Z</time>
      </trkpt>
      <trkpt lat="43.71526" lon="1.49257">
        <ele>229.097665</ele>
        <time>2022-08-10T07:44:48.103Z</time>
      </trkpt>
      <trkpt lat="43.71535" lon="1.49278">
        <ele>228.744439</ele>
        <time>2022-08-10T07:44:50.119Z</time>
      </trkpt>
      <trkpt lat="43.71543" lon="1.49297">
        <ele>228.408858</ele>
        <time>2022-08-10T07:44:52.121Z</time>
      </trkpt>
      <trkpt lat="43.71551" lon="1.49316">
        <ele>228.083839</ele>
        <time>2022-08-10T07:44:54.104Z</time>
      </trkpt>
      <trkpt lat="43.71559" lon="1.49333">
        <ele>227.771972</ele>
        <time>2022-08-10T07:44:56.117Z</time>
      </trkpt>
      <trkpt lat="43.71567" lon="1.49351">
        <ele>227.457283</ele>
        <time>2022-08-10T07:44:58.101Z</time>
      </trkpt>
      <trkpt lat="43.71576" lon="1.49368">
        <ele>227.152584</ele>
        <time>2022-08-10T07:45:00.141Z</time>
      </trkpt>
      <trkpt lat="43.71583" lon="1.49384">
        <ele>226.869526</ele>
        <time>2022-08-10T07:45:02.185Z</time>
      </trkpt>
      <trkpt lat="43.7159" lon="1.494">
        <ele>226.58618</ele>
        <time>2022-08-10T07:45:04.144Z</time>
      </trkpt>
      <trkpt lat="43.71594" lon="1.49415">
        <ele>226.350155</ele>
        <time>2022-08-10T07:45:06.124Z</time>
      </trkpt>
      <trkpt lat="43.71597" lon="1.49432">
        <ele>225.672865</ele>
        <time>2022-08-10T07:45:08.146Z</time>
      </trkpt>
      <trkpt lat="43.71599" lon="1.49451">
        <ele>224.391152</ele>
        <time>2022-08-10T07:45:10.154Z</time>
      </trkpt>
      <trkpt lat="43.71599" lon="1.49473">
        <ele>222.897958</ele>
        <time>2022-08-10T07:45:12.102Z</time>
      </trkpt>
      <trkpt lat="43.71599" lon="1.49498">
        <ele>221.224813</ele>
        <time>2022-08-10T07:45:14.110Z</time>
      </trkpt>
      <trkpt lat="43.71598" lon="1.49524">
        <ele>219.503004</ele>
        <time>2022-08-10T07:45:16.106Z</time>
      </trkpt>
      <trkpt lat="43.71598" lon="1.49538">
        <ele>218.608058</ele>
        <time>2022-08-10T07:45:17.128Z</time>
      </trkpt>
      <trkpt lat="43.71597" lon="1.49552">
        <ele>217.647767</ele>
        <time>2022-08-10T07:45:18.119Z</time>
      </trkpt>
      <trkpt lat="43.71597" lon="1.49567">
        <ele>216.65386</ele>
        <time>2022-08-10T07:45:19.117Z</time>
      </trkpt>
      <trkpt lat="43.71596" lon="1.49582">
        <ele>215.652442</ele>
        <time>2022-08-10T07:45:20.119Z</time>
      </trkpt>
      <trkpt lat="43.71596" lon="1.49597">
        <ele>214.617209</ele>
        <time>2022-08-10T07:45:21.123Z</time>
      </trkpt>
      <trkpt lat="43.71595" lon="1.49615">
        <ele>213.462199</ele>
        <time>2022-08-10T07:45:22.130Z</time>
      </trkpt>
      <trkpt lat="43.71595" lon="1.49632">
        <ele>212.308405</ele>
        <time>2022-08-10T07:45:23.117Z</time>
      </trkpt>
      <trkpt lat="43.71594" lon="1.49649">
        <ele>211.155052</ele>
        <time>2022-08-10T07:45:24.136Z</time>
      </trkpt>
      <trkpt lat="43.71594" lon="1.49666">
        <ele>210.035139</ele>
        <time>2022-08-10T07:45:25.147Z</time>
      </trkpt>
      <trkpt lat="43.71595" lon="1.49682">
        <ele>209.313328</ele>
        <time>2022-08-10T07:45:26.101Z</time>
      </trkpt>
      <trkpt lat="43.71595" lon="1.49698">
        <ele>208.835419</ele>
        <time>2022-08-10T07:45:27.105Z</time>
      </trkpt>
      <trkpt lat="43.71597" lon="1.49713">
        <ele>208.35501</ele>
        <time>2022-08-10T07:45:28.114Z</time>
      </trkpt>
      <trkpt lat="43.71601" lon="1.49727">
        <ele>207.879665</ele>
        <time>2022-08-10T07:45:29.088Z</time>
      </trkpt>
      <trkpt lat="43.71604" lon="1.49739">
        <ele>207.477796</ele>
        <time>2022-08-10T07:45:30.106Z</time>
      </trkpt>
      <trkpt lat="43.71609" lon="1.49758">
        <ele>206.857339</ele>
        <time>2022-08-10T07:45:32.084Z</time>
      </trkpt>
      <trkpt lat="43.71612" lon="1.4977">
        <ele>206.467164</ele>
        <time>2022-08-10T07:45:34.088Z</time>
      </trkpt>
      <trkpt lat="43.71613" lon="1.49786">
        <ele>205.961427</ele>
        <time>2022-08-10T07:45:37.107Z</time>
      </trkpt>
      <trkpt lat="43.71615" lon="1.49799">
        <ele>205.533259</ele>
        <time>2022-08-10T07:45:39.168Z</time>
      </trkpt>
      <trkpt lat="43.71617" lon="1.49815">
        <ele>205.029693</ele>
        <time>2022-08-10T07:45:41.135Z</time>
      </trkpt>
      <trkpt lat="43.7162" lon="1.49832">
        <ele>204.486815</ele>
        <time>2022-08-10T07:45:43.110Z</time>
      </trkpt>
      <trkpt lat="43.71623" lon="1.4985">
        <ele>203.920771</ele>
        <time>2022-08-10T07:45:45.127Z</time>
      </trkpt>
      <trkpt lat="43.71625" lon="1.49868">
        <ele>203.343509</ele>
        <time>2022-08-10T07:45:47.119Z</time>
      </trkpt>
      <trkpt lat="43.71627" lon="1.49886">
        <ele>202.762629</ele>
        <time>2022-08-10T07:45:49.103Z</time>
      </trkpt>
      <trkpt lat="43.7163" lon="1.49905">
        <ele>202.182535</ele>
        <time>2022-08-10T07:45:51.137Z</time>
      </trkpt>
      <trkpt lat="43.71632" lon="1.49923">
        <ele>201.747765</ele>
        <time>2022-08-10T07:45:53.140Z</time>
      </trkpt>
      <trkpt lat="43.71634" lon="1.4994">
        <ele>201.492127</ele>
        <time>2022-08-10T07:45:55.117Z</time>
      </trkpt>
      <trkpt lat="43.71636" lon="1.49958">
        <ele>201.245197</ele>
        <time>2022-08-10T07:45:57.145Z</time>
      </trkpt>
      <trkpt lat="43.71638" lon="1.49975">
        <ele>200.990293</ele>
        <time>2022-08-10T07:45:59.115Z</time>
      </trkpt>
      <trkpt lat="43.71642" lon="1.49992">
        <ele>200.738234</ele>
        <time>2022-08-10T07:46:01.131Z</time>
      </trkpt>
      <trkpt lat="43.7165" lon="1.50007">
        <ele>200.478609</ele>
        <time>2022-08-10T07:46:03.106Z</time>
      </trkpt>
      <trkpt lat="43.7166" lon="1.50019">
        <ele>200.219677</ele>
        <time>2022-08-10T07:46:05.126Z</time>
      </trkpt>
      <trkpt lat="43.71672" lon="1.50027">
        <ele>199.965717</ele>
        <time>2022-08-10T07:46:07.142Z</time>
      </trkpt>
      <trkpt lat="43.71684" lon="1.50034">
        <ele>199.707508</ele>
        <time>2022-08-10T07:46:09.121Z</time>
      </trkpt>
      <trkpt lat="43.71697" lon="1.5004">
        <ele>199.444786</ele>
        <time>2022-08-10T07:46:11.120Z</time>
      </trkpt>
      <trkpt lat="43.7171" lon="1.50045">
        <ele>199.178604</ele>
        <time>2022-08-10T07:46:13.112Z</time>
      </trkpt>
      <trkpt lat="43.71723" lon="1.50051">
        <ele>198.909719</ele>
        <time>2022-08-10T07:46:15.099Z</time>
      </trkpt>
      <trkpt lat="43.71736" lon="1.50057">
        <ele>198.644228</ele>
        <time>2022-08-10T07:46:17.126Z</time>
      </trkpt>
      <trkpt lat="43.71748" lon="1.50065">
        <ele>198.38007</ele>
        <time>2022-08-10T07:46:19.115Z</time>
      </trkpt>
      <trkpt lat="43.71759" lon="1.50075">
        <ele>198.129876</ele>
        <time>2022-08-10T07:46:21.111Z</time>
      </trkpt>
      <trkpt lat="43.71769" lon="1.50087">
        <ele>197.88823</ele>
        <time>2022-08-10T07:46:23.122Z</time>
      </trkpt>
      <trkpt lat="43.71778" lon="1.501">
        <ele>197.642078</ele>
        <time>2022-08-10T07:46:25.107Z</time>
      </trkpt>
      <trkpt lat="43.71787" lon="1.50113">
        <ele>197.401802</ele>
        <time>2022-08-10T07:46:27.118Z</time>
      </trkpt>
      <trkpt lat="43.71796" lon="1.50126">
        <ele>197.161525</ele>
        <time>2022-08-10T07:46:29.124Z</time>
      </trkpt>
      <trkpt lat="43.71804" lon="1.5014">
        <ele>196.919012</ele>
        <time>2022-08-10T07:46:31.110Z</time>
      </trkpt>
      <trkpt lat="43.71813" lon="1.50153">
        <ele>196.678736</ele>
        <time>2022-08-10T07:46:33.090Z</time>
      </trkpt>
      <trkpt lat="43.71822" lon="1.50166">
        <ele>196.4387</ele>
        <time>2022-08-10T07:46:35.127Z</time>
      </trkpt>
      <trkpt lat="43.71831" lon="1.50179">
        <ele>196.196902</ele>
        <time>2022-08-10T07:46:37.141Z</time>
      </trkpt>
      <trkpt lat="43.7184" lon="1.50192">
        <ele>195.95641</ele>
        <time>2022-08-10T07:46:39.115Z</time>
      </trkpt>
      <trkpt lat="43.71848" lon="1.50205">
        <ele>195.719099</ele>
        <time>2022-08-10T07:46:41.114Z</time>
      </trkpt>
      <trkpt lat="43.71857" lon="1.50218">
        <ele>195.484406</ele>
        <time>2022-08-10T07:46:43.138Z</time>
      </trkpt>
      <trkpt lat="43.71866" lon="1.50231">
        <ele>195.251834</ele>
        <time>2022-08-10T07:46:45.139Z</time>
      </trkpt>
      <trkpt lat="43.71874" lon="1.50243">
        <ele>195.022922</ele>
        <time>2022-08-10T07:46:47.108Z</time>
      </trkpt>
      <trkpt lat="43.71884" lon="1.50254">
        <ele>194.789852</ele>
        <time>2022-08-10T07:46:49.135Z</time>
      </trkpt>
      <trkpt lat="43.71895" lon="1.50262">
        <ele>194.540326</ele>
        <time>2022-08-10T07:46:51.120Z</time>
      </trkpt>
      <trkpt lat="43.71908" lon="1.50267">
        <ele>194.287858</ele>
        <time>2022-08-10T07:46:53.131Z</time>
      </trkpt>
      <trkpt lat="43.71922" lon="1.5027">
        <ele>194.038858</ele>
        <time>2022-08-10T07:46:55.119Z</time>
      </trkpt>
      <trkpt lat="43.71935" lon="1.50269">
        <ele>193.780862</ele>
        <time>2022-08-10T07:46:57.141Z</time>
      </trkpt>
      <trkpt lat="43.71947" lon="1.50266">
        <ele>193.55251</ele>
        <time>2022-08-10T07:46:59.119Z</time>
      </trkpt>
      <trkpt lat="43.71956" lon="1.50267">
        <ele>193.378644</ele>
        <time>2022-08-10T07:47:02.118Z</time>
      </trkpt>
      <trkpt lat="43.71955" lon="1.50281">
        <ele>193.178034</ele>
        <time>2022-08-10T07:47:06.135Z</time>
      </trkpt>
      <trkpt lat="43.71953" lon="1.50294">
        <ele>193.007495</ele>
        <time>2022-08-10T07:47:08.127Z</time>
      </trkpt>
      <trkpt lat="43.71951" lon="1.50308">
        <ele>192.800381</ele>
        <time>2022-08-10T07:47:10.126Z</time>
      </trkpt>
      <trkpt lat="43.71948" lon="1.50324">
        <ele>192.578708</ele>
        <time>2022-08-10T07:47:12.120Z</time>
      </trkpt>
      <trkpt lat="43.71945" lon="1.50341">
        <ele>192.348665</ele>
        <time>2022-08-10T07:47:14.153Z</time>
      </trkpt>
      <trkpt lat="43.71942" lon="1.50357">
        <ele>192.113788</ele>
        <time>2022-08-10T07:47:16.136Z</time>
      </trkpt>
      <trkpt lat="43.71939" lon="1.50374">
        <ele>191.875826</ele>
        <time>2022-08-10T07:47:18.138Z</time>
      </trkpt>
      <trkpt lat="43.71936" lon="1.50392">
        <ele>191.630358</ele>
        <time>2022-08-10T07:47:20.114Z</time>
      </trkpt>
      <trkpt lat="43.71933" lon="1.5041">
        <ele>191.316882</ele>
        <time>2022-08-10T07:47:22.133Z</time>
      </trkpt>
      <trkpt lat="43.7193" lon="1.50428">
        <ele>191.000782</ele>
        <time>2022-08-10T07:47:24.141Z</time>
      </trkpt>
      <trkpt lat="43.71928" lon="1.50446">
        <ele>190.681793</ele>
        <time>2022-08-10T07:47:26.142Z</time>
      </trkpt>
      <trkpt lat="43.71924" lon="1.50464">
        <ele>190.362267</ele>
        <time>2022-08-10T07:47:28.126Z</time>
      </trkpt>
      <trkpt lat="43.7192" lon="1.50481">
        <ele>190.047733</ele>
        <time>2022-08-10T07:47:30.140Z</time>
      </trkpt>
      <trkpt lat="43.71921" lon="1.50499">
        <ele>189.746705</ele>
        <time>2022-08-10T07:47:32.115Z</time>
      </trkpt>
      <trkpt lat="43.71927" lon="1.50514">
        <ele>189.438167</ele>
        <time>2022-08-10T07:47:34.116Z</time>
      </trkpt>
      <trkpt lat="43.71934" lon="1.50531">
        <ele>189.104722</ele>
        <time>2022-08-10T07:47:36.113Z</time>
      </trkpt>
      <trkpt lat="43.71942" lon="1.50548">
        <ele>188.758483</ele>
        <time>2022-08-10T07:47:38.129Z</time>
      </trkpt>
      <trkpt lat="43.71951" lon="1.50563">
        <ele>188.41627</ele>
        <time>2022-08-10T07:47:40.116Z</time>
      </trkpt>
      <trkpt lat="43.7196" lon="1.50578">
        <ele>188.076184</ele>
        <time>2022-08-10T07:47:42.126Z</time>
      </trkpt>
      <trkpt lat="43.7197" lon="1.50592">
        <ele>187.742504</ele>
        <time>2022-08-10T07:47:44.111Z</time>
      </trkpt>
      <trkpt lat="43.7198" lon="1.50605">
        <ele>187.407604</ele>
        <time>2022-08-10T07:47:46.129Z</time>
      </trkpt>
      <trkpt lat="43.71991" lon="1.50618">
        <ele>187.197424</ele>
        <time>2022-08-10T07:47:48.115Z</time>
      </trkpt>
      <trkpt lat="43.72002" lon="1.5063">
        <ele>187.035001</ele>
        <time>2022-08-10T07:47:50.130Z</time>
      </trkpt>
      <trkpt lat="43.72013" lon="1.50641">
        <ele>186.873688</ele>
        <time>2022-08-10T07:47:52.134Z</time>
      </trkpt>
      <trkpt lat="43.72024" lon="1.50652">
        <ele>186.712439</ele>
        <time>2022-08-10T07:47:54.115Z</time>
      </trkpt>
      <trkpt lat="43.72036" lon="1.50662">
        <ele>186.552272</ele>
        <time>2022-08-10T07:47:56.117Z</time>
      </trkpt>
      <trkpt lat="43.72048" lon="1.50671">
        <ele>186.397079</ele>
        <time>2022-08-10T07:47:58.146Z</time>
      </trkpt>
      <trkpt lat="43.72059" lon="1.50679">
        <ele>186.244297</ele>
        <time>2022-08-10T07:48:00.110Z</time>
      </trkpt>
      <trkpt lat="43.7207" lon="1.50688">
        <ele>186.092982</ele>
        <time>2022-08-10T07:48:02.133Z</time>
      </trkpt>
      <trkpt lat="43.72082" lon="1.50697">
        <ele>185.940675</ele>
        <time>2022-08-10T07:48:04.086Z</time>
      </trkpt>
      <trkpt lat="43.72093" lon="1.50707">
        <ele>185.787022</ele>
        <time>2022-08-10T07:48:06.102Z</time>
      </trkpt>
      <trkpt lat="43.72103" lon="1.50717">
        <ele>185.633476</ele>
        <time>2022-08-10T07:48:08.113Z</time>
      </trkpt>
      <trkpt lat="43.72114" lon="1.50729">
        <ele>185.479688</ele>
        <time>2022-08-10T07:48:10.101Z</time>
      </trkpt>
      <trkpt lat="43.72123" lon="1.5074">
        <ele>185.330402</ele>
        <time>2022-08-10T07:48:12.111Z</time>
      </trkpt>
      <trkpt lat="43.72133" lon="1.50752">
        <ele>185.206151</ele>
        <time>2022-08-10T07:48:14.111Z</time>
      </trkpt>
      <trkpt lat="43.72142" lon="1.50765">
        <ele>185.160422</ele>
        <time>2022-08-10T07:48:16.104Z</time>
      </trkpt>
      <trkpt lat="43.72151" lon="1.50778">
        <ele>185.114943</ele>
        <time>2022-08-10T07:48:18.106Z</time>
      </trkpt>
      <trkpt lat="43.7216" lon="1.5079">
        <ele>185.070249</ele>
        <time>2022-08-10T07:48:20.119Z</time>
      </trkpt>
      <trkpt lat="43.72169" lon="1.50802">
        <ele>185.025875</ele>
        <time>2022-08-10T07:48:22.097Z</time>
      </trkpt>
      <trkpt lat="43.72178" lon="1.50814">
        <ele>184.981714</ele>
        <time>2022-08-10T07:48:24.107Z</time>
      </trkpt>
      <trkpt lat="43.72188" lon="1.50825">
        <ele>184.937799</ele>
        <time>2022-08-10T07:48:26.120Z</time>
      </trkpt>
      <trkpt lat="43.72198" lon="1.50836">
        <ele>184.894562</ele>
        <time>2022-08-10T07:48:28.108Z</time>
      </trkpt>
      <trkpt lat="43.72207" lon="1.50845">
        <ele>184.851943</ele>
        <time>2022-08-10T07:48:30.104Z</time>
      </trkpt>
      <trkpt lat="43.72218" lon="1.50855">
        <ele>184.808603</ele>
        <time>2022-08-10T07:48:32.118Z</time>
      </trkpt>
      <trkpt lat="43.72228" lon="1.50865">
        <ele>184.766129</ele>
        <time>2022-08-10T07:48:34.122Z</time>
      </trkpt>
      <trkpt lat="43.72237" lon="1.50874">
        <ele>184.723648</ele>
        <time>2022-08-10T07:48:36.114Z</time>
      </trkpt>
      <trkpt lat="43.72247" lon="1.50884">
        <ele>184.681465</ele>
        <time>2022-08-10T07:48:38.105Z</time>
      </trkpt>
      <trkpt lat="43.72257" lon="1.50893">
        <ele>184.639133</ele>
        <time>2022-08-10T07:48:40.129Z</time>
      </trkpt>
      <trkpt lat="43.72267" lon="1.50903">
        <ele>184.596947</ele>
        <time>2022-08-10T07:48:42.121Z</time>
      </trkpt>
      <trkpt lat="43.72276" lon="1.50913">
        <ele>184.616692</ele>
        <time>2022-08-10T07:48:44.128Z</time>
      </trkpt>
      <trkpt lat="43.72286" lon="1.50924">
        <ele>184.663717</ele>
        <time>2022-08-10T07:48:46.114Z</time>
      </trkpt>
      <trkpt lat="43.72294" lon="1.50936">
        <ele>184.70997</ele>
        <time>2022-08-10T07:48:48.094Z</time>
      </trkpt>
      <trkpt lat="43.72301" lon="1.5095">
        <ele>184.7563</ele>
        <time>2022-08-10T07:48:50.113Z</time>
      </trkpt>
      <trkpt lat="43.72308" lon="1.50963">
        <ele>184.80221</ele>
        <time>2022-08-10T07:48:52.105Z</time>
      </trkpt>
      <trkpt lat="43.72314" lon="1.50977">
        <ele>184.848336</ele>
        <time>2022-08-10T07:48:54.090Z</time>
      </trkpt>
      <trkpt lat="43.72321" lon="1.50991">
        <ele>184.894711</ele>
        <time>2022-08-10T07:48:56.115Z</time>
      </trkpt>
      <trkpt lat="43.72327" lon="1.51005">
        <ele>184.939964</ele>
        <time>2022-08-10T07:48:58.101Z</time>
      </trkpt>
      <trkpt lat="43.72334" lon="1.51018">
        <ele>184.985479</ele>
        <time>2022-08-10T07:49:00.115Z</time>
      </trkpt>
      <trkpt lat="43.7234" lon="1.51032">
        <ele>185.031812</ele>
        <time>2022-08-10T07:49:02.111Z</time>
      </trkpt>
      <trkpt lat="43.72347" lon="1.51045">
        <ele>185.077017</ele>
        <time>2022-08-10T07:49:04.092Z</time>
      </trkpt>
      <trkpt lat="43.72354" lon="1.51059">
        <ele>185.122927</ele>
        <time>2022-08-10T07:49:06.099Z</time>
      </trkpt>
      <trkpt lat="43.72361" lon="1.51072">
        <ele>185.168606</ele>
        <time>2022-08-10T07:49:08.095Z</time>
      </trkpt>
      <trkpt lat="43.72367" lon="1.51085">
        <ele>185.213579</ele>
        <time>2022-08-10T07:49:10.098Z</time>
      </trkpt>
      <trkpt lat="43.72374" lon="1.51099">
        <ele>185.25771</ele>
        <time>2022-08-10T07:49:12.090Z</time>
      </trkpt>
      <trkpt lat="43.7238" lon="1.51112">
        <ele>185.295174</ele>
        <time>2022-08-10T07:49:14.104Z</time>
      </trkpt>
      <trkpt lat="43.72387" lon="1.51125">
        <ele>185.326514</ele>
        <time>2022-08-10T07:49:16.094Z</time>
      </trkpt>
      <trkpt lat="43.72393" lon="1.51138">
        <ele>185.357557</ele>
        <time>2022-08-10T07:49:18.087Z</time>
      </trkpt>
      <trkpt lat="43.72398" lon="1.51151">
        <ele>185.387997</ele>
        <time>2022-08-10T07:49:20.081Z</time>
      </trkpt>
      <trkpt lat="43.72404" lon="1.51165">
        <ele>185.419238</ele>
        <time>2022-08-10T07:49:22.085Z</time>
      </trkpt>
      <trkpt lat="43.7241" lon="1.51179">
        <ele>185.452553</ele>
        <time>2022-08-10T07:49:24.099Z</time>
      </trkpt>
      <trkpt lat="43.72417" lon="1.51193">
        <ele>185.486438</ele>
        <time>2022-08-10T07:49:26.103Z</time>
      </trkpt>
      <trkpt lat="43.72424" lon="1.51207">
        <ele>185.520484</ele>
        <time>2022-08-10T07:49:28.116Z</time>
      </trkpt>
      <trkpt lat="43.72432" lon="1.5122">
        <ele>185.553561</ele>
        <time>2022-08-10T07:49:30.110Z</time>
      </trkpt>
      <trkpt lat="43.72437" lon="1.51235">
        <ele>185.585939</ele>
        <time>2022-08-10T07:49:32.094Z</time>
      </trkpt>
      <trkpt lat="43.72441" lon="1.5125">
        <ele>185.618142</ele>
        <time>2022-08-10T07:49:34.084Z</time>
      </trkpt>
      <trkpt lat="43.72449" lon="1.51261">
        <ele>185.649127</ele>
        <time>2022-08-10T07:49:36.116Z</time>
      </trkpt>
      <trkpt lat="43.72458" lon="1.5127">
        <ele>185.680279</ele>
        <time>2022-08-10T07:49:38.105Z</time>
      </trkpt>
      <trkpt lat="43.72466" lon="1.51281">
        <ele>185.711627</ele>
        <time>2022-08-10T07:49:40.110Z</time>
      </trkpt>
      <trkpt lat="43.72473" lon="1.51294">
        <ele>185.743591</ele>
        <time>2022-08-10T07:49:42.119Z</time>
      </trkpt>
      <trkpt lat="43.72481" lon="1.51307">
        <ele>185.76728</ele>
        <time>2022-08-10T07:49:44.103Z</time>
      </trkpt>
      <trkpt lat="43.72489" lon="1.5132">
        <ele>185.698145</ele>
        <time>2022-08-10T07:49:46.116Z</time>
      </trkpt>
      <trkpt lat="43.72496" lon="1.51334">
        <ele>185.628612</ele>
        <time>2022-08-10T07:49:48.105Z</time>
      </trkpt>
      <trkpt lat="43.72504" lon="1.51348">
        <ele>185.5571</ele>
        <time>2022-08-10T07:49:50.093Z</time>
      </trkpt>
      <trkpt lat="43.72512" lon="1.51363">
        <ele>185.48659</ele>
        <time>2022-08-10T07:49:52.092Z</time>
      </trkpt>
      <trkpt lat="43.7252" lon="1.51377">
        <ele>185.415123</ele>
        <time>2022-08-10T07:49:54.126Z</time>
      </trkpt>
      <trkpt lat="43.72525" lon="1.51393">
        <ele>185.345524</ele>
        <time>2022-08-10T07:49:56.105Z</time>
      </trkpt>
      <trkpt lat="43.72516" lon="1.51407">
        <ele>185.273979</ele>
        <time>2022-08-10T07:49:58.104Z</time>
      </trkpt>
      <trkpt lat="43.72507" lon="1.5142">
        <ele>185.20181</ele>
        <time>2022-08-10T07:50:00.095Z</time>
      </trkpt>
      <trkpt lat="43.725" lon="1.51434">
        <ele>185.132552</ele>
        <time>2022-08-10T07:50:02.112Z</time>
      </trkpt>
      <trkpt lat="43.72494" lon="1.51449">
        <ele>185.066806</ele>
        <time>2022-08-10T07:50:04.098Z</time>
      </trkpt>
      <trkpt lat="43.7249" lon="1.51464">
        <ele>185.002173</ele>
        <time>2022-08-10T07:50:06.107Z</time>
      </trkpt>
      <trkpt lat="43.72486" lon="1.51479">
        <ele>184.939222</ele>
        <time>2022-08-10T07:50:08.115Z</time>
      </trkpt>
      <trkpt lat="43.72483" lon="1.51494">
        <ele>184.877023</ele>
        <time>2022-08-10T07:50:10.113Z</time>
      </trkpt>
      <trkpt lat="43.72479" lon="1.51509">
        <ele>184.81404</ele>
        <time>2022-08-10T07:50:12.101Z</time>
      </trkpt>
      <trkpt lat="43.72475" lon="1.51524">
        <ele>184.814314</ele>
        <time>2022-08-10T07:50:14.103Z</time>
      </trkpt>
      <trkpt lat="43.72471" lon="1.51538">
        <ele>184.869255</ele>
        <time>2022-08-10T07:50:16.103Z</time>
      </trkpt>
      <trkpt lat="43.72465" lon="1.51552">
        <ele>184.92317</ele>
        <time>2022-08-10T07:50:18.108Z</time>
      </trkpt>
      <trkpt lat="43.72459" lon="1.51565">
        <ele>184.976685</ele>
        <time>2022-08-10T07:50:20.104Z</time>
      </trkpt>
      <trkpt lat="43.72452" lon="1.51578">
        <ele>185.029961</ele>
        <time>2022-08-10T07:50:22.098Z</time>
      </trkpt>
      <trkpt lat="43.72446" lon="1.51592">
        <ele>185.083592</ele>
        <time>2022-08-10T07:50:24.117Z</time>
      </trkpt>
      <trkpt lat="43.72441" lon="1.51606">
        <ele>185.137944</ele>
        <time>2022-08-10T07:50:26.103Z</time>
      </trkpt>
      <trkpt lat="43.72439" lon="1.51622">
        <ele>185.191312</ele>
        <time>2022-08-10T07:50:28.098Z</time>
      </trkpt>
      <trkpt lat="43.72438" lon="1.51637">
        <ele>185.244976</ele>
        <time>2022-08-10T07:50:30.117Z</time>
      </trkpt>
      <trkpt lat="43.72438" lon="1.51653">
        <ele>185.298739</ele>
        <time>2022-08-10T07:50:32.098Z</time>
      </trkpt>
      <trkpt lat="43.72438" lon="1.51669">
        <ele>185.352834</ele>
        <time>2022-08-10T07:50:34.113Z</time>
      </trkpt>
      <trkpt lat="43.72438" lon="1.51685">
        <ele>185.406256</ele>
        <time>2022-08-10T07:50:36.114Z</time>
      </trkpt>
      <trkpt lat="43.72438" lon="1.517">
        <ele>185.459364</ele>
        <time>2022-08-10T07:50:38.105Z</time>
      </trkpt>
      <trkpt lat="43.72438" lon="1.51716">
        <ele>185.513126</ele>
        <time>2022-08-10T07:50:40.099Z</time>
      </trkpt>
      <trkpt lat="43.72439" lon="1.51732">
        <ele>185.566574</ele>
        <time>2022-08-10T07:50:42.119Z</time>
      </trkpt>
      <trkpt lat="43.72439" lon="1.51748">
        <ele>185.620677</ele>
        <time>2022-08-10T07:50:44.106Z</time>
      </trkpt>
      <trkpt lat="43.72439" lon="1.51763">
        <ele>185.836555</ele>
        <time>2022-08-10T07:50:46.106Z</time>
      </trkpt>
      <trkpt lat="43.72441" lon="1.51779">
        <ele>186.092392</ele>
        <time>2022-08-10T07:50:48.113Z</time>
      </trkpt>
      <trkpt lat="43.72446" lon="1.51793">
        <ele>186.342639</ele>
        <time>2022-08-10T07:50:50.106Z</time>
      </trkpt>
      <trkpt lat="43.72454" lon="1.51801">
        <ele>186.583438</ele>
        <time>2022-08-10T07:50:52.117Z</time>
      </trkpt>
      <trkpt lat="43.72463" lon="1.5181">
        <ele>186.823641</ele>
        <time>2022-08-10T07:50:54.114Z</time>
      </trkpt>
      <trkpt lat="43.72472" lon="1.51818">
        <ele>187.065902</ele>
        <time>2022-08-10T07:50:56.115Z</time>
      </trkpt>
      <trkpt lat="43.72481" lon="1.51825">
        <ele>187.310108</ele>
        <time>2022-08-10T07:50:58.099Z</time>
      </trkpt>
      <trkpt lat="43.72491" lon="1.51833">
        <ele>187.555992</ele>
        <time>2022-08-10T07:51:00.122Z</time>
      </trkpt>
      <trkpt lat="43.725" lon="1.51841">
        <ele>187.803811</ele>
        <time>2022-08-10T07:51:02.127Z</time>
      </trkpt>
      <trkpt lat="43.72509" lon="1.51849">
        <ele>188.046073</ele>
        <time>2022-08-10T07:51:04.110Z</time>
      </trkpt>
      <trkpt lat="43.72518" lon="1.51856">
        <ele>188.286395</ele>
        <time>2022-08-10T07:51:06.118Z</time>
      </trkpt>
      <trkpt lat="43.72527" lon="1.51864">
        <ele>188.521158</ele>
        <time>2022-08-10T07:51:08.112Z</time>
      </trkpt>
      <trkpt lat="43.72536" lon="1.51871">
        <ele>188.757363</ele>
        <time>2022-08-10T07:51:10.118Z</time>
      </trkpt>
      <trkpt lat="43.72545" lon="1.51879">
        <ele>188.99816</ele>
        <time>2022-08-10T07:51:12.097Z</time>
      </trkpt>
      <trkpt lat="43.72554" lon="1.51888">
        <ele>189.240154</ele>
        <time>2022-08-10T07:51:14.110Z</time>
      </trkpt>
      <trkpt lat="43.72562" lon="1.51898">
        <ele>189.479873</ele>
        <time>2022-08-10T07:51:16.103Z</time>
      </trkpt>
      <trkpt lat="43.7257" lon="1.51907">
        <ele>189.729379</ele>
        <time>2022-08-10T07:51:18.116Z</time>
      </trkpt>
      <trkpt lat="43.72577" lon="1.51918">
        <ele>190.089699</ele>
        <time>2022-08-10T07:51:20.108Z</time>
      </trkpt>
      <trkpt lat="43.72584" lon="1.51928">
        <ele>190.443286</ele>
        <time>2022-08-10T07:51:22.111Z</time>
      </trkpt>
      <trkpt lat="43.72592" lon="1.51939">
        <ele>190.792775</ele>
        <time>2022-08-10T07:51:24.101Z</time>
      </trkpt>
      <trkpt lat="43.72598" lon="1.51949">
        <ele>191.144531</ele>
        <time>2022-08-10T07:51:26.112Z</time>
      </trkpt>
      <trkpt lat="43.72605" lon="1.5196">
        <ele>191.494442</ele>
        <time>2022-08-10T07:51:28.124Z</time>
      </trkpt>
      <trkpt lat="43.72612" lon="1.51971">
        <ele>191.836614</ele>
        <time>2022-08-10T07:51:30.109Z</time>
      </trkpt>
      <trkpt lat="43.72619" lon="1.51981">
        <ele>192.189187</ele>
        <time>2022-08-10T07:51:32.112Z</time>
      </trkpt>
      <trkpt lat="43.72626" lon="1.51992">
        <ele>192.546872</ele>
        <time>2022-08-10T07:51:34.115Z</time>
      </trkpt>
      <trkpt lat="43.72633" lon="1.52002">
        <ele>192.901036</ele>
        <time>2022-08-10T07:51:36.119Z</time>
      </trkpt>
      <trkpt lat="43.72641" lon="1.52013">
        <ele>193.248752</ele>
        <time>2022-08-10T07:51:38.153Z</time>
      </trkpt>
      <trkpt lat="43.72648" lon="1.52023">
        <ele>193.599904</ele>
        <time>2022-08-10T07:51:40.124Z</time>
      </trkpt>
      <trkpt lat="43.72656" lon="1.52032">
        <ele>193.956031</ele>
        <time>2022-08-10T07:51:42.117Z</time>
      </trkpt>
      <trkpt lat="43.72664" lon="1.52042">
        <ele>194.311425</ele>
        <time>2022-08-10T07:51:44.159Z</time>
      </trkpt>
      <trkpt lat="43.72672" lon="1.52051">
        <ele>194.667204</ele>
        <time>2022-08-10T07:51:46.122Z</time>
      </trkpt>
      <trkpt lat="43.7268" lon="1.5206">
        <ele>195.026678</ele>
        <time>2022-08-10T07:51:48.137Z</time>
      </trkpt>
      <trkpt lat="43.72689" lon="1.5207">
        <ele>195.389954</ele>
        <time>2022-08-10T07:51:50.112Z</time>
      </trkpt>
      <trkpt lat="43.72697" lon="1.52079">
        <ele>195.753229</ele>
        <time>2022-08-10T07:51:52.117Z</time>
      </trkpt>
      <trkpt lat="43.72706" lon="1.52088">
        <ele>195.591179</ele>
        <time>2022-08-10T07:51:54.118Z</time>
      </trkpt>
      <trkpt lat="43.72714" lon="1.52096">
        <ele>195.392865</ele>
        <time>2022-08-10T07:51:56.115Z</time>
      </trkpt>
      <trkpt lat="43.72722" lon="1.52105">
        <ele>195.200499</ele>
        <time>2022-08-10T07:51:58.114Z</time>
      </trkpt>
      <trkpt lat="43.7273" lon="1.52113">
        <ele>195.008537</ele>
        <time>2022-08-10T07:52:00.117Z</time>
      </trkpt>
      <trkpt lat="43.72739" lon="1.52122">
        <ele>194.814041</ele>
        <time>2022-08-10T07:52:02.125Z</time>
      </trkpt>
      <trkpt lat="43.72747" lon="1.52133">
        <ele>194.600798</ele>
        <time>2022-08-10T07:52:04.122Z</time>
      </trkpt>
      <trkpt lat="43.72756" lon="1.52145">
        <ele>194.359813</ele>
        <time>2022-08-10T07:52:06.113Z</time>
      </trkpt>
      <trkpt lat="43.72768" lon="1.52157">
        <ele>194.093835</ele>
        <time>2022-08-10T07:52:08.139Z</time>
      </trkpt>
      <trkpt lat="43.72778" lon="1.52173">
        <ele>193.795558</ele>
        <time>2022-08-10T07:52:10.124Z</time>
      </trkpt>
      <trkpt lat="43.72786" lon="1.52192">
        <ele>193.491022</ele>
        <time>2022-08-10T07:52:12.127Z</time>
      </trkpt>
      <trkpt lat="43.72796" lon="1.52211">
        <ele>193.178935</ele>
        <time>2022-08-10T07:52:14.140Z</time>
      </trkpt>
      <trkpt lat="43.72808" lon="1.52226">
        <ele>192.869597</ele>
        <time>2022-08-10T07:52:16.128Z</time>
      </trkpt>
      <trkpt lat="43.72823" lon="1.52236">
        <ele>192.567182</ele>
        <time>2022-08-10T07:52:18.189Z</time>
      </trkpt>
      <trkpt lat="43.72837" lon="1.52245">
        <ele>192.372823</ele>
        <time>2022-08-10T07:52:20.132Z</time>
      </trkpt>
      <trkpt lat="43.72851" lon="1.52254">
        <ele>192.325466</ele>
        <time>2022-08-10T07:52:22.122Z</time>
      </trkpt>
      <trkpt lat="43.72866" lon="1.5226">
        <ele>192.278647</ele>
        <time>2022-08-10T07:52:24.116Z</time>
      </trkpt>
      <trkpt lat="43.7288" lon="1.52262">
        <ele>192.234619</ele>
        <time>2022-08-10T07:52:26.106Z</time>
      </trkpt>
      <trkpt lat="43.72894" lon="1.52261">
        <ele>192.194036</ele>
        <time>2022-08-10T07:52:28.126Z</time>
      </trkpt>
      <trkpt lat="43.72906" lon="1.52259">
        <ele>192.155221</ele>
        <time>2022-08-10T07:52:30.115Z</time>
      </trkpt>
      <trkpt lat="43.72919" lon="1.52256">
        <ele>192.11728</ele>
        <time>2022-08-10T07:52:32.128Z</time>
      </trkpt>
      <trkpt lat="43.7293" lon="1.52254">
        <ele>192.080911</ele>
        <time>2022-08-10T07:52:34.113Z</time>
      </trkpt>
      <trkpt lat="43.72942" lon="1.52251">
        <ele>192.044911</ele>
        <time>2022-08-10T07:52:36.112Z</time>
      </trkpt>
      <trkpt lat="43.72954" lon="1.52249">
        <ele>192.009108</ele>
        <time>2022-08-10T07:52:38.152Z</time>
      </trkpt>
      <trkpt lat="43.72965" lon="1.52245">
        <ele>191.973417</ele>
        <time>2022-08-10T07:52:40.113Z</time>
      </trkpt>
      <trkpt lat="43.72976" lon="1.5224">
        <ele>191.938176</ele>
        <time>2022-08-10T07:52:42.110Z</time>
      </trkpt>
      <trkpt lat="43.72987" lon="1.52235">
        <ele>191.903154</ele>
        <time>2022-08-10T07:52:44.099Z</time>
      </trkpt>
      <trkpt lat="43.72998" lon="1.52231">
        <ele>191.867598</ele>
        <time>2022-08-10T07:52:46.136Z</time>
      </trkpt>
      <trkpt lat="43.7301" lon="1.52233">
        <ele>191.854674</ele>
        <time>2022-08-10T07:52:49.110Z</time>
      </trkpt>
      <trkpt lat="43.73019" lon="1.52237">
        <ele>191.871468</ele>
        <time>2022-08-10T07:52:51.108Z</time>
      </trkpt>
      <trkpt lat="43.73029" lon="1.52247">
        <ele>191.893547</ele>
        <time>2022-08-10T07:52:53.106Z</time>
      </trkpt>
      <trkpt lat="43.73038" lon="1.52257">
        <ele>191.915966</ele>
        <time>2022-08-10T07:52:55.100Z</time>
      </trkpt>
      <trkpt lat="43.73046" lon="1.52268">
        <ele>191.937279</ele>
        <time>2022-08-10T07:52:57.097Z</time>
      </trkpt>
      <trkpt lat="43.73055" lon="1.52279">
        <ele>191.958934</ele>
        <time>2022-08-10T07:52:59.184Z</time>
      </trkpt>
      <trkpt lat="43.73063" lon="1.52291">
        <ele>191.981286</ele>
        <time>2022-08-10T07:53:01.101Z</time>
      </trkpt>
      <trkpt lat="43.73072" lon="1.52302">
        <ele>192.003677</ele>
        <time>2022-08-10T07:53:03.114Z</time>
      </trkpt>
      <trkpt lat="43.7308" lon="1.52314">
        <ele>192.025507</ele>
        <time>2022-08-10T07:53:05.096Z</time>
      </trkpt>
      <trkpt lat="43.73089" lon="1.52325">
        <ele>192.047708</ele>
        <time>2022-08-10T07:53:07.116Z</time>
      </trkpt>
      <trkpt lat="43.73097" lon="1.52336">
        <ele>192.069</ele>
        <time>2022-08-10T07:53:09.122Z</time>
      </trkpt>
      <trkpt lat="43.73105" lon="1.52347">
        <ele>192.090521</ele>
        <time>2022-08-10T07:53:11.110Z</time>
      </trkpt>
      <trkpt lat="43.73114" lon="1.52358">
        <ele>192.112355</ele>
        <time>2022-08-10T07:53:13.109Z</time>
      </trkpt>
      <trkpt lat="43.73123" lon="1.52369">
        <ele>192.134477</ele>
        <time>2022-08-10T07:53:15.105Z</time>
      </trkpt>
      <trkpt lat="43.73132" lon="1.5238">
        <ele>192.156797</ele>
        <time>2022-08-10T07:53:17.110Z</time>
      </trkpt>
      <trkpt lat="43.73141" lon="1.5239">
        <ele>192.179051</ele>
        <time>2022-08-10T07:53:19.092Z</time>
      </trkpt>
      <trkpt lat="43.73151" lon="1.524">
        <ele>192.213318</ele>
        <time>2022-08-10T07:53:21.111Z</time>
      </trkpt>
      <trkpt lat="43.7316" lon="1.5241">
        <ele>192.247806</ele>
        <time>2022-08-10T07:53:23.101Z</time>
      </trkpt>
      <trkpt lat="43.73169" lon="1.5242">
        <ele>192.282011</ele>
        <time>2022-08-10T07:53:25.108Z</time>
      </trkpt>
      <trkpt lat="43.73178" lon="1.5243">
        <ele>192.316852</ele>
        <time>2022-08-10T07:53:27.104Z</time>
      </trkpt>
      <trkpt lat="43.73186" lon="1.52442">
        <ele>192.351078</ele>
        <time>2022-08-10T07:53:29.111Z</time>
      </trkpt>
      <trkpt lat="43.73193" lon="1.52455">
        <ele>192.385174</ele>
        <time>2022-08-10T07:53:31.118Z</time>
      </trkpt>
      <trkpt lat="43.732" lon="1.52468">
        <ele>192.419544</ele>
        <time>2022-08-10T07:53:33.108Z</time>
      </trkpt>
      <trkpt lat="43.73207" lon="1.52481">
        <ele>192.45356</ele>
        <time>2022-08-10T07:53:35.091Z</time>
      </trkpt>
      <trkpt lat="43.73214" lon="1.52493">
        <ele>192.487081</ele>
        <time>2022-08-10T07:53:37.097Z</time>
      </trkpt>
      <trkpt lat="43.73221" lon="1.52505">
        <ele>192.52001</ele>
        <time>2022-08-10T07:53:39.097Z</time>
      </trkpt>
      <trkpt lat="43.73227" lon="1.52518">
        <ele>192.553319</ele>
        <time>2022-08-10T07:53:41.086Z</time>
      </trkpt>
      <trkpt lat="43.73232" lon="1.52533">
        <ele>192.588393</ele>
        <time>2022-08-10T07:53:43.100Z</time>
      </trkpt>
      <trkpt lat="43.73239" lon="1.52548">
        <ele>192.624924</ele>
        <time>2022-08-10T07:53:45.094Z</time>
      </trkpt>
      <trkpt lat="43.73245" lon="1.52562">
        <ele>192.661274</ele>
        <time>2022-08-10T07:53:47.096Z</time>
      </trkpt>
      <trkpt lat="43.73251" lon="1.52576">
        <ele>192.696952</ele>
        <time>2022-08-10T07:53:49.096Z</time>
      </trkpt>
      <trkpt lat="43.73257" lon="1.52591">
        <ele>192.768298</ele>
        <time>2022-08-10T07:53:51.086Z</time>
      </trkpt>
      <trkpt lat="43.73263" lon="1.52605">
        <ele>192.863661</ele>
        <time>2022-08-10T07:53:53.086Z</time>
      </trkpt>
      <trkpt lat="43.73269" lon="1.52619">
        <ele>192.958964</ele>
        <time>2022-08-10T07:53:55.107Z</time>
      </trkpt>
      <trkpt lat="43.73274" lon="1.52634">
        <ele>193.053824</ele>
        <time>2022-08-10T07:53:57.093Z</time>
      </trkpt>
      <trkpt lat="43.73279" lon="1.52648">
        <ele>193.149208</ele>
        <time>2022-08-10T07:53:59.095Z</time>
      </trkpt>
      <trkpt lat="43.73285" lon="1.52663">
        <ele>193.244793</ele>
        <time>2022-08-10T07:54:01.091Z</time>
      </trkpt>
      <trkpt lat="43.73291" lon="1.52677">
        <ele>193.341068</ele>
        <time>2022-08-10T07:54:03.101Z</time>
      </trkpt>
      <trkpt lat="43.73297" lon="1.52692">
        <ele>193.436244</ele>
        <time>2022-08-10T07:54:05.093Z</time>
      </trkpt>
      <trkpt lat="43.73303" lon="1.52706">
        <ele>193.532435</ele>
        <time>2022-08-10T07:54:07.094Z</time>
      </trkpt>
      <trkpt lat="43.73309" lon="1.52719">
        <ele>193.627565</ele>
        <time>2022-08-10T07:54:09.101Z</time>
      </trkpt>
      <trkpt lat="43.73315" lon="1.52733">
        <ele>193.722762</ele>
        <time>2022-08-10T07:54:11.099Z</time>
      </trkpt>
      <trkpt lat="43.73322" lon="1.52747">
        <ele>193.8174</ele>
        <time>2022-08-10T07:54:13.088Z</time>
      </trkpt>
      <trkpt lat="43.73328" lon="1.52761">
        <ele>193.912473</ele>
        <time>2022-08-10T07:54:15.091Z</time>
      </trkpt>
      <trkpt lat="43.73335" lon="1.52775">
        <ele>194.009453</ele>
        <time>2022-08-10T07:54:17.080Z</time>
      </trkpt>
      <trkpt lat="43.7334" lon="1.52789">
        <ele>194.103484</ele>
        <time>2022-08-10T07:54:19.096Z</time>
      </trkpt>
      <trkpt lat="43.73344" lon="1.52804">
        <ele>194.185124</ele>
        <time>2022-08-10T07:54:21.099Z</time>
      </trkpt>
      <trkpt lat="43.73349" lon="1.52818">
        <ele>194.248629</ele>
        <time>2022-08-10T07:54:23.089Z</time>
      </trkpt>
      <trkpt lat="43.73352" lon="1.52833">
        <ele>194.309333</ele>
        <time>2022-08-10T07:54:25.096Z</time>
      </trkpt>
      <trkpt lat="43.7336" lon="1.52844">
        <ele>194.372741</ele>
        <time>2022-08-10T07:54:27.106Z</time>
      </trkpt>
      <trkpt lat="43.7337" lon="1.52853">
        <ele>194.434621</ele>
        <time>2022-08-10T07:54:29.100Z</time>
      </trkpt>
      <trkpt lat="43.73379" lon="1.52861">
        <ele>194.497901</ele>
        <time>2022-08-10T07:54:31.086Z</time>
      </trkpt>
      <trkpt lat="43.73389" lon="1.5287">
        <ele>194.560208</ele>
        <time>2022-08-10T07:54:33.086Z</time>
      </trkpt>
      <trkpt lat="43.73396" lon="1.52882">
        <ele>194.622779</ele>
        <time>2022-08-10T07:54:35.097Z</time>
      </trkpt>
      <trkpt lat="43.73402" lon="1.52894">
        <ele>194.684026</ele>
        <time>2022-08-10T07:54:37.093Z</time>
      </trkpt>
      <trkpt lat="43.73408" lon="1.52908">
        <ele>194.748726</ele>
        <time>2022-08-10T07:54:39.090Z</time>
      </trkpt>
      <trkpt lat="43.73415" lon="1.52922">
        <ele>194.814523</ele>
        <time>2022-08-10T07:54:41.136Z</time>
      </trkpt>
      <trkpt lat="43.73421" lon="1.52935">
        <ele>194.879043</ele>
        <time>2022-08-10T07:54:43.081Z</time>
      </trkpt>
      <trkpt lat="43.7343" lon="1.52946">
        <ele>194.942053</ele>
        <time>2022-08-10T07:54:45.106Z</time>
      </trkpt>
      <trkpt lat="43.73441" lon="1.52953">
        <ele>195.007354</ele>
        <time>2022-08-10T07:54:47.094Z</time>
      </trkpt>
      <trkpt lat="43.73452" lon="1.52958">
        <ele>195.074138</ele>
        <time>2022-08-10T07:54:49.086Z</time>
      </trkpt>
      <trkpt lat="43.73464" lon="1.52962">
        <ele>195.141419</ele>
        <time>2022-08-10T07:54:51.093Z</time>
      </trkpt>
      <trkpt lat="43.73475" lon="1.52964">
        <ele>195.223063</ele>
        <time>2022-08-10T07:54:53.100Z</time>
      </trkpt>
      <trkpt lat="43.73486" lon="1.52964">
        <ele>195.317284</ele>
        <time>2022-08-10T07:54:55.098Z</time>
      </trkpt>
      <trkpt lat="43.73498" lon="1.52967">
        <ele>195.416336</ele>
        <time>2022-08-10T07:54:57.089Z</time>
      </trkpt>
      <trkpt lat="43.7351" lon="1.5297">
        <ele>195.51491</ele>
        <time>2022-08-10T07:54:59.089Z</time>
      </trkpt>
      <trkpt lat="43.73521" lon="1.52972">
        <ele>195.612667</ele>
        <time>2022-08-10T07:55:01.098Z</time>
      </trkpt>
      <trkpt lat="43.73533" lon="1.52975">
        <ele>195.70836</ele>
        <time>2022-08-10T07:55:03.094Z</time>
      </trkpt>
      <trkpt lat="43.73544" lon="1.52977">
        <ele>195.802674</ele>
        <time>2022-08-10T07:55:05.088Z</time>
      </trkpt>
      <trkpt lat="43.73556" lon="1.52977">
        <ele>195.898565</ele>
        <time>2022-08-10T07:55:07.088Z</time>
      </trkpt>
      <trkpt lat="43.73567" lon="1.52977">
        <ele>195.995267</ele>
        <time>2022-08-10T07:55:09.085Z</time>
      </trkpt>
      <trkpt lat="43.73579" lon="1.52978">
        <ele>196.089211</ele>
        <time>2022-08-10T07:55:11.089Z</time>
      </trkpt>
      <trkpt lat="43.73589" lon="1.52979">
        <ele>196.176068</ele>
        <time>2022-08-10T07:55:13.095Z</time>
      </trkpt>
      <trkpt lat="43.736" lon="1.52979">
        <ele>196.268643</ele>
        <time>2022-08-10T07:55:15.095Z</time>
      </trkpt>
      <trkpt lat="43.73612" lon="1.52981">
        <ele>196.364935</ele>
        <time>2022-08-10T07:55:17.087Z</time>
      </trkpt>
      <trkpt lat="43.73624" lon="1.52983">
        <ele>196.46401</ele>
        <time>2022-08-10T07:55:19.092Z</time>
      </trkpt>
      <trkpt lat="43.73635" lon="1.52986">
        <ele>196.56015</ele>
        <time>2022-08-10T07:55:21.091Z</time>
      </trkpt>
      <trkpt lat="43.73646" lon="1.5299">
        <ele>196.660519</ele>
        <time>2022-08-10T07:55:23.105Z</time>
      </trkpt>
      <trkpt lat="43.73657" lon="1.52994">
        <ele>196.805363</ele>
        <time>2022-08-10T07:55:25.092Z</time>
      </trkpt>
      <trkpt lat="43.73668" lon="1.52999">
        <ele>196.958781</ele>
        <time>2022-08-10T07:55:27.092Z</time>
      </trkpt>
      <trkpt lat="43.73678" lon="1.53002">
        <ele>197.099871</ele>
        <time>2022-08-10T07:55:29.101Z</time>
      </trkpt>
      <trkpt lat="43.73689" lon="1.53005">
        <ele>197.241549</ele>
        <time>2022-08-10T07:55:31.099Z</time>
      </trkpt>
      <trkpt lat="43.737" lon="1.53007">
        <ele>197.389898</ele>
        <time>2022-08-10T07:55:33.088Z</time>
      </trkpt>
      <trkpt lat="43.73711" lon="1.53011">
        <ele>197.532863</ele>
        <time>2022-08-10T07:55:35.082Z</time>
      </trkpt>
      <trkpt lat="43.73721" lon="1.53015">
        <ele>197.682336</ele>
        <time>2022-08-10T07:55:37.087Z</time>
      </trkpt>
      <trkpt lat="43.73731" lon="1.5302">
        <ele>197.819323</ele>
        <time>2022-08-10T07:55:39.095Z</time>
      </trkpt>
      <trkpt lat="43.73741" lon="1.53025">
        <ele>197.964127</ele>
        <time>2022-08-10T07:55:41.089Z</time>
      </trkpt>
      <trkpt lat="43.73752" lon="1.53032">
        <ele>198.113297</ele>
        <time>2022-08-10T07:55:43.101Z</time>
      </trkpt>
      <trkpt lat="43.73761" lon="1.5304">
        <ele>198.261125</ele>
        <time>2022-08-10T07:55:45.104Z</time>
      </trkpt>
      <trkpt lat="43.7377" lon="1.53047">
        <ele>198.398316</ele>
        <time>2022-08-10T07:55:47.096Z</time>
      </trkpt>
      <trkpt lat="43.73779" lon="1.53057">
        <ele>198.542592</ele>
        <time>2022-08-10T07:55:49.084Z</time>
      </trkpt>
      <trkpt lat="43.73787" lon="1.53066">
        <ele>198.686749</ele>
        <time>2022-08-10T07:55:51.091Z</time>
      </trkpt>
      <trkpt lat="43.73796" lon="1.53076">
        <ele>198.833963</ele>
        <time>2022-08-10T07:55:53.103Z</time>
      </trkpt>
      <trkpt lat="43.73804" lon="1.53086">
        <ele>198.977512</ele>
        <time>2022-08-10T07:55:55.090Z</time>
      </trkpt>
      <trkpt lat="43.73813" lon="1.53094">
        <ele>199.790505</ele>
        <time>2022-08-10T07:55:57.086Z</time>
      </trkpt>
      <trkpt lat="43.73823" lon="1.531">
        <ele>200.83773</ele>
        <time>2022-08-10T07:55:59.078Z</time>
      </trkpt>
      <trkpt lat="43.73832" lon="1.53105">
        <ele>201.838499</ele>
        <time>2022-08-10T07:56:01.093Z</time>
      </trkpt>
      <trkpt lat="43.73842" lon="1.53109">
        <ele>202.859036</ele>
        <time>2022-08-10T07:56:03.104Z</time>
      </trkpt>
      <trkpt lat="43.73852" lon="1.53112">
        <ele>203.884222</ele>
        <time>2022-08-10T07:56:05.120Z</time>
      </trkpt>
      <trkpt lat="43.73862" lon="1.53116">
        <ele>204.925963</ele>
        <time>2022-08-10T07:56:07.095Z</time>
      </trkpt>
      <trkpt lat="43.73871" lon="1.53118">
        <ele>205.883435</ele>
        <time>2022-08-10T07:56:09.097Z</time>
      </trkpt>
      <trkpt lat="43.73883" lon="1.53123">
        <ele>207.137424</ele>
        <time>2022-08-10T07:56:12.087Z</time>
      </trkpt>
      <trkpt lat="43.73894" lon="1.53126">
        <ele>208.18708</ele>
        <time>2022-08-10T07:56:15.094Z</time>
      </trkpt>
      <trkpt lat="43.73904" lon="1.5313">
        <ele>209.257585</ele>
        <time>2022-08-10T07:56:19.092Z</time>
      </trkpt>
      <trkpt lat="43.73913" lon="1.53135">
        <ele>210.267729</ele>
        <time>2022-08-10T07:56:23.115Z</time>
      </trkpt>
      <trkpt lat="43.73923" lon="1.5314">
        <ele>211.306073</ele>
        <time>2022-08-10T07:56:27.100Z</time>
      </trkpt>
      <trkpt lat="43.73932" lon="1.53144">
        <ele>212.257591</ele>
        <time>2022-08-10T07:56:31.098Z</time>
      </trkpt>
      <trkpt lat="43.73942" lon="1.53147">
        <ele>213.239527</ele>
        <time>2022-08-10T07:56:35.100Z</time>
      </trkpt>
      <trkpt lat="43.73951" lon="1.5315">
        <ele>214.220983</ele>
        <time>2022-08-10T07:56:39.115Z</time>
      </trkpt>
      <trkpt lat="43.73961" lon="1.53153">
        <ele>215.2235</ele>
        <time>2022-08-10T07:56:43.100Z</time>
      </trkpt>
      <trkpt lat="43.73971" lon="1.53156">
        <ele>216.230913</ele>
        <time>2022-08-10T07:56:47.101Z</time>
      </trkpt>
      <trkpt lat="43.73981" lon="1.53159">
        <ele>217.31251</ele>
        <time>2022-08-10T07:56:51.112Z</time>
      </trkpt>
      <trkpt lat="43.7399" lon="1.53162">
        <ele>218.784091</ele>
        <time>2022-08-10T07:56:55.130Z</time>
      </trkpt>
      <trkpt lat="43.74" lon="1.53164">
        <ele>220.276604</ele>
        <time>2022-08-10T07:56:59.118Z</time>
      </trkpt>
      <trkpt lat="43.7401" lon="1.53165">
        <ele>221.745173</ele>
        <time>2022-08-10T07:57:03.118Z</time>
      </trkpt>
      <trkpt lat="43.7402" lon="1.53167">
        <ele>223.269986</ele>
        <time>2022-08-10T07:57:07.107Z</time>
      </trkpt>
      <trkpt lat="43.74031" lon="1.53169">
        <ele>224.781798</ele>
        <time>2022-08-10T07:57:11.108Z</time>
      </trkpt>
      <trkpt lat="43.7404" lon="1.53172">
        <ele>226.282651</ele>
        <time>2022-08-10T07:57:15.129Z</time>
      </trkpt>
      <trkpt lat="43.74051" lon="1.53174">
        <ele>227.807464</ele>
        <time>2022-08-10T07:57:19.102Z</time>
      </trkpt>
      <trkpt lat="43.74061" lon="1.53177">
        <ele>229.347173</ele>
        <time>2022-08-10T07:57:23.099Z</time>
      </trkpt>
      <trkpt lat="43.74071" lon="1.53181">
        <ele>230.852034</ele>
        <time>2022-08-10T07:57:27.110Z</time>
      </trkpt>
      <trkpt lat="43.7408" lon="1.53186">
        <ele>232.339174</ele>
        <time>2022-08-10T07:57:31.090Z</time>
      </trkpt>
      <trkpt lat="43.74089" lon="1.53194">
        <ele>233.899781</ele>
        <time>2022-08-10T07:57:35.101Z</time>
      </trkpt>
      <trkpt lat="43.74098" lon="1.53202">
        <ele>235.486501</ele>
        <time>2022-08-10T07:57:39.114Z</time>
      </trkpt>
      <trkpt lat="43.74107" lon="1.53211">
        <ele>237.079326</ele>
        <time>2022-08-10T07:57:43.087Z</time>
      </trkpt>
      <trkpt lat="43.74116" lon="1.53218">
        <ele>238.662004</ele>
        <time>2022-08-10T07:57:47.117Z</time>
      </trkpt>
      <trkpt lat="43.74125" lon="1.53224">
        <ele>240.223935</ele>
        <time>2022-08-10T07:57:51.095Z</time>
      </trkpt>
      <trkpt lat="43.74136" lon="1.53228">
        <ele>241.763461</ele>
        <time>2022-08-10T07:57:55.121Z</time>
      </trkpt>
      <trkpt lat="43.74146" lon="1.5323">
        <ele>243.299932</ele>
        <time>2022-08-10T07:57:59.114Z</time>
      </trkpt>
      <trkpt lat="43.74156" lon="1.53231">
        <ele>243.925561</ele>
        <time>2022-08-10T07:58:03.108Z</time>
      </trkpt>
      <trkpt lat="43.74166" lon="1.53232">
        <ele>244.353993</ele>
        <time>2022-08-10T07:58:07.150Z</time>
      </trkpt>
      <trkpt lat="43.74177" lon="1.53233">
        <ele>244.790942</ele>
        <time>2022-08-10T07:58:11.128Z</time>
      </trkpt>
      <trkpt lat="43.74187" lon="1.53235">
        <ele>245.226149</ele>
        <time>2022-08-10T07:58:15.101Z</time>
      </trkpt>
      <trkpt lat="43.74198" lon="1.5324">
        <ele>245.681745</ele>
        <time>2022-08-10T07:58:19.113Z</time>
      </trkpt>
      <trkpt lat="43.74206" lon="1.53247">
        <ele>246.076424</ele>
        <time>2022-08-10T07:58:22.122Z</time>
      </trkpt>
      <trkpt lat="43.74217" lon="1.53256">
        <ele>246.605215</ele>
        <time>2022-08-10T07:58:25.103Z</time>
      </trkpt>
      <trkpt lat="43.74225" lon="1.53264">
        <ele>247.036371</ele>
        <time>2022-08-10T07:58:27.114Z</time>
      </trkpt>
      <trkpt lat="43.74235" lon="1.53273">
        <ele>247.508724</ele>
        <time>2022-08-10T07:58:29.116Z</time>
      </trkpt>
      <trkpt lat="43.74245" lon="1.53281">
        <ele>248.00376</ele>
        <time>2022-08-10T07:58:31.148Z</time>
      </trkpt>
      <trkpt lat="43.74256" lon="1.53289">
        <ele>248.502756</ele>
        <time>2022-08-10T07:58:33.112Z</time>
      </trkpt>
      <trkpt lat="43.74267" lon="1.53295">
        <ele>248.991206</ele>
        <time>2022-08-10T07:58:35.108Z</time>
      </trkpt>
      <trkpt lat="43.74278" lon="1.533">
        <ele>249.471465</ele>
        <time>2022-08-10T07:58:37.103Z</time>
      </trkpt>
      <trkpt lat="43.74289" lon="1.53305">
        <ele>249.935865</ele>
        <time>2022-08-10T07:58:39.106Z</time>
      </trkpt>
      <trkpt lat="43.74299" lon="1.53309">
        <ele>250.39122</ele>
        <time>2022-08-10T07:58:41.104Z</time>
      </trkpt>
      <trkpt lat="43.74309" lon="1.53315">
        <ele>250.836838</ele>
        <time>2022-08-10T07:58:43.113Z</time>
      </trkpt>
      <trkpt lat="43.74319" lon="1.5332">
        <ele>251.068352</ele>
        <time>2022-08-10T07:58:45.102Z</time>
      </trkpt>
      <trkpt lat="43.74328" lon="1.53325">
        <ele>251.134094</ele>
        <time>2022-08-10T07:58:47.097Z</time>
      </trkpt>
      <trkpt lat="43.74337" lon="1.5333">
        <ele>251.200335</ele>
        <time>2022-08-10T07:58:49.114Z</time>
      </trkpt>
      <trkpt lat="43.74346" lon="1.53336">
        <ele>251.268115</ele>
        <time>2022-08-10T07:58:51.111Z</time>
      </trkpt>
      <trkpt lat="43.74356" lon="1.53342">
        <ele>251.33891</ele>
        <time>2022-08-10T07:58:53.107Z</time>
      </trkpt>
      <trkpt lat="43.74365" lon="1.53348">
        <ele>251.40951</ele>
        <time>2022-08-10T07:58:55.098Z</time>
      </trkpt>
      <trkpt lat="43.74376" lon="1.53355">
        <ele>251.487228</ele>
        <time>2022-08-10T07:58:57.101Z</time>
      </trkpt>
      <trkpt lat="43.74387" lon="1.53363">
        <ele>251.570404</ele>
        <time>2022-08-10T07:58:59.110Z</time>
      </trkpt>
      <trkpt lat="43.74398" lon="1.5337">
        <ele>251.655196</ele>
        <time>2022-08-10T07:59:01.109Z</time>
      </trkpt>
      <trkpt lat="43.74409" lon="1.53378">
        <ele>251.736776</ele>
        <time>2022-08-10T07:59:03.105Z</time>
      </trkpt>
      <trkpt lat="43.74419" lon="1.53385">
        <ele>251.813705</ele>
        <time>2022-08-10T07:59:05.099Z</time>
      </trkpt>
      <trkpt lat="43.74429" lon="1.53394">
        <ele>251.890344</ele>
        <time>2022-08-10T07:59:07.126Z</time>
      </trkpt>
      <trkpt lat="43.74438" lon="1.53403">
        <ele>251.965861</ele>
        <time>2022-08-10T07:59:09.112Z</time>
      </trkpt>
      <trkpt lat="43.74448" lon="1.53412">
        <ele>252.043017</ele>
        <time>2022-08-10T07:59:11.105Z</time>
      </trkpt>
      <trkpt lat="43.74457" lon="1.53421">
        <ele>252.121021</ele>
        <time>2022-08-10T07:59:13.110Z</time>
      </trkpt>
      <trkpt lat="43.74467" lon="1.53431">
        <ele>252.200112</ele>
        <time>2022-08-10T07:59:15.107Z</time>
      </trkpt>
      <trkpt lat="43.74476" lon="1.53441">
        <ele>252.426126</ele>
        <time>2022-08-10T07:59:17.095Z</time>
      </trkpt>
      <trkpt lat="43.74485" lon="1.5345">
        <ele>252.761536</ele>
        <time>2022-08-10T07:59:19.095Z</time>
      </trkpt>
      <trkpt lat="43.74494" lon="1.5346">
        <ele>253.093948</ele>
        <time>2022-08-10T07:59:21.113Z</time>
      </trkpt>
      <trkpt lat="43.74504" lon="1.53468">
        <ele>253.423638</ele>
        <time>2022-08-10T07:59:23.099Z</time>
      </trkpt>
      <trkpt lat="43.74513" lon="1.53477">
        <ele>253.754252</ele>
        <time>2022-08-10T07:59:25.099Z</time>
      </trkpt>
      <trkpt lat="43.74522" lon="1.53487">
        <ele>254.07923</ele>
        <time>2022-08-10T07:59:27.112Z</time>
      </trkpt>
      <trkpt lat="43.74531" lon="1.53496">
        <ele>254.405262</ele>
        <time>2022-08-10T07:59:29.095Z</time>
      </trkpt>
      <trkpt lat="43.7454" lon="1.53505">
        <ele>254.72757</ele>
        <time>2022-08-10T07:59:31.108Z</time>
      </trkpt>
      <trkpt lat="43.74549" lon="1.53513">
        <ele>255.030748</ele>
        <time>2022-08-10T07:59:33.100Z</time>
      </trkpt>
      <trkpt lat="43.74558" lon="1.53521">
        <ele>255.326432</ele>
        <time>2022-08-10T07:59:35.115Z</time>
      </trkpt>
      <trkpt lat="43.74566" lon="1.53526">
        <ele>255.597085</ele>
        <time>2022-08-10T07:59:37.095Z</time>
      </trkpt>
      <trkpt lat="43.74578" lon="1.53533">
        <ele>255.97081</ele>
        <time>2022-08-10T07:59:40.113Z</time>
      </trkpt>
      <trkpt lat="43.7459" lon="1.53539">
        <ele>256.347363</ele>
        <time>2022-08-10T07:59:43.108Z</time>
      </trkpt>
      <trkpt lat="43.74602" lon="1.53545">
        <ele>256.722643</ele>
        <time>2022-08-10T07:59:46.116Z</time>
      </trkpt>
      <trkpt lat="43.74614" lon="1.53552">
        <ele>257.100184</ele>
        <time>2022-08-10T07:59:49.101Z</time>
      </trkpt>
      <trkpt lat="43.74626" lon="1.53559">
        <ele>257.464331</ele>
        <time>2022-08-10T07:59:52.101Z</time>
      </trkpt>
      <trkpt lat="43.74638" lon="1.53566">
        <ele>257.64926</ele>
        <time>2022-08-10T07:59:55.096Z</time>
      </trkpt>
      <trkpt lat="43.74649" lon="1.53574">
        <ele>257.833404</ele>
        <time>2022-08-10T07:59:58.107Z</time>
      </trkpt>
      <trkpt lat="43.7466" lon="1.53585">
        <ele>258.037879</ele>
        <time>2022-08-10T08:00:01.104Z</time>
      </trkpt>
      <trkpt lat="43.74672" lon="1.53592">
        <ele>258.220603</ele>
        <time>2022-08-10T08:00:03.114Z</time>
      </trkpt>
      <trkpt lat="43.74687" lon="1.53595">
        <ele>258.441845</ele>
        <time>2022-08-10T08:00:05.099Z</time>
      </trkpt>
      <trkpt lat="43.74703" lon="1.53595">
        <ele>258.684498</ele>
        <time>2022-08-10T08:00:07.119Z</time>
      </trkpt>
      <trkpt lat="43.7472" lon="1.53597">
        <ele>258.933715</ele>
        <time>2022-08-10T08:00:09.115Z</time>
      </trkpt>
      <trkpt lat="43.74737" lon="1.53603">
        <ele>259.181663</ele>
        <time>2022-08-10T08:00:11.122Z</time>
      </trkpt>
      <trkpt lat="43.7475" lon="1.53617">
        <ele>259.420615</ele>
        <time>2022-08-10T08:00:13.117Z</time>
      </trkpt>
      <trkpt lat="43.74759" lon="1.53633">
        <ele>259.638493</ele>
        <time>2022-08-10T08:00:15.122Z</time>
      </trkpt>
      <trkpt lat="43.74767" lon="1.53647">
        <ele>259.830312</ele>
        <time>2022-08-10T08:00:17.130Z</time>
      </trkpt>
      <trkpt lat="43.74774" lon="1.53659">
        <ele>259.991661</ele>
        <time>2022-08-10T08:00:19.086Z</time>
      </trkpt>
      <trkpt lat="43.74781" lon="1.53668">
        <ele>260.23358</ele>
        <time>2022-08-10T08:00:21.103Z</time>
      </trkpt>
      <trkpt lat="43.7479" lon="1.53679">
        <ele>260.854136</ele>
        <time>2022-08-10T08:00:24.113Z</time>
      </trkpt>
      <trkpt lat="43.748" lon="1.53689">
        <ele>261.466061</ele>
        <time>2022-08-10T08:00:27.109Z</time>
      </trkpt>
      <trkpt lat="43.7481" lon="1.537">
        <ele>262.094935</ele>
        <time>2022-08-10T08:00:30.095Z</time>
      </trkpt>
      <trkpt lat="43.74821" lon="1.5371">
        <ele>262.74203</ele>
        <time>2022-08-10T08:00:33.131Z</time>
      </trkpt>
      <trkpt lat="43.74831" lon="1.5372">
        <ele>263.374431</ele>
        <time>2022-08-10T08:00:36.126Z</time>
      </trkpt>
      <trkpt lat="43.74842" lon="1.53729">
        <ele>263.999886</ele>
        <time>2022-08-10T08:00:39.113Z</time>
      </trkpt>
      <trkpt lat="43.74851" lon="1.53738">
        <ele>264.56643</ele>
        <time>2022-08-10T08:00:42.111Z</time>
      </trkpt>
      <trkpt lat="43.74862" lon="1.53731">
        <ele>265.163936</ele>
        <time>2022-08-10T08:00:47.110Z</time>
      </trkpt>
      <trkpt lat="43.74865" lon="1.53713">
        <ele>265.830342</ele>
        <time>2022-08-10T08:00:50.121Z</time>
      </trkpt>
      <trkpt lat="43.74868" lon="1.53699">
        <ele>266.360337</ele>
        <time>2022-08-10T08:00:52.129Z</time>
      </trkpt>
      <trkpt lat="43.74871" lon="1.53684">
        <ele>266.923679</ele>
        <time>2022-08-10T08:00:54.138Z</time>
      </trkpt>
      <trkpt lat="43.74874" lon="1.53669">
        <ele>267.497492</ele>
        <time>2022-08-10T08:00:56.122Z</time>
      </trkpt>
      <trkpt lat="43.74878" lon="1.53653">
        <ele>268.089313</ele>
        <time>2022-08-10T08:00:58.120Z</time>
      </trkpt>
      <trkpt lat="43.74881" lon="1.53638">
        <ele>268.677097</ele>
        <time>2022-08-10T08:01:00.120Z</time>
      </trkpt>
      <trkpt lat="43.74884" lon="1.53622">
        <ele>269.02772</ele>
        <time>2022-08-10T08:01:02.165Z</time>
      </trkpt>
      <trkpt lat="43.74888" lon="1.53606">
        <ele>268.787268</ele>
        <time>2022-08-10T08:01:04.161Z</time>
      </trkpt>
      <trkpt lat="43.74891" lon="1.5359">
        <ele>268.546516</ele>
        <time>2022-08-10T08:01:06.128Z</time>
      </trkpt>
      <trkpt lat="43.74894" lon="1.53574">
        <ele>268.304115</ele>
        <time>2022-08-10T08:01:08.105Z</time>
      </trkpt>
      <trkpt lat="43.74898" lon="1.53558">
        <ele>268.057787</ele>
        <time>2022-08-10T08:01:10.127Z</time>
      </trkpt>
      <trkpt lat="43.74902" lon="1.53542">
        <ele>267.807002</ele>
        <time>2022-08-10T08:01:12.116Z</time>
      </trkpt>
      <trkpt lat="43.74907" lon="1.53526">
        <ele>267.551328</ele>
        <time>2022-08-10T08:01:14.147Z</time>
      </trkpt>
      <trkpt lat="43.74913" lon="1.5351">
        <ele>267.288707</ele>
        <time>2022-08-10T08:01:16.114Z</time>
      </trkpt>
      <trkpt lat="43.74919" lon="1.53494">
        <ele>267.024526</ele>
        <time>2022-08-10T08:01:18.120Z</time>
      </trkpt>
      <trkpt lat="43.74927" lon="1.53479">
        <ele>266.759734</ele>
        <time>2022-08-10T08:01:20.113Z</time>
      </trkpt>
      <trkpt lat="43.74933" lon="1.53464">
        <ele>266.50883</ele>
        <time>2022-08-10T08:01:22.157Z</time>
      </trkpt>
      <trkpt lat="43.74945" lon="1.53467">
        <ele>266.260671</ele>
        <time>2022-08-10T08:01:25.116Z</time>
      </trkpt>
      <trkpt lat="43.7495" lon="1.53481">
        <ele>266.044402</ele>
        <time>2022-08-10T08:01:27.125Z</time>
      </trkpt>
      <trkpt lat="43.74954" lon="1.53496">
        <ele>265.812363</ele>
        <time>2022-08-10T08:01:29.145Z</time>
      </trkpt>
      <trkpt lat="43.7496" lon="1.53511">
        <ele>265.562098</ele>
        <time>2022-08-10T08:01:31.136Z</time>
      </trkpt>
      <trkpt lat="43.74966" lon="1.53528">
        <ele>265.002861</ele>
        <time>2022-08-10T08:01:33.114Z</time>
      </trkpt>
      <trkpt lat="43.74972" lon="1.53545">
        <ele>264.258482</ele>
        <time>2022-08-10T08:01:35.120Z</time>
      </trkpt>
      <trkpt lat="43.74979" lon="1.53563">
        <ele>263.485749</ele>
        <time>2022-08-10T08:01:37.129Z</time>
      </trkpt>
      <trkpt lat="43.74985" lon="1.53582">
        <ele>262.72111</ele>
        <time>2022-08-10T08:01:39.148Z</time>
      </trkpt>
      <trkpt lat="43.74991" lon="1.53599">
        <ele>262.005586</ele>
        <time>2022-08-10T08:01:41.146Z</time>
      </trkpt>
      <trkpt lat="43.74997" lon="1.53615">
        <ele>261.313635</ele>
        <time>2022-08-10T08:01:43.111Z</time>
      </trkpt>
      <trkpt lat="43.75004" lon="1.53629">
        <ele>260.659136</ele>
        <time>2022-08-10T08:01:45.103Z</time>
      </trkpt>
      <trkpt lat="43.75012" lon="1.53642">
        <ele>260.01858</ele>
        <time>2022-08-10T08:01:47.115Z</time>
      </trkpt>
      <trkpt lat="43.7502" lon="1.53654">
        <ele>259.392044</ele>
        <time>2022-08-10T08:01:49.119Z</time>
      </trkpt>
      <trkpt lat="43.75028" lon="1.53667">
        <ele>258.748965</ele>
        <time>2022-08-10T08:01:51.129Z</time>
      </trkpt>
      <trkpt lat="43.75038" lon="1.5368">
        <ele>258.037289</ele>
        <time>2022-08-10T08:01:53.096Z</time>
      </trkpt>
      <trkpt lat="43.7505" lon="1.53694">
        <ele>257.244682</ele>
        <time>2022-08-10T08:01:55.138Z</time>
      </trkpt>
      <trkpt lat="43.75063" lon="1.5371">
        <ele>256.319739</ele>
        <time>2022-08-10T08:01:57.110Z</time>
      </trkpt>
      <trkpt lat="43.7507" lon="1.53719">
        <ele>255.465225</ele>
        <time>2022-08-10T08:01:58.154Z</time>
      </trkpt>
      <trkpt lat="43.75078" lon="1.53728">
        <ele>254.105393</ele>
        <time>2022-08-10T08:01:59.115Z</time>
      </trkpt>
      <trkpt lat="43.75087" lon="1.53738">
        <ele>252.648769</ele>
        <time>2022-08-10T08:02:00.095Z</time>
      </trkpt>
      <trkpt lat="43.75096" lon="1.53749">
        <ele>251.078128</ele>
        <time>2022-08-10T08:02:01.118Z</time>
      </trkpt>
      <trkpt lat="43.75106" lon="1.5376">
        <ele>249.456219</ele>
        <time>2022-08-10T08:02:02.132Z</time>
      </trkpt>
      <trkpt lat="43.75116" lon="1.53773">
        <ele>247.752309</ele>
        <time>2022-08-10T08:02:03.129Z</time>
      </trkpt>
      <trkpt lat="43.75125" lon="1.53784">
        <ele>246.180272</ele>
        <time>2022-08-10T08:02:04.120Z</time>
      </trkpt>
      <trkpt lat="43.75134" lon="1.53795">
        <ele>244.699174</ele>
        <time>2022-08-10T08:02:05.128Z</time>
      </trkpt>
      <trkpt lat="43.75143" lon="1.53804">
        <ele>243.238178</ele>
        <time>2022-08-10T08:02:06.109Z</time>
      </trkpt>
      <trkpt lat="43.75152" lon="1.53814">
        <ele>241.758245</ele>
        <time>2022-08-10T08:02:07.132Z</time>
      </trkpt>
      <trkpt lat="43.75161" lon="1.53822">
        <ele>240.37312</ele>
        <time>2022-08-10T08:02:08.119Z</time>
      </trkpt>
      <trkpt lat="43.75169" lon="1.53829">
        <ele>239.191214</ele>
        <time>2022-08-10T08:02:09.104Z</time>
      </trkpt>
      <trkpt lat="43.75184" lon="1.53842">
        <ele>236.897766</ele>
        <time>2022-08-10T08:02:11.118Z</time>
      </trkpt>
      <trkpt lat="43.75198" lon="1.53854">
        <ele>234.771573</ele>
        <time>2022-08-10T08:02:13.122Z</time>
      </trkpt>
      <trkpt lat="43.75215" lon="1.53866">
        <ele>232.617271</ele>
        <time>2022-08-10T08:02:15.138Z</time>
      </trkpt>
      <trkpt lat="43.75223" lon="1.53873">
        <ele>231.834985</ele>
        <time>2022-08-10T08:02:16.134Z</time>
      </trkpt>
      <trkpt lat="43.7523" lon="1.53882">
        <ele>231.014456</ele>
        <time>2022-08-10T08:02:17.141Z</time>
      </trkpt>
      <trkpt lat="43.75237" lon="1.53892">
        <ele>230.21392</ele>
        <time>2022-08-10T08:02:18.125Z</time>
      </trkpt>
      <trkpt lat="43.75242" lon="1.53903">
        <ele>229.381175</ele>
        <time>2022-08-10T08:02:19.130Z</time>
      </trkpt>
      <trkpt lat="43.75248" lon="1.53916">
        <ele>228.52686</ele>
        <time>2022-08-10T08:02:20.134Z</time>
      </trkpt>
      <trkpt lat="43.75253" lon="1.53927">
        <ele>227.72688</ele>
        <time>2022-08-10T08:02:21.154Z</time>
      </trkpt>
      <trkpt lat="43.75258" lon="1.53938">
        <ele>226.940745</ele>
        <time>2022-08-10T08:02:22.097Z</time>
      </trkpt>
      <trkpt lat="43.75263" lon="1.53949">
        <ele>226.179844</ele>
        <time>2022-08-10T08:02:23.097Z</time>
      </trkpt>
      <trkpt lat="43.75269" lon="1.5396">
        <ele>225.347102</ele>
        <time>2022-08-10T08:02:24.117Z</time>
      </trkpt>
      <trkpt lat="43.75274" lon="1.53972">
        <ele>224.523122</ele>
        <time>2022-08-10T08:02:25.105Z</time>
      </trkpt>
      <trkpt lat="43.75278" lon="1.53984">
        <ele>223.719608</ele>
        <time>2022-08-10T08:02:26.107Z</time>
      </trkpt>
      <trkpt lat="43.75282" lon="1.53995">
        <ele>222.964581</ele>
        <time>2022-08-10T08:02:27.137Z</time>
      </trkpt>
      <trkpt lat="43.75285" lon="1.54008">
        <ele>222.164935</ele>
        <time>2022-08-10T08:02:28.168Z</time>
      </trkpt>
      <trkpt lat="43.75287" lon="1.54022">
        <ele>221.331697</ele>
        <time>2022-08-10T08:02:29.114Z</time>
      </trkpt>
      <trkpt lat="43.75287" lon="1.54036">
        <ele>220.480596</ele>
        <time>2022-08-10T08:02:30.128Z</time>
      </trkpt>
      <trkpt lat="43.75288" lon="1.5405">
        <ele>219.631745</ele>
        <time>2022-08-10T08:02:31.121Z</time>
      </trkpt>
      <trkpt lat="43.75287" lon="1.54064">
        <ele>218.805756</ele>
        <time>2022-08-10T08:02:32.139Z</time>
      </trkpt>
      <trkpt lat="43.75286" lon="1.54078">
        <ele>218.169431</ele>
        <time>2022-08-10T08:02:33.153Z</time>
      </trkpt>
      <trkpt lat="43.75284" lon="1.5409">
        <ele>218.363405</ele>
        <time>2022-08-10T08:02:34.154Z</time>
      </trkpt>
      <trkpt lat="43.75283" lon="1.54102">
        <ele>218.557073</ele>
        <time>2022-08-10T08:02:35.093Z</time>
      </trkpt>
      <trkpt lat="43.75287" lon="1.54125">
        <ele>218.922928</ele>
        <time>2022-08-10T08:02:37.135Z</time>
      </trkpt>
      <trkpt lat="43.75292" lon="1.54146">
        <ele>219.259182</ele>
        <time>2022-08-10T08:02:39.124Z</time>
      </trkpt>
      <trkpt lat="43.75298" lon="1.54163">
        <ele>219.53902</ele>
        <time>2022-08-10T08:02:41.114Z</time>
      </trkpt>
      <trkpt lat="43.75303" lon="1.54178">
        <ele>219.791536</ele>
        <time>2022-08-10T08:02:43.150Z</time>
      </trkpt>
      <trkpt lat="43.75308" lon="1.54191">
        <ele>220.024867</ele>
        <time>2022-08-10T08:02:45.127Z</time>
      </trkpt>
      <trkpt lat="43.75314" lon="1.54203">
        <ele>220.257551</ele>
        <time>2022-08-10T08:02:47.128Z</time>
      </trkpt>
      <trkpt lat="43.7532" lon="1.54215">
        <ele>220.485995</ele>
        <time>2022-08-10T08:02:49.139Z</time>
      </trkpt>
      <trkpt lat="43.75328" lon="1.54227">
        <ele>220.719735</ele>
        <time>2022-08-10T08:02:51.103Z</time>
      </trkpt>
      <trkpt lat="43.75335" lon="1.54237">
        <ele>220.941723</ele>
        <time>2022-08-10T08:02:53.114Z</time>
      </trkpt>
      <trkpt lat="43.75343" lon="1.54245">
        <ele>221.149694</ele>
        <time>2022-08-10T08:02:55.115Z</time>
      </trkpt>
      <trkpt lat="43.75353" lon="1.54257">
        <ele>221.425573</ele>
        <time>2022-08-10T08:02:58.130Z</time>
      </trkpt>
      <trkpt lat="43.75356" lon="1.54271">
        <ele>221.657262</ele>
        <time>2022-08-10T08:03:01.108Z</time>
      </trkpt>
      <trkpt lat="43.75353" lon="1.54286">
        <ele>221.893819</ele>
        <time>2022-08-10T08:03:04.137Z</time>
      </trkpt>
      <trkpt lat="43.7535" lon="1.54299">
        <ele>222.312138</ele>
        <time>2022-08-10T08:03:07.118Z</time>
      </trkpt>
      <trkpt lat="43.75347" lon="1.54313">
        <ele>222.832266</ele>
        <time>2022-08-10T08:03:10.119Z</time>
      </trkpt>
      <trkpt lat="43.75342" lon="1.54325">
        <ele>223.361295</ele>
        <time>2022-08-10T08:03:13.115Z</time>
      </trkpt>
      <trkpt lat="43.75338" lon="1.54338">
        <ele>223.877052</ele>
        <time>2022-08-10T08:03:16.110Z</time>
      </trkpt>
      <trkpt lat="43.75333" lon="1.5435">
        <ele>224.393592</ele>
        <time>2022-08-10T08:03:19.100Z</time>
      </trkpt>
      <trkpt lat="43.75328" lon="1.54362">
        <ele>224.924026</ele>
        <time>2022-08-10T08:03:22.102Z</time>
      </trkpt>
      <trkpt lat="43.75322" lon="1.54375">
        <ele>225.483952</ele>
        <time>2022-08-10T08:03:25.117Z</time>
      </trkpt>
      <trkpt lat="43.75316" lon="1.54389">
        <ele>226.078475</ele>
        <time>2022-08-10T08:03:28.108Z</time>
      </trkpt>
      <trkpt lat="43.7531" lon="1.54403">
        <ele>226.680087</ele>
        <time>2022-08-10T08:03:31.113Z</time>
      </trkpt>
      <trkpt lat="43.75304" lon="1.54416">
        <ele>227.280427</ele>
        <time>2022-08-10T08:03:34.097Z</time>
      </trkpt>
      <trkpt lat="43.75299" lon="1.5443">
        <ele>227.855055</ele>
        <time>2022-08-10T08:03:37.096Z</time>
      </trkpt>
      <trkpt lat="43.75294" lon="1.54444">
        <ele>228.444567</ele>
        <time>2022-08-10T08:03:40.110Z</time>
      </trkpt>
      <trkpt lat="43.7529" lon="1.54459">
        <ele>229.015505</ele>
        <time>2022-08-10T08:03:43.098Z</time>
      </trkpt>
      <trkpt lat="43.7529" lon="1.54474">
        <ele>229.585323</ele>
        <time>2022-08-10T08:03:46.116Z</time>
      </trkpt>
      <trkpt lat="43.75291" lon="1.5449">
        <ele>230.180611</ele>
        <time>2022-08-10T08:03:49.107Z</time>
      </trkpt>
      <trkpt lat="43.75293" lon="1.54505">
        <ele>230.768079</ele>
        <time>2022-08-10T08:03:52.115Z</time>
      </trkpt>
      <trkpt lat="43.75295" lon="1.54521">
        <ele>231.162299</ele>
        <time>2022-08-10T08:03:55.110Z</time>
      </trkpt>
      <trkpt lat="43.75297" lon="1.54537">
        <ele>230.785136</ele>
        <time>2022-08-10T08:03:58.104Z</time>
      </trkpt>
      <trkpt lat="43.75299" lon="1.54553">
        <ele>230.410761</ele>
        <time>2022-08-10T08:04:01.140Z</time>
      </trkpt>
      <trkpt lat="43.75301" lon="1.54569">
        <ele>230.039336</ele>
        <time>2022-08-10T08:04:04.098Z</time>
      </trkpt>
      <trkpt lat="43.75304" lon="1.54585">
        <ele>229.667641</ele>
        <time>2022-08-10T08:04:07.104Z</time>
      </trkpt>
      <trkpt lat="43.75307" lon="1.546">
        <ele>229.293574</ele>
        <time>2022-08-10T08:04:10.100Z</time>
      </trkpt>
      <trkpt lat="43.75311" lon="1.54616">
        <ele>228.908678</ele>
        <time>2022-08-10T08:04:13.105Z</time>
      </trkpt>
      <trkpt lat="43.75316" lon="1.54632">
        <ele>228.510108</ele>
        <time>2022-08-10T08:04:16.112Z</time>
      </trkpt>
      <trkpt lat="43.75323" lon="1.54647">
        <ele>228.09447</ele>
        <time>2022-08-10T08:04:19.096Z</time>
      </trkpt>
      <trkpt lat="43.75328" lon="1.54658">
        <ele>227.78896</ele>
        <time>2022-08-10T08:04:21.104Z</time>
      </trkpt>
      <trkpt lat="43.75334" lon="1.5467">
        <ele>227.442193</ele>
        <time>2022-08-10T08:04:23.108Z</time>
      </trkpt>
      <trkpt lat="43.75342" lon="1.54685">
        <ele>227.029765</ele>
        <time>2022-08-10T08:04:25.109Z</time>
      </trkpt>
      <trkpt lat="43.7535" lon="1.54702">
        <ele>226.554854</ele>
        <time>2022-08-10T08:04:27.111Z</time>
      </trkpt>
      <trkpt lat="43.75358" lon="1.5472">
        <ele>226.066512</ele>
        <time>2022-08-10T08:04:29.103Z</time>
      </trkpt>
      <trkpt lat="43.75367" lon="1.54736">
        <ele>225.580272</ele>
        <time>2022-08-10T08:04:31.097Z</time>
      </trkpt>
      <trkpt lat="43.7538" lon="1.54749">
        <ele>224.343223</ele>
        <time>2022-08-10T08:04:33.116Z</time>
      </trkpt>
      <trkpt lat="43.75395" lon="1.54759">
        <ele>222.854493</ele>
        <time>2022-08-10T08:04:35.100Z</time>
      </trkpt>
      <trkpt lat="43.75404" lon="1.54764">
        <ele>222.033343</ele>
        <time>2022-08-10T08:04:36.110Z</time>
      </trkpt>
      <trkpt lat="43.75412" lon="1.54771">
        <ele>221.180151</ele>
        <time>2022-08-10T08:04:37.118Z</time>
      </trkpt>
      <trkpt lat="43.7542" lon="1.5478">
        <ele>220.304368</ele>
        <time>2022-08-10T08:04:38.107Z</time>
      </trkpt>
      <trkpt lat="43.75426" lon="1.5479">
        <ele>219.422017</ele>
        <time>2022-08-10T08:04:39.098Z</time>
      </trkpt>
      <trkpt lat="43.75432" lon="1.54802">
        <ele>218.505548</ele>
        <time>2022-08-10T08:04:40.122Z</time>
      </trkpt>
      <trkpt lat="43.75438" lon="1.54814">
        <ele>217.568402</ele>
        <time>2022-08-10T08:04:41.106Z</time>
      </trkpt>
      <trkpt lat="43.75445" lon="1.54826">
        <ele>216.610413</ele>
        <time>2022-08-10T08:04:42.109Z</time>
      </trkpt>
      <trkpt lat="43.75451" lon="1.54838">
        <ele>215.652246</ele>
        <time>2022-08-10T08:04:43.114Z</time>
      </trkpt>
      <trkpt lat="43.75458" lon="1.54849">
        <ele>214.70456</ele>
        <time>2022-08-10T08:04:44.096Z</time>
      </trkpt>
      <trkpt lat="43.75464" lon="1.54862">
        <ele>213.741407</ele>
        <time>2022-08-10T08:04:45.084Z</time>
      </trkpt>
      <trkpt lat="43.75469" lon="1.54874">
        <ele>212.785814</ele>
        <time>2022-08-10T08:04:46.086Z</time>
      </trkpt>
      <trkpt lat="43.75474" lon="1.54888">
        <ele>211.814696</ele>
        <time>2022-08-10T08:04:47.088Z</time>
      </trkpt>
      <trkpt lat="43.75477" lon="1.54902">
        <ele>210.864531</ele>
        <time>2022-08-10T08:04:48.116Z</time>
      </trkpt>
      <trkpt lat="43.75479" lon="1.54917">
        <ele>209.917504</ele>
        <time>2022-08-10T08:04:49.094Z</time>
      </trkpt>
      <trkpt lat="43.75482" lon="1.5493">
        <ele>209.46179</ele>
        <time>2022-08-10T08:04:50.103Z</time>
      </trkpt>
      <trkpt lat="43.75486" lon="1.54943">
        <ele>209.408299</ele>
        <time>2022-08-10T08:04:51.090Z</time>
      </trkpt>
      <trkpt lat="43.7549" lon="1.54956">
        <ele>209.352928</ele>
        <time>2022-08-10T08:04:52.125Z</time>
      </trkpt>
      <trkpt lat="43.75495" lon="1.54968">
        <ele>209.298902</ele>
        <time>2022-08-10T08:04:53.104Z</time>
      </trkpt>
      <trkpt lat="43.755" lon="1.54979">
        <ele>209.247426</ele>
        <time>2022-08-10T08:04:54.103Z</time>
      </trkpt>
      <trkpt lat="43.75508" lon="1.54994">
        <ele>209.176018</ele>
        <time>2022-08-10T08:04:56.116Z</time>
      </trkpt>
      <trkpt lat="43.75512" lon="1.55007">
        <ele>209.122718</ele>
        <time>2022-08-10T08:04:59.110Z</time>
      </trkpt>
      <trkpt lat="43.75504" lon="1.55018">
        <ele>209.062884</ele>
        <time>2022-08-10T08:05:02.123Z</time>
      </trkpt>
      <trkpt lat="43.75498" lon="1.55027">
        <ele>209.013927</ele>
        <time>2022-08-10T08:05:04.120Z</time>
      </trkpt>
      <trkpt lat="43.75496" lon="1.55045">
        <ele>208.943031</ele>
        <time>2022-08-10T08:05:07.102Z</time>
      </trkpt>
      <trkpt lat="43.75501" lon="1.55057">
        <ele>208.888244</ele>
        <time>2022-08-10T08:05:09.114Z</time>
      </trkpt>
      <trkpt lat="43.75509" lon="1.55068">
        <ele>208.830712</ele>
        <time>2022-08-10T08:05:11.133Z</time>
      </trkpt>
      <trkpt lat="43.75516" lon="1.55079">
        <ele>208.77347</ele>
        <time>2022-08-10T08:05:13.094Z</time>
      </trkpt>
      <trkpt lat="43.75522" lon="1.5509">
        <ele>208.717981</ele>
        <time>2022-08-10T08:05:15.137Z</time>
      </trkpt>
      <trkpt lat="43.75528" lon="1.55101">
        <ele>208.664495</ele>
        <time>2022-08-10T08:05:17.105Z</time>
      </trkpt>
      <trkpt lat="43.75534" lon="1.55111">
        <ele>208.614392</ele>
        <time>2022-08-10T08:05:19.100Z</time>
      </trkpt>
      <trkpt lat="43.75541" lon="1.55124">
        <ele>208.551796</ele>
        <time>2022-08-10T08:05:22.138Z</time>
      </trkpt>
      <trkpt lat="43.75547" lon="1.55136">
        <ele>209.161738</ele>
        <time>2022-08-10T08:05:25.143Z</time>
      </trkpt>
      <trkpt lat="43.75552" lon="1.55149">
        <ele>210.423751</ele>
        <time>2022-08-10T08:05:28.135Z</time>
      </trkpt>
      <trkpt lat="43.75555" lon="1.55163">
        <ele>211.636464</ele>
        <time>2022-08-10T08:05:31.142Z</time>
      </trkpt>
      <trkpt lat="43.75556" lon="1.55175">
        <ele>212.737467</ele>
        <time>2022-08-10T08:05:34.110Z</time>
      </trkpt>
      <trkpt lat="43.75556" lon="1.55189">
        <ele>213.8605</ele>
        <time>2022-08-10T08:05:37.128Z</time>
      </trkpt>
      <trkpt lat="43.75557" lon="1.55201">
        <ele>214.948388</ele>
        <time>2022-08-10T08:05:40.102Z</time>
      </trkpt>
      <trkpt lat="43.7556" lon="1.55213">
        <ele>216.017185</ele>
        <time>2022-08-10T08:05:43.100Z</time>
      </trkpt>
      <trkpt lat="43.75566" lon="1.55228">
        <ele>217.420991</ele>
        <time>2022-08-10T08:05:47.135Z</time>
      </trkpt>
      <trkpt lat="43.75571" lon="1.55239">
        <ele>218.532511</ele>
        <time>2022-08-10T08:05:50.126Z</time>
      </trkpt>
      <trkpt lat="43.75576" lon="1.5525">
        <ele>219.623358</ele>
        <time>2022-08-10T08:05:53.122Z</time>
      </trkpt>
      <trkpt lat="43.75581" lon="1.5526">
        <ele>220.727729</ele>
        <time>2022-08-10T08:05:56.147Z</time>
      </trkpt>
      <trkpt lat="43.75588" lon="1.55274">
        <ele>222.134639</ele>
        <time>2022-08-10T08:06:00.089Z</time>
      </trkpt>
      <trkpt lat="43.75593" lon="1.55284">
        <ele>223.196372</ele>
        <time>2022-08-10T08:06:03.113Z</time>
      </trkpt>
      <trkpt lat="43.756" lon="1.55297">
        <ele>224.575083</ele>
        <time>2022-08-10T08:06:07.141Z</time>
      </trkpt>
      <trkpt lat="43.75607" lon="1.5531">
        <ele>225.891749</ele>
        <time>2022-08-10T08:06:12.101Z</time>
      </trkpt>
      <trkpt lat="43.75615" lon="1.5532">
        <ele>227.18955</ele>
        <time>2022-08-10T08:06:16.121Z</time>
      </trkpt>
      <trkpt lat="43.75621" lon="1.55332">
        <ele>228.389488</ele>
        <time>2022-08-10T08:06:20.113Z</time>
      </trkpt>
      <trkpt lat="43.75628" lon="1.55342">
        <ele>229.641086</ele>
        <time>2022-08-10T08:06:24.113Z</time>
      </trkpt>
      <trkpt lat="43.75635" lon="1.55353">
        <ele>230.079666</ele>
        <time>2022-08-10T08:06:28.098Z</time>
      </trkpt>
      <trkpt lat="43.75642" lon="1.55364">
        <ele>230.496579</ele>
        <time>2022-08-10T08:06:32.125Z</time>
      </trkpt>
      <trkpt lat="43.7565" lon="1.55376">
        <ele>230.952263</ele>
        <time>2022-08-10T08:06:36.115Z</time>
      </trkpt>
      <trkpt lat="43.75657" lon="1.55386">
        <ele>231.320144</ele>
        <time>2022-08-10T08:06:39.107Z</time>
      </trkpt>
      <trkpt lat="43.75664" lon="1.55395">
        <ele>231.720531</ele>
        <time>2022-08-10T08:06:42.143Z</time>
      </trkpt>
      <trkpt lat="43.75672" lon="1.55405">
        <ele>232.135137</ele>
        <time>2022-08-10T08:06:45.096Z</time>
      </trkpt>
      <trkpt lat="43.7568" lon="1.55417">
        <ele>232.586815</ele>
        <time>2022-08-10T08:06:48.152Z</time>
      </trkpt>
      <trkpt lat="43.75686" lon="1.5543">
        <ele>233.010203</ele>
        <time>2022-08-10T08:06:51.116Z</time>
      </trkpt>
      <trkpt lat="43.75687" lon="1.55444">
        <ele>233.397524</ele>
        <time>2022-08-10T08:06:54.103Z</time>
      </trkpt>
      <trkpt lat="43.75683" lon="1.55458">
        <ele>233.820817</ele>
        <time>2022-08-10T08:06:58.125Z</time>
      </trkpt>
      <trkpt lat="43.75675" lon="1.55465">
        <ele>234.17848</ele>
        <time>2022-08-10T08:07:01.096Z</time>
      </trkpt>
      <trkpt lat="43.75664" lon="1.55472">
        <ele>234.633465</ele>
        <time>2022-08-10T08:07:04.122Z</time>
      </trkpt>
      <trkpt lat="43.75653" lon="1.5548">
        <ele>235.116481</ele>
        <time>2022-08-10T08:07:07.121Z</time>
      </trkpt>
      <trkpt lat="43.75643" lon="1.5549">
        <ele>235.601438</ele>
        <time>2022-08-10T08:07:10.115Z</time>
      </trkpt>
      <trkpt lat="43.75635" lon="1.55503">
        <ele>236.072715</ele>
        <time>2022-08-10T08:07:13.103Z</time>
      </trkpt>
      <trkpt lat="43.75629" lon="1.55517">
        <ele>236.528076</ele>
        <time>2022-08-10T08:07:16.138Z</time>
      </trkpt>
      <trkpt lat="43.75626" lon="1.55532">
        <ele>236.118793</ele>
        <time>2022-08-10T08:07:19.119Z</time>
      </trkpt>
      <trkpt lat="43.75632" lon="1.55542">
        <ele>235.502547</ele>
        <time>2022-08-10T08:07:21.120Z</time>
      </trkpt>
      <trkpt lat="43.75641" lon="1.55555">
        <ele>234.657177</ele>
        <time>2022-08-10T08:07:23.119Z</time>
      </trkpt>
      <trkpt lat="43.7565" lon="1.55573">
        <ele>233.613105</ele>
        <time>2022-08-10T08:07:25.116Z</time>
      </trkpt>
      <trkpt lat="43.75661" lon="1.55592">
        <ele>232.44172</ele>
        <time>2022-08-10T08:07:27.110Z</time>
      </trkpt>
      <trkpt lat="43.75667" lon="1.55602">
        <ele>231.819686</ele>
        <time>2022-08-10T08:07:28.147Z</time>
      </trkpt>
      <trkpt lat="43.75675" lon="1.5561">
        <ele>231.175987</ele>
        <time>2022-08-10T08:07:29.125Z</time>
      </trkpt>
      <trkpt lat="43.75684" lon="1.55615">
        <ele>230.516289</ele>
        <time>2022-08-10T08:07:30.118Z</time>
      </trkpt>
      <trkpt lat="43.75694" lon="1.55619">
        <ele>229.842898</ele>
        <time>2022-08-10T08:07:31.126Z</time>
      </trkpt>
      <trkpt lat="43.75704" lon="1.55622">
        <ele>229.148024</ele>
        <time>2022-08-10T08:07:32.131Z</time>
      </trkpt>
      <trkpt lat="43.75715" lon="1.55625">
        <ele>228.432786</ele>
        <time>2022-08-10T08:07:33.135Z</time>
      </trkpt>
      <trkpt lat="43.75726" lon="1.55628">
        <ele>227.710096</ele>
        <time>2022-08-10T08:07:34.152Z</time>
      </trkpt>
      <trkpt lat="43.75737" lon="1.55633">
        <ele>226.957808</ele>
        <time>2022-08-10T08:07:35.146Z</time>
      </trkpt>
      <trkpt lat="43.75748" lon="1.55639">
        <ele>226.185167</ele>
        <time>2022-08-10T08:07:36.121Z</time>
      </trkpt>
      <trkpt lat="43.75758" lon="1.55644">
        <ele>225.44232</ele>
        <time>2022-08-10T08:07:37.116Z</time>
      </trkpt>
      <trkpt lat="43.75768" lon="1.55651">
        <ele>224.748144</ele>
        <time>2022-08-10T08:07:38.117Z</time>
      </trkpt>
      <trkpt lat="43.75778" lon="1.55658">
        <ele>224.522314</ele>
        <time>2022-08-10T08:07:39.122Z</time>
      </trkpt>
      <trkpt lat="43.75788" lon="1.55665">
        <ele>224.294155</ele>
        <time>2022-08-10T08:07:40.103Z</time>
      </trkpt>
      <trkpt lat="43.75797" lon="1.55671">
        <ele>224.07656</ele>
        <time>2022-08-10T08:07:41.144Z</time>
      </trkpt>
      <trkpt lat="43.75807" lon="1.55677">
        <ele>223.864094</ele>
        <time>2022-08-10T08:07:42.108Z</time>
      </trkpt>
      <trkpt lat="43.75816" lon="1.55683">
        <ele>223.650397</ele>
        <time>2022-08-10T08:07:43.114Z</time>
      </trkpt>
      <trkpt lat="43.75825" lon="1.55689">
        <ele>223.440829</ele>
        <time>2022-08-10T08:07:44.114Z</time>
      </trkpt>
      <trkpt lat="43.75834" lon="1.55696">
        <ele>223.230566</ele>
        <time>2022-08-10T08:07:45.105Z</time>
      </trkpt>
      <trkpt lat="43.75843" lon="1.55702">
        <ele>223.023029</ele>
        <time>2022-08-10T08:07:46.089Z</time>
      </trkpt>
      <trkpt lat="43.75852" lon="1.55708">
        <ele>222.821169</ele>
        <time>2022-08-10T08:07:47.124Z</time>
      </trkpt>
      <trkpt lat="43.75861" lon="1.55714">
        <ele>222.620592</ele>
        <time>2022-08-10T08:07:48.121Z</time>
      </trkpt>
      <trkpt lat="43.75869" lon="1.55719">
        <ele>222.428739</ele>
        <time>2022-08-10T08:07:49.122Z</time>
      </trkpt>
      <trkpt lat="43.75877" lon="1.55725">
        <ele>222.241823</ele>
        <time>2022-08-10T08:07:50.091Z</time>
      </trkpt>
      <trkpt lat="43.75893" lon="1.55736">
        <ele>221.88169</ele>
        <time>2022-08-10T08:07:52.112Z</time>
      </trkpt>
      <trkpt lat="43.75907" lon="1.55747">
        <ele>221.54134</ele>
        <time>2022-08-10T08:07:54.123Z</time>
      </trkpt>
      <trkpt lat="43.75921" lon="1.55758">
        <ele>221.216602</ele>
        <time>2022-08-10T08:07:56.130Z</time>
      </trkpt>
      <trkpt lat="43.75934" lon="1.55768">
        <ele>220.949456</ele>
        <time>2022-08-10T08:07:58.117Z</time>
      </trkpt>
      <trkpt lat="43.75946" lon="1.55779">
        <ele>220.731052</ele>
        <time>2022-08-10T08:08:00.111Z</time>
      </trkpt>
      <trkpt lat="43.75959" lon="1.5579">
        <ele>220.514581</ele>
        <time>2022-08-10T08:08:02.117Z</time>
      </trkpt>
      <trkpt lat="43.75971" lon="1.55801">
        <ele>220.294353</ele>
        <time>2022-08-10T08:08:04.156Z</time>
      </trkpt>
      <trkpt lat="43.75984" lon="1.55813">
        <ele>220.06882</ele>
        <time>2022-08-10T08:08:06.126Z</time>
      </trkpt>
      <trkpt lat="43.75996" lon="1.55828">
        <ele>219.83483</ele>
        <time>2022-08-10T08:08:08.123Z</time>
      </trkpt>
      <trkpt lat="43.76006" lon="1.55844">
        <ele>219.598091</ele>
        <time>2022-08-10T08:08:10.128Z</time>
      </trkpt>
      <trkpt lat="43.76014" lon="1.55863">
        <ele>219.360637</ele>
        <time>2022-08-10T08:08:12.113Z</time>
      </trkpt>
      <trkpt lat="43.76022" lon="1.55883">
        <ele>219.123649</ele>
        <time>2022-08-10T08:08:14.113Z</time>
      </trkpt>
      <trkpt lat="43.7603" lon="1.55902">
        <ele>218.887371</ele>
        <time>2022-08-10T08:08:16.111Z</time>
      </trkpt>
      <trkpt lat="43.76038" lon="1.55921">
        <ele>218.654688</ele>
        <time>2022-08-10T08:08:18.127Z</time>
      </trkpt>
      <trkpt lat="43.76046" lon="1.55938">
        <ele>218.427243</ele>
        <time>2022-08-10T08:08:20.121Z</time>
      </trkpt>
      <trkpt lat="43.76057" lon="1.55955">
        <ele>218.231176</ele>
        <time>2022-08-10T08:08:22.113Z</time>
      </trkpt>
      <trkpt lat="43.76068" lon="1.5597">
        <ele>218.040784</ele>
        <time>2022-08-10T08:08:24.118Z</time>
      </trkpt>
      <trkpt lat="43.76079" lon="1.55984">
        <ele>217.850203</ele>
        <time>2022-08-10T08:08:26.129Z</time>
      </trkpt>
      <trkpt lat="43.76091" lon="1.55999">
        <ele>217.659026</ele>
        <time>2022-08-10T08:08:28.115Z</time>
      </trkpt>
      <trkpt lat="43.76102" lon="1.56013">
        <ele>217.465695</ele>
        <time>2022-08-10T08:08:30.120Z</time>
      </trkpt>
      <trkpt lat="43.76114" lon="1.56028">
        <ele>217.2721</ele>
        <time>2022-08-10T08:08:32.112Z</time>
      </trkpt>
      <trkpt lat="43.76126" lon="1.56041">
        <ele>217.080737</ele>
        <time>2022-08-10T08:08:34.105Z</time>
      </trkpt>
      <trkpt lat="43.76137" lon="1.56056">
        <ele>216.893766</ele>
        <time>2022-08-10T08:08:36.112Z</time>
      </trkpt>
      <trkpt lat="43.76148" lon="1.56069">
        <ele>216.709488</ele>
        <time>2022-08-10T08:08:38.107Z</time>
      </trkpt>
      <trkpt lat="43.76159" lon="1.56083">
        <ele>216.533341</ele>
        <time>2022-08-10T08:08:40.110Z</time>
      </trkpt>
      <trkpt lat="43.76169" lon="1.56096">
        <ele>216.36202</ele>
        <time>2022-08-10T08:08:42.118Z</time>
      </trkpt>
      <trkpt lat="43.76178" lon="1.5611">
        <ele>216.197619</ele>
        <time>2022-08-10T08:08:44.119Z</time>
      </trkpt>
      <trkpt lat="43.76187" lon="1.56123">
        <ele>216.17591</ele>
        <time>2022-08-10T08:08:46.130Z</time>
      </trkpt>
      <trkpt lat="43.76196" lon="1.56135">
        <ele>216.16642</ele>
        <time>2022-08-10T08:08:48.176Z</time>
      </trkpt>
      <trkpt lat="43.76207" lon="1.56144">
        <ele>216.157151</ele>
        <time>2022-08-10T08:08:50.114Z</time>
      </trkpt>
      <trkpt lat="43.76216" lon="1.56153">
        <ele>216.1488</ele>
        <time>2022-08-10T08:08:52.145Z</time>
      </trkpt>
      <trkpt lat="43.7622" lon="1.56166">
        <ele>216.141091</ele>
        <time>2022-08-10T08:08:54.133Z</time>
      </trkpt>
      <trkpt lat="43.7622" lon="1.56181">
        <ele>216.132896</ele>
        <time>2022-08-10T08:08:56.116Z</time>
      </trkpt>
      <trkpt lat="43.76219" lon="1.56197">
        <ele>216.124428</ele>
        <time>2022-08-10T08:08:58.114Z</time>
      </trkpt>
      <trkpt lat="43.76219" lon="1.56213">
        <ele>216.116016</ele>
        <time>2022-08-10T08:09:00.095Z</time>
      </trkpt>
      <trkpt lat="43.7622" lon="1.56228">
        <ele>216.107602</ele>
        <time>2022-08-10T08:09:02.100Z</time>
      </trkpt>
      <trkpt lat="43.7622" lon="1.56244">
        <ele>216.099081</ele>
        <time>2022-08-10T08:09:04.107Z</time>
      </trkpt>
      <trkpt lat="43.76221" lon="1.5626">
        <ele>216.090546</ele>
        <time>2022-08-10T08:09:06.113Z</time>
      </trkpt>
      <trkpt lat="43.76221" lon="1.56276">
        <ele>216.081865</ele>
        <time>2022-08-10T08:09:08.090Z</time>
      </trkpt>
      <trkpt lat="43.76221" lon="1.56292">
        <ele>216.073237</ele>
        <time>2022-08-10T08:09:10.121Z</time>
      </trkpt>
      <trkpt lat="43.76221" lon="1.56308">
        <ele>216.064608</ele>
        <time>2022-08-10T08:09:12.114Z</time>
      </trkpt>
      <trkpt lat="43.76221" lon="1.56324">
        <ele>216.055916</ele>
        <time>2022-08-10T08:09:14.134Z</time>
      </trkpt>
      <trkpt lat="43.76219" lon="1.56341">
        <ele>216.058186</ele>
        <time>2022-08-10T08:09:16.133Z</time>
      </trkpt>
      <trkpt lat="43.76219" lon="1.56358">
        <ele>216.076927</ele>
        <time>2022-08-10T08:09:18.110Z</time>
      </trkpt>
      <trkpt lat="43.76219" lon="1.56375">
        <ele>216.095564</ele>
        <time>2022-08-10T08:09:20.118Z</time>
      </trkpt>
      <trkpt lat="43.76219" lon="1.56392">
        <ele>216.113979</ele>
        <time>2022-08-10T08:09:22.127Z</time>
      </trkpt>
      <trkpt lat="43.7622" lon="1.56409">
        <ele>216.132082</ele>
        <time>2022-08-10T08:09:24.125Z</time>
      </trkpt>
      <trkpt lat="43.7622" lon="1.56425">
        <ele>216.149852</ele>
        <time>2022-08-10T08:09:26.120Z</time>
      </trkpt>
      <trkpt lat="43.76221" lon="1.56441">
        <ele>216.16752</ele>
        <time>2022-08-10T08:09:28.127Z</time>
      </trkpt>
      <trkpt lat="43.76221" lon="1.56458">
        <ele>216.185086</ele>
        <time>2022-08-10T08:09:30.128Z</time>
      </trkpt>
      <trkpt lat="43.76222" lon="1.56474">
        <ele>216.202753</ele>
        <time>2022-08-10T08:09:32.108Z</time>
      </trkpt>
      <trkpt lat="43.76222" lon="1.5649">
        <ele>216.22042</ele>
        <time>2022-08-10T08:09:34.116Z</time>
      </trkpt>
      <trkpt lat="43.76223" lon="1.56506">
        <ele>216.238088</ele>
        <time>2022-08-10T08:09:36.130Z</time>
      </trkpt>
      <trkpt lat="43.76223" lon="1.56523">
        <ele>216.256206</ele>
        <time>2022-08-10T08:09:38.133Z</time>
      </trkpt>
      <trkpt lat="43.76224" lon="1.56539">
        <ele>216.274098</ele>
        <time>2022-08-10T08:09:40.154Z</time>
      </trkpt>
      <trkpt lat="43.76224" lon="1.56555">
        <ele>216.291859</ele>
        <time>2022-08-10T08:09:42.127Z</time>
      </trkpt>
      <trkpt lat="43.76222" lon="1.56572">
        <ele>216.309655</ele>
        <time>2022-08-10T08:09:44.105Z</time>
      </trkpt>
      <trkpt lat="43.7622" lon="1.56585">
        <ele>216.342952</ele>
        <time>2022-08-10T08:09:46.096Z</time>
      </trkpt>
      <trkpt lat="43.76216" lon="1.56598">
        <ele>216.442558</ele>
        <time>2022-08-10T08:09:49.112Z</time>
      </trkpt>
      <trkpt lat="43.76213" lon="1.56612">
        <ele>216.549519</ele>
        <time>2022-08-10T08:09:53.109Z</time>
      </trkpt>
      <trkpt lat="43.76211" lon="1.56627">
        <ele>216.658409</ele>
        <time>2022-08-10T08:10:00.090Z</time>
      </trkpt>
      <trkpt lat="43.76213" lon="1.56639">
        <ele>216.751023</ele>
        <time>2022-08-10T08:10:04.126Z</time>
      </trkpt>
      <trkpt lat="43.76226" lon="1.5615">
        <ele>218.056937</ele>
        <time>2022-08-10T09:30:15.152Z</time>
      </trkpt>
      <trkpt lat="43.76214" lon="1.56145">
        <ele>218.136346</ele>
        <time>2022-08-10T09:30:17.217Z</time>
      </trkpt>
      <trkpt lat="43.76204" lon="1.56138">
        <ele>218.2161</ele>
        <time>2022-08-10T09:30:19.137Z</time>
      </trkpt>
      <trkpt lat="43.76195" lon="1.56128">
        <ele>218.295507</ele>
        <time>2022-08-10T09:30:21.141Z</time>
      </trkpt>
      <trkpt lat="43.76186" lon="1.56116">
        <ele>218.374613</ele>
        <time>2022-08-10T09:30:23.126Z</time>
      </trkpt>
      <trkpt lat="43.76178" lon="1.56104">
        <ele>218.451975</ele>
        <time>2022-08-10T09:30:25.136Z</time>
      </trkpt>
      <trkpt lat="43.7617" lon="1.56093">
        <ele>218.530615</ele>
        <time>2022-08-10T09:30:27.129Z</time>
      </trkpt>
      <trkpt lat="43.76162" lon="1.56082">
        <ele>218.609934</ele>
        <time>2022-08-10T09:30:29.112Z</time>
      </trkpt>
      <trkpt lat="43.76153" lon="1.56071">
        <ele>218.689121</ele>
        <time>2022-08-10T09:30:31.125Z</time>
      </trkpt>
      <trkpt lat="43.76144" lon="1.5606">
        <ele>218.768124</ele>
        <time>2022-08-10T09:30:33.127Z</time>
      </trkpt>
      <trkpt lat="43.76135" lon="1.56049">
        <ele>218.847449</ele>
        <time>2022-08-10T09:30:35.109Z</time>
      </trkpt>
      <trkpt lat="43.76127" lon="1.56038">
        <ele>218.925126</ele>
        <time>2022-08-10T09:30:37.131Z</time>
      </trkpt>
      <trkpt lat="43.76118" lon="1.56028">
        <ele>219.002346</ele>
        <time>2022-08-10T09:30:39.150Z</time>
      </trkpt>
      <trkpt lat="43.76109" lon="1.56017">
        <ele>219.172228</ele>
        <time>2022-08-10T09:30:41.136Z</time>
      </trkpt>
      <trkpt lat="43.76101" lon="1.56007">
        <ele>219.361745</ele>
        <time>2022-08-10T09:30:43.113Z</time>
      </trkpt>
      <trkpt lat="43.76092" lon="1.55997">
        <ele>219.549221</ele>
        <time>2022-08-10T09:30:45.124Z</time>
      </trkpt>
      <trkpt lat="43.76084" lon="1.55986">
        <ele>219.737147</ele>
        <time>2022-08-10T09:30:47.120Z</time>
      </trkpt>
      <trkpt lat="43.76076" lon="1.55976">
        <ele>219.924195</ele>
        <time>2022-08-10T09:30:49.138Z</time>
      </trkpt>
      <trkpt lat="43.76067" lon="1.55965">
        <ele>220.113693</ele>
        <time>2022-08-10T09:30:51.113Z</time>
      </trkpt>
      <trkpt lat="43.76059" lon="1.55954">
        <ele>220.30212</ele>
        <time>2022-08-10T09:30:53.109Z</time>
      </trkpt>
      <trkpt lat="43.76051" lon="1.55942">
        <ele>220.493701</ele>
        <time>2022-08-10T09:30:55.120Z</time>
      </trkpt>
      <trkpt lat="43.76044" lon="1.5593">
        <ele>220.683946</ele>
        <time>2022-08-10T09:30:57.116Z</time>
      </trkpt>
      <trkpt lat="43.76038" lon="1.55917">
        <ele>220.874158</ele>
        <time>2022-08-10T09:30:59.118Z</time>
      </trkpt>
      <trkpt lat="43.76032" lon="1.55903">
        <ele>221.065821</ele>
        <time>2022-08-10T09:31:01.145Z</time>
      </trkpt>
      <trkpt lat="43.76027" lon="1.55889">
        <ele>221.260229</ele>
        <time>2022-08-10T09:31:03.123Z</time>
      </trkpt>
      <trkpt lat="43.76021" lon="1.55875">
        <ele>221.454637</ele>
        <time>2022-08-10T09:31:05.119Z</time>
      </trkpt>
      <trkpt lat="43.76015" lon="1.5586">
        <ele>221.648253</ele>
        <time>2022-08-10T09:31:07.135Z</time>
      </trkpt>
      <trkpt lat="43.7601" lon="1.55847">
        <ele>221.83597</ele>
        <time>2022-08-10T09:31:09.123Z</time>
      </trkpt>
      <trkpt lat="43.76003" lon="1.55834">
        <ele>222.015867</ele>
        <time>2022-08-10T09:31:11.129Z</time>
      </trkpt>
      <trkpt lat="43.75996" lon="1.55823">
        <ele>222.118197</ele>
        <time>2022-08-10T09:31:13.143Z</time>
      </trkpt>
      <trkpt lat="43.75987" lon="1.55813">
        <ele>222.221291</ele>
        <time>2022-08-10T09:31:15.112Z</time>
      </trkpt>
      <trkpt lat="43.75978" lon="1.55803">
        <ele>222.323007</ele>
        <time>2022-08-10T09:31:17.140Z</time>
      </trkpt>
      <trkpt lat="43.75969" lon="1.55795">
        <ele>222.424629</ele>
        <time>2022-08-10T09:31:19.125Z</time>
      </trkpt>
      <trkpt lat="43.7596" lon="1.55787">
        <ele>222.526356</ele>
        <time>2022-08-10T09:31:21.106Z</time>
      </trkpt>
      <trkpt lat="43.7595" lon="1.55779">
        <ele>222.628792</ele>
        <time>2022-08-10T09:31:23.121Z</time>
      </trkpt>
      <trkpt lat="43.75941" lon="1.55771">
        <ele>222.73174</ele>
        <time>2022-08-10T09:31:25.129Z</time>
      </trkpt>
      <trkpt lat="43.75931" lon="1.55762">
        <ele>222.837293</ele>
        <time>2022-08-10T09:31:27.128Z</time>
      </trkpt>
      <trkpt lat="43.75921" lon="1.55754">
        <ele>222.944078</ele>
        <time>2022-08-10T09:31:29.126Z</time>
      </trkpt>
      <trkpt lat="43.75911" lon="1.55746">
        <ele>223.052116</ele>
        <time>2022-08-10T09:31:31.126Z</time>
      </trkpt>
      <trkpt lat="43.759" lon="1.55738">
        <ele>223.161428</ele>
        <time>2022-08-10T09:31:33.145Z</time>
      </trkpt>
      <trkpt lat="43.7589" lon="1.5573">
        <ele>223.273158</ele>
        <time>2022-08-10T09:31:35.120Z</time>
      </trkpt>
      <trkpt lat="43.75879" lon="1.55722">
        <ele>223.386111</ele>
        <time>2022-08-10T09:31:37.131Z</time>
      </trkpt>
      <trkpt lat="43.75868" lon="1.55715">
        <ele>223.499594</ele>
        <time>2022-08-10T09:31:39.145Z</time>
      </trkpt>
      <trkpt lat="43.75857" lon="1.55707">
        <ele>223.611429</ele>
        <time>2022-08-10T09:31:41.184Z</time>
      </trkpt>
      <trkpt lat="43.75846" lon="1.557">
        <ele>223.945929</ele>
        <time>2022-08-10T09:31:43.120Z</time>
      </trkpt>
      <trkpt lat="43.75836" lon="1.55693">
        <ele>224.472204</ele>
        <time>2022-08-10T09:31:45.141Z</time>
      </trkpt>
      <trkpt lat="43.75826" lon="1.55686">
        <ele>224.994388</ele>
        <time>2022-08-10T09:31:47.126Z</time>
      </trkpt>
      <trkpt lat="43.75816" lon="1.55679">
        <ele>225.51249</ele>
        <time>2022-08-10T09:31:49.163Z</time>
      </trkpt>
      <trkpt lat="43.75806" lon="1.55672">
        <ele>226.029105</ele>
        <time>2022-08-10T09:31:51.121Z</time>
      </trkpt>
      <trkpt lat="43.75795" lon="1.55665">
        <ele>226.538541</ele>
        <time>2022-08-10T09:31:53.118Z</time>
      </trkpt>
      <trkpt lat="43.75786" lon="1.55659">
        <ele>227.044022</ele>
        <time>2022-08-10T09:31:55.139Z</time>
      </trkpt>
      <trkpt lat="43.75775" lon="1.55652">
        <ele>227.558999</ele>
        <time>2022-08-10T09:31:57.139Z</time>
      </trkpt>
      <trkpt lat="43.75765" lon="1.55645">
        <ele>228.070047</ele>
        <time>2022-08-10T09:31:59.140Z</time>
      </trkpt>
      <trkpt lat="43.75755" lon="1.55639">
        <ele>228.5781</ele>
        <time>2022-08-10T09:32:01.133Z</time>
      </trkpt>
      <trkpt lat="43.75746" lon="1.55632">
        <ele>229.059897</ele>
        <time>2022-08-10T09:32:03.132Z</time>
      </trkpt>
      <trkpt lat="43.75736" lon="1.55628">
        <ele>229.514823</ele>
        <time>2022-08-10T09:32:05.148Z</time>
      </trkpt>
      <trkpt lat="43.75727" lon="1.55624">
        <ele>229.955886</ele>
        <time>2022-08-10T09:32:07.137Z</time>
      </trkpt>
      <trkpt lat="43.75718" lon="1.55621">
        <ele>230.396381</ele>
        <time>2022-08-10T09:32:09.130Z</time>
      </trkpt>
      <trkpt lat="43.75709" lon="1.55619">
        <ele>230.814989</ele>
        <time>2022-08-10T09:32:11.128Z</time>
      </trkpt>
      <trkpt lat="43.75696" lon="1.55615">
        <ele>231.415622</ele>
        <time>2022-08-10T09:32:14.105Z</time>
      </trkpt>
      <trkpt lat="43.75683" lon="1.55611">
        <ele>231.973427</ele>
        <time>2022-08-10T09:32:17.146Z</time>
      </trkpt>
      <trkpt lat="43.75672" lon="1.55601">
        <ele>232.366698</ele>
        <time>2022-08-10T09:32:20.142Z</time>
      </trkpt>
      <trkpt lat="43.75663" lon="1.55589">
        <ele>232.738529</ele>
        <time>2022-08-10T09:32:23.138Z</time>
      </trkpt>
      <trkpt lat="43.75656" lon="1.55576">
        <ele>233.102783</ele>
        <time>2022-08-10T09:32:26.094Z</time>
      </trkpt>
      <trkpt lat="43.75649" lon="1.55562">
        <ele>233.467138</ele>
        <time>2022-08-10T09:32:29.163Z</time>
      </trkpt>
      <trkpt lat="43.75641" lon="1.55549">
        <ele>233.834089</ele>
        <time>2022-08-10T09:32:32.153Z</time>
      </trkpt>
      <trkpt lat="43.75633" lon="1.55537">
        <ele>234.193934</ele>
        <time>2022-08-10T09:32:35.129Z</time>
      </trkpt>
      <trkpt lat="43.75628" lon="1.55522">
        <ele>234.547801</ele>
        <time>2022-08-10T09:32:38.131Z</time>
      </trkpt>
      <trkpt lat="43.75635" lon="1.55509">
        <ele>234.913835</ele>
        <time>2022-08-10T09:32:41.135Z</time>
      </trkpt>
      <trkpt lat="43.75642" lon="1.55496">
        <ele>235.255449</ele>
        <time>2022-08-10T09:32:44.118Z</time>
      </trkpt>
      <trkpt lat="43.75648" lon="1.55487">
        <ele>235.532842</ele>
        <time>2022-08-10T09:32:46.165Z</time>
      </trkpt>
      <trkpt lat="43.75657" lon="1.55478">
        <ele>235.844607</ele>
        <time>2022-08-10T09:32:48.140Z</time>
      </trkpt>
      <trkpt lat="43.75667" lon="1.55471">
        <ele>236.192795</ele>
        <time>2022-08-10T09:32:50.140Z</time>
      </trkpt>
      <trkpt lat="43.75677" lon="1.55464">
        <ele>236.540131</ele>
        <time>2022-08-10T09:32:52.148Z</time>
      </trkpt>
      <trkpt lat="43.75686" lon="1.55459">
        <ele>236.828051</ele>
        <time>2022-08-10T09:32:54.151Z</time>
      </trkpt>
      <trkpt lat="43.75691" lon="1.55446">
        <ele>237.144578</ele>
        <time>2022-08-10T09:32:57.161Z</time>
      </trkpt>
      <trkpt lat="43.75688" lon="1.55434">
        <ele>237.014204</ele>
        <time>2022-08-10T09:32:59.133Z</time>
      </trkpt>
      <trkpt lat="43.75683" lon="1.55423">
        <ele>236.103614</ele>
        <time>2022-08-10T09:33:01.114Z</time>
      </trkpt>
      <trkpt lat="43.75678" lon="1.5541">
        <ele>235.066774</ele>
        <time>2022-08-10T09:33:03.096Z</time>
      </trkpt>
      <trkpt lat="43.75671" lon="1.55399">
        <ele>234.036811</ele>
        <time>2022-08-10T09:33:05.128Z</time>
      </trkpt>
      <trkpt lat="43.75661" lon="1.55388">
        <ele>232.817761</ele>
        <time>2022-08-10T09:33:07.109Z</time>
      </trkpt>
      <trkpt lat="43.75652" lon="1.55377">
        <ele>231.637245</ele>
        <time>2022-08-10T09:33:09.126Z</time>
      </trkpt>
      <trkpt lat="43.75643" lon="1.55362">
        <ele>230.310265</ele>
        <time>2022-08-10T09:33:11.112Z</time>
      </trkpt>
      <trkpt lat="43.75634" lon="1.55348">
        <ele>228.969364</ele>
        <time>2022-08-10T09:33:13.115Z</time>
      </trkpt>
      <trkpt lat="43.75623" lon="1.55332">
        <ele>227.474858</ele>
        <time>2022-08-10T09:33:15.122Z</time>
      </trkpt>
      <trkpt lat="43.75614" lon="1.55318">
        <ele>226.168433</ele>
        <time>2022-08-10T09:33:17.229Z</time>
      </trkpt>
      <trkpt lat="43.75608" lon="1.55308">
        <ele>225.213823</ele>
        <time>2022-08-10T09:33:20.101Z</time>
      </trkpt>
      <trkpt lat="43.75601" lon="1.55299">
        <ele>224.333652</ele>
        <time>2022-08-10T09:33:23.118Z</time>
      </trkpt>
      <trkpt lat="43.75596" lon="1.55288">
        <ele>223.397517</ele>
        <time>2022-08-10T09:33:25.108Z</time>
      </trkpt>
      <trkpt lat="43.75587" lon="1.55273">
        <ele>222.099982</ele>
        <time>2022-08-10T09:33:27.128Z</time>
      </trkpt>
      <trkpt lat="43.75578" lon="1.55254">
        <ele>220.520395</ele>
        <time>2022-08-10T09:33:29.117Z</time>
      </trkpt>
      <trkpt lat="43.75573" lon="1.55244">
        <ele>219.750017</ele>
        <time>2022-08-10T09:33:30.121Z</time>
      </trkpt>
      <trkpt lat="43.75568" lon="1.55232">
        <ele>219.092148</ele>
        <time>2022-08-10T09:33:31.137Z</time>
      </trkpt>
      <trkpt lat="43.75563" lon="1.55221">
        <ele>218.407026</ele>
        <time>2022-08-10T09:33:32.124Z</time>
      </trkpt>
      <trkpt lat="43.75559" lon="1.55208">
        <ele>217.696185</ele>
        <time>2022-08-10T09:33:33.107Z</time>
      </trkpt>
      <trkpt lat="43.75555" lon="1.55194">
        <ele>216.953313</ele>
        <time>2022-08-10T09:33:34.118Z</time>
      </trkpt>
      <trkpt lat="43.75555" lon="1.55178">
        <ele>216.154652</ele>
        <time>2022-08-10T09:33:35.123Z</time>
      </trkpt>
      <trkpt lat="43.75554" lon="1.55162">
        <ele>215.370722</ele>
        <time>2022-08-10T09:33:36.119Z</time>
      </trkpt>
      <trkpt lat="43.75554" lon="1.55147">
        <ele>214.621495</ele>
        <time>2022-08-10T09:33:37.120Z</time>
      </trkpt>
      <trkpt lat="43.75549" lon="1.55134">
        <ele>213.90194</ele>
        <time>2022-08-10T09:33:38.123Z</time>
      </trkpt>
      <trkpt lat="43.75543" lon="1.55122">
        <ele>213.169501</ele>
        <time>2022-08-10T09:33:39.153Z</time>
      </trkpt>
      <trkpt lat="43.75537" lon="1.5511">
        <ele>212.408484</ele>
        <time>2022-08-10T09:33:40.166Z</time>
      </trkpt>
      <trkpt lat="43.75529" lon="1.55098">
        <ele>211.594426</ele>
        <time>2022-08-10T09:33:41.139Z</time>
      </trkpt>
      <trkpt lat="43.75522" lon="1.55086">
        <ele>210.848196</ele>
        <time>2022-08-10T09:33:42.143Z</time>
      </trkpt>
      <trkpt lat="43.75515" lon="1.55075">
        <ele>210.112686</ele>
        <time>2022-08-10T09:33:43.103Z</time>
      </trkpt>
      <trkpt lat="43.75509" lon="1.55064">
        <ele>209.40655</ele>
        <time>2022-08-10T09:33:44.116Z</time>
      </trkpt>
      <trkpt lat="43.75503" lon="1.55054">
        <ele>208.762046</ele>
        <time>2022-08-10T09:33:45.129Z</time>
      </trkpt>
      <trkpt lat="43.75496" lon="1.55039">
        <ele>207.85612</ele>
        <time>2022-08-10T09:33:47.120Z</time>
      </trkpt>
      <trkpt lat="43.75501" lon="1.55024">
        <ele>207.973501</ele>
        <time>2022-08-10T09:33:50.163Z</time>
      </trkpt>
      <trkpt lat="43.75509" lon="1.55014">
        <ele>208.51762</ele>
        <time>2022-08-10T09:33:52.132Z</time>
      </trkpt>
      <trkpt lat="43.75513" lon="1.54999">
        <ele>209.111776</ele>
        <time>2022-08-10T09:33:54.128Z</time>
      </trkpt>
      <trkpt lat="43.75508" lon="1.54988">
        <ele>209.587629</ele>
        <time>2022-08-10T09:33:56.174Z</time>
      </trkpt>
      <trkpt lat="43.75502" lon="1.54978">
        <ele>210.07661</ele>
        <time>2022-08-10T09:33:58.129Z</time>
      </trkpt>
      <trkpt lat="43.75496" lon="1.54967">
        <ele>210.599311</ele>
        <time>2022-08-10T09:34:00.123Z</time>
      </trkpt>
      <trkpt lat="43.7549" lon="1.54955">
        <ele>211.12656</ele>
        <time>2022-08-10T09:34:02.133Z</time>
      </trkpt>
      <trkpt lat="43.75486" lon="1.54942">
        <ele>211.654551</ele>
        <time>2022-08-10T09:34:04.170Z</time>
      </trkpt>
      <trkpt lat="43.75482" lon="1.5493">
        <ele>212.171355</ele>
        <time>2022-08-10T09:34:06.172Z</time>
      </trkpt>
      <trkpt lat="43.75479" lon="1.54917">
        <ele>212.658355</ele>
        <time>2022-08-10T09:34:08.145Z</time>
      </trkpt>
      <trkpt lat="43.75477" lon="1.54905">
        <ele>213.134621</ele>
        <time>2022-08-10T09:34:10.122Z</time>
      </trkpt>
      <trkpt lat="43.75475" lon="1.54893">
        <ele>213.612215</ele>
        <time>2022-08-10T09:34:12.146Z</time>
      </trkpt>
      <trkpt lat="43.75471" lon="1.5488">
        <ele>214.102278</ele>
        <time>2022-08-10T09:34:14.157Z</time>
      </trkpt>
      <trkpt lat="43.75467" lon="1.54869">
        <ele>214.575321</ele>
        <time>2022-08-10T09:34:16.142Z</time>
      </trkpt>
      <trkpt lat="43.7546" lon="1.54854">
        <ele>215.262673</ele>
        <time>2022-08-10T09:34:19.145Z</time>
      </trkpt>
      <trkpt lat="43.75452" lon="1.54839">
        <ele>215.952505</ele>
        <time>2022-08-10T09:34:22.131Z</time>
      </trkpt>
      <trkpt lat="43.75444" lon="1.54825">
        <ele>216.630521</ele>
        <time>2022-08-10T09:34:25.137Z</time>
      </trkpt>
      <trkpt lat="43.75437" lon="1.5481">
        <ele>217.582873</ele>
        <time>2022-08-10T09:34:28.109Z</time>
      </trkpt>
      <trkpt lat="43.7543" lon="1.54796">
        <ele>218.698348</ele>
        <time>2022-08-10T09:34:31.125Z</time>
      </trkpt>
      <trkpt lat="43.75422" lon="1.54783">
        <ele>219.750742</ele>
        <time>2022-08-10T09:34:34.150Z</time>
      </trkpt>
      <trkpt lat="43.75415" lon="1.54772">
        <ele>220.757579</ele>
        <time>2022-08-10T09:34:37.129Z</time>
      </trkpt>
      <trkpt lat="43.75406" lon="1.54764">
        <ele>221.744975</ele>
        <time>2022-08-10T09:34:40.122Z</time>
      </trkpt>
      <trkpt lat="43.75397" lon="1.54759">
        <ele>222.603727</ele>
        <time>2022-08-10T09:34:43.143Z</time>
      </trkpt>
      <trkpt lat="43.75388" lon="1.54754">
        <ele>223.456655</ele>
        <time>2022-08-10T09:34:46.149Z</time>
      </trkpt>
      <trkpt lat="43.75378" lon="1.54746">
        <ele>224.513428</ele>
        <time>2022-08-10T09:34:50.122Z</time>
      </trkpt>
      <trkpt lat="43.75369" lon="1.54737">
        <ele>225.504459</ele>
        <time>2022-08-10T09:34:54.140Z</time>
      </trkpt>
      <trkpt lat="43.75362" lon="1.54726">
        <ele>226.491947</ele>
        <time>2022-08-10T09:34:58.125Z</time>
      </trkpt>
      <trkpt lat="43.75356" lon="1.54713">
        <ele>227.451968</ele>
        <time>2022-08-10T09:35:02.141Z</time>
      </trkpt>
      <trkpt lat="43.7535" lon="1.54702">
        <ele>228.377653</ele>
        <time>2022-08-10T09:35:06.136Z</time>
      </trkpt>
      <trkpt lat="43.75344" lon="1.54688">
        <ele>229.410521</ele>
        <time>2022-08-10T09:35:10.187Z</time>
      </trkpt>
      <trkpt lat="43.75338" lon="1.54676">
        <ele>230.394649</ele>
        <time>2022-08-10T09:35:14.126Z</time>
      </trkpt>
      <trkpt lat="43.75332" lon="1.54663">
        <ele>231.420917</ele>
        <time>2022-08-10T09:35:18.137Z</time>
      </trkpt>
      <trkpt lat="43.75326" lon="1.54652">
        <ele>232.309008</ele>
        <time>2022-08-10T09:35:21.126Z</time>
      </trkpt>
      <trkpt lat="43.7532" lon="1.54638">
        <ele>233.090547</ele>
        <time>2022-08-10T09:35:24.153Z</time>
      </trkpt>
      <trkpt lat="43.75314" lon="1.54622">
        <ele>232.785972</ele>
        <time>2022-08-10T09:35:27.109Z</time>
      </trkpt>
      <trkpt lat="43.7531" lon="1.5461">
        <ele>232.565189</ele>
        <time>2022-08-10T09:35:29.132Z</time>
      </trkpt>
      <trkpt lat="43.75307" lon="1.54596">
        <ele>232.325565</ele>
        <time>2022-08-10T09:35:31.141Z</time>
      </trkpt>
      <trkpt lat="43.75304" lon="1.54581">
        <ele>232.067637</ele>
        <time>2022-08-10T09:35:33.198Z</time>
      </trkpt>
      <trkpt lat="43.75302" lon="1.54565">
        <ele>231.790589</ele>
        <time>2022-08-10T09:35:35.132Z</time>
      </trkpt>
      <trkpt lat="43.753" lon="1.54548">
        <ele>231.501654</ele>
        <time>2022-08-10T09:35:37.179Z</time>
      </trkpt>
      <trkpt lat="43.75298" lon="1.54531">
        <ele>231.205183</ele>
        <time>2022-08-10T09:35:39.117Z</time>
      </trkpt>
      <trkpt lat="43.75296" lon="1.54513">
        <ele>230.900995</ele>
        <time>2022-08-10T09:35:41.135Z</time>
      </trkpt>
      <trkpt lat="43.75293" lon="1.54495">
        <ele>230.600109</ele>
        <time>2022-08-10T09:35:43.117Z</time>
      </trkpt>
      <trkpt lat="43.75292" lon="1.54477">
        <ele>230.292359</ele>
        <time>2022-08-10T09:35:45.113Z</time>
      </trkpt>
      <trkpt lat="43.75292" lon="1.54458">
        <ele>229.980745</ele>
        <time>2022-08-10T09:35:47.132Z</time>
      </trkpt>
      <trkpt lat="43.75296" lon="1.5444">
        <ele>229.665243</ele>
        <time>2022-08-10T09:35:49.114Z</time>
      </trkpt>
      <trkpt lat="43.75302" lon="1.54423">
        <ele>229.346199</ele>
        <time>2022-08-10T09:35:51.126Z</time>
      </trkpt>
      <trkpt lat="43.75309" lon="1.54406">
        <ele>229.020975</ele>
        <time>2022-08-10T09:35:53.120Z</time>
      </trkpt>
      <trkpt lat="43.75316" lon="1.5439">
        <ele>228.355047</ele>
        <time>2022-08-10T09:35:55.120Z</time>
      </trkpt>
      <trkpt lat="43.75324" lon="1.54373">
        <ele>227.620066</ele>
        <time>2022-08-10T09:35:57.130Z</time>
      </trkpt>
      <trkpt lat="43.75331" lon="1.54356">
        <ele>226.893638</ele>
        <time>2022-08-10T09:35:59.120Z</time>
      </trkpt>
      <trkpt lat="43.75338" lon="1.54339">
        <ele>226.172942</ele>
        <time>2022-08-10T09:36:01.139Z</time>
      </trkpt>
      <trkpt lat="43.75344" lon="1.54322">
        <ele>225.448136</ele>
        <time>2022-08-10T09:36:03.125Z</time>
      </trkpt>
      <trkpt lat="43.7535" lon="1.54303">
        <ele>224.685319</ele>
        <time>2022-08-10T09:36:05.122Z</time>
      </trkpt>
      <trkpt lat="43.75354" lon="1.54283">
        <ele>223.908052</ele>
        <time>2022-08-10T09:36:07.137Z</time>
      </trkpt>
      <trkpt lat="43.75356" lon="1.54263">
        <ele>223.158005</ele>
        <time>2022-08-10T09:36:09.183Z</time>
      </trkpt>
      <trkpt lat="43.75347" lon="1.54248">
        <ele>222.423955</ele>
        <time>2022-08-10T09:36:11.116Z</time>
      </trkpt>
      <trkpt lat="43.75334" lon="1.54234">
        <ele>221.592483</ele>
        <time>2022-08-10T09:36:13.109Z</time>
      </trkpt>
      <trkpt lat="43.75323" lon="1.54219">
        <ele>220.759288</ele>
        <time>2022-08-10T09:36:15.125Z</time>
      </trkpt>
      <trkpt lat="43.75313" lon="1.54201">
        <ele>219.944707</ele>
        <time>2022-08-10T09:36:17.141Z</time>
      </trkpt>
      <trkpt lat="43.75305" lon="1.54183">
        <ele>220.074688</ele>
        <time>2022-08-10T09:36:19.130Z</time>
      </trkpt>
      <trkpt lat="43.75298" lon="1.54164">
        <ele>220.583652</ele>
        <time>2022-08-10T09:36:21.127Z</time>
      </trkpt>
      <trkpt lat="43.75292" lon="1.54145">
        <ele>221.080777</ele>
        <time>2022-08-10T09:36:23.130Z</time>
      </trkpt>
      <trkpt lat="43.75287" lon="1.54126">
        <ele>221.581233</ele>
        <time>2022-08-10T09:36:25.140Z</time>
      </trkpt>
      <trkpt lat="43.75284" lon="1.54107">
        <ele>222.046625</ele>
        <time>2022-08-10T09:36:27.141Z</time>
      </trkpt>
      <trkpt lat="43.75284" lon="1.5409">
        <ele>222.459768</ele>
        <time>2022-08-10T09:36:29.129Z</time>
      </trkpt>
      <trkpt lat="43.75286" lon="1.54075">
        <ele>222.841163</ele>
        <time>2022-08-10T09:36:31.150Z</time>
      </trkpt>
      <trkpt lat="43.75288" lon="1.5406">
        <ele>223.21303</ele>
        <time>2022-08-10T09:36:33.128Z</time>
      </trkpt>
      <trkpt lat="43.75288" lon="1.54045">
        <ele>223.58238</ele>
        <time>2022-08-10T09:36:35.149Z</time>
      </trkpt>
      <trkpt lat="43.75287" lon="1.5403">
        <ele>223.925356</ele>
        <time>2022-08-10T09:36:37.137Z</time>
      </trkpt>
      <trkpt lat="43.75286" lon="1.54017">
        <ele>224.250594</ele>
        <time>2022-08-10T09:36:39.152Z</time>
      </trkpt>
      <trkpt lat="43.75284" lon="1.54005">
        <ele>224.564019</ele>
        <time>2022-08-10T09:36:41.141Z</time>
      </trkpt>
      <trkpt lat="43.75282" lon="1.53992">
        <ele>224.879763</ele>
        <time>2022-08-10T09:36:43.138Z</time>
      </trkpt>
      <trkpt lat="43.75278" lon="1.53979">
        <ele>225.211494</ele>
        <time>2022-08-10T09:36:45.168Z</time>
      </trkpt>
      <trkpt lat="43.75274" lon="1.53967">
        <ele>225.548004</ele>
        <time>2022-08-10T09:36:47.142Z</time>
      </trkpt>
      <trkpt lat="43.75268" lon="1.53956">
        <ele>226.166944</ele>
        <time>2022-08-10T09:36:49.144Z</time>
      </trkpt>
      <trkpt lat="43.75262" lon="1.53944">
        <ele>227.307023</ele>
        <time>2022-08-10T09:36:51.139Z</time>
      </trkpt>
      <trkpt lat="43.75257" lon="1.53932">
        <ele>228.447102</ele>
        <time>2022-08-10T09:36:53.139Z</time>
      </trkpt>
      <trkpt lat="43.75252" lon="1.53921">
        <ele>229.497717</ele>
        <time>2022-08-10T09:36:55.181Z</time>
      </trkpt>
      <trkpt lat="43.75247" lon="1.5391">
        <ele>230.567846</ele>
        <time>2022-08-10T09:36:57.116Z</time>
      </trkpt>
      <trkpt lat="43.75241" lon="1.53898">
        <ele>231.656668</ele>
        <time>2022-08-10T09:36:59.129Z</time>
      </trkpt>
      <trkpt lat="43.75236" lon="1.53887">
        <ele>232.764372</ele>
        <time>2022-08-10T09:37:01.131Z</time>
      </trkpt>
      <trkpt lat="43.75229" lon="1.53877">
        <ele>233.790195</ele>
        <time>2022-08-10T09:37:03.130Z</time>
      </trkpt>
      <trkpt lat="43.75219" lon="1.53866">
        <ele>235.215318</ele>
        <time>2022-08-10T09:37:06.136Z</time>
      </trkpt>
      <trkpt lat="43.75209" lon="1.53858">
        <ele>236.553823</ele>
        <time>2022-08-10T09:37:09.108Z</time>
      </trkpt>
      <trkpt lat="43.75198" lon="1.53851">
        <ele>237.8932</ele>
        <time>2022-08-10T09:37:12.098Z</time>
      </trkpt>
      <trkpt lat="43.75187" lon="1.53844">
        <ele>239.206889</ele>
        <time>2022-08-10T09:37:15.129Z</time>
      </trkpt>
      <trkpt lat="43.75179" lon="1.53837">
        <ele>240.261508</ele>
        <time>2022-08-10T09:37:18.118Z</time>
      </trkpt>
      <trkpt lat="43.75171" lon="1.53828">
        <ele>241.489835</ele>
        <time>2022-08-10T09:37:22.145Z</time>
      </trkpt>
      <trkpt lat="43.7516" lon="1.5382">
        <ele>242.80496</ele>
        <time>2022-08-10T09:37:26.128Z</time>
      </trkpt>
      <trkpt lat="43.75153" lon="1.53813">
        <ele>243.801544</ele>
        <time>2022-08-10T09:37:29.125Z</time>
      </trkpt>
      <trkpt lat="43.75143" lon="1.53803">
        <ele>245.118278</ele>
        <time>2022-08-10T09:37:33.132Z</time>
      </trkpt>
      <trkpt lat="43.75135" lon="1.53794">
        <ele>246.246994</ele>
        <time>2022-08-10T09:37:37.137Z</time>
      </trkpt>
      <trkpt lat="43.75128" lon="1.53785">
        <ele>247.351436</ele>
        <time>2022-08-10T09:37:41.122Z</time>
      </trkpt>
      <trkpt lat="43.7512" lon="1.53775">
        <ele>248.448309</ele>
        <time>2022-08-10T09:37:45.121Z</time>
      </trkpt>
      <trkpt lat="43.75112" lon="1.53765">
        <ele>249.626137</ele>
        <time>2022-08-10T09:37:49.118Z</time>
      </trkpt>
      <trkpt lat="43.75103" lon="1.53755">
        <ele>250.819946</ele>
        <time>2022-08-10T09:37:53.133Z</time>
      </trkpt>
      <trkpt lat="43.75095" lon="1.53746">
        <ele>251.954823</ele>
        <time>2022-08-10T09:37:57.116Z</time>
      </trkpt>
      <trkpt lat="43.75087" lon="1.53736">
        <ele>253.080949</ele>
        <time>2022-08-10T09:38:01.118Z</time>
      </trkpt>
      <trkpt lat="43.75079" lon="1.53727">
        <ele>254.172735</ele>
        <time>2022-08-10T09:38:05.109Z</time>
      </trkpt>
      <trkpt lat="43.75071" lon="1.53718">
        <ele>255.303958</ele>
        <time>2022-08-10T09:38:09.102Z</time>
      </trkpt>
      <trkpt lat="43.75062" lon="1.53708">
        <ele>256.500783</ele>
        <time>2022-08-10T09:38:13.111Z</time>
      </trkpt>
      <trkpt lat="43.75054" lon="1.53698">
        <ele>257.613777</ele>
        <time>2022-08-10T09:38:17.081Z</time>
      </trkpt>
      <trkpt lat="43.75047" lon="1.5369">
        <ele>258.616679</ele>
        <time>2022-08-10T09:38:21.100Z</time>
      </trkpt>
      <trkpt lat="43.75041" lon="1.53682">
        <ele>259.582461</ele>
        <time>2022-08-10T09:38:25.108Z</time>
      </trkpt>
      <trkpt lat="43.75034" lon="1.53673">
        <ele>260.551067</ele>
        <time>2022-08-10T09:38:29.105Z</time>
      </trkpt>
      <trkpt lat="43.75026" lon="1.53663">
        <ele>261.692184</ele>
        <time>2022-08-10T09:38:33.113Z</time>
      </trkpt>
      <trkpt lat="43.75018" lon="1.53653">
        <ele>262.86765</ele>
        <time>2022-08-10T09:38:37.105Z</time>
      </trkpt>
      <trkpt lat="43.75012" lon="1.53642">
        <ele>263.971284</ele>
        <time>2022-08-10T09:38:40.122Z</time>
      </trkpt>
      <trkpt lat="43.75004" lon="1.53629">
        <ele>265.027096</ele>
        <time>2022-08-10T09:38:43.118Z</time>
      </trkpt>
      <trkpt lat="43.74997" lon="1.53616">
        <ele>265.366689</ele>
        <time>2022-08-10T09:38:46.107Z</time>
      </trkpt>
      <trkpt lat="43.74992" lon="1.536">
        <ele>265.728468</ele>
        <time>2022-08-10T09:38:49.117Z</time>
      </trkpt>
      <trkpt lat="43.74986" lon="1.53583">
        <ele>266.093974</ele>
        <time>2022-08-10T09:38:52.102Z</time>
      </trkpt>
      <trkpt lat="43.74981" lon="1.53567">
        <ele>266.441365</ele>
        <time>2022-08-10T09:38:55.124Z</time>
      </trkpt>
      <trkpt lat="43.74976" lon="1.5355">
        <ele>266.809844</ele>
        <time>2022-08-10T09:38:58.117Z</time>
      </trkpt>
      <trkpt lat="43.74971" lon="1.53535">
        <ele>267.162503</ele>
        <time>2022-08-10T09:39:01.092Z</time>
      </trkpt>
      <trkpt lat="43.74965" lon="1.53519">
        <ele>267.518175</ele>
        <time>2022-08-10T09:39:04.117Z</time>
      </trkpt>
      <trkpt lat="43.7496" lon="1.53503">
        <ele>267.870834</ele>
        <time>2022-08-10T09:39:07.136Z</time>
      </trkpt>
      <trkpt lat="43.74954" lon="1.53487">
        <ele>268.218669</ele>
        <time>2022-08-10T09:39:10.087Z</time>
      </trkpt>
      <trkpt lat="43.74948" lon="1.53471">
        <ele>268.586997</ele>
        <time>2022-08-10T09:39:13.123Z</time>
      </trkpt>
      <trkpt lat="43.74941" lon="1.53461">
        <ele>268.874749</ele>
        <time>2022-08-10T09:39:16.120Z</time>
      </trkpt>
      <trkpt lat="43.74931" lon="1.53466">
        <ele>269.168814</ele>
        <time>2022-08-10T09:39:20.123Z</time>
      </trkpt>
      <trkpt lat="43.74923" lon="1.53479">
        <ele>269.50453</ele>
        <time>2022-08-10T09:39:23.110Z</time>
      </trkpt>
      <trkpt lat="43.74916" lon="1.53494">
        <ele>269.875242</ele>
        <time>2022-08-10T09:39:26.116Z</time>
      </trkpt>
      <trkpt lat="43.74911" lon="1.53505">
        <ele>269.971264</ele>
        <time>2022-08-10T09:39:28.102Z</time>
      </trkpt>
      <trkpt lat="43.74907" lon="1.53516">
        <ele>269.941857</ele>
        <time>2022-08-10T09:39:30.093Z</time>
      </trkpt>
      <trkpt lat="43.74902" lon="1.53528">
        <ele>269.910629</ele>
        <time>2022-08-10T09:39:32.113Z</time>
      </trkpt>
      <trkpt lat="43.74899" lon="1.53542">
        <ele>269.878626</ele>
        <time>2022-08-10T09:39:34.105Z</time>
      </trkpt>
      <trkpt lat="43.74895" lon="1.53555">
        <ele>269.846084</ele>
        <time>2022-08-10T09:39:36.120Z</time>
      </trkpt>
      <trkpt lat="43.74892" lon="1.53569">
        <ele>269.812162</ele>
        <time>2022-08-10T09:39:38.106Z</time>
      </trkpt>
      <trkpt lat="43.74889" lon="1.53584">
        <ele>269.776665</ele>
        <time>2022-08-10T09:39:40.111Z</time>
      </trkpt>
      <trkpt lat="43.74886" lon="1.53599">
        <ele>269.741516</ele>
        <time>2022-08-10T09:39:42.119Z</time>
      </trkpt>
      <trkpt lat="43.74882" lon="1.53614">
        <ele>269.7058</ele>
        <time>2022-08-10T09:39:44.101Z</time>
      </trkpt>
      <trkpt lat="43.74879" lon="1.5363">
        <ele>269.669341</ele>
        <time>2022-08-10T09:39:46.120Z</time>
      </trkpt>
      <trkpt lat="43.74876" lon="1.53645">
        <ele>269.632309</ele>
        <time>2022-08-10T09:39:48.104Z</time>
      </trkpt>
      <trkpt lat="43.74873" lon="1.53661">
        <ele>269.595671</ele>
        <time>2022-08-10T09:39:50.112Z</time>
      </trkpt>
      <trkpt lat="43.74869" lon="1.53676">
        <ele>269.559124</ele>
        <time>2022-08-10T09:39:52.108Z</time>
      </trkpt>
      <trkpt lat="43.74866" lon="1.53692">
        <ele>269.522446</ele>
        <time>2022-08-10T09:39:54.114Z</time>
      </trkpt>
      <trkpt lat="43.74863" lon="1.53707">
        <ele>269.484937</ele>
        <time>2022-08-10T09:39:56.108Z</time>
      </trkpt>
      <trkpt lat="43.7486" lon="1.53723">
        <ele>269.447905</ele>
        <time>2022-08-10T09:39:58.108Z</time>
      </trkpt>
      <trkpt lat="43.74856" lon="1.53738">
        <ele>269.261174</ele>
        <time>2022-08-10T09:40:00.102Z</time>
      </trkpt>
      <trkpt lat="43.74846" lon="1.5374">
        <ele>268.62034</ele>
        <time>2022-08-10T09:40:03.114Z</time>
      </trkpt>
      <trkpt lat="43.74838" lon="1.53728">
        <ele>267.874247</ele>
        <time>2022-08-10T09:40:05.141Z</time>
      </trkpt>
      <trkpt lat="43.74827" lon="1.53716">
        <ele>267.004793</ele>
        <time>2022-08-10T09:40:07.113Z</time>
      </trkpt>
      <trkpt lat="43.74815" lon="1.53702">
        <ele>265.965146</ele>
        <time>2022-08-10T09:40:09.121Z</time>
      </trkpt>
      <trkpt lat="43.74807" lon="1.53694">
        <ele>265.378685</ele>
        <time>2022-08-10T09:40:10.100Z</time>
      </trkpt>
      <trkpt lat="43.748" lon="1.53685">
        <ele>264.771721</ele>
        <time>2022-08-10T09:40:11.121Z</time>
      </trkpt>
      <trkpt lat="43.74792" lon="1.53676">
        <ele>264.112076</ele>
        <time>2022-08-10T09:40:12.104Z</time>
      </trkpt>
      <trkpt lat="43.74783" lon="1.53667">
        <ele>263.414239</ele>
        <time>2022-08-10T09:40:13.110Z</time>
      </trkpt>
      <trkpt lat="43.74775" lon="1.53656">
        <ele>262.699468</ele>
        <time>2022-08-10T09:40:14.127Z</time>
      </trkpt>
      <trkpt lat="43.74767" lon="1.53644">
        <ele>261.949577</ele>
        <time>2022-08-10T09:40:15.106Z</time>
      </trkpt>
      <trkpt lat="43.74761" lon="1.53631">
        <ele>261.232739</ele>
        <time>2022-08-10T09:40:16.101Z</time>
      </trkpt>
      <trkpt lat="43.74753" lon="1.53619">
        <ele>260.499335</ele>
        <time>2022-08-10T09:40:17.110Z</time>
      </trkpt>
      <trkpt lat="43.74745" lon="1.53609">
        <ele>259.776781</ele>
        <time>2022-08-10T09:40:18.115Z</time>
      </trkpt>
      <trkpt lat="43.74736" lon="1.53602">
        <ele>259.119769</ele>
        <time>2022-08-10T09:40:19.155Z</time>
      </trkpt>
      <trkpt lat="43.74726" lon="1.53597">
        <ele>258.476507</ele>
        <time>2022-08-10T09:40:20.089Z</time>
      </trkpt>
      <trkpt lat="43.74716" lon="1.53596">
        <ele>257.965819</ele>
        <time>2022-08-10T09:40:21.104Z</time>
      </trkpt>
      <trkpt lat="43.74699" lon="1.53594">
        <ele>257.622321</ele>
        <time>2022-08-10T09:40:23.101Z</time>
      </trkpt>
      <trkpt lat="43.74684" lon="1.53593">
        <ele>257.323211</ele>
        <time>2022-08-10T09:40:25.099Z</time>
      </trkpt>
      <trkpt lat="43.74672" lon="1.53591">
        <ele>257.080728</ele>
        <time>2022-08-10T09:40:27.119Z</time>
      </trkpt>
      <trkpt lat="43.74663" lon="1.53585">
        <ele>256.886951</ele>
        <time>2022-08-10T09:40:29.110Z</time>
      </trkpt>
      <trkpt lat="43.74655" lon="1.5358">
        <ele>256.708088</ele>
        <time>2022-08-10T09:40:31.105Z</time>
      </trkpt>
      <trkpt lat="43.74647" lon="1.53572">
        <ele>256.512295</ele>
        <time>2022-08-10T09:40:33.123Z</time>
      </trkpt>
      <trkpt lat="43.74637" lon="1.53565">
        <ele>256.279445</ele>
        <time>2022-08-10T09:40:35.116Z</time>
      </trkpt>
      <trkpt lat="43.74625" lon="1.53557">
        <ele>256.020087</ele>
        <time>2022-08-10T09:40:37.128Z</time>
      </trkpt>
      <trkpt lat="43.74612" lon="1.5355">
        <ele>255.742394</ele>
        <time>2022-08-10T09:40:39.124Z</time>
      </trkpt>
      <trkpt lat="43.74598" lon="1.53543">
        <ele>255.442747</ele>
        <time>2022-08-10T09:40:41.141Z</time>
      </trkpt>
      <trkpt lat="43.74584" lon="1.53535">
        <ele>255.138547</ele>
        <time>2022-08-10T09:40:43.159Z</time>
      </trkpt>
      <trkpt lat="43.74569" lon="1.53527">
        <ele>254.833063</ele>
        <time>2022-08-10T09:40:45.106Z</time>
      </trkpt>
      <trkpt lat="43.74555" lon="1.53517">
        <ele>254.51396</ele>
        <time>2022-08-10T09:40:47.111Z</time>
      </trkpt>
      <trkpt lat="43.74541" lon="1.53505">
        <ele>254.273241</ele>
        <time>2022-08-10T09:40:49.094Z</time>
      </trkpt>
      <trkpt lat="43.74528" lon="1.53491">
        <ele>254.069092</ele>
        <time>2022-08-10T09:40:51.103Z</time>
      </trkpt>
      <trkpt lat="43.74515" lon="1.53478">
        <ele>253.875119</ele>
        <time>2022-08-10T09:40:53.111Z</time>
      </trkpt>
      <trkpt lat="43.74503" lon="1.53465">
        <ele>253.684744</ele>
        <time>2022-08-10T09:40:55.126Z</time>
      </trkpt>
      <trkpt lat="43.74491" lon="1.53453">
        <ele>253.499852</ele>
        <time>2022-08-10T09:40:57.105Z</time>
      </trkpt>
      <trkpt lat="43.7448" lon="1.53441">
        <ele>253.3237</ele>
        <time>2022-08-10T09:40:59.120Z</time>
      </trkpt>
      <trkpt lat="43.74469" lon="1.5343">
        <ele>253.157809</ele>
        <time>2022-08-10T09:41:01.129Z</time>
      </trkpt>
      <trkpt lat="43.74459" lon="1.53419">
        <ele>252.997628</ele>
        <time>2022-08-10T09:41:03.113Z</time>
      </trkpt>
      <trkpt lat="43.74448" lon="1.5341">
        <ele>252.839352</ele>
        <time>2022-08-10T09:41:05.106Z</time>
      </trkpt>
      <trkpt lat="43.74437" lon="1.534">
        <ele>252.685298</ele>
        <time>2022-08-10T09:41:07.122Z</time>
      </trkpt>
      <trkpt lat="43.74427" lon="1.53391">
        <ele>252.531244</ele>
        <time>2022-08-10T09:41:09.106Z</time>
      </trkpt>
      <trkpt lat="43.74417" lon="1.53382">
        <ele>252.376967</ele>
        <time>2022-08-10T09:41:11.127Z</time>
      </trkpt>
      <trkpt lat="43.74406" lon="1.53373">
        <ele>252.222192</ele>
        <time>2022-08-10T09:41:13.114Z</time>
      </trkpt>
      <trkpt lat="43.74395" lon="1.53367">
        <ele>252.05818</ele>
        <time>2022-08-10T09:41:15.110Z</time>
      </trkpt>
      <trkpt lat="43.74384" lon="1.5336">
        <ele>251.895074</ele>
        <time>2022-08-10T09:41:17.114Z</time>
      </trkpt>
      <trkpt lat="43.74374" lon="1.53353">
        <ele>251.735803</ele>
        <time>2022-08-10T09:41:19.113Z</time>
      </trkpt>
      <trkpt lat="43.74364" lon="1.53347">
        <ele>251.576531</ele>
        <time>2022-08-10T09:41:21.111Z</time>
      </trkpt>
      <trkpt lat="43.74354" lon="1.53339">
        <ele>251.415795</ele>
        <time>2022-08-10T09:41:23.116Z</time>
      </trkpt>
      <trkpt lat="43.74343" lon="1.53333">
        <ele>251.255932</ele>
        <time>2022-08-10T09:41:25.120Z</time>
      </trkpt>
      <trkpt lat="43.74332" lon="1.53327">
        <ele>251.083305</ele>
        <time>2022-08-10T09:41:27.110Z</time>
      </trkpt>
      <trkpt lat="43.7432" lon="1.5332">
        <ele>250.900384</ele>
        <time>2022-08-10T09:41:29.138Z</time>
      </trkpt>
      <trkpt lat="43.74307" lon="1.53313">
        <ele>250.701546</ele>
        <time>2022-08-10T09:41:31.123Z</time>
      </trkpt>
      <trkpt lat="43.74293" lon="1.53306">
        <ele>250.496572</ele>
        <time>2022-08-10T09:41:33.113Z</time>
      </trkpt>
      <trkpt lat="43.74279" lon="1.533">
        <ele>250.292209</ele>
        <time>2022-08-10T09:41:35.104Z</time>
      </trkpt>
      <trkpt lat="43.74266" lon="1.53294">
        <ele>250.092801</ele>
        <time>2022-08-10T09:41:37.104Z</time>
      </trkpt>
      <trkpt lat="43.74254" lon="1.53287">
        <ele>249.907059</ele>
        <time>2022-08-10T09:41:39.114Z</time>
      </trkpt>
      <trkpt lat="43.74243" lon="1.53278">
        <ele>249.729745</ele>
        <time>2022-08-10T09:41:41.102Z</time>
      </trkpt>
      <trkpt lat="43.74234" lon="1.5327">
        <ele>249.034453</ele>
        <time>2022-08-10T09:41:43.100Z</time>
      </trkpt>
      <trkpt lat="43.74225" lon="1.53261">
        <ele>247.951389</ele>
        <time>2022-08-10T09:41:45.105Z</time>
      </trkpt>
      <trkpt lat="43.74216" lon="1.53253">
        <ele>246.904852</ele>
        <time>2022-08-10T09:41:47.112Z</time>
      </trkpt>
      <trkpt lat="43.74207" lon="1.53246">
        <ele>245.891265</ele>
        <time>2022-08-10T09:41:49.113Z</time>
      </trkpt>
      <trkpt lat="43.74198" lon="1.53238">
        <ele>244.843088</ele>
        <time>2022-08-10T09:41:51.112Z</time>
      </trkpt>
      <trkpt lat="43.74186" lon="1.53234">
        <ele>243.610313</ele>
        <time>2022-08-10T09:41:53.141Z</time>
      </trkpt>
      <trkpt lat="43.74171" lon="1.53231">
        <ele>242.106025</ele>
        <time>2022-08-10T09:41:55.120Z</time>
      </trkpt>
      <trkpt lat="43.74153" lon="1.53229">
        <ele>240.283177</ele>
        <time>2022-08-10T09:41:57.116Z</time>
      </trkpt>
      <trkpt lat="43.74143" lon="1.53228">
        <ele>239.261149</ele>
        <time>2022-08-10T09:41:58.105Z</time>
      </trkpt>
      <trkpt lat="43.74133" lon="1.53226">
        <ele>238.23223</ele>
        <time>2022-08-10T09:41:59.105Z</time>
      </trkpt>
      <trkpt lat="43.74123" lon="1.53222">
        <ele>237.187424</ele>
        <time>2022-08-10T09:42:00.105Z</time>
      </trkpt>
      <trkpt lat="43.74113" lon="1.53215">
        <ele>236.127361</ele>
        <time>2022-08-10T09:42:01.107Z</time>
      </trkpt>
      <trkpt lat="43.74104" lon="1.53208">
        <ele>235.046096</ele>
        <time>2022-08-10T09:42:02.113Z</time>
      </trkpt>
      <trkpt lat="43.74095" lon="1.53199">
        <ele>233.983587</ele>
        <time>2022-08-10T09:42:03.111Z</time>
      </trkpt>
      <trkpt lat="43.74086" lon="1.53191">
        <ele>232.896468</ele>
        <time>2022-08-10T09:42:04.101Z</time>
      </trkpt>
      <trkpt lat="43.74077" lon="1.53184">
        <ele>231.813826</ele>
        <time>2022-08-10T09:42:05.099Z</time>
      </trkpt>
      <trkpt lat="43.74066" lon="1.53179">
        <ele>230.198824</ele>
        <time>2022-08-10T09:42:06.115Z</time>
      </trkpt>
      <trkpt lat="43.74054" lon="1.53175">
        <ele>228.479052</ele>
        <time>2022-08-10T09:42:07.121Z</time>
      </trkpt>
      <trkpt lat="43.74044" lon="1.53172">
        <ele>226.863245</ele>
        <time>2022-08-10T09:42:08.124Z</time>
      </trkpt>
      <trkpt lat="43.74034" lon="1.53169">
        <ele>225.35241</ele>
        <time>2022-08-10T09:42:09.142Z</time>
      </trkpt>
      <trkpt lat="43.74024" lon="1.53167">
        <ele>223.946544</ele>
        <time>2022-08-10T09:42:10.121Z</time>
      </trkpt>
      <trkpt lat="43.74015" lon="1.53165">
        <ele>222.597878</ele>
        <time>2022-08-10T09:42:11.104Z</time>
      </trkpt>
      <trkpt lat="43.74005" lon="1.53164">
        <ele>221.167526</ele>
        <time>2022-08-10T09:42:12.111Z</time>
      </trkpt>
      <trkpt lat="43.73995" lon="1.53162">
        <ele>219.586837</ele>
        <time>2022-08-10T09:42:13.106Z</time>
      </trkpt>
      <trkpt lat="43.73983" lon="1.5316">
        <ele>217.857392</ele>
        <time>2022-08-10T09:42:14.099Z</time>
      </trkpt>
      <trkpt lat="43.73971" lon="1.53156">
        <ele>215.992056</ele>
        <time>2022-08-10T09:42:15.122Z</time>
      </trkpt>
      <trkpt lat="43.73959" lon="1.53152">
        <ele>214.195935</ele>
        <time>2022-08-10T09:42:16.114Z</time>
      </trkpt>
      <trkpt lat="43.73947" lon="1.53148">
        <ele>212.473708</ele>
        <time>2022-08-10T09:42:17.125Z</time>
      </trkpt>
      <trkpt lat="43.73936" lon="1.53144">
        <ele>210.689381</ele>
        <time>2022-08-10T09:42:18.121Z</time>
      </trkpt>
      <trkpt lat="43.73923" lon="1.53139">
        <ele>208.801096</ele>
        <time>2022-08-10T09:42:19.111Z</time>
      </trkpt>
      <trkpt lat="43.73911" lon="1.53135">
        <ele>206.895831</ele>
        <time>2022-08-10T09:42:20.123Z</time>
      </trkpt>
      <trkpt lat="43.73899" lon="1.53129">
        <ele>205.243956</ele>
        <time>2022-08-10T09:42:21.110Z</time>
      </trkpt>
      <trkpt lat="43.73888" lon="1.53125">
        <ele>204.908542</ele>
        <time>2022-08-10T09:42:22.118Z</time>
      </trkpt>
      <trkpt lat="43.73878" lon="1.53121">
        <ele>204.588797</ele>
        <time>2022-08-10T09:42:23.122Z</time>
      </trkpt>
      <trkpt lat="43.73868" lon="1.53118">
        <ele>204.277826</ele>
        <time>2022-08-10T09:42:24.148Z</time>
      </trkpt>
      <trkpt lat="43.73858" lon="1.53114">
        <ele>203.98005</ele>
        <time>2022-08-10T09:42:25.107Z</time>
      </trkpt>
      <trkpt lat="43.73849" lon="1.53112">
        <ele>203.696937</ele>
        <time>2022-08-10T09:42:26.109Z</time>
      </trkpt>
      <trkpt lat="43.73833" lon="1.53105">
        <ele>203.208341</ele>
        <time>2022-08-10T09:42:28.118Z</time>
      </trkpt>
      <trkpt lat="43.73819" lon="1.53097">
        <ele>202.729822</ele>
        <time>2022-08-10T09:42:30.101Z</time>
      </trkpt>
      <trkpt lat="43.73806" lon="1.53087">
        <ele>202.289288</ele>
        <time>2022-08-10T09:42:32.101Z</time>
      </trkpt>
      <trkpt lat="43.73795" lon="1.53074">
        <ele>201.846713</ele>
        <time>2022-08-10T09:42:34.111Z</time>
      </trkpt>
      <trkpt lat="43.73784" lon="1.53062">
        <ele>201.422708</ele>
        <time>2022-08-10T09:42:36.098Z</time>
      </trkpt>
      <trkpt lat="43.73773" lon="1.53051">
        <ele>201.02889</ele>
        <time>2022-08-10T09:42:38.091Z</time>
      </trkpt>
      <trkpt lat="43.73762" lon="1.53042">
        <ele>200.64112</ele>
        <time>2022-08-10T09:42:40.125Z</time>
      </trkpt>
      <trkpt lat="43.73752" lon="1.53034">
        <ele>200.291877</ele>
        <time>2022-08-10T09:42:42.103Z</time>
      </trkpt>
      <trkpt lat="43.73741" lon="1.53027">
        <ele>199.930959</ele>
        <time>2022-08-10T09:42:44.114Z</time>
      </trkpt>
      <trkpt lat="43.7373" lon="1.53021">
        <ele>199.848638</ele>
        <time>2022-08-10T09:42:46.120Z</time>
      </trkpt>
      <trkpt lat="43.73718" lon="1.53016">
        <ele>199.8091</ele>
        <time>2022-08-10T09:42:48.115Z</time>
      </trkpt>
      <trkpt lat="43.73706" lon="1.53012">
        <ele>199.770716</ele>
        <time>2022-08-10T09:42:50.098Z</time>
      </trkpt>
      <trkpt lat="43.73695" lon="1.53007">
        <ele>199.734327</ele>
        <time>2022-08-10T09:42:52.103Z</time>
      </trkpt>
      <trkpt lat="43.73683" lon="1.53006">
        <ele>199.696385</ele>
        <time>2022-08-10T09:42:54.126Z</time>
      </trkpt>
      <trkpt lat="43.73671" lon="1.53003">
        <ele>199.659494</ele>
        <time>2022-08-10T09:42:56.119Z</time>
      </trkpt>
      <trkpt lat="43.7366" lon="1.52998">
        <ele>199.622736</ele>
        <time>2022-08-10T09:42:58.104Z</time>
      </trkpt>
      <trkpt lat="43.73648" lon="1.52993">
        <ele>199.583868</ele>
        <time>2022-08-10T09:43:00.108Z</time>
      </trkpt>
      <trkpt lat="43.73636" lon="1.52989">
        <ele>199.544671</ele>
        <time>2022-08-10T09:43:02.093Z</time>
      </trkpt>
      <trkpt lat="43.73625" lon="1.52985">
        <ele>199.506396</ele>
        <time>2022-08-10T09:43:04.090Z</time>
      </trkpt>
      <trkpt lat="43.73613" lon="1.52983">
        <ele>199.468289</ele>
        <time>2022-08-10T09:43:06.134Z</time>
      </trkpt>
      <trkpt lat="43.73601" lon="1.52982">
        <ele>199.431621</ele>
        <time>2022-08-10T09:43:08.101Z</time>
      </trkpt>
      <trkpt lat="43.73589" lon="1.52982">
        <ele>199.393736</ele>
        <time>2022-08-10T09:43:10.110Z</time>
      </trkpt>
      <trkpt lat="43.73577" lon="1.52979">
        <ele>199.355828</ele>
        <time>2022-08-10T09:43:12.105Z</time>
      </trkpt>
      <trkpt lat="43.73565" lon="1.52978">
        <ele>199.317433</ele>
        <time>2022-08-10T09:43:14.096Z</time>
      </trkpt>
      <trkpt lat="43.73553" lon="1.52977">
        <ele>199.297078</ele>
        <time>2022-08-10T09:43:16.101Z</time>
      </trkpt>
      <trkpt lat="43.73541" lon="1.52977">
        <ele>199.278434</ele>
        <time>2022-08-10T09:43:18.111Z</time>
      </trkpt>
      <trkpt lat="43.7353" lon="1.52976">
        <ele>199.260514</ele>
        <time>2022-08-10T09:43:20.097Z</time>
      </trkpt>
      <trkpt lat="43.73518" lon="1.52974">
        <ele>199.242342</ele>
        <time>2022-08-10T09:43:22.113Z</time>
      </trkpt>
      <trkpt lat="43.73506" lon="1.52972">
        <ele>199.223731</ele>
        <time>2022-08-10T09:43:24.128Z</time>
      </trkpt>
      <trkpt lat="43.73495" lon="1.52971">
        <ele>199.205958</ele>
        <time>2022-08-10T09:43:26.137Z</time>
      </trkpt>
      <trkpt lat="43.73484" lon="1.52967">
        <ele>199.188453</ele>
        <time>2022-08-10T09:43:28.118Z</time>
      </trkpt>
      <trkpt lat="43.73472" lon="1.52963">
        <ele>199.169193</ele>
        <time>2022-08-10T09:43:30.118Z</time>
      </trkpt>
      <trkpt lat="43.7346" lon="1.5296">
        <ele>199.15009</ele>
        <time>2022-08-10T09:43:32.129Z</time>
      </trkpt>
      <trkpt lat="43.73448" lon="1.52956">
        <ele>199.131154</ele>
        <time>2022-08-10T09:43:34.124Z</time>
      </trkpt>
      <trkpt lat="43.73438" lon="1.5295">
        <ele>199.112777</ele>
        <time>2022-08-10T09:43:36.104Z</time>
      </trkpt>
      <trkpt lat="43.73428" lon="1.52943">
        <ele>199.095639</ele>
        <time>2022-08-10T09:43:38.120Z</time>
      </trkpt>
      <trkpt lat="43.73419" lon="1.5293">
        <ele>199.075793</ele>
        <time>2022-08-10T09:43:40.109Z</time>
      </trkpt>
      <trkpt lat="43.73412" lon="1.52915">
        <ele>199.055791</ele>
        <time>2022-08-10T09:43:42.122Z</time>
      </trkpt>
      <trkpt lat="43.73406" lon="1.52901">
        <ele>199.036558</ele>
        <time>2022-08-10T09:43:44.110Z</time>
      </trkpt>
      <trkpt lat="43.734" lon="1.52886">
        <ele>198.938211</ele>
        <time>2022-08-10T09:43:46.114Z</time>
      </trkpt>
      <trkpt lat="43.73393" lon="1.52873">
        <ele>198.829211</ele>
        <time>2022-08-10T09:43:48.149Z</time>
      </trkpt>
      <trkpt lat="43.73385" lon="1.52863">
        <ele>198.721411</ele>
        <time>2022-08-10T09:43:50.127Z</time>
      </trkpt>
      <trkpt lat="43.73374" lon="1.52854">
        <ele>198.606723</ele>
        <time>2022-08-10T09:43:52.131Z</time>
      </trkpt>
      <trkpt lat="43.73364" lon="1.52846">
        <ele>198.490514</ele>
        <time>2022-08-10T09:43:54.124Z</time>
      </trkpt>
      <trkpt lat="43.73354" lon="1.52837">
        <ele>198.374344</ele>
        <time>2022-08-10T09:43:56.133Z</time>
      </trkpt>
      <trkpt lat="43.73347" lon="1.52823">
        <ele>198.263126</ele>
        <time>2022-08-10T09:43:58.118Z</time>
      </trkpt>
      <trkpt lat="43.73345" lon="1.52806">
        <ele>198.14379</ele>
        <time>2022-08-10T09:44:00.121Z</time>
      </trkpt>
      <trkpt lat="43.73343" lon="1.52789">
        <ele>198.026242</ele>
        <time>2022-08-10T09:44:02.136Z</time>
      </trkpt>
      <trkpt lat="43.73339" lon="1.52774">
        <ele>197.911794</ele>
        <time>2022-08-10T09:44:04.113Z</time>
      </trkpt>
      <trkpt lat="43.73333" lon="1.5276">
        <ele>197.802149</ele>
        <time>2022-08-10T09:44:06.147Z</time>
      </trkpt>
      <trkpt lat="43.73326" lon="1.52746">
        <ele>197.685161</ele>
        <time>2022-08-10T09:44:08.152Z</time>
      </trkpt>
      <trkpt lat="43.7332" lon="1.52732">
        <ele>197.565915</ele>
        <time>2022-08-10T09:44:10.156Z</time>
      </trkpt>
      <trkpt lat="43.73313" lon="1.52717">
        <ele>197.446669</ele>
        <time>2022-08-10T09:44:12.129Z</time>
      </trkpt>
      <trkpt lat="43.73306" lon="1.52703">
        <ele>197.330192</ele>
        <time>2022-08-10T09:44:14.121Z</time>
      </trkpt>
      <trkpt lat="43.733" lon="1.52688">
        <ele>197.230407</ele>
        <time>2022-08-10T09:44:16.146Z</time>
      </trkpt>
      <trkpt lat="43.73294" lon="1.52672">
        <ele>197.132179</ele>
        <time>2022-08-10T09:44:18.141Z</time>
      </trkpt>
      <trkpt lat="43.73288" lon="1.52658">
        <ele>197.03618</ele>
        <time>2022-08-10T09:44:20.134Z</time>
      </trkpt>
      <trkpt lat="43.73282" lon="1.52642">
        <ele>196.939883</ele>
        <time>2022-08-10T09:44:22.121Z</time>
      </trkpt>
      <trkpt lat="43.73277" lon="1.52627">
        <ele>196.844087</ele>
        <time>2022-08-10T09:44:24.142Z</time>
      </trkpt>
      <trkpt lat="43.73271" lon="1.52611">
        <ele>196.747945</ele>
        <time>2022-08-10T09:44:26.107Z</time>
      </trkpt>
      <trkpt lat="43.73266" lon="1.52596">
        <ele>196.651091</ele>
        <time>2022-08-10T09:44:28.117Z</time>
      </trkpt>
      <trkpt lat="43.73259" lon="1.52582">
        <ele>196.556643</ele>
        <time>2022-08-10T09:44:30.125Z</time>
      </trkpt>
      <trkpt lat="43.73253" lon="1.52567">
        <ele>196.4588</ele>
        <time>2022-08-10T09:44:32.125Z</time>
      </trkpt>
      <trkpt lat="43.73246" lon="1.52553">
        <ele>196.362409</ele>
        <time>2022-08-10T09:44:34.102Z</time>
      </trkpt>
      <trkpt lat="43.7324" lon="1.52539">
        <ele>196.271163</ele>
        <time>2022-08-10T09:44:36.108Z</time>
      </trkpt>
      <trkpt lat="43.73231" lon="1.52527">
        <ele>196.18123</ele>
        <time>2022-08-10T09:44:38.135Z</time>
      </trkpt>
      <trkpt lat="43.73225" lon="1.52515">
        <ele>196.094846</ele>
        <time>2022-08-10T09:44:40.123Z</time>
      </trkpt>
      <trkpt lat="43.7322" lon="1.52501">
        <ele>196.004766</ele>
        <time>2022-08-10T09:44:42.132Z</time>
      </trkpt>
      <trkpt lat="43.73212" lon="1.52487">
        <ele>195.914534</ele>
        <time>2022-08-10T09:44:44.114Z</time>
      </trkpt>
      <trkpt lat="43.73205" lon="1.52474">
        <ele>195.840667</ele>
        <time>2022-08-10T09:44:46.120Z</time>
      </trkpt>
      <trkpt lat="43.73198" lon="1.5246">
        <ele>195.76749</ele>
        <time>2022-08-10T09:44:48.126Z</time>
      </trkpt>
      <trkpt lat="43.73191" lon="1.52446">
        <ele>195.695696</ele>
        <time>2022-08-10T09:44:50.107Z</time>
      </trkpt>
      <trkpt lat="43.73183" lon="1.52434">
        <ele>195.624142</ele>
        <time>2022-08-10T09:44:52.121Z</time>
      </trkpt>
      <trkpt lat="43.73175" lon="1.52422">
        <ele>195.553517</ele>
        <time>2022-08-10T09:44:54.126Z</time>
      </trkpt>
      <trkpt lat="43.73166" lon="1.52412">
        <ele>195.483248</ele>
        <time>2022-08-10T09:44:56.133Z</time>
      </trkpt>
      <trkpt lat="43.73156" lon="1.52402">
        <ele>195.413443</ele>
        <time>2022-08-10T09:44:58.126Z</time>
      </trkpt>
      <trkpt lat="43.73147" lon="1.52393">
        <ele>195.345191</ele>
        <time>2022-08-10T09:45:00.116Z</time>
      </trkpt>
      <trkpt lat="43.73138" lon="1.52383">
        <ele>195.277743</ele>
        <time>2022-08-10T09:45:02.151Z</time>
      </trkpt>
      <trkpt lat="43.73129" lon="1.52373">
        <ele>195.209292</ele>
        <time>2022-08-10T09:45:04.117Z</time>
      </trkpt>
      <trkpt lat="43.7312" lon="1.52364">
        <ele>195.140937</ele>
        <time>2022-08-10T09:45:06.114Z</time>
      </trkpt>
      <trkpt lat="43.73112" lon="1.52353">
        <ele>195.072404</ele>
        <time>2022-08-10T09:45:08.098Z</time>
      </trkpt>
      <trkpt lat="43.73103" lon="1.52342">
        <ele>195.003575</ele>
        <time>2022-08-10T09:45:10.120Z</time>
      </trkpt>
      <trkpt lat="43.73095" lon="1.52332">
        <ele>194.93367</ele>
        <time>2022-08-10T09:45:12.172Z</time>
      </trkpt>
      <trkpt lat="43.73085" lon="1.52321">
        <ele>194.86156</ele>
        <time>2022-08-10T09:45:14.114Z</time>
      </trkpt>
      <trkpt lat="43.73077" lon="1.52309">
        <ele>194.805183</ele>
        <time>2022-08-10T09:45:16.156Z</time>
      </trkpt>
      <trkpt lat="43.73068" lon="1.52297">
        <ele>194.75449</ele>
        <time>2022-08-10T09:45:18.132Z</time>
      </trkpt>
      <trkpt lat="43.73061" lon="1.52284">
        <ele>194.703839</ele>
        <time>2022-08-10T09:45:20.128Z</time>
      </trkpt>
      <trkpt lat="43.73052" lon="1.52273">
        <ele>194.65349</ele>
        <time>2022-08-10T09:45:22.113Z</time>
      </trkpt>
      <trkpt lat="43.73043" lon="1.52263">
        <ele>194.603886</ele>
        <time>2022-08-10T09:45:24.125Z</time>
      </trkpt>
      <trkpt lat="43.73035" lon="1.52251">
        <ele>194.552974</ele>
        <time>2022-08-10T09:45:26.125Z</time>
      </trkpt>
      <trkpt lat="43.73026" lon="1.5224">
        <ele>194.50335</ele>
        <time>2022-08-10T09:45:28.117Z</time>
      </trkpt>
      <trkpt lat="43.73016" lon="1.52232">
        <ele>194.455415</ele>
        <time>2022-08-10T09:45:30.138Z</time>
      </trkpt>
      <trkpt lat="43.73006" lon="1.52227">
        <ele>194.408082</ele>
        <time>2022-08-10T09:45:32.111Z</time>
      </trkpt>
      <trkpt lat="43.72995" lon="1.52229">
        <ele>194.361812</ele>
        <time>2022-08-10T09:45:34.107Z</time>
      </trkpt>
      <trkpt lat="43.72984" lon="1.52234">
        <ele>194.312967</ele>
        <time>2022-08-10T09:45:36.159Z</time>
      </trkpt>
      <trkpt lat="43.72973" lon="1.5224">
        <ele>194.263322</ele>
        <time>2022-08-10T09:45:38.135Z</time>
      </trkpt>
      <trkpt lat="43.72962" lon="1.52243">
        <ele>194.213101</ele>
        <time>2022-08-10T09:45:40.114Z</time>
      </trkpt>
      <trkpt lat="43.7295" lon="1.52246">
        <ele>194.163742</ele>
        <time>2022-08-10T09:45:42.124Z</time>
      </trkpt>
      <trkpt lat="43.72939" lon="1.52249">
        <ele>194.114547</ele>
        <time>2022-08-10T09:45:44.097Z</time>
      </trkpt>
      <trkpt lat="43.72927" lon="1.52251">
        <ele>194.15283</ele>
        <time>2022-08-10T09:45:46.107Z</time>
      </trkpt>
      <trkpt lat="43.72916" lon="1.52253">
        <ele>194.368591</ele>
        <time>2022-08-10T09:45:48.118Z</time>
      </trkpt>
      <trkpt lat="43.72904" lon="1.52256">
        <ele>194.586756</ele>
        <time>2022-08-10T09:45:50.139Z</time>
      </trkpt>
      <trkpt lat="43.72893" lon="1.52259">
        <ele>194.800775</ele>
        <time>2022-08-10T09:45:52.131Z</time>
      </trkpt>
      <trkpt lat="43.72882" lon="1.52259">
        <ele>195.007245</ele>
        <time>2022-08-10T09:45:54.108Z</time>
      </trkpt>
      <trkpt lat="43.72871" lon="1.52259">
        <ele>195.211852</ele>
        <time>2022-08-10T09:45:56.117Z</time>
      </trkpt>
      <trkpt lat="43.7286" lon="1.52256">
        <ele>195.416553</ele>
        <time>2022-08-10T09:45:58.127Z</time>
      </trkpt>
      <trkpt lat="43.72849" lon="1.52251">
        <ele>195.621341</ele>
        <time>2022-08-10T09:46:00.164Z</time>
      </trkpt>
      <trkpt lat="43.7284" lon="1.52245">
        <ele>195.824023</ele>
        <time>2022-08-10T09:46:02.113Z</time>
      </trkpt>
      <trkpt lat="43.7283" lon="1.52239">
        <ele>196.027844</ele>
        <time>2022-08-10T09:46:04.103Z</time>
      </trkpt>
      <trkpt lat="43.7282" lon="1.52232">
        <ele>196.229968</ele>
        <time>2022-08-10T09:46:06.114Z</time>
      </trkpt>
      <trkpt lat="43.7281" lon="1.52226">
        <ele>196.428913</ele>
        <time>2022-08-10T09:46:08.152Z</time>
      </trkpt>
      <trkpt lat="43.72801" lon="1.52217">
        <ele>196.633117</ele>
        <time>2022-08-10T09:46:10.111Z</time>
      </trkpt>
      <trkpt lat="43.72794" lon="1.52206">
        <ele>196.833377</ele>
        <time>2022-08-10T09:46:12.137Z</time>
      </trkpt>
      <trkpt lat="43.72788" lon="1.52194">
        <ele>197.026398</ele>
        <time>2022-08-10T09:46:14.144Z</time>
      </trkpt>
      <trkpt lat="43.72784" lon="1.52181">
        <ele>197.215185</ele>
        <time>2022-08-10T09:46:16.118Z</time>
      </trkpt>
      <trkpt lat="43.72779" lon="1.52169">
        <ele>197.403394</ele>
        <time>2022-08-10T09:46:18.123Z</time>
      </trkpt>
      <trkpt lat="43.72773" lon="1.52159">
        <ele>197.379699</ele>
        <time>2022-08-10T09:46:20.137Z</time>
      </trkpt>
      <trkpt lat="43.72763" lon="1.52147">
        <ele>197.304144</ele>
        <time>2022-08-10T09:46:23.114Z</time>
      </trkpt>
      <trkpt lat="43.72753" lon="1.52136">
        <ele>197.227693</ele>
        <time>2022-08-10T09:46:26.123Z</time>
      </trkpt>
      <trkpt lat="43.72746" lon="1.52128">
        <ele>197.174297</ele>
        <time>2022-08-10T09:46:28.116Z</time>
      </trkpt>
      <trkpt lat="43.72735" lon="1.52116">
        <ele>197.09647</ele>
        <time>2022-08-10T09:46:31.143Z</time>
      </trkpt>
      <trkpt lat="43.72728" lon="1.52108">
        <ele>197.04129</ele>
        <time>2022-08-10T09:46:33.135Z</time>
      </trkpt>
      <trkpt lat="43.72719" lon="1.52099">
        <ele>196.978599</ele>
        <time>2022-08-10T09:46:35.122Z</time>
      </trkpt>
      <trkpt lat="43.7271" lon="1.5209">
        <ele>196.910144</ele>
        <time>2022-08-10T09:46:37.111Z</time>
      </trkpt>
      <trkpt lat="43.727" lon="1.5208">
        <ele>196.839499</ele>
        <time>2022-08-10T09:46:39.138Z</time>
      </trkpt>
      <trkpt lat="43.7269" lon="1.52069">
        <ele>196.767113</ele>
        <time>2022-08-10T09:46:41.122Z</time>
      </trkpt>
      <trkpt lat="43.7268" lon="1.52059">
        <ele>196.692307</ele>
        <time>2022-08-10T09:46:43.117Z</time>
      </trkpt>
      <trkpt lat="43.7267" lon="1.52047">
        <ele>196.615995</ele>
        <time>2022-08-10T09:46:45.117Z</time>
      </trkpt>
      <trkpt lat="43.7266" lon="1.52035">
        <ele>196.537804</ele>
        <time>2022-08-10T09:46:47.127Z</time>
      </trkpt>
      <trkpt lat="43.7265" lon="1.52023">
        <ele>196.459382</ele>
        <time>2022-08-10T09:46:49.155Z</time>
      </trkpt>
      <trkpt lat="43.7264" lon="1.5201">
        <ele>196.379381</ele>
        <time>2022-08-10T09:46:51.132Z</time>
      </trkpt>
      <trkpt lat="43.7263" lon="1.51996">
        <ele>195.901165</ele>
        <time>2022-08-10T09:46:53.126Z</time>
      </trkpt>
      <trkpt lat="43.7262" lon="1.51981">
        <ele>195.388556</ele>
        <time>2022-08-10T09:46:55.114Z</time>
      </trkpt>
      <trkpt lat="43.7261" lon="1.51966">
        <ele>194.882495</ele>
        <time>2022-08-10T09:46:57.110Z</time>
      </trkpt>
      <trkpt lat="43.72601" lon="1.5195">
        <ele>194.367471</ele>
        <time>2022-08-10T09:46:59.116Z</time>
      </trkpt>
      <trkpt lat="43.72591" lon="1.51935">
        <ele>193.844094</ele>
        <time>2022-08-10T09:47:01.124Z</time>
      </trkpt>
      <trkpt lat="43.72581" lon="1.51919">
        <ele>193.325433</ele>
        <time>2022-08-10T09:47:03.104Z</time>
      </trkpt>
      <trkpt lat="43.7257" lon="1.51904">
        <ele>192.807513</ele>
        <time>2022-08-10T09:47:05.124Z</time>
      </trkpt>
      <trkpt lat="43.7256" lon="1.51891">
        <ele>192.299958</ele>
        <time>2022-08-10T09:47:07.134Z</time>
      </trkpt>
      <trkpt lat="43.72548" lon="1.51878">
        <ele>191.795546</ele>
        <time>2022-08-10T09:47:09.119Z</time>
      </trkpt>
      <trkpt lat="43.72536" lon="1.51868">
        <ele>191.307919</ele>
        <time>2022-08-10T09:47:11.129Z</time>
      </trkpt>
      <trkpt lat="43.72524" lon="1.51857">
        <ele>190.815769</ele>
        <time>2022-08-10T09:47:13.119Z</time>
      </trkpt>
      <trkpt lat="43.72513" lon="1.51847">
        <ele>190.329225</ele>
        <time>2022-08-10T09:47:15.127Z</time>
      </trkpt>
      <trkpt lat="43.72501" lon="1.51838">
        <ele>189.999589</ele>
        <time>2022-08-10T09:47:17.156Z</time>
      </trkpt>
      <trkpt lat="43.72489" lon="1.51828">
        <ele>189.78663</ele>
        <time>2022-08-10T09:47:19.167Z</time>
      </trkpt>
      <trkpt lat="43.72478" lon="1.51819">
        <ele>189.573086</ele>
        <time>2022-08-10T09:47:21.112Z</time>
      </trkpt>
      <trkpt lat="43.72466" lon="1.5181">
        <ele>189.363469</ele>
        <time>2022-08-10T09:47:23.123Z</time>
      </trkpt>
      <trkpt lat="43.72455" lon="1.51801">
        <ele>189.162037</ele>
        <time>2022-08-10T09:47:25.161Z</time>
      </trkpt>
      <trkpt lat="43.72446" lon="1.51791">
        <ele>188.968165</ele>
        <time>2022-08-10T09:47:27.117Z</time>
      </trkpt>
      <trkpt lat="43.72442" lon="1.51775">
        <ele>188.776901</ele>
        <time>2022-08-10T09:47:29.113Z</time>
      </trkpt>
      <trkpt lat="43.72442" lon="1.51758">
        <ele>188.581316</ele>
        <time>2022-08-10T09:47:31.116Z</time>
      </trkpt>
      <trkpt lat="43.72442" lon="1.51741">
        <ele>188.382578</ele>
        <time>2022-08-10T09:47:33.138Z</time>
      </trkpt>
      <trkpt lat="43.72442" lon="1.51724">
        <ele>188.183686</ele>
        <time>2022-08-10T09:47:35.115Z</time>
      </trkpt>
      <trkpt lat="43.72441" lon="1.51707">
        <ele>187.984852</ele>
        <time>2022-08-10T09:47:37.105Z</time>
      </trkpt>
      <trkpt lat="43.72441" lon="1.5169">
        <ele>187.787251</ele>
        <time>2022-08-10T09:47:39.129Z</time>
      </trkpt>
      <trkpt lat="43.72441" lon="1.51673">
        <ele>187.590804</ele>
        <time>2022-08-10T09:47:41.120Z</time>
      </trkpt>
      <trkpt lat="43.72441" lon="1.51655">
        <ele>187.390911</ele>
        <time>2022-08-10T09:47:43.125Z</time>
      </trkpt>
      <trkpt lat="43.72441" lon="1.51638">
        <ele>187.238759</ele>
        <time>2022-08-10T09:47:45.151Z</time>
      </trkpt>
      <trkpt lat="43.72442" lon="1.51622">
        <ele>187.202124</ele>
        <time>2022-08-10T09:47:47.128Z</time>
      </trkpt>
      <trkpt lat="43.72446" lon="1.51605">
        <ele>187.164963</ele>
        <time>2022-08-10T09:47:49.137Z</time>
      </trkpt>
      <trkpt lat="43.72451" lon="1.5159">
        <ele>187.127462</ele>
        <time>2022-08-10T09:47:51.131Z</time>
      </trkpt>
      <trkpt lat="43.72458" lon="1.51576">
        <ele>187.090277</ele>
        <time>2022-08-10T09:47:53.114Z</time>
      </trkpt>
      <trkpt lat="43.72464" lon="1.51562">
        <ele>187.053997</ele>
        <time>2022-08-10T09:47:55.121Z</time>
      </trkpt>
      <trkpt lat="43.72471" lon="1.51547">
        <ele>187.017561</ele>
        <time>2022-08-10T09:47:57.120Z</time>
      </trkpt>
      <trkpt lat="43.72476" lon="1.51532">
        <ele>186.981048</ele>
        <time>2022-08-10T09:47:59.190Z</time>
      </trkpt>
      <trkpt lat="43.7248" lon="1.51516">
        <ele>186.944094</ele>
        <time>2022-08-10T09:48:01.135Z</time>
      </trkpt>
      <trkpt lat="43.72484" lon="1.515">
        <ele>186.907137</ele>
        <time>2022-08-10T09:48:03.151Z</time>
      </trkpt>
      <trkpt lat="43.72488" lon="1.51484">
        <ele>186.869931</ele>
        <time>2022-08-10T09:48:05.142Z</time>
      </trkpt>
      <trkpt lat="43.72491" lon="1.51468">
        <ele>186.832658</ele>
        <time>2022-08-10T09:48:07.125Z</time>
      </trkpt>
      <trkpt lat="43.72496" lon="1.51452">
        <ele>186.79478</ele>
        <time>2022-08-10T09:48:09.117Z</time>
      </trkpt>
      <trkpt lat="43.72501" lon="1.51436">
        <ele>186.757219</ele>
        <time>2022-08-10T09:48:11.131Z</time>
      </trkpt>
      <trkpt lat="43.72508" lon="1.51422">
        <ele>186.720216</ele>
        <time>2022-08-10T09:48:13.147Z</time>
      </trkpt>
      <trkpt lat="43.72516" lon="1.5141">
        <ele>186.757788</ele>
        <time>2022-08-10T09:48:15.106Z</time>
      </trkpt>
      <trkpt lat="43.72525" lon="1.51401">
        <ele>186.841572</ele>
        <time>2022-08-10T09:48:17.122Z</time>
      </trkpt>
      <trkpt lat="43.72529" lon="1.51387">
        <ele>186.919591</ele>
        <time>2022-08-10T09:48:19.096Z</time>
      </trkpt>
      <trkpt lat="43.72525" lon="1.51373">
        <ele>187.001687</ele>
        <time>2022-08-10T09:48:21.108Z</time>
      </trkpt>
      <trkpt lat="43.72518" lon="1.5136">
        <ele>187.089019</ele>
        <time>2022-08-10T09:48:23.118Z</time>
      </trkpt>
      <trkpt lat="43.72511" lon="1.51347">
        <ele>187.174607</ele>
        <time>2022-08-10T09:48:25.094Z</time>
      </trkpt>
      <trkpt lat="43.72504" lon="1.51335">
        <ele>187.25675</ele>
        <time>2022-08-10T09:48:27.119Z</time>
      </trkpt>
      <trkpt lat="43.72498" lon="1.51323">
        <ele>187.337585</ele>
        <time>2022-08-10T09:48:29.135Z</time>
      </trkpt>
      <trkpt lat="43.72491" lon="1.51311">
        <ele>187.417998</ele>
        <time>2022-08-10T09:48:31.118Z</time>
      </trkpt>
      <trkpt lat="43.72484" lon="1.513">
        <ele>187.498929</ele>
        <time>2022-08-10T09:48:33.129Z</time>
      </trkpt>
      <trkpt lat="43.72477" lon="1.51288">
        <ele>187.580276</ele>
        <time>2022-08-10T09:48:35.116Z</time>
      </trkpt>
      <trkpt lat="43.7247" lon="1.51276">
        <ele>187.662881</ele>
        <time>2022-08-10T09:48:37.118Z</time>
      </trkpt>
      <trkpt lat="43.72463" lon="1.51264">
        <ele>187.747624</ele>
        <time>2022-08-10T09:48:39.131Z</time>
      </trkpt>
      <trkpt lat="43.72453" lon="1.51254">
        <ele>187.835835</ele>
        <time>2022-08-10T09:48:41.097Z</time>
      </trkpt>
      <trkpt lat="43.72446" lon="1.5124">
        <ele>187.927958</ele>
        <time>2022-08-10T09:48:43.097Z</time>
      </trkpt>
      <trkpt lat="43.7244" lon="1.51225">
        <ele>188.020108</ele>
        <time>2022-08-10T09:48:45.122Z</time>
      </trkpt>
      <trkpt lat="43.72433" lon="1.51212">
        <ele>188.009104</ele>
        <time>2022-08-10T09:48:47.125Z</time>
      </trkpt>
      <trkpt lat="43.72425" lon="1.51198">
        <ele>187.95781</ele>
        <time>2022-08-10T09:48:49.116Z</time>
      </trkpt>
      <trkpt lat="43.72418" lon="1.51185">
        <ele>187.908748</ele>
        <time>2022-08-10T09:48:51.152Z</time>
      </trkpt>
      <trkpt lat="43.72411" lon="1.51172">
        <ele>187.86067</ele>
        <time>2022-08-10T09:48:53.114Z</time>
      </trkpt>
      <trkpt lat="43.72405" lon="1.51159">
        <ele>187.812664</ele>
        <time>2022-08-10T09:48:55.112Z</time>
      </trkpt>
      <trkpt lat="43.72399" lon="1.51144">
        <ele>187.762568</ele>
        <time>2022-08-10T09:48:57.110Z</time>
      </trkpt>
      <trkpt lat="43.72393" lon="1.51129">
        <ele>187.710214</ele>
        <time>2022-08-10T09:48:59.121Z</time>
      </trkpt>
      <trkpt lat="43.72386" lon="1.51114">
        <ele>187.655667</ele>
        <time>2022-08-10T09:49:01.114Z</time>
      </trkpt>
      <trkpt lat="43.72379" lon="1.51099">
        <ele>187.600573</ele>
        <time>2022-08-10T09:49:03.122Z</time>
      </trkpt>
      <trkpt lat="43.72372" lon="1.51084">
        <ele>187.545132</ele>
        <time>2022-08-10T09:49:05.152Z</time>
      </trkpt>
      <trkpt lat="43.72364" lon="1.51069">
        <ele>187.491163</ele>
        <time>2022-08-10T09:49:07.121Z</time>
      </trkpt>
      <trkpt lat="43.72357" lon="1.51055">
        <ele>187.437671</ele>
        <time>2022-08-10T09:49:09.136Z</time>
      </trkpt>
      <trkpt lat="43.7235" lon="1.51041">
        <ele>187.385668</ele>
        <time>2022-08-10T09:49:11.127Z</time>
      </trkpt>
      <trkpt lat="43.72343" lon="1.51027">
        <ele>187.334146</ele>
        <time>2022-08-10T09:49:13.103Z</time>
      </trkpt>
      <trkpt lat="43.72336" lon="1.51013">
        <ele>187.3021</ele>
        <time>2022-08-10T09:49:15.110Z</time>
      </trkpt>
      <trkpt lat="43.72329" lon="1.51">
        <ele>187.346403</ele>
        <time>2022-08-10T09:49:17.145Z</time>
      </trkpt>
      <trkpt lat="43.72323" lon="1.50987">
        <ele>187.388465</ele>
        <time>2022-08-10T09:49:19.177Z</time>
      </trkpt>
      <trkpt lat="43.72316" lon="1.50973">
        <ele>187.434959</ele>
        <time>2022-08-10T09:49:21.159Z</time>
      </trkpt>
      <trkpt lat="43.72309" lon="1.50958">
        <ele>187.482374</ele>
        <time>2022-08-10T09:49:23.136Z</time>
      </trkpt>
      <trkpt lat="43.72302" lon="1.50944">
        <ele>187.529107</ele>
        <time>2022-08-10T09:49:25.122Z</time>
      </trkpt>
      <trkpt lat="43.72295" lon="1.50931">
        <ele>187.574485</ele>
        <time>2022-08-10T09:49:27.120Z</time>
      </trkpt>
      <trkpt lat="43.72287" lon="1.50918">
        <ele>187.620291</ele>
        <time>2022-08-10T09:49:29.138Z</time>
      </trkpt>
      <trkpt lat="43.72278" lon="1.50908">
        <ele>187.664603</ele>
        <time>2022-08-10T09:49:31.122Z</time>
      </trkpt>
      <trkpt lat="43.72268" lon="1.50898">
        <ele>187.709513</ele>
        <time>2022-08-10T09:49:33.125Z</time>
      </trkpt>
      <trkpt lat="43.72259" lon="1.50888">
        <ele>187.754597</ele>
        <time>2022-08-10T09:49:35.127Z</time>
      </trkpt>
      <trkpt lat="43.72249" lon="1.50879">
        <ele>187.799193</ele>
        <time>2022-08-10T09:49:37.148Z</time>
      </trkpt>
      <trkpt lat="43.72239" lon="1.5087">
        <ele>187.844727</ele>
        <time>2022-08-10T09:49:39.153Z</time>
      </trkpt>
      <trkpt lat="43.72229" lon="1.50861">
        <ele>187.889794</ele>
        <time>2022-08-10T09:49:41.131Z</time>
      </trkpt>
      <trkpt lat="43.72219" lon="1.50852">
        <ele>187.934395</ele>
        <time>2022-08-10T09:49:43.146Z</time>
      </trkpt>
      <trkpt lat="43.7221" lon="1.50842">
        <ele>187.981747</ele>
        <time>2022-08-10T09:49:45.148Z</time>
      </trkpt>
      <trkpt lat="43.722" lon="1.50833">
        <ele>188.054575</ele>
        <time>2022-08-10T09:49:47.135Z</time>
      </trkpt>
      <trkpt lat="43.72191" lon="1.50823">
        <ele>188.12798</ele>
        <time>2022-08-10T09:49:49.100Z</time>
      </trkpt>
      <trkpt lat="43.72182" lon="1.50812">
        <ele>188.200098</ele>
        <time>2022-08-10T09:49:51.140Z</time>
      </trkpt>
      <trkpt lat="43.72173" lon="1.50802">
        <ele>188.271744</ele>
        <time>2022-08-10T09:49:53.124Z</time>
      </trkpt>
      <trkpt lat="43.72165" lon="1.50791">
        <ele>188.343652</ele>
        <time>2022-08-10T09:49:55.132Z</time>
      </trkpt>
      <trkpt lat="43.72156" lon="1.50779">
        <ele>188.417563</ele>
        <time>2022-08-10T09:49:57.120Z</time>
      </trkpt>
      <trkpt lat="43.72148" lon="1.50767">
        <ele>188.491473</ele>
        <time>2022-08-10T09:49:59.141Z</time>
      </trkpt>
      <trkpt lat="43.72139" lon="1.50756">
        <ele>188.563874</ele>
        <time>2022-08-10T09:50:01.148Z</time>
      </trkpt>
      <trkpt lat="43.72131" lon="1.50745">
        <ele>188.636539</ele>
        <time>2022-08-10T09:50:03.142Z</time>
      </trkpt>
      <trkpt lat="43.72123" lon="1.50733">
        <ele>188.709381</ele>
        <time>2022-08-10T09:50:05.142Z</time>
      </trkpt>
      <trkpt lat="43.72114" lon="1.50723">
        <ele>188.781583</ele>
        <time>2022-08-10T09:50:07.152Z</time>
      </trkpt>
      <trkpt lat="43.72105" lon="1.50713">
        <ele>188.853683</ele>
        <time>2022-08-10T09:50:09.131Z</time>
      </trkpt>
      <trkpt lat="43.72095" lon="1.50704">
        <ele>188.92496</ele>
        <time>2022-08-10T09:50:11.145Z</time>
      </trkpt>
      <trkpt lat="43.72086" lon="1.50695">
        <ele>188.996241</ele>
        <time>2022-08-10T09:50:13.132Z</time>
      </trkpt>
      <trkpt lat="43.72076" lon="1.50687">
        <ele>189.065851</ele>
        <time>2022-08-10T09:50:15.115Z</time>
      </trkpt>
      <trkpt lat="43.72066" lon="1.50679">
        <ele>189.2132</ele>
        <time>2022-08-10T09:50:17.116Z</time>
      </trkpt>
      <trkpt lat="43.72056" lon="1.50671">
        <ele>189.388124</ele>
        <time>2022-08-10T09:50:19.130Z</time>
      </trkpt>
      <trkpt lat="43.72046" lon="1.50664">
        <ele>189.564114</ele>
        <time>2022-08-10T09:50:21.123Z</time>
      </trkpt>
      <trkpt lat="43.72036" lon="1.50655">
        <ele>189.741312</ele>
        <time>2022-08-10T09:50:23.113Z</time>
      </trkpt>
      <trkpt lat="43.72026" lon="1.50647">
        <ele>189.921164</ele>
        <time>2022-08-10T09:50:25.128Z</time>
      </trkpt>
      <trkpt lat="43.72017" lon="1.50639">
        <ele>190.098361</ele>
        <time>2022-08-10T09:50:27.131Z</time>
      </trkpt>
      <trkpt lat="43.72007" lon="1.5063">
        <ele>190.277773</ele>
        <time>2022-08-10T09:50:29.140Z</time>
      </trkpt>
      <trkpt lat="43.71998" lon="1.5062">
        <ele>190.456364</ele>
        <time>2022-08-10T09:50:31.135Z</time>
      </trkpt>
      <trkpt lat="43.71989" lon="1.5061">
        <ele>190.633752</ele>
        <time>2022-08-10T09:50:33.128Z</time>
      </trkpt>
      <trkpt lat="43.71981" lon="1.50599">
        <ele>190.81155</ele>
        <time>2022-08-10T09:50:35.119Z</time>
      </trkpt>
      <trkpt lat="43.71973" lon="1.50588">
        <ele>190.987485</ele>
        <time>2022-08-10T09:50:37.132Z</time>
      </trkpt>
      <trkpt lat="43.71965" lon="1.50576">
        <ele>191.165261</ele>
        <time>2022-08-10T09:50:39.125Z</time>
      </trkpt>
      <trkpt lat="43.71957" lon="1.50565">
        <ele>191.344308</ele>
        <time>2022-08-10T09:50:41.141Z</time>
      </trkpt>
      <trkpt lat="43.71949" lon="1.50553">
        <ele>191.520867</ele>
        <time>2022-08-10T09:50:43.139Z</time>
      </trkpt>
      <trkpt lat="43.71942" lon="1.5054">
        <ele>191.698735</ele>
        <time>2022-08-10T09:50:45.137Z</time>
      </trkpt>
      <trkpt lat="43.71935" lon="1.50528">
        <ele>191.873297</ele>
        <time>2022-08-10T09:50:47.120Z</time>
      </trkpt>
      <trkpt lat="43.71929" lon="1.50516">
        <ele>192.062188</ele>
        <time>2022-08-10T09:50:49.132Z</time>
      </trkpt>
      <trkpt lat="43.71923" lon="1.50506">
        <ele>192.23025</ele>
        <time>2022-08-10T09:50:51.123Z</time>
      </trkpt>
      <trkpt lat="43.71922" lon="1.50492">
        <ele>192.399082</ele>
        <time>2022-08-10T09:50:53.133Z</time>
      </trkpt>
      <trkpt lat="43.71924" lon="1.50478">
        <ele>192.588796</ele>
        <time>2022-08-10T09:50:55.140Z</time>
      </trkpt>
      <trkpt lat="43.71927" lon="1.50463">
        <ele>192.786668</ele>
        <time>2022-08-10T09:50:57.147Z</time>
      </trkpt>
      <trkpt lat="43.7193" lon="1.50447">
        <ele>192.992372</ele>
        <time>2022-08-10T09:50:59.143Z</time>
      </trkpt>
      <trkpt lat="43.71933" lon="1.50431">
        <ele>193.198898</ele>
        <time>2022-08-10T09:51:01.221Z</time>
      </trkpt>
      <trkpt lat="43.71935" lon="1.50416">
        <ele>193.402133</ele>
        <time>2022-08-10T09:51:03.118Z</time>
      </trkpt>
      <trkpt lat="43.71938" lon="1.504">
        <ele>193.606185</ele>
        <time>2022-08-10T09:51:05.134Z</time>
      </trkpt>
      <trkpt lat="43.71941" lon="1.50384">
        <ele>193.811888</ele>
        <time>2022-08-10T09:51:07.117Z</time>
      </trkpt>
      <trkpt lat="43.71944" lon="1.50369">
        <ele>194.016357</ele>
        <time>2022-08-10T09:51:09.122Z</time>
      </trkpt>
      <trkpt lat="43.71946" lon="1.50353">
        <ele>194.220408</ele>
        <time>2022-08-10T09:51:11.117Z</time>
      </trkpt>
      <trkpt lat="43.71949" lon="1.50338">
        <ele>194.425308</ele>
        <time>2022-08-10T09:51:13.136Z</time>
      </trkpt>
      <trkpt lat="43.71952" lon="1.50322">
        <ele>194.628739</ele>
        <time>2022-08-10T09:51:15.124Z</time>
      </trkpt>
      <trkpt lat="43.71955" lon="1.50306">
        <ele>194.834284</ele>
        <time>2022-08-10T09:51:17.155Z</time>
      </trkpt>
      <trkpt lat="43.71958" lon="1.50291">
        <ele>195.039829</ele>
        <time>2022-08-10T09:51:19.155Z</time>
      </trkpt>
      <trkpt lat="43.71959" lon="1.50275">
        <ele>195.268668</ele>
        <time>2022-08-10T09:51:21.142Z</time>
      </trkpt>
      <trkpt lat="43.71956" lon="1.50264">
        <ele>195.450495</ele>
        <time>2022-08-10T09:51:23.150Z</time>
      </trkpt>
      <trkpt lat="43.71946" lon="1.50262">
        <ele>195.654618</ele>
        <time>2022-08-10T09:51:25.134Z</time>
      </trkpt>
      <trkpt lat="43.71936" lon="1.50266">
        <ele>195.857711</ele>
        <time>2022-08-10T09:51:27.133Z</time>
      </trkpt>
      <trkpt lat="43.71926" lon="1.50267">
        <ele>196.062382</ele>
        <time>2022-08-10T09:51:29.108Z</time>
      </trkpt>
      <trkpt lat="43.71915" lon="1.50266">
        <ele>196.274965</ele>
        <time>2022-08-10T09:51:31.129Z</time>
      </trkpt>
      <trkpt lat="43.71905" lon="1.50263">
        <ele>196.49441</ele>
        <time>2022-08-10T09:51:33.125Z</time>
      </trkpt>
      <trkpt lat="43.71894" lon="1.50259">
        <ele>196.712699</ele>
        <time>2022-08-10T09:51:35.129Z</time>
      </trkpt>
      <trkpt lat="43.71884" lon="1.50253">
        <ele>196.9343</ele>
        <time>2022-08-10T09:51:37.123Z</time>
      </trkpt>
      <trkpt lat="43.71876" lon="1.50243">
        <ele>197.154379</ele>
        <time>2022-08-10T09:51:39.144Z</time>
      </trkpt>
      <trkpt lat="43.71869" lon="1.50232">
        <ele>197.369437</ele>
        <time>2022-08-10T09:51:41.145Z</time>
      </trkpt>
      <trkpt lat="43.71861" lon="1.50221">
        <ele>197.590461</ele>
        <time>2022-08-10T09:51:43.155Z</time>
      </trkpt>
      <trkpt lat="43.71854" lon="1.5021">
        <ele>197.814694</ele>
        <time>2022-08-10T09:51:45.146Z</time>
      </trkpt>
      <trkpt lat="43.71846" lon="1.50199">
        <ele>198.041747</ele>
        <time>2022-08-10T09:51:47.143Z</time>
      </trkpt>
      <trkpt lat="43.71838" lon="1.50188">
        <ele>198.269502</ele>
        <time>2022-08-10T09:51:49.137Z</time>
      </trkpt>
      <trkpt lat="43.71831" lon="1.50176">
        <ele>198.501074</ele>
        <time>2022-08-10T09:51:51.129Z</time>
      </trkpt>
      <trkpt lat="43.71823" lon="1.50165">
        <ele>198.711808</ele>
        <time>2022-08-10T09:51:53.143Z</time>
      </trkpt>
      <trkpt lat="43.71815" lon="1.50153">
        <ele>198.872565</ele>
        <time>2022-08-10T09:51:55.111Z</time>
      </trkpt>
      <trkpt lat="43.71807" lon="1.50141">
        <ele>199.033713</ele>
        <time>2022-08-10T09:51:57.133Z</time>
      </trkpt>
      <trkpt lat="43.718" lon="1.50129">
        <ele>199.195409</ele>
        <time>2022-08-10T09:51:59.143Z</time>
      </trkpt>
      <trkpt lat="43.71792" lon="1.50117">
        <ele>199.360709</ele>
        <time>2022-08-10T09:52:01.151Z</time>
      </trkpt>
      <trkpt lat="43.71784" lon="1.50105">
        <ele>199.523921</ele>
        <time>2022-08-10T09:52:03.125Z</time>
      </trkpt>
      <trkpt lat="43.71776" lon="1.50094">
        <ele>199.686999</ele>
        <time>2022-08-10T09:52:05.142Z</time>
      </trkpt>
      <trkpt lat="43.71768" lon="1.50083">
        <ele>199.850154</ele>
        <time>2022-08-10T09:52:07.131Z</time>
      </trkpt>
      <trkpt lat="43.71759" lon="1.50072">
        <ele>200.01089</ele>
        <time>2022-08-10T09:52:09.136Z</time>
      </trkpt>
      <trkpt lat="43.7175" lon="1.50063">
        <ele>200.172916</ele>
        <time>2022-08-10T09:52:11.148Z</time>
      </trkpt>
      <trkpt lat="43.71739" lon="1.50056">
        <ele>200.334993</ele>
        <time>2022-08-10T09:52:13.120Z</time>
      </trkpt>
      <trkpt lat="43.71729" lon="1.5005">
        <ele>200.498618</ele>
        <time>2022-08-10T09:52:15.116Z</time>
      </trkpt>
      <trkpt lat="43.71717" lon="1.50045">
        <ele>200.662581</ele>
        <time>2022-08-10T09:52:17.140Z</time>
      </trkpt>
      <trkpt lat="43.71706" lon="1.50041">
        <ele>200.824896</ele>
        <time>2022-08-10T09:52:19.134Z</time>
      </trkpt>
      <trkpt lat="43.71695" lon="1.50036">
        <ele>200.987669</ele>
        <time>2022-08-10T09:52:21.110Z</time>
      </trkpt>
      <trkpt lat="43.71684" lon="1.50032">
        <ele>201.148807</ele>
        <time>2022-08-10T09:52:23.148Z</time>
      </trkpt>
      <trkpt lat="43.71674" lon="1.50027">
        <ele>201.396976</ele>
        <time>2022-08-10T09:52:25.136Z</time>
      </trkpt>
      <trkpt lat="43.71664" lon="1.5002">
        <ele>201.694037</ele>
        <time>2022-08-10T09:52:27.164Z</time>
      </trkpt>
      <trkpt lat="43.71655" lon="1.50012">
        <ele>201.984161</ele>
        <time>2022-08-10T09:52:29.120Z</time>
      </trkpt>
      <trkpt lat="43.71647" lon="1.50001">
        <ele>202.271728</ele>
        <time>2022-08-10T09:52:31.141Z</time>
      </trkpt>
      <trkpt lat="43.71642" lon="1.49988">
        <ele>202.560329</ele>
        <time>2022-08-10T09:52:33.152Z</time>
      </trkpt>
      <trkpt lat="43.71639" lon="1.49973">
        <ele>202.847278</ele>
        <time>2022-08-10T09:52:35.134Z</time>
      </trkpt>
      <trkpt lat="43.71637" lon="1.49959">
        <ele>203.131641</ele>
        <time>2022-08-10T09:52:37.142Z</time>
      </trkpt>
      <trkpt lat="43.71635" lon="1.49944">
        <ele>203.418493</ele>
        <time>2022-08-10T09:52:39.126Z</time>
      </trkpt>
      <trkpt lat="43.71633" lon="1.49929">
        <ele>203.709537</ele>
        <time>2022-08-10T09:52:41.146Z</time>
      </trkpt>
      <trkpt lat="43.71632" lon="1.49914">
        <ele>204.001449</ele>
        <time>2022-08-10T09:52:43.153Z</time>
      </trkpt>
      <trkpt lat="43.7163" lon="1.49899">
        <ele>204.2906</ele>
        <time>2022-08-10T09:52:45.143Z</time>
      </trkpt>
      <trkpt lat="43.71628" lon="1.49884">
        <ele>204.580175</ele>
        <time>2022-08-10T09:52:47.125Z</time>
      </trkpt>
      <trkpt lat="43.71626" lon="1.4987">
        <ele>204.864539</ele>
        <time>2022-08-10T09:52:49.133Z</time>
      </trkpt>
      <trkpt lat="43.71624" lon="1.49855">
        <ele>205.153151</ele>
        <time>2022-08-10T09:52:51.153Z</time>
      </trkpt>
      <trkpt lat="43.71622" lon="1.4984">
        <ele>205.434744</ele>
        <time>2022-08-10T09:52:53.187Z</time>
      </trkpt>
      <trkpt lat="43.7162" lon="1.49826">
        <ele>205.712579</ele>
        <time>2022-08-10T09:52:55.131Z</time>
      </trkpt>
      <trkpt lat="43.71618" lon="1.49812">
        <ele>206.035504</ele>
        <time>2022-08-10T09:52:57.145Z</time>
      </trkpt>
      <trkpt lat="43.71616" lon="1.49798">
        <ele>206.806342</ele>
        <time>2022-08-10T09:52:59.156Z</time>
      </trkpt>
      <trkpt lat="43.71614" lon="1.49784">
        <ele>207.590321</ele>
        <time>2022-08-10T09:53:01.142Z</time>
      </trkpt>
      <trkpt lat="43.71613" lon="1.4977">
        <ele>208.3307</ele>
        <time>2022-08-10T09:53:03.133Z</time>
      </trkpt>
      <trkpt lat="43.71608" lon="1.49757">
        <ele>209.149747</ele>
        <time>2022-08-10T09:53:06.134Z</time>
      </trkpt>
      <trkpt lat="43.71605" lon="1.49741">
        <ele>210.037354</ele>
        <time>2022-08-10T09:53:09.126Z</time>
      </trkpt>
      <trkpt lat="43.71601" lon="1.49725">
        <ele>210.959416</ele>
        <time>2022-08-10T09:53:12.130Z</time>
      </trkpt>
      <trkpt lat="43.71597" lon="1.49708">
        <ele>211.959379</ele>
        <time>2022-08-10T09:53:15.142Z</time>
      </trkpt>
      <trkpt lat="43.71594" lon="1.49695">
        <ele>212.684118</ele>
        <time>2022-08-10T09:53:17.131Z</time>
      </trkpt>
      <trkpt lat="43.71593" lon="1.49677">
        <ele>213.673021</ele>
        <time>2022-08-10T09:53:20.122Z</time>
      </trkpt>
      <trkpt lat="43.71592" lon="1.49659">
        <ele>214.65736</ele>
        <time>2022-08-10T09:53:23.117Z</time>
      </trkpt>
      <trkpt lat="43.71592" lon="1.49643">
        <ele>215.54288</ele>
        <time>2022-08-10T09:53:26.131Z</time>
      </trkpt>
      <trkpt lat="43.71592" lon="1.49627">
        <ele>216.396778</ele>
        <time>2022-08-10T09:53:29.129Z</time>
      </trkpt>
      <trkpt lat="43.71593" lon="1.49611">
        <ele>217.318169</ele>
        <time>2022-08-10T09:53:32.130Z</time>
      </trkpt>
      <trkpt lat="43.71593" lon="1.49595">
        <ele>218.173004</ele>
        <time>2022-08-10T09:53:35.134Z</time>
      </trkpt>
      <trkpt lat="43.71595" lon="1.49582">
        <ele>218.893862</ele>
        <time>2022-08-10T09:53:38.125Z</time>
      </trkpt>
      <trkpt lat="43.71595" lon="1.49569">
        <ele>219.59529</ele>
        <time>2022-08-10T09:53:41.135Z</time>
      </trkpt>
      <trkpt lat="43.71595" lon="1.49553">
        <ele>220.340855</ele>
        <time>2022-08-10T09:53:45.110Z</time>
      </trkpt>
      <trkpt lat="43.71596" lon="1.49536">
        <ele>221.110401</ele>
        <time>2022-08-10T09:53:49.137Z</time>
      </trkpt>
      <trkpt lat="43.71597" lon="1.49519">
        <ele>221.876435</ele>
        <time>2022-08-10T09:53:53.132Z</time>
      </trkpt>
      <trkpt lat="43.71597" lon="1.49506">
        <ele>222.465753</ele>
        <time>2022-08-10T09:53:56.120Z</time>
      </trkpt>
      <trkpt lat="43.71597" lon="1.49492">
        <ele>223.105568</ele>
        <time>2022-08-10T09:53:59.146Z</time>
      </trkpt>
      <trkpt lat="43.71596" lon="1.49477">
        <ele>223.823761</ele>
        <time>2022-08-10T09:54:03.114Z</time>
      </trkpt>
      <trkpt lat="43.71596" lon="1.49464">
        <ele>224.41308</ele>
        <time>2022-08-10T09:54:06.116Z</time>
      </trkpt>
      <trkpt lat="43.71596" lon="1.4945">
        <ele>225.020933</ele>
        <time>2022-08-10T09:54:09.124Z</time>
      </trkpt>
      <trkpt lat="43.71596" lon="1.49437">
        <ele>225.619654</ele>
        <time>2022-08-10T09:54:12.104Z</time>
      </trkpt>
      <trkpt lat="43.71595" lon="1.49423">
        <ele>226.275943</ele>
        <time>2022-08-10T09:54:15.127Z</time>
      </trkpt>
      <trkpt lat="43.71592" lon="1.49409">
        <ele>226.927367</ele>
        <time>2022-08-10T09:54:18.117Z</time>
      </trkpt>
      <trkpt lat="43.71588" lon="1.49395">
        <ele>227.642747</ele>
        <time>2022-08-10T09:54:21.118Z</time>
      </trkpt>
      <trkpt lat="43.71582" lon="1.49379">
        <ele>228.440039</ele>
        <time>2022-08-10T09:54:24.127Z</time>
      </trkpt>
      <trkpt lat="43.71577" lon="1.49369">
        <ele>229.022541</ele>
        <time>2022-08-10T09:54:26.132Z</time>
      </trkpt>
      <trkpt lat="43.71572" lon="1.49357">
        <ele>229.642208</ele>
        <time>2022-08-10T09:54:28.124Z</time>
      </trkpt>
      <trkpt lat="43.71566" lon="1.49345">
        <ele>230.276352</ele>
        <time>2022-08-10T09:54:30.122Z</time>
      </trkpt>
      <trkpt lat="43.7156" lon="1.49334">
        <ele>230.924692</ele>
        <time>2022-08-10T09:54:32.118Z</time>
      </trkpt>
      <trkpt lat="43.71555" lon="1.49321">
        <ele>231.199525</ele>
        <time>2022-08-10T09:54:34.114Z</time>
      </trkpt>
      <trkpt lat="43.71549" lon="1.4931">
        <ele>231.462469</ele>
        <time>2022-08-10T09:54:36.115Z</time>
      </trkpt>
      <trkpt lat="43.71544" lon="1.49298">
        <ele>231.726089</ele>
        <time>2022-08-10T09:54:38.115Z</time>
      </trkpt>
      <trkpt lat="43.71538" lon="1.49285">
        <ele>231.991549</ele>
        <time>2022-08-10T09:54:40.129Z</time>
      </trkpt>
      <trkpt lat="43.71533" lon="1.49273">
        <ele>232.251537</ele>
        <time>2022-08-10T09:54:42.140Z</time>
      </trkpt>
      <trkpt lat="43.71528" lon="1.49261">
        <ele>232.51314</ele>
        <time>2022-08-10T09:54:44.118Z</time>
      </trkpt>
      <trkpt lat="43.71523" lon="1.49248">
        <ele>232.784996</ele>
        <time>2022-08-10T09:54:46.141Z</time>
      </trkpt>
      <trkpt lat="43.71518" lon="1.49236">
        <ele>233.054323</ele>
        <time>2022-08-10T09:54:48.111Z</time>
      </trkpt>
      <trkpt lat="43.71513" lon="1.49223">
        <ele>233.316606</ele>
        <time>2022-08-10T09:54:50.114Z</time>
      </trkpt>
      <trkpt lat="43.71507" lon="1.49212">
        <ele>233.573661</ele>
        <time>2022-08-10T09:54:52.111Z</time>
      </trkpt>
      <trkpt lat="43.71501" lon="1.492">
        <ele>233.835139</ele>
        <time>2022-08-10T09:54:54.105Z</time>
      </trkpt>
      <trkpt lat="43.71495" lon="1.49189">
        <ele>234.098085</ele>
        <time>2022-08-10T09:54:56.118Z</time>
      </trkpt>
      <trkpt lat="43.71489" lon="1.49178">
        <ele>234.363106</ele>
        <time>2022-08-10T09:54:58.108Z</time>
      </trkpt>
      <trkpt lat="43.71482" lon="1.49167">
        <ele>234.622216</ele>
        <time>2022-08-10T09:55:00.116Z</time>
      </trkpt>
      <trkpt lat="43.71476" lon="1.49157">
        <ele>234.876837</ele>
        <time>2022-08-10T09:55:02.121Z</time>
      </trkpt>
      <trkpt lat="43.71469" lon="1.49146">
        <ele>235.13201</ele>
        <time>2022-08-10T09:55:04.115Z</time>
      </trkpt>
      <trkpt lat="43.71463" lon="1.49136">
        <ele>235.38442</ele>
        <time>2022-08-10T09:55:06.119Z</time>
      </trkpt>
      <trkpt lat="43.71456" lon="1.49126">
        <ele>235.634332</ele>
        <time>2022-08-10T09:55:08.113Z</time>
      </trkpt>
      <trkpt lat="43.71449" lon="1.49116">
        <ele>235.886384</ele>
        <time>2022-08-10T09:55:10.130Z</time>
      </trkpt>
      <trkpt lat="43.71443" lon="1.49107">
        <ele>236.125272</ele>
        <time>2022-08-10T09:55:12.129Z</time>
      </trkpt>
      <trkpt lat="43.71434" lon="1.49094">
        <ele>236.46225</ele>
        <time>2022-08-10T09:55:15.149Z</time>
      </trkpt>
      <trkpt lat="43.71425" lon="1.49081">
        <ele>236.792746</ele>
        <time>2022-08-10T09:55:18.111Z</time>
      </trkpt>
      <trkpt lat="43.71415" lon="1.49068">
        <ele>237.128928</ele>
        <time>2022-08-10T09:55:21.113Z</time>
      </trkpt>
      <trkpt lat="43.71405" lon="1.49056">
        <ele>237.466811</ele>
        <time>2022-08-10T09:55:24.154Z</time>
      </trkpt>
      <trkpt lat="43.71397" lon="1.49043">
        <ele>237.79495</ele>
        <time>2022-08-10T09:55:27.130Z</time>
      </trkpt>
      <trkpt lat="43.7139" lon="1.49034">
        <ele>238.028436</ele>
        <time>2022-08-10T09:55:29.138Z</time>
      </trkpt>
      <trkpt lat="43.71382" lon="1.49019">
        <ele>238.361853</ele>
        <time>2022-08-10T09:55:32.127Z</time>
      </trkpt>
      <trkpt lat="43.71376" lon="1.49003">
        <ele>238.698759</ele>
        <time>2022-08-10T09:55:35.124Z</time>
      </trkpt>
      <trkpt lat="43.71371" lon="1.48986">
        <ele>239.040313</ele>
        <time>2022-08-10T09:55:38.134Z</time>
      </trkpt>
      <trkpt lat="43.71367" lon="1.48974">
        <ele>239.293853</ele>
        <time>2022-08-10T09:55:40.137Z</time>
      </trkpt>
      <trkpt lat="43.71363" lon="1.4896">
        <ele>239.574821</ele>
        <time>2022-08-10T09:55:42.143Z</time>
      </trkpt>
      <trkpt lat="43.71358" lon="1.48945">
        <ele>239.871631</ele>
        <time>2022-08-10T09:55:44.140Z</time>
      </trkpt>
      <trkpt lat="43.71353" lon="1.4893">
        <ele>240.134912</ele>
        <time>2022-08-10T09:55:46.107Z</time>
      </trkpt>
      <trkpt lat="43.71347" lon="1.48915">
        <ele>240.079521</ele>
        <time>2022-08-10T09:55:48.144Z</time>
      </trkpt>
      <trkpt lat="43.7134" lon="1.489">
        <ele>240.024564</ele>
        <time>2022-08-10T09:55:50.113Z</time>
      </trkpt>
      <trkpt lat="43.71333" lon="1.48886">
        <ele>239.969484</ele>
        <time>2022-08-10T09:55:52.116Z</time>
      </trkpt>
      <trkpt lat="43.71327" lon="1.48872">
        <ele>239.91665</ele>
        <time>2022-08-10T09:55:54.155Z</time>
      </trkpt>
      <trkpt lat="43.7132" lon="1.48861">
        <ele>239.868386</ele>
        <time>2022-08-10T09:55:56.121Z</time>
      </trkpt>
      <trkpt lat="43.71314" lon="1.48848">
        <ele>239.819062</ele>
        <time>2022-08-10T09:55:58.135Z</time>
      </trkpt>
      <trkpt lat="43.71307" lon="1.48836">
        <ele>239.767878</ele>
        <time>2022-08-10T09:56:00.145Z</time>
      </trkpt>
      <trkpt lat="43.713" lon="1.48823">
        <ele>239.714659</ele>
        <time>2022-08-10T09:56:02.150Z</time>
      </trkpt>
      <trkpt lat="43.71293" lon="1.4881">
        <ele>239.662222</ele>
        <time>2022-08-10T09:56:04.152Z</time>
      </trkpt>
      <trkpt lat="43.71286" lon="1.48797">
        <ele>239.610314</ele>
        <time>2022-08-10T09:56:06.160Z</time>
      </trkpt>
      <trkpt lat="43.71279" lon="1.48784">
        <ele>239.558926</ele>
        <time>2022-08-10T09:56:08.134Z</time>
      </trkpt>
      <trkpt lat="43.71272" lon="1.48771">
        <ele>239.507541</ele>
        <time>2022-08-10T09:56:10.121Z</time>
      </trkpt>
      <trkpt lat="43.71265" lon="1.48758">
        <ele>239.455053</ele>
        <time>2022-08-10T09:56:12.109Z</time>
      </trkpt>
      <trkpt lat="43.71258" lon="1.48746">
        <ele>239.403535</ele>
        <time>2022-08-10T09:56:14.116Z</time>
      </trkpt>
      <trkpt lat="43.71251" lon="1.48734">
        <ele>239.353371</ele>
        <time>2022-08-10T09:56:16.106Z</time>
      </trkpt>
      <trkpt lat="43.71244" lon="1.48722">
        <ele>239.349131</ele>
        <time>2022-08-10T09:56:18.107Z</time>
      </trkpt>
      <trkpt lat="43.71236" lon="1.4871">
        <ele>239.36859</ele>
        <time>2022-08-10T09:56:20.135Z</time>
      </trkpt>
      <trkpt lat="43.71229" lon="1.48698">
        <ele>239.388158</ele>
        <time>2022-08-10T09:56:22.125Z</time>
      </trkpt>
      <trkpt lat="43.71221" lon="1.48685">
        <ele>239.407819</ele>
        <time>2022-08-10T09:56:24.139Z</time>
      </trkpt>
      <trkpt lat="43.71214" lon="1.48673">
        <ele>239.427648</ele>
        <time>2022-08-10T09:56:26.125Z</time>
      </trkpt>
      <trkpt lat="43.71206" lon="1.48661">
        <ele>239.447702</ele>
        <time>2022-08-10T09:56:28.117Z</time>
      </trkpt>
      <trkpt lat="43.71199" lon="1.48648">
        <ele>239.467756</ele>
        <time>2022-08-10T09:56:30.127Z</time>
      </trkpt>
      <trkpt lat="43.71191" lon="1.48636">
        <ele>239.487544</ele>
        <time>2022-08-10T09:56:32.146Z</time>
      </trkpt>
      <trkpt lat="43.71184" lon="1.48623">
        <ele>239.507395</ele>
        <time>2022-08-10T09:56:34.095Z</time>
      </trkpt>
      <trkpt lat="43.71177" lon="1.48611">
        <ele>239.52692</ele>
        <time>2022-08-10T09:56:36.125Z</time>
      </trkpt>
      <trkpt lat="43.7117" lon="1.48598">
        <ele>239.546044</ele>
        <time>2022-08-10T09:56:38.111Z</time>
      </trkpt>
      <trkpt lat="43.71161" lon="1.48589">
        <ele>239.565151</ele>
        <time>2022-08-10T09:56:40.105Z</time>
      </trkpt>
      <trkpt lat="43.71153" lon="1.48578">
        <ele>239.584727</ele>
        <time>2022-08-10T09:56:42.125Z</time>
      </trkpt>
      <trkpt lat="43.71144" lon="1.48566">
        <ele>239.605635</ele>
        <time>2022-08-10T09:56:44.100Z</time>
      </trkpt>
      <trkpt lat="43.71134" lon="1.48555">
        <ele>239.626629</ele>
        <time>2022-08-10T09:56:46.121Z</time>
      </trkpt>
      <trkpt lat="43.71124" lon="1.48544">
        <ele>239.602176</ele>
        <time>2022-08-10T09:56:48.130Z</time>
      </trkpt>
      <trkpt lat="43.71114" lon="1.48532">
        <ele>239.474339</ele>
        <time>2022-08-10T09:56:50.123Z</time>
      </trkpt>
      <trkpt lat="43.71104" lon="1.4852">
        <ele>239.346222</ele>
        <time>2022-08-10T09:56:52.127Z</time>
      </trkpt>
      <trkpt lat="43.71094" lon="1.48508">
        <ele>239.213351</ele>
        <time>2022-08-10T09:56:54.120Z</time>
      </trkpt>
      <trkpt lat="43.71084" lon="1.48497">
        <ele>239.084003</ele>
        <time>2022-08-10T09:56:56.113Z</time>
      </trkpt>
      <trkpt lat="43.71074" lon="1.48485">
        <ele>238.956636</ele>
        <time>2022-08-10T09:56:58.135Z</time>
      </trkpt>
      <trkpt lat="43.71064" lon="1.48474">
        <ele>238.833165</ele>
        <time>2022-08-10T09:57:00.159Z</time>
      </trkpt>
      <trkpt lat="43.71055" lon="1.48463">
        <ele>238.714527</ele>
        <time>2022-08-10T09:57:02.118Z</time>
      </trkpt>
      <trkpt lat="43.71046" lon="1.48452">
        <ele>238.597306</ele>
        <time>2022-08-10T09:57:04.109Z</time>
      </trkpt>
      <trkpt lat="43.71036" lon="1.48443">
        <ele>238.481564</ele>
        <time>2022-08-10T09:57:06.126Z</time>
      </trkpt>
      <trkpt lat="43.71027" lon="1.48433">
        <ele>238.366322</ele>
        <time>2022-08-10T09:57:08.123Z</time>
      </trkpt>
      <trkpt lat="43.71019" lon="1.48426">
        <ele>238.272843</ele>
        <time>2022-08-10T09:57:10.118Z</time>
      </trkpt>
      <trkpt lat="43.71011" lon="1.48418">
        <ele>238.174083</ele>
        <time>2022-08-10T09:57:16.117Z</time>
      </trkpt>
      <trkpt lat="43.71004" lon="1.4841">
        <ele>238.084152</ele>
        <time>2022-08-10T09:57:19.116Z</time>
      </trkpt>
      <trkpt lat="43.70994" lon="1.48399">
        <ele>237.959838</ele>
        <time>2022-08-10T09:57:22.118Z</time>
      </trkpt>
      <trkpt lat="43.70986" lon="1.48391">
        <ele>237.869435</ele>
        <time>2022-08-10T09:57:24.117Z</time>
      </trkpt>
      <trkpt lat="43.70978" lon="1.48382">
        <ele>237.835168</ele>
        <time>2022-08-10T09:57:26.131Z</time>
      </trkpt>
      <trkpt lat="43.70969" lon="1.48373">
        <ele>237.798682</ele>
        <time>2022-08-10T09:57:28.116Z</time>
      </trkpt>
      <trkpt lat="43.7096" lon="1.48363">
        <ele>237.763909</ele>
        <time>2022-08-10T09:57:30.124Z</time>
      </trkpt>
      <trkpt lat="43.70951" lon="1.48354">
        <ele>237.726658</ele>
        <time>2022-08-10T09:57:32.146Z</time>
      </trkpt>
      <trkpt lat="43.70941" lon="1.48345">
        <ele>237.689687</ele>
        <time>2022-08-10T09:57:34.093Z</time>
      </trkpt>
      <trkpt lat="43.70931" lon="1.48336">
        <ele>237.652294</ele>
        <time>2022-08-10T09:57:36.118Z</time>
      </trkpt>
      <trkpt lat="43.70921" lon="1.48328">
        <ele>237.614015</ele>
        <time>2022-08-10T09:57:38.136Z</time>
      </trkpt>
      <trkpt lat="43.7091" lon="1.48321">
        <ele>237.575979</ele>
        <time>2022-08-10T09:57:40.128Z</time>
      </trkpt>
      <trkpt lat="43.709" lon="1.48313">
        <ele>237.539151</ele>
        <time>2022-08-10T09:57:42.111Z</time>
      </trkpt>
      <trkpt lat="43.7089" lon="1.48305">
        <ele>237.502396</ele>
        <time>2022-08-10T09:57:44.129Z</time>
      </trkpt>
      <trkpt lat="43.7088" lon="1.48298">
        <ele>237.466297</ele>
        <time>2022-08-10T09:57:46.126Z</time>
      </trkpt>
      <trkpt lat="43.70869" lon="1.48291">
        <ele>237.42777</ele>
        <time>2022-08-10T09:57:48.148Z</time>
      </trkpt>
      <trkpt lat="43.70859" lon="1.48284">
        <ele>237.391468</ele>
        <time>2022-08-10T09:57:50.128Z</time>
      </trkpt>
      <trkpt lat="43.70848" lon="1.48277">
        <ele>237.354779</ele>
        <time>2022-08-10T09:57:52.131Z</time>
      </trkpt>
      <trkpt lat="43.70838" lon="1.48269">
        <ele>237.317882</ele>
        <time>2022-08-10T09:57:54.127Z</time>
      </trkpt>
      <trkpt lat="43.70828" lon="1.48262">
        <ele>237.325181</ele>
        <time>2022-08-10T09:57:56.121Z</time>
      </trkpt>
      <trkpt lat="43.70818" lon="1.48255">
        <ele>237.378699</ele>
        <time>2022-08-10T09:57:58.105Z</time>
      </trkpt>
      <trkpt lat="43.70808" lon="1.48248">
        <ele>237.432264</ele>
        <time>2022-08-10T09:58:00.125Z</time>
      </trkpt>
      <trkpt lat="43.70798" lon="1.48241">
        <ele>237.485669</ele>
        <time>2022-08-10T09:58:02.121Z</time>
      </trkpt>
      <trkpt lat="43.70788" lon="1.48234">
        <ele>237.539186</ele>
        <time>2022-08-10T09:58:04.129Z</time>
      </trkpt>
      <trkpt lat="43.70778" lon="1.48227">
        <ele>237.592121</ele>
        <time>2022-08-10T09:58:06.134Z</time>
      </trkpt>
      <trkpt lat="43.70768" lon="1.48221">
        <ele>237.644022</ele>
        <time>2022-08-10T09:58:08.131Z</time>
      </trkpt>
      <trkpt lat="43.70758" lon="1.48215">
        <ele>237.69563</ele>
        <time>2022-08-10T09:58:10.105Z</time>
      </trkpt>
      <trkpt lat="43.70748" lon="1.48208">
        <ele>237.74869</ele>
        <time>2022-08-10T09:58:12.125Z</time>
      </trkpt>
      <trkpt lat="43.70738" lon="1.48202">
        <ele>237.801772</ele>
        <time>2022-08-10T09:58:14.124Z</time>
      </trkpt>
      <trkpt lat="43.70728" lon="1.48196">
        <ele>237.855737</ele>
        <time>2022-08-10T09:58:16.118Z</time>
      </trkpt>
      <trkpt lat="43.70717" lon="1.4819">
        <ele>237.909701</ele>
        <time>2022-08-10T09:58:18.121Z</time>
      </trkpt>
      <trkpt lat="43.70708" lon="1.48184">
        <ele>237.961901</ele>
        <time>2022-08-10T09:58:20.124Z</time>
      </trkpt>
      <trkpt lat="43.70698" lon="1.48177">
        <ele>238.01367</ele>
        <time>2022-08-10T09:58:22.127Z</time>
      </trkpt>
      <trkpt lat="43.70689" lon="1.48169">
        <ele>238.065307</ele>
        <time>2022-08-10T09:58:24.130Z</time>
      </trkpt>
      <trkpt lat="43.7068" lon="1.48161">
        <ele>238.115724</ele>
        <time>2022-08-10T09:58:26.110Z</time>
      </trkpt>
      <trkpt lat="43.70671" lon="1.48152">
        <ele>238.157975</ele>
        <time>2022-08-10T09:58:28.121Z</time>
      </trkpt>
      <trkpt lat="43.70663" lon="1.48142">
        <ele>238.141027</ele>
        <time>2022-08-10T09:58:30.107Z</time>
      </trkpt>
      <trkpt lat="43.70656" lon="1.4813">
        <ele>238.123356</ele>
        <time>2022-08-10T09:58:32.112Z</time>
      </trkpt>
      <trkpt lat="43.70649" lon="1.48118">
        <ele>238.105224</ele>
        <time>2022-08-10T09:58:34.128Z</time>
      </trkpt>
      <trkpt lat="43.70641" lon="1.48104">
        <ele>238.08665</ele>
        <time>2022-08-10T09:58:36.117Z</time>
      </trkpt>
      <trkpt lat="43.70634" lon="1.48091">
        <ele>238.067802</ele>
        <time>2022-08-10T09:58:38.137Z</time>
      </trkpt>
      <trkpt lat="43.70627" lon="1.48078">
        <ele>238.049228</ele>
        <time>2022-08-10T09:58:40.132Z</time>
      </trkpt>
      <trkpt lat="43.7062" lon="1.48065">
        <ele>238.031013</ele>
        <time>2022-08-10T09:58:42.128Z</time>
      </trkpt>
      <trkpt lat="43.70613" lon="1.48052">
        <ele>238.01316</ele>
        <time>2022-08-10T09:58:44.139Z</time>
      </trkpt>
      <trkpt lat="43.70606" lon="1.48039">
        <ele>237.994667</ele>
        <time>2022-08-10T09:58:46.139Z</time>
      </trkpt>
      <trkpt lat="43.70598" lon="1.48026">
        <ele>237.97635</ele>
        <time>2022-08-10T09:58:48.126Z</time>
      </trkpt>
      <trkpt lat="43.70592" lon="1.48013">
        <ele>237.958505</ele>
        <time>2022-08-10T09:58:50.120Z</time>
      </trkpt>
      <trkpt lat="43.70585" lon="1.48001">
        <ele>237.940567</ele>
        <time>2022-08-10T09:58:52.118Z</time>
      </trkpt>
      <trkpt lat="43.70578" lon="1.47987">
        <ele>237.922443</ele>
        <time>2022-08-10T09:58:54.120Z</time>
      </trkpt>
      <trkpt lat="43.70572" lon="1.47974">
        <ele>237.904391</ele>
        <time>2022-08-10T09:58:56.111Z</time>
      </trkpt>
      <trkpt lat="43.70566" lon="1.4796">
        <ele>237.886491</ele>
        <time>2022-08-10T09:58:58.123Z</time>
      </trkpt>
      <trkpt lat="43.70559" lon="1.47947">
        <ele>237.954404</ele>
        <time>2022-08-10T09:59:00.133Z</time>
      </trkpt>
      <trkpt lat="43.70553" lon="1.47933">
        <ele>238.057346</ele>
        <time>2022-08-10T09:59:02.115Z</time>
      </trkpt>
      <trkpt lat="43.70547" lon="1.47919">
        <ele>238.161141</ele>
        <time>2022-08-10T09:59:04.105Z</time>
      </trkpt>
      <trkpt lat="43.70541" lon="1.47906">
        <ele>238.263736</ele>
        <time>2022-08-10T09:59:06.128Z</time>
      </trkpt>
      <trkpt lat="43.70535" lon="1.47892">
        <ele>238.366519</ele>
        <time>2022-08-10T09:59:08.110Z</time>
      </trkpt>
      <trkpt lat="43.70529" lon="1.47879">
        <ele>238.468563</ele>
        <time>2022-08-10T09:59:10.114Z</time>
      </trkpt>
      <trkpt lat="43.70523" lon="1.47866">
        <ele>238.568358</ele>
        <time>2022-08-10T09:59:12.127Z</time>
      </trkpt>
      <trkpt lat="43.70517" lon="1.47853">
        <ele>238.669681</ele>
        <time>2022-08-10T09:59:14.127Z</time>
      </trkpt>
      <trkpt lat="43.70511" lon="1.47839">
        <ele>238.771906</ele>
        <time>2022-08-10T09:59:16.118Z</time>
      </trkpt>
      <trkpt lat="43.70506" lon="1.47825">
        <ele>238.875328</ele>
        <time>2022-08-10T09:59:18.119Z</time>
      </trkpt>
      <trkpt lat="43.705" lon="1.47811">
        <ele>238.977218</ele>
        <time>2022-08-10T09:59:20.127Z</time>
      </trkpt>
      <trkpt lat="43.70495" lon="1.47798">
        <ele>239.077243</ele>
        <time>2022-08-10T09:59:22.128Z</time>
      </trkpt>
      <trkpt lat="43.70489" lon="1.47785">
        <ele>239.176497</ele>
        <time>2022-08-10T09:59:24.118Z</time>
      </trkpt>
      <trkpt lat="43.70482" lon="1.47773">
        <ele>239.276231</ele>
        <time>2022-08-10T09:59:26.141Z</time>
      </trkpt>
      <trkpt lat="43.70474" lon="1.47763">
        <ele>239.373688</ele>
        <time>2022-08-10T09:59:28.120Z</time>
      </trkpt>
      <trkpt lat="43.70464" lon="1.47756">
        <ele>239.473676</ele>
        <time>2022-08-10T09:59:30.129Z</time>
      </trkpt>
      <trkpt lat="43.70453" lon="1.47751">
        <ele>239.754248</ele>
        <time>2022-08-10T09:59:32.129Z</time>
      </trkpt>
      <trkpt lat="43.70443" lon="1.47746">
        <ele>240.076534</ele>
        <time>2022-08-10T09:59:34.115Z</time>
      </trkpt>
      <trkpt lat="43.70432" lon="1.47741">
        <ele>240.392099</ele>
        <time>2022-08-10T09:59:36.108Z</time>
      </trkpt>
      <trkpt lat="43.70422" lon="1.47736">
        <ele>240.708962</ele>
        <time>2022-08-10T09:59:38.118Z</time>
      </trkpt>
      <trkpt lat="43.70411" lon="1.47731">
        <ele>241.023789</ele>
        <time>2022-08-10T09:59:40.121Z</time>
      </trkpt>
      <trkpt lat="43.70401" lon="1.47726">
        <ele>241.339996</ele>
        <time>2022-08-10T09:59:42.107Z</time>
      </trkpt>
      <trkpt lat="43.7039" lon="1.47721">
        <ele>241.654824</ele>
        <time>2022-08-10T09:59:44.128Z</time>
      </trkpt>
      <trkpt lat="43.7038" lon="1.47716">
        <ele>241.972353</ele>
        <time>2022-08-10T09:59:46.122Z</time>
      </trkpt>
      <trkpt lat="43.7037" lon="1.47711">
        <ele>242.28319</ele>
        <time>2022-08-10T09:59:48.119Z</time>
      </trkpt>
      <trkpt lat="43.70359" lon="1.47706">
        <ele>242.592621</ele>
        <time>2022-08-10T09:59:50.107Z</time>
      </trkpt>
      <trkpt lat="43.7035" lon="1.47701">
        <ele>242.891296</ele>
        <time>2022-08-10T09:59:52.128Z</time>
      </trkpt>
      <trkpt lat="43.70341" lon="1.47697">
        <ele>243.163704</ele>
        <time>2022-08-10T09:59:54.137Z</time>
      </trkpt>
      <trkpt lat="43.70328" lon="1.47691">
        <ele>243.537332</ele>
        <time>2022-08-10T09:59:57.135Z</time>
      </trkpt>
      <trkpt lat="43.70316" lon="1.47684">
        <ele>243.90285</ele>
        <time>2022-08-10T10:00:00.101Z</time>
      </trkpt>
      <trkpt lat="43.70306" lon="1.47678">
        <ele>244.238811</ele>
        <time>2022-08-10T10:00:03.124Z</time>
      </trkpt>
      <trkpt lat="43.70297" lon="1.47673">
        <ele>244.499054</ele>
        <time>2022-08-10T10:00:05.141Z</time>
      </trkpt>
      <trkpt lat="43.70289" lon="1.47668">
        <ele>244.643662</ele>
        <time>2022-08-10T10:00:07.116Z</time>
      </trkpt>
      <trkpt lat="43.7028" lon="1.47663">
        <ele>244.662819</ele>
        <time>2022-08-10T10:00:09.120Z</time>
      </trkpt>
      <trkpt lat="43.70272" lon="1.47657">
        <ele>244.682412</ele>
        <time>2022-08-10T10:00:11.123Z</time>
      </trkpt>
      <trkpt lat="43.70263" lon="1.47651">
        <ele>244.703156</ele>
        <time>2022-08-10T10:00:13.117Z</time>
      </trkpt>
      <trkpt lat="43.70254" lon="1.47643">
        <ele>244.724306</ele>
        <time>2022-08-10T10:00:15.120Z</time>
      </trkpt>
      <trkpt lat="43.70245" lon="1.47636">
        <ele>244.746274</ele>
        <time>2022-08-10T10:00:17.141Z</time>
      </trkpt>
      <trkpt lat="43.70234" lon="1.47628">
        <ele>244.770406</ele>
        <time>2022-08-10T10:00:19.125Z</time>
      </trkpt>
      <trkpt lat="43.70223" lon="1.4762">
        <ele>244.79663</ele>
        <time>2022-08-10T10:00:21.119Z</time>
      </trkpt>
      <trkpt lat="43.70211" lon="1.47611">
        <ele>244.824802</ele>
        <time>2022-08-10T10:00:23.113Z</time>
      </trkpt>
      <trkpt lat="43.70198" lon="1.47604">
        <ele>244.854804</ele>
        <time>2022-08-10T10:00:25.121Z</time>
      </trkpt>
      <trkpt lat="43.70183" lon="1.47605">
        <ele>244.885148</ele>
        <time>2022-08-10T10:00:27.126Z</time>
      </trkpt>
      <trkpt lat="43.70169" lon="1.4761">
        <ele>244.914749</ele>
        <time>2022-08-10T10:00:29.135Z</time>
      </trkpt>
      <trkpt lat="43.70156" lon="1.47616">
        <ele>244.942967</ele>
        <time>2022-08-10T10:00:31.125Z</time>
      </trkpt>
      <trkpt lat="43.70144" lon="1.47622">
        <ele>244.96985</ele>
        <time>2022-08-10T10:00:33.110Z</time>
      </trkpt>
      <trkpt lat="43.70132" lon="1.47627">
        <ele>244.99461</ele>
        <time>2022-08-10T10:00:35.120Z</time>
      </trkpt>
      <trkpt lat="43.70122" lon="1.47628">
        <ele>245.185324</ele>
        <time>2022-08-10T10:00:37.104Z</time>
      </trkpt>
      <trkpt lat="43.70111" lon="1.47628">
        <ele>245.531544</ele>
        <time>2022-08-10T10:00:39.127Z</time>
      </trkpt>
      <trkpt lat="43.701" lon="1.47626">
        <ele>245.879951</ele>
        <time>2022-08-10T10:00:41.126Z</time>
      </trkpt>
      <trkpt lat="43.70089" lon="1.47624">
        <ele>246.231671</ele>
        <time>2022-08-10T10:00:43.118Z</time>
      </trkpt>
      <trkpt lat="43.70078" lon="1.47621">
        <ele>246.594454</ele>
        <time>2022-08-10T10:00:45.105Z</time>
      </trkpt>
      <trkpt lat="43.70066" lon="1.47619">
        <ele>246.954798</ele>
        <time>2022-08-10T10:00:47.111Z</time>
      </trkpt>
      <trkpt lat="43.70055" lon="1.47617">
        <ele>247.31899</ele>
        <time>2022-08-10T10:00:49.116Z</time>
      </trkpt>
      <trkpt lat="43.70044" lon="1.47617">
        <ele>247.681149</ele>
        <time>2022-08-10T10:00:51.111Z</time>
      </trkpt>
      <trkpt lat="43.70032" lon="1.47618">
        <ele>248.043709</ele>
        <time>2022-08-10T10:00:53.106Z</time>
      </trkpt>
      <trkpt lat="43.70021" lon="1.4762">
        <ele>248.402508</ele>
        <time>2022-08-10T10:00:55.131Z</time>
      </trkpt>
      <trkpt lat="43.7001" lon="1.47625">
        <ele>248.756776</ele>
        <time>2022-08-10T10:00:57.107Z</time>
      </trkpt>
      <trkpt lat="43.7" lon="1.47631">
        <ele>249.116752</ele>
        <time>2022-08-10T10:00:59.125Z</time>
      </trkpt>
      <trkpt lat="43.6999" lon="1.47639">
        <ele>249.47002</ele>
        <time>2022-08-10T10:01:01.110Z</time>
      </trkpt>
      <trkpt lat="43.69982" lon="1.47649">
        <ele>249.824452</ele>
        <time>2022-08-10T10:01:03.141Z</time>
      </trkpt>
      <trkpt lat="43.69974" lon="1.47659">
        <ele>250.17407</ele>
        <time>2022-08-10T10:01:05.120Z</time>
      </trkpt>
      <trkpt lat="43.69966" lon="1.47669">
        <ele>250.511127</ele>
        <time>2022-08-10T10:01:07.136Z</time>
      </trkpt>
      <trkpt lat="43.69958" lon="1.47679">
        <ele>250.892979</ele>
        <time>2022-08-10T10:01:09.119Z</time>
      </trkpt>
      <trkpt lat="43.69951" lon="1.47688">
        <ele>251.353558</ele>
        <time>2022-08-10T10:01:11.126Z</time>
      </trkpt>
      <trkpt lat="43.69945" lon="1.47697">
        <ele>251.77163</ele>
        <time>2022-08-10T10:01:13.135Z</time>
      </trkpt>
      <trkpt lat="43.69936" lon="1.4771">
        <ele>252.370522</ele>
        <time>2022-08-10T10:01:16.129Z</time>
      </trkpt>
      <trkpt lat="43.69926" lon="1.47723">
        <ele>252.983977</ele>
        <time>2022-08-10T10:01:19.107Z</time>
      </trkpt>
      <trkpt lat="43.69917" lon="1.47736">
        <ele>253.586834</ele>
        <time>2022-08-10T10:01:22.101Z</time>
      </trkpt>
      <trkpt lat="43.69908" lon="1.47749">
        <ele>254.203588</ele>
        <time>2022-08-10T10:01:25.101Z</time>
      </trkpt>
      <trkpt lat="43.69898" lon="1.47761">
        <ele>254.821779</ele>
        <time>2022-08-10T10:01:28.107Z</time>
      </trkpt>
      <trkpt lat="43.69886" lon="1.4777">
        <ele>255.433916</ele>
        <time>2022-08-10T10:01:31.097Z</time>
      </trkpt>
      <trkpt lat="43.69877" lon="1.47783">
        <ele>256.047728</ele>
        <time>2022-08-10T10:01:34.114Z</time>
      </trkpt>
      <trkpt lat="43.6987" lon="1.47792">
        <ele>256.484816</ele>
        <time>2022-08-10T10:01:36.097Z</time>
      </trkpt>
      <trkpt lat="43.69862" lon="1.47797">
        <ele>256.927368</ele>
        <time>2022-08-10T10:01:38.122Z</time>
      </trkpt>
      <trkpt lat="43.69852" lon="1.47801">
        <ele>257.379233</ele>
        <time>2022-08-10T10:01:40.112Z</time>
      </trkpt>
      <trkpt lat="43.69839" lon="1.47805">
        <ele>257.996401</ele>
        <time>2022-08-10T10:01:43.109Z</time>
      </trkpt>
      <trkpt lat="43.6983" lon="1.47809">
        <ele>258.425987</ele>
        <time>2022-08-10T10:01:45.114Z</time>
      </trkpt>
      <trkpt lat="43.69822" lon="1.47812">
        <ele>258.84574</ele>
        <time>2022-08-10T10:01:47.097Z</time>
      </trkpt>
      <trkpt lat="43.69813" lon="1.47816">
        <ele>259.100112</ele>
        <time>2022-08-10T10:01:49.136Z</time>
      </trkpt>
      <trkpt lat="43.698" lon="1.47821">
        <ele>259.23414</ele>
        <time>2022-08-10T10:01:52.123Z</time>
      </trkpt>
      <trkpt lat="43.69791" lon="1.47824">
        <ele>259.326614</ele>
        <time>2022-08-10T10:01:54.113Z</time>
      </trkpt>
      <trkpt lat="43.69782" lon="1.47828">
        <ele>259.417714</ele>
        <time>2022-08-10T10:01:56.108Z</time>
      </trkpt>
      <trkpt lat="43.69773" lon="1.47831">
        <ele>259.512153</ele>
        <time>2022-08-10T10:01:58.099Z</time>
      </trkpt>
      <trkpt lat="43.69764" lon="1.47834">
        <ele>259.608062</ele>
        <time>2022-08-10T10:02:00.108Z</time>
      </trkpt>
      <trkpt lat="43.69754" lon="1.47836">
        <ele>259.70624</ele>
        <time>2022-08-10T10:02:02.113Z</time>
      </trkpt>
      <trkpt lat="43.69745" lon="1.47837">
        <ele>259.802677</ele>
        <time>2022-08-10T10:02:04.122Z</time>
      </trkpt>
      <trkpt lat="43.69735" lon="1.47838">
        <ele>259.906471</ele>
        <time>2022-08-10T10:02:06.104Z</time>
      </trkpt>
      <trkpt lat="43.69724" lon="1.47836">
        <ele>260.011181</ele>
        <time>2022-08-10T10:02:08.130Z</time>
      </trkpt>
      <trkpt lat="43.69714" lon="1.47831">
        <ele>260.120228</ele>
        <time>2022-08-10T10:02:10.113Z</time>
      </trkpt>
      <trkpt lat="43.69705" lon="1.47823">
        <ele>260.229388</ele>
        <time>2022-08-10T10:02:12.132Z</time>
      </trkpt>
      <trkpt lat="43.69696" lon="1.47814">
        <ele>260.34216</ele>
        <time>2022-08-10T10:02:14.106Z</time>
      </trkpt>
      <trkpt lat="43.69687" lon="1.47804">
        <ele>260.452897</ele>
        <time>2022-08-10T10:02:16.127Z</time>
      </trkpt>
      <trkpt lat="43.69678" lon="1.47794">
        <ele>260.568444</ele>
        <time>2022-08-10T10:02:18.120Z</time>
      </trkpt>
      <trkpt lat="43.69669" lon="1.47784">
        <ele>260.68321</ele>
        <time>2022-08-10T10:02:20.102Z</time>
      </trkpt>
      <trkpt lat="43.69661" lon="1.47775">
        <ele>260.794719</ele>
        <time>2022-08-10T10:02:22.114Z</time>
      </trkpt>
      <trkpt lat="43.69653" lon="1.47766">
        <ele>260.82208</ele>
        <time>2022-08-10T10:02:24.122Z</time>
      </trkpt>
      <trkpt lat="43.69646" lon="1.47754">
        <ele>260.674472</ele>
        <time>2022-08-10T10:02:28.095Z</time>
      </trkpt>
      <trkpt lat="43.69643" lon="1.47742">
        <ele>260.549061</ele>
        <time>2022-08-10T10:02:31.122Z</time>
      </trkpt>
      <trkpt lat="43.69638" lon="1.47725">
        <ele>260.373757</ele>
        <time>2022-08-10T10:02:34.128Z</time>
      </trkpt>
      <trkpt lat="43.69633" lon="1.47712">
        <ele>260.230111</ele>
        <time>2022-08-10T10:02:36.113Z</time>
      </trkpt>
      <trkpt lat="43.69626" lon="1.47696">
        <ele>260.051584</ele>
        <time>2022-08-10T10:02:38.132Z</time>
      </trkpt>
      <trkpt lat="43.6962" lon="1.4768">
        <ele>259.876246</ele>
        <time>2022-08-10T10:02:40.094Z</time>
      </trkpt>
      <trkpt lat="43.69613" lon="1.47665">
        <ele>259.701258</ele>
        <time>2022-08-10T10:02:42.129Z</time>
      </trkpt>
      <trkpt lat="43.69607" lon="1.4765">
        <ele>259.534862</ele>
        <time>2022-08-10T10:02:44.109Z</time>
      </trkpt>
      <trkpt lat="43.69601" lon="1.47634">
        <ele>259.364858</ele>
        <time>2022-08-10T10:02:46.093Z</time>
      </trkpt>
      <trkpt lat="43.69595" lon="1.47619">
        <ele>259.199258</ele>
        <time>2022-08-10T10:02:48.133Z</time>
      </trkpt>
      <trkpt lat="43.6959" lon="1.47605">
        <ele>259.040223</ele>
        <time>2022-08-10T10:02:50.116Z</time>
      </trkpt>
      <trkpt lat="43.69586" lon="1.47589">
        <ele>258.88085</ele>
        <time>2022-08-10T10:02:52.130Z</time>
      </trkpt>
      <trkpt lat="43.69584" lon="1.47572">
        <ele>258.718135</ele>
        <time>2022-08-10T10:02:54.167Z</time>
      </trkpt>
      <trkpt lat="43.69582" lon="1.47556">
        <ele>258.561147</ele>
        <time>2022-08-10T10:02:56.132Z</time>
      </trkpt>
      <trkpt lat="43.69577" lon="1.47542">
        <ele>258.309691</ele>
        <time>2022-08-10T10:02:58.136Z</time>
      </trkpt>
      <trkpt lat="43.69568" lon="1.47531">
        <ele>257.835951</ele>
        <time>2022-08-10T10:03:00.114Z</time>
      </trkpt>
      <trkpt lat="43.69558" lon="1.4752">
        <ele>257.371394</ele>
        <time>2022-08-10T10:03:02.150Z</time>
      </trkpt>
      <trkpt lat="43.69549" lon="1.47511">
        <ele>256.925188</ele>
        <time>2022-08-10T10:03:04.155Z</time>
      </trkpt>
      <trkpt lat="43.69539" lon="1.47507">
        <ele>256.506133</ele>
        <time>2022-08-10T10:03:06.141Z</time>
      </trkpt>
      <trkpt lat="43.69531" lon="1.4752">
        <ele>256.039421</ele>
        <time>2022-08-10T10:03:08.121Z</time>
      </trkpt>
      <trkpt lat="43.69522" lon="1.47535">
        <ele>255.488851</ele>
        <time>2022-08-10T10:03:10.123Z</time>
      </trkpt>
      <trkpt lat="43.69512" lon="1.47551">
        <ele>254.904929</ele>
        <time>2022-08-10T10:03:12.135Z</time>
      </trkpt>
      <trkpt lat="43.69502" lon="1.47568">
        <ele>254.295975</ele>
        <time>2022-08-10T10:03:14.149Z</time>
      </trkpt>
      <trkpt lat="43.69494" lon="1.47585">
        <ele>253.743297</ele>
        <time>2022-08-10T10:03:16.130Z</time>
      </trkpt>
      <trkpt lat="43.69491" lon="1.47606">
        <ele>253.139699</ele>
        <time>2022-08-10T10:03:18.108Z</time>
      </trkpt>
      <trkpt lat="43.69488" lon="1.47627">
        <ele>252.524849</ele>
        <time>2022-08-10T10:03:20.101Z</time>
      </trkpt>
      <trkpt lat="43.69484" lon="1.47652">
        <ele>251.809637</ele>
        <time>2022-08-10T10:03:22.098Z</time>
      </trkpt>
      <trkpt lat="43.69479" lon="1.47675">
        <ele>251.20105</ele>
        <time>2022-08-10T10:03:24.127Z</time>
      </trkpt>
      <trkpt lat="43.69472" lon="1.47697">
        <ele>250.653464</ele>
        <time>2022-08-10T10:03:26.114Z</time>
      </trkpt>
      <trkpt lat="43.69463" lon="1.47718">
        <ele>250.105109</ele>
        <time>2022-08-10T10:03:28.122Z</time>
      </trkpt>
      <trkpt lat="43.69459" lon="1.47729">
        <ele>249.819148</ele>
        <time>2022-08-10T10:03:29.115Z</time>
      </trkpt>
      <trkpt lat="43.6945" lon="1.47749">
        <ele>249.286674</ele>
        <time>2022-08-10T10:03:31.097Z</time>
      </trkpt>
      <trkpt lat="43.69443" lon="1.47769">
        <ele>248.786579</ele>
        <time>2022-08-10T10:03:33.119Z</time>
      </trkpt>
      <trkpt lat="43.69431" lon="1.47776">
        <ele>248.361693</ele>
        <time>2022-08-10T10:03:35.117Z</time>
      </trkpt>
      <trkpt lat="43.69417" lon="1.47776">
        <ele>247.940058</ele>
        <time>2022-08-10T10:03:37.123Z</time>
      </trkpt>
      <trkpt lat="43.69404" lon="1.47777">
        <ele>247.518453</ele>
        <time>2022-08-10T10:03:39.139Z</time>
      </trkpt>
      <trkpt lat="43.69391" lon="1.47777">
        <ele>247.112546</ele>
        <time>2022-08-10T10:03:41.154Z</time>
      </trkpt>
      <trkpt lat="43.69377" lon="1.47777">
        <ele>246.678376</ele>
        <time>2022-08-10T10:03:43.124Z</time>
      </trkpt>
      <trkpt lat="43.69364" lon="1.47777">
        <ele>246.269323</ele>
        <time>2022-08-10T10:03:45.118Z</time>
      </trkpt>
      <trkpt lat="43.69351" lon="1.47779">
        <ele>245.862398</ele>
        <time>2022-08-10T10:03:47.114Z</time>
      </trkpt>
      <trkpt lat="43.69338" lon="1.47779">
        <ele>245.520689</ele>
        <time>2022-08-10T10:03:49.132Z</time>
      </trkpt>
      <trkpt lat="43.69325" lon="1.47779">
        <ele>245.190271</ele>
        <time>2022-08-10T10:03:51.111Z</time>
      </trkpt>
      <trkpt lat="43.69313" lon="1.47776">
        <ele>244.859067</ele>
        <time>2022-08-10T10:03:53.141Z</time>
      </trkpt>
      <trkpt lat="43.69301" lon="1.47766">
        <ele>244.516579</ele>
        <time>2022-08-10T10:03:55.107Z</time>
      </trkpt>
      <trkpt lat="43.6929" lon="1.47754">
        <ele>244.153561</ele>
        <time>2022-08-10T10:03:57.095Z</time>
      </trkpt>
      <trkpt lat="43.69279" lon="1.4774">
        <ele>243.773173</ele>
        <time>2022-08-10T10:03:59.118Z</time>
      </trkpt>
      <trkpt lat="43.69268" lon="1.47727">
        <ele>243.40706</ele>
        <time>2022-08-10T10:04:01.126Z</time>
      </trkpt>
      <trkpt lat="43.69257" lon="1.47717">
        <ele>243.078532</ele>
        <time>2022-08-10T10:04:03.120Z</time>
      </trkpt>
      <trkpt lat="43.69248" lon="1.47709">
        <ele>242.792093</ele>
        <time>2022-08-10T10:04:05.114Z</time>
      </trkpt>
      <trkpt lat="43.69238" lon="1.47701">
        <ele>242.508457</ele>
        <time>2022-08-10T10:04:07.117Z</time>
      </trkpt>
      <trkpt lat="43.69229" lon="1.47694">
        <ele>242.231192</ele>
        <time>2022-08-10T10:04:09.121Z</time>
      </trkpt>
      <trkpt lat="43.69219" lon="1.47688">
        <ele>241.958713</ele>
        <time>2022-08-10T10:04:11.122Z</time>
      </trkpt>
      <trkpt lat="43.69211" lon="1.47678">
        <ele>241.662341</ele>
        <time>2022-08-10T10:04:13.121Z</time>
      </trkpt>
      <trkpt lat="43.69199" lon="1.47668">
        <ele>241.318857</ele>
        <time>2022-08-10T10:04:15.120Z</time>
      </trkpt>
      <trkpt lat="43.69186" lon="1.47657">
        <ele>240.188784</ele>
        <time>2022-08-10T10:04:17.120Z</time>
      </trkpt>
      <trkpt lat="43.69173" lon="1.47646">
        <ele>238.725704</ele>
        <time>2022-08-10T10:04:19.112Z</time>
      </trkpt>
      <trkpt lat="43.6916" lon="1.4763">
        <ele>237.151489</ele>
        <time>2022-08-10T10:04:21.100Z</time>
      </trkpt>
      <trkpt lat="43.69154" lon="1.47622">
        <ele>236.298446</ele>
        <time>2022-08-10T10:04:22.117Z</time>
      </trkpt>
      <trkpt lat="43.69147" lon="1.47611">
        <ele>235.336747</ele>
        <time>2022-08-10T10:04:23.118Z</time>
      </trkpt>
      <trkpt lat="43.69141" lon="1.47599">
        <ele>234.360018</ele>
        <time>2022-08-10T10:04:24.145Z</time>
      </trkpt>
      <trkpt lat="43.69136" lon="1.47585">
        <ele>233.345482</ele>
        <time>2022-08-10T10:04:25.116Z</time>
      </trkpt>
      <trkpt lat="43.69131" lon="1.47572">
        <ele>232.305062</ele>
        <time>2022-08-10T10:04:26.127Z</time>
      </trkpt>
      <trkpt lat="43.69127" lon="1.47557">
        <ele>231.260372</ele>
        <time>2022-08-10T10:04:27.132Z</time>
      </trkpt>
      <trkpt lat="43.69123" lon="1.47542">
        <ele>230.177849</ele>
        <time>2022-08-10T10:04:28.125Z</time>
      </trkpt>
      <trkpt lat="43.6912" lon="1.47526">
        <ele>229.04402</ele>
        <time>2022-08-10T10:04:29.112Z</time>
      </trkpt>
      <trkpt lat="43.69116" lon="1.4751">
        <ele>227.90646</ele>
        <time>2022-08-10T10:04:30.102Z</time>
      </trkpt>
      <trkpt lat="43.69113" lon="1.47494">
        <ele>226.779056</ele>
        <time>2022-08-10T10:04:31.112Z</time>
      </trkpt>
      <trkpt lat="43.69108" lon="1.47478">
        <ele>225.671233</ele>
        <time>2022-08-10T10:04:32.135Z</time>
      </trkpt>
      <trkpt lat="43.69104" lon="1.47463">
        <ele>224.54495</ele>
        <time>2022-08-10T10:04:33.144Z</time>
      </trkpt>
      <trkpt lat="43.69099" lon="1.47446">
        <ele>224.345667</ele>
        <time>2022-08-10T10:04:34.114Z</time>
      </trkpt>
      <trkpt lat="43.69094" lon="1.47431">
        <ele>224.201931</ele>
        <time>2022-08-10T10:04:35.130Z</time>
      </trkpt>
      <trkpt lat="43.69088" lon="1.47417">
        <ele>224.059621</ele>
        <time>2022-08-10T10:04:36.126Z</time>
      </trkpt>
      <trkpt lat="43.6908" lon="1.47404">
        <ele>223.917579</ele>
        <time>2022-08-10T10:04:37.123Z</time>
      </trkpt>
      <trkpt lat="43.69074" lon="1.47393">
        <ele>223.797508</ele>
        <time>2022-08-10T10:04:38.092Z</time>
      </trkpt>
      <trkpt lat="43.69068" lon="1.47383">
        <ele>223.682902</ele>
        <time>2022-08-10T10:04:39.096Z</time>
      </trkpt>
      <trkpt lat="43.69061" lon="1.47374">
        <ele>223.574848</ele>
        <time>2022-08-10T10:04:40.093Z</time>
      </trkpt>
      <trkpt lat="43.69055" lon="1.47365">
        <ele>223.463862</ele>
        <time>2022-08-10T10:04:41.116Z</time>
      </trkpt>
      <trkpt lat="43.69049" lon="1.47354">
        <ele>223.347563</ele>
        <time>2022-08-10T10:04:42.116Z</time>
      </trkpt>
      <trkpt lat="43.69042" lon="1.47334">
        <ele>223.155339</ele>
        <time>2022-08-10T10:04:44.122Z</time>
      </trkpt>
      <trkpt lat="43.69035" lon="1.47314">
        <ele>222.962309</ele>
        <time>2022-08-10T10:04:46.116Z</time>
      </trkpt>
      <trkpt lat="43.69025" lon="1.47298">
        <ele>222.77875</ele>
        <time>2022-08-10T10:04:48.122Z</time>
      </trkpt>
      <trkpt lat="43.69013" lon="1.47296">
        <ele>222.632769</ele>
        <time>2022-08-10T10:04:50.147Z</time>
      </trkpt>
      <trkpt lat="43.69005" lon="1.47306">
        <ele>222.512966</ele>
        <time>2022-08-10T10:04:52.128Z</time>
      </trkpt>
      <trkpt lat="43.69" lon="1.47316">
        <ele>222.39944</ele>
        <time>2022-08-10T10:04:54.159Z</time>
      </trkpt>
      <trkpt lat="43.68993" lon="1.47331">
        <ele>222.830783</ele>
        <time>2022-08-10T10:04:57.132Z</time>
      </trkpt>
      <trkpt lat="43.68987" lon="1.47346">
        <ele>223.487392</ele>
        <time>2022-08-10T10:05:00.111Z</time>
      </trkpt>
      <trkpt lat="43.68981" lon="1.47359">
        <ele>224.096661</ele>
        <time>2022-08-10T10:05:03.126Z</time>
      </trkpt>
      <trkpt lat="43.68974" lon="1.47371">
        <ele>224.703158</ele>
        <time>2022-08-10T10:05:06.111Z</time>
      </trkpt>
      <trkpt lat="43.68967" lon="1.47384">
        <ele>225.328277</ele>
        <time>2022-08-10T10:05:09.122Z</time>
      </trkpt>
      <trkpt lat="43.68961" lon="1.47398">
        <ele>225.960086</ele>
        <time>2022-08-10T10:05:12.110Z</time>
      </trkpt>
      <trkpt lat="43.68955" lon="1.47411">
        <ele>226.582208</ele>
        <time>2022-08-10T10:05:15.126Z</time>
      </trkpt>
      <trkpt lat="43.68949" lon="1.47421">
        <ele>227.091035</ele>
        <time>2022-08-10T10:05:18.119Z</time>
      </trkpt>
      <trkpt lat="43.68941" lon="1.47432">
        <ele>227.655789</ele>
        <time>2022-08-10T10:05:23.139Z</time>
      </trkpt>
      <trkpt lat="43.68933" lon="1.47422">
        <ele>228.25184</ele>
        <time>2022-08-10T10:05:27.133Z</time>
      </trkpt>
      <trkpt lat="43.68926" lon="1.47408">
        <ele>228.931092</ele>
        <time>2022-08-10T10:05:30.110Z</time>
      </trkpt>
      <trkpt lat="43.68915" lon="1.47398">
        <ele>229.643955</ele>
        <time>2022-08-10T10:05:33.126Z</time>
      </trkpt>
      <trkpt lat="43.68904" lon="1.47387">
        <ele>230.362049</ele>
        <time>2022-08-10T10:05:36.124Z</time>
      </trkpt>
      <trkpt lat="43.68901" lon="1.47374">
        <ele>230.86865</ele>
        <time>2022-08-10T10:05:38.117Z</time>
      </trkpt>
      <trkpt lat="43.68903" lon="1.4736">
        <ele>231.418739</ele>
        <time>2022-08-10T10:05:40.118Z</time>
      </trkpt>
      <trkpt lat="43.68909" lon="1.47346">
        <ele>232.04524</ele>
        <time>2022-08-10T10:05:42.119Z</time>
      </trkpt>
      <trkpt lat="43.68915" lon="1.47332">
        <ele>231.821365</ele>
        <time>2022-08-10T10:05:44.113Z</time>
      </trkpt>
      <trkpt lat="43.68921" lon="1.47317">
        <ele>231.529462</ele>
        <time>2022-08-10T10:05:46.120Z</time>
      </trkpt>
      <trkpt lat="43.68927" lon="1.47303">
        <ele>231.243226</ele>
        <time>2022-08-10T10:05:48.122Z</time>
      </trkpt>
      <trkpt lat="43.68934" lon="1.47289">
        <ele>230.956394</ele>
        <time>2022-08-10T10:05:50.129Z</time>
      </trkpt>
      <trkpt lat="43.68939" lon="1.47274">
        <ele>230.658731</ele>
        <time>2022-08-10T10:05:52.135Z</time>
      </trkpt>
      <trkpt lat="43.68941" lon="1.47257">
        <ele>230.36254</ele>
        <time>2022-08-10T10:05:54.144Z</time>
      </trkpt>
      <trkpt lat="43.68936" lon="1.4724">
        <ele>230.05592</ele>
        <time>2022-08-10T10:05:56.133Z</time>
      </trkpt>
      <trkpt lat="43.68927" lon="1.47227">
        <ele>229.753063</ele>
        <time>2022-08-10T10:05:58.136Z</time>
      </trkpt>
      <trkpt lat="43.68917" lon="1.47216">
        <ele>229.447742</ele>
        <time>2022-08-10T10:06:00.128Z</time>
      </trkpt>
      <trkpt lat="43.68906" lon="1.47204">
        <ele>229.123812</ele>
        <time>2022-08-10T10:06:02.113Z</time>
      </trkpt>
      <trkpt lat="43.68895" lon="1.47191">
        <ele>228.767489</ele>
        <time>2022-08-10T10:06:04.111Z</time>
      </trkpt>
      <trkpt lat="43.68882" lon="1.47176">
        <ele>228.368844</ele>
        <time>2022-08-10T10:06:06.124Z</time>
      </trkpt>
      <trkpt lat="43.68869" lon="1.47159">
        <ele>227.932772</ele>
        <time>2022-08-10T10:06:08.115Z</time>
      </trkpt>
      <trkpt lat="43.68861" lon="1.47151">
        <ele>227.996412</ele>
        <time>2022-08-10T10:06:09.119Z</time>
      </trkpt>
      <trkpt lat="43.68854" lon="1.47143">
        <ele>228.431026</ele>
        <time>2022-08-10T10:06:10.117Z</time>
      </trkpt>
      <trkpt lat="43.68841" lon="1.4713">
        <ele>229.214713</ele>
        <time>2022-08-10T10:06:12.112Z</time>
      </trkpt>
      <trkpt lat="43.68831" lon="1.47119">
        <ele>229.826251</ele>
        <time>2022-08-10T10:06:14.138Z</time>
      </trkpt>
      <trkpt lat="43.68824" lon="1.47109">
        <ele>230.311855</ele>
        <time>2022-08-10T10:06:16.124Z</time>
      </trkpt>
      <trkpt lat="43.68816" lon="1.47097">
        <ele>230.862942</ele>
        <time>2022-08-10T10:06:19.136Z</time>
      </trkpt>
      <trkpt lat="43.6881" lon="1.47084">
        <ele>231.399992</ele>
        <time>2022-08-10T10:06:22.120Z</time>
      </trkpt>
      <trkpt lat="43.68803" lon="1.47071">
        <ele>231.967463</ele>
        <time>2022-08-10T10:06:25.131Z</time>
      </trkpt>
      <trkpt lat="43.68793" lon="1.4706">
        <ele>232.562688</ele>
        <time>2022-08-10T10:06:28.115Z</time>
      </trkpt>
      <trkpt lat="43.68786" lon="1.47052">
        <ele>233.003632</ele>
        <time>2022-08-10T10:06:30.098Z</time>
      </trkpt>
      <trkpt lat="43.68778" lon="1.47045">
        <ele>233.446852</ele>
        <time>2022-08-10T10:06:32.134Z</time>
      </trkpt>
      <trkpt lat="43.68771" lon="1.47038">
        <ele>233.882697</ele>
        <time>2022-08-10T10:06:34.128Z</time>
      </trkpt>
      <trkpt lat="43.68759" lon="1.47031">
        <ele>234.484042</ele>
        <time>2022-08-10T10:06:37.124Z</time>
      </trkpt>
      <trkpt lat="43.68748" lon="1.47037">
        <ele>235.056237</ele>
        <time>2022-08-10T10:06:40.125Z</time>
      </trkpt>
      <trkpt lat="43.68742" lon="1.47046">
        <ele>235.504282</ele>
        <time>2022-08-10T10:06:42.120Z</time>
      </trkpt>
      <trkpt lat="43.68736" lon="1.47056">
        <ele>235.953356</ele>
        <time>2022-08-10T10:06:44.107Z</time>
      </trkpt>
      <trkpt lat="43.68728" lon="1.47071">
        <ele>236.542948</ele>
        <time>2022-08-10T10:06:47.123Z</time>
      </trkpt>
      <trkpt lat="43.6872" lon="1.47086">
        <ele>237.076444</ele>
        <time>2022-08-10T10:06:50.111Z</time>
      </trkpt>
      <trkpt lat="43.6871" lon="1.47098">
        <ele>237.599342</ele>
        <time>2022-08-10T10:06:53.108Z</time>
      </trkpt>
      <trkpt lat="43.68698" lon="1.47102">
        <ele>238.115587</ele>
        <time>2022-08-10T10:06:56.122Z</time>
      </trkpt>
      <trkpt lat="43.68689" lon="1.47095">
        <ele>238.518088</ele>
        <time>2022-08-10T10:06:58.129Z</time>
      </trkpt>
      <trkpt lat="43.68681" lon="1.47086">
        <ele>238.935253</ele>
        <time>2022-08-10T10:07:00.110Z</time>
      </trkpt>
      <trkpt lat="43.68673" lon="1.47076">
        <ele>239.350519</ele>
        <time>2022-08-10T10:07:02.115Z</time>
      </trkpt>
      <trkpt lat="43.68666" lon="1.47065">
        <ele>239.770955</ele>
        <time>2022-08-10T10:07:04.144Z</time>
      </trkpt>
      <trkpt lat="43.68658" lon="1.47055">
        <ele>240.208485</ele>
        <time>2022-08-10T10:07:06.124Z</time>
      </trkpt>
      <trkpt lat="43.6865" lon="1.47044">
        <ele>240.641168</ele>
        <time>2022-08-10T10:07:08.126Z</time>
      </trkpt>
      <trkpt lat="43.68642" lon="1.47033">
        <ele>241.087746</ele>
        <time>2022-08-10T10:07:10.146Z</time>
      </trkpt>
      <trkpt lat="43.68634" lon="1.47023">
        <ele>241.528311</ele>
        <time>2022-08-10T10:07:12.123Z</time>
      </trkpt>
      <trkpt lat="43.68626" lon="1.47012">
        <ele>241.957216</ele>
        <time>2022-08-10T10:07:14.112Z</time>
      </trkpt>
      <trkpt lat="43.68619" lon="1.47002">
        <ele>242.37416</ele>
        <time>2022-08-10T10:07:16.121Z</time>
      </trkpt>
      <trkpt lat="43.68612" lon="1.46991">
        <ele>242.777159</ele>
        <time>2022-08-10T10:07:18.132Z</time>
      </trkpt>
      <trkpt lat="43.68605" lon="1.46981">
        <ele>243.180638</ele>
        <time>2022-08-10T10:07:20.126Z</time>
      </trkpt>
      <trkpt lat="43.68598" lon="1.4697">
        <ele>243.521845</ele>
        <time>2022-08-10T10:07:22.121Z</time>
      </trkpt>
      <trkpt lat="43.6859" lon="1.4696">
        <ele>243.469301</ele>
        <time>2022-08-10T10:07:24.126Z</time>
      </trkpt>
      <trkpt lat="43.68581" lon="1.4695">
        <ele>243.415137</ele>
        <time>2022-08-10T10:07:26.109Z</time>
      </trkpt>
      <trkpt lat="43.68573" lon="1.4694">
        <ele>243.360584</ele>
        <time>2022-08-10T10:07:28.131Z</time>
      </trkpt>
      <trkpt lat="43.68564" lon="1.46929">
        <ele>243.304707</ele>
        <time>2022-08-10T10:07:30.119Z</time>
      </trkpt>
      <trkpt lat="43.68556" lon="1.46917">
        <ele>243.247736</ele>
        <time>2022-08-10T10:07:32.128Z</time>
      </trkpt>
      <trkpt lat="43.68554" lon="1.469">
        <ele>243.186856</ele>
        <time>2022-08-10T10:07:34.110Z</time>
      </trkpt>
      <trkpt lat="43.68556" lon="1.46881">
        <ele>243.119393</ele>
        <time>2022-08-10T10:07:36.090Z</time>
      </trkpt>
      <trkpt lat="43.68552" lon="1.46861">
        <ele>243.046226</ele>
        <time>2022-08-10T10:07:38.122Z</time>
      </trkpt>
      <trkpt lat="43.68543" lon="1.46843">
        <ele>242.971447</ele>
        <time>2022-08-10T10:07:40.099Z</time>
      </trkpt>
      <trkpt lat="43.68534" lon="1.46826">
        <ele>242.899882</ele>
        <time>2022-08-10T10:07:42.129Z</time>
      </trkpt>
      <trkpt lat="43.68525" lon="1.46812">
        <ele>242.832941</ele>
        <time>2022-08-10T10:07:44.120Z</time>
      </trkpt>
      <trkpt lat="43.68514" lon="1.46801">
        <ele>242.767619</ele>
        <time>2022-08-10T10:07:46.111Z</time>
      </trkpt>
      <trkpt lat="43.68501" lon="1.46797">
        <ele>242.701824</ele>
        <time>2022-08-10T10:07:48.147Z</time>
      </trkpt>
      <trkpt lat="43.68487" lon="1.46797">
        <ele>242.518172</ele>
        <time>2022-08-10T10:07:50.126Z</time>
      </trkpt>
      <trkpt lat="43.68475" lon="1.46802">
        <ele>242.146856</ele>
        <time>2022-08-10T10:07:52.118Z</time>
      </trkpt>
      <trkpt lat="43.68463" lon="1.46811">
        <ele>241.781935</ele>
        <time>2022-08-10T10:07:54.132Z</time>
      </trkpt>
      <trkpt lat="43.68454" lon="1.46823">
        <ele>241.438983</ele>
        <time>2022-08-10T10:07:56.117Z</time>
      </trkpt>
      <trkpt lat="43.68447" lon="1.46834">
        <ele>241.123455</ele>
        <time>2022-08-10T10:07:58.120Z</time>
      </trkpt>
      <trkpt lat="43.6844" lon="1.46846">
        <ele>240.822745</ele>
        <time>2022-08-10T10:08:00.127Z</time>
      </trkpt>
      <trkpt lat="43.68434" lon="1.46858">
        <ele>240.533595</ele>
        <time>2022-08-10T10:08:02.124Z</time>
      </trkpt>
      <trkpt lat="43.68426" lon="1.46864">
        <ele>240.276496</ele>
        <time>2022-08-10T10:08:04.124Z</time>
      </trkpt>
      <trkpt lat="43.68414" lon="1.46853">
        <ele>239.891131</ele>
        <time>2022-08-10T10:08:07.130Z</time>
      </trkpt>
      <trkpt lat="43.68405" lon="1.46841">
        <ele>239.543221</ele>
        <time>2022-08-10T10:08:09.120Z</time>
      </trkpt>
      <trkpt lat="43.68396" lon="1.46828">
        <ele>239.173489</ele>
        <time>2022-08-10T10:08:11.120Z</time>
      </trkpt>
      <trkpt lat="43.68385" lon="1.46814">
        <ele>238.765206</ele>
        <time>2022-08-10T10:08:13.126Z</time>
      </trkpt>
      <trkpt lat="43.68374" lon="1.46798">
        <ele>238.324041</ele>
        <time>2022-08-10T10:08:15.147Z</time>
      </trkpt>
      <trkpt lat="43.68362" lon="1.46782">
        <ele>237.859116</ele>
        <time>2022-08-10T10:08:17.118Z</time>
      </trkpt>
      <trkpt lat="43.6835" lon="1.46765">
        <ele>237.024871</ele>
        <time>2022-08-10T10:08:19.110Z</time>
      </trkpt>
      <trkpt lat="43.68338" lon="1.46747">
        <ele>235.89581</ele>
        <time>2022-08-10T10:08:21.111Z</time>
      </trkpt>
      <trkpt lat="43.68326" lon="1.4673">
        <ele>234.788565</ele>
        <time>2022-08-10T10:08:23.139Z</time>
      </trkpt>
      <trkpt lat="43.68314" lon="1.46713">
        <ele>233.706472</ele>
        <time>2022-08-10T10:08:25.133Z</time>
      </trkpt>
      <trkpt lat="43.68301" lon="1.46697">
        <ele>232.645363</ele>
        <time>2022-08-10T10:08:27.115Z</time>
      </trkpt>
      <trkpt lat="43.6829" lon="1.46681">
        <ele>231.635653</ele>
        <time>2022-08-10T10:08:29.107Z</time>
      </trkpt>
      <trkpt lat="43.68288" lon="1.46664">
        <ele>230.856473</ele>
        <time>2022-08-10T10:08:31.118Z</time>
      </trkpt>
      <trkpt lat="43.68291" lon="1.46646">
        <ele>230.001412</ele>
        <time>2022-08-10T10:08:33.126Z</time>
      </trkpt>
      <trkpt lat="43.68296" lon="1.46628">
        <ele>229.11292</ele>
        <time>2022-08-10T10:08:35.116Z</time>
      </trkpt>
      <trkpt lat="43.68301" lon="1.46608">
        <ele>228.170868</ele>
        <time>2022-08-10T10:08:37.126Z</time>
      </trkpt>
      <trkpt lat="43.68307" lon="1.46589">
        <ele>227.187826</ele>
        <time>2022-08-10T10:08:39.128Z</time>
      </trkpt>
      <trkpt lat="43.68316" lon="1.4657">
        <ele>226.128438</ele>
        <time>2022-08-10T10:08:41.149Z</time>
      </trkpt>
      <trkpt lat="43.68324" lon="1.46551">
        <ele>224.478458</ele>
        <time>2022-08-10T10:08:43.145Z</time>
      </trkpt>
      <trkpt lat="43.68335" lon="1.46531">
        <ele>222.721929</ele>
        <time>2022-08-10T10:08:45.112Z</time>
      </trkpt>
      <trkpt lat="43.68341" lon="1.46521">
        <ele>221.793654</ele>
        <time>2022-08-10T10:08:46.122Z</time>
      </trkpt>
      <trkpt lat="43.68346" lon="1.46511">
        <ele>220.865379</ele>
        <time>2022-08-10T10:08:47.130Z</time>
      </trkpt>
      <trkpt lat="43.68354" lon="1.46492">
        <ele>219.295671</ele>
        <time>2022-08-10T10:08:49.139Z</time>
      </trkpt>
      <trkpt lat="43.68354" lon="1.46477">
        <ele>218.19946</ele>
        <time>2022-08-10T10:08:51.133Z</time>
      </trkpt>
      <trkpt lat="43.68342" lon="1.46467">
        <ele>216.841845</ele>
        <time>2022-08-10T10:08:53.100Z</time>
      </trkpt>
      <trkpt lat="43.68327" lon="1.46458">
        <ele>215.237865</ele>
        <time>2022-08-10T10:08:55.112Z</time>
      </trkpt>
      <trkpt lat="43.68311" lon="1.46449">
        <ele>213.44117</ele>
        <time>2022-08-10T10:08:57.134Z</time>
      </trkpt>
      <trkpt lat="43.68301" lon="1.46443">
        <ele>212.414488</ele>
        <time>2022-08-10T10:08:58.142Z</time>
      </trkpt>
      <trkpt lat="43.68291" lon="1.46438">
        <ele>211.32268</ele>
        <time>2022-08-10T10:08:59.114Z</time>
      </trkpt>
      <trkpt lat="43.6828" lon="1.46432">
        <ele>210.178247</ele>
        <time>2022-08-10T10:09:00.125Z</time>
      </trkpt>
      <trkpt lat="43.68269" lon="1.46427">
        <ele>209.014809</ele>
        <time>2022-08-10T10:09:01.132Z</time>
      </trkpt>
      <trkpt lat="43.68258" lon="1.46422">
        <ele>208.356589</ele>
        <time>2022-08-10T10:09:02.115Z</time>
      </trkpt>
      <trkpt lat="43.68247" lon="1.46417">
        <ele>208.293051</ele>
        <time>2022-08-10T10:09:03.113Z</time>
      </trkpt>
      <trkpt lat="43.68237" lon="1.46411">
        <ele>208.232124</ele>
        <time>2022-08-10T10:09:04.113Z</time>
      </trkpt>
      <trkpt lat="43.68227" lon="1.46405">
        <ele>208.174071</ele>
        <time>2022-08-10T10:09:05.120Z</time>
      </trkpt>
      <trkpt lat="43.68217" lon="1.464">
        <ele>208.1165</ele>
        <time>2022-08-10T10:09:06.121Z</time>
      </trkpt>
      <trkpt lat="43.68202" lon="1.46391">
        <ele>208.025187</ele>
        <time>2022-08-10T10:09:08.139Z</time>
      </trkpt>
      <trkpt lat="43.6819" lon="1.46382">
        <ele>207.949476</ele>
        <time>2022-08-10T10:09:10.117Z</time>
      </trkpt>
      <trkpt lat="43.68188" lon="1.46369">
        <ele>207.89498</ele>
        <time>2022-08-10T10:09:12.133Z</time>
      </trkpt>
      <trkpt lat="43.68192" lon="1.46357">
        <ele>207.842073</ele>
        <time>2022-08-10T10:09:14.147Z</time>
      </trkpt>
      <trkpt lat="43.68201" lon="1.46348">
        <ele>207.78288</ele>
        <time>2022-08-10T10:09:16.120Z</time>
      </trkpt>
      <trkpt lat="43.6821" lon="1.46337">
        <ele>207.717992</ele>
        <time>2022-08-10T10:09:18.111Z</time>
      </trkpt>
      <trkpt lat="43.68218" lon="1.46325">
        <ele>207.648856</ele>
        <time>2022-08-10T10:09:20.116Z</time>
      </trkpt>
      <trkpt lat="43.68227" lon="1.46313">
        <ele>207.579906</ele>
        <time>2022-08-10T10:09:22.108Z</time>
      </trkpt>
      <trkpt lat="43.68235" lon="1.46299">
        <ele>207.510918</ele>
        <time>2022-08-10T10:09:24.116Z</time>
      </trkpt>
      <trkpt lat="43.68242" lon="1.46285">
        <ele>207.44338</ele>
        <time>2022-08-10T10:09:26.116Z</time>
      </trkpt>
      <trkpt lat="43.68248" lon="1.4627">
        <ele>207.287293</ele>
        <time>2022-08-10T10:09:28.127Z</time>
      </trkpt>
      <trkpt lat="43.68253" lon="1.46255">
        <ele>206.940543</ele>
        <time>2022-08-10T10:09:30.129Z</time>
      </trkpt>
      <trkpt lat="43.68258" lon="1.4624">
        <ele>206.596946</ele>
        <time>2022-08-10T10:09:32.120Z</time>
      </trkpt>
      <trkpt lat="43.68262" lon="1.46225">
        <ele>206.248601</ele>
        <time>2022-08-10T10:09:34.144Z</time>
      </trkpt>
      <trkpt lat="43.68267" lon="1.46209">
        <ele>205.905004</ele>
        <time>2022-08-10T10:09:36.130Z</time>
      </trkpt>
      <trkpt lat="43.68272" lon="1.46195">
        <ele>205.567057</ele>
        <time>2022-08-10T10:09:38.137Z</time>
      </trkpt>
      <trkpt lat="43.68276" lon="1.4618">
        <ele>205.22391</ele>
        <time>2022-08-10T10:09:40.121Z</time>
      </trkpt>
      <trkpt lat="43.6828" lon="1.46164">
        <ele>204.880587</ele>
        <time>2022-08-10T10:09:42.128Z</time>
      </trkpt>
      <trkpt lat="43.68283" lon="1.46148">
        <ele>204.53932</ele>
        <time>2022-08-10T10:09:44.124Z</time>
      </trkpt>
      <trkpt lat="43.68283" lon="1.46132">
        <ele>204.202498</ele>
        <time>2022-08-10T10:09:46.115Z</time>
      </trkpt>
      <trkpt lat="43.68282" lon="1.46116">
        <ele>203.854795</ele>
        <time>2022-08-10T10:09:48.135Z</time>
      </trkpt>
      <trkpt lat="43.68282" lon="1.46097">
        <ele>203.473659</ele>
        <time>2022-08-10T10:09:50.117Z</time>
      </trkpt>
      <trkpt lat="43.6828" lon="1.46078">
        <ele>203.059825</ele>
        <time>2022-08-10T10:09:52.113Z</time>
      </trkpt>
      <trkpt lat="43.68279" lon="1.46056">
        <ele>202.608924</ele>
        <time>2022-08-10T10:09:54.123Z</time>
      </trkpt>
      <trkpt lat="43.68275" lon="1.46033">
        <ele>202.076697</ele>
        <time>2022-08-10T10:09:56.101Z</time>
      </trkpt>
      <trkpt lat="43.68272" lon="1.46021">
        <ele>201.691091</ele>
        <time>2022-08-10T10:09:57.125Z</time>
      </trkpt>
      <trkpt lat="43.68268" lon="1.46009">
        <ele>201.304057</ele>
        <time>2022-08-10T10:09:58.119Z</time>
      </trkpt>
      <trkpt lat="43.68266" lon="1.45996">
        <ele>200.891852</ele>
        <time>2022-08-10T10:09:59.124Z</time>
      </trkpt>
      <trkpt lat="43.68264" lon="1.45983">
        <ele>200.478534</ele>
        <time>2022-08-10T10:10:00.124Z</time>
      </trkpt>
      <trkpt lat="43.68264" lon="1.45969">
        <ele>200.06091</ele>
        <time>2022-08-10T10:10:01.112Z</time>
      </trkpt>
      <trkpt lat="43.68265" lon="1.45955">
        <ele>199.64764</ele>
        <time>2022-08-10T10:10:02.135Z</time>
      </trkpt>
      <trkpt lat="43.68266" lon="1.45942">
        <ele>199.24505</ele>
        <time>2022-08-10T10:10:03.135Z</time>
      </trkpt>
      <trkpt lat="43.68267" lon="1.45929">
        <ele>198.853908</ele>
        <time>2022-08-10T10:10:04.129Z</time>
      </trkpt>
      <trkpt lat="43.68269" lon="1.4591">
        <ele>198.274564</ele>
        <time>2022-08-10T10:10:06.115Z</time>
      </trkpt>
      <trkpt lat="43.68268" lon="1.45896">
        <ele>197.840538</ele>
        <time>2022-08-10T10:10:14.106Z</time>
      </trkpt>
      <trkpt lat="43.68269" lon="1.45879">
        <ele>197.330434</ele>
        <time>2022-08-10T10:10:18.133Z</time>
      </trkpt>
      <trkpt lat="43.68269" lon="1.45865">
        <ele>196.912747</ele>
        <time>2022-08-10T10:10:20.126Z</time>
      </trkpt>
      <trkpt lat="43.6827" lon="1.45848">
        <ele>196.394202</ele>
        <time>2022-08-10T10:10:22.128Z</time>
      </trkpt>
      <trkpt lat="43.68271" lon="1.45831">
        <ele>195.874308</ele>
        <time>2022-08-10T10:10:24.152Z</time>
      </trkpt>
      <trkpt lat="43.68272" lon="1.45814">
        <ele>195.349122</ele>
        <time>2022-08-10T10:10:26.152Z</time>
      </trkpt>
      <trkpt lat="43.68273" lon="1.45796">
        <ele>194.81187</ele>
        <time>2022-08-10T10:10:28.146Z</time>
      </trkpt>
      <trkpt lat="43.68274" lon="1.45779">
        <ele>194.539269</ele>
        <time>2022-08-10T10:10:30.143Z</time>
      </trkpt>
      <trkpt lat="43.68275" lon="1.45761">
        <ele>194.367144</ele>
        <time>2022-08-10T10:10:32.120Z</time>
      </trkpt>
      <trkpt lat="43.68276" lon="1.45744">
        <ele>194.197114</ele>
        <time>2022-08-10T10:10:34.127Z</time>
      </trkpt>
      <trkpt lat="43.68277" lon="1.45726">
        <ele>194.012947</ele>
        <time>2022-08-10T10:10:36.112Z</time>
      </trkpt>
      <trkpt lat="43.68278" lon="1.45708">
        <ele>193.834488</ele>
        <time>2022-08-10T10:10:38.113Z</time>
      </trkpt>
      <trkpt lat="43.68279" lon="1.4569">
        <ele>193.648624</ele>
        <time>2022-08-10T10:10:40.133Z</time>
      </trkpt>
      <trkpt lat="43.68279" lon="1.45671">
        <ele>193.464003</ele>
        <time>2022-08-10T10:10:42.117Z</time>
      </trkpt>
      <trkpt lat="43.68277" lon="1.45653">
        <ele>193.27897</ele>
        <time>2022-08-10T10:10:44.142Z</time>
      </trkpt>
      <trkpt lat="43.68275" lon="1.45635">
        <ele>193.095889</ele>
        <time>2022-08-10T10:10:46.133Z</time>
      </trkpt>
      <trkpt lat="43.68272" lon="1.45617">
        <ele>192.912516</ele>
        <time>2022-08-10T10:10:48.140Z</time>
      </trkpt>
      <trkpt lat="43.68269" lon="1.45599">
        <ele>192.732945</ele>
        <time>2022-08-10T10:10:50.115Z</time>
      </trkpt>
      <trkpt lat="43.68265" lon="1.45582">
        <ele>192.55681</ele>
        <time>2022-08-10T10:10:52.138Z</time>
      </trkpt>
      <trkpt lat="43.68261" lon="1.45566">
        <ele>192.385848</ele>
        <time>2022-08-10T10:10:54.127Z</time>
      </trkpt>
      <trkpt lat="43.68258" lon="1.4555">
        <ele>192.218923</ele>
        <time>2022-08-10T10:10:56.132Z</time>
      </trkpt>
      <trkpt lat="43.68254" lon="1.45534">
        <ele>192.121321</ele>
        <time>2022-08-10T10:10:58.113Z</time>
      </trkpt>
      <trkpt lat="43.68249" lon="1.45518">
        <ele>192.040763</ele>
        <time>2022-08-10T10:11:00.115Z</time>
      </trkpt>
      <trkpt lat="43.68245" lon="1.45502">
        <ele>191.961058</ele>
        <time>2022-08-10T10:11:02.111Z</time>
      </trkpt>
      <trkpt lat="43.6824" lon="1.45487">
        <ele>191.881792</ele>
        <time>2022-08-10T10:11:04.119Z</time>
      </trkpt>
      <trkpt lat="43.68236" lon="1.45471">
        <ele>191.801597</ele>
        <time>2022-08-10T10:11:06.101Z</time>
      </trkpt>
      <trkpt lat="43.68231" lon="1.45456">
        <ele>191.722885</ele>
        <time>2022-08-10T10:11:08.103Z</time>
      </trkpt>
      <trkpt lat="43.68226" lon="1.45441">
        <ele>191.64703</ele>
        <time>2022-08-10T10:11:10.110Z</time>
      </trkpt>
      <trkpt lat="43.68221" lon="1.45427">
        <ele>191.572065</ele>
        <time>2022-08-10T10:11:12.122Z</time>
      </trkpt>
      <trkpt lat="43.68218" lon="1.45411">
        <ele>191.494332</ele>
        <time>2022-08-10T10:11:14.125Z</time>
      </trkpt>
      <trkpt lat="43.68214" lon="1.45395">
        <ele>191.416343</ele>
        <time>2022-08-10T10:11:16.129Z</time>
      </trkpt>
      <trkpt lat="43.6821" lon="1.4538">
        <ele>191.338859</ele>
        <time>2022-08-10T10:11:18.119Z</time>
      </trkpt>
      <trkpt lat="43.68207" lon="1.45364">
        <ele>191.260028</ele>
        <time>2022-08-10T10:11:20.125Z</time>
      </trkpt>
      <trkpt lat="43.68202" lon="1.45348">
        <ele>191.180954</ele>
        <time>2022-08-10T10:11:22.110Z</time>
      </trkpt>
      <trkpt lat="43.68198" lon="1.45332">
        <ele>191.099504</ele>
        <time>2022-08-10T10:11:24.130Z</time>
      </trkpt>
      <trkpt lat="43.68194" lon="1.45315">
        <ele>191.017372</ele>
        <time>2022-08-10T10:11:26.113Z</time>
      </trkpt>
      <trkpt lat="43.6819" lon="1.453">
        <ele>190.961591</ele>
        <time>2022-08-10T10:11:28.105Z</time>
      </trkpt>
      <trkpt lat="43.68186" lon="1.45283">
        <ele>190.907113</ele>
        <time>2022-08-10T10:11:30.126Z</time>
      </trkpt>
      <trkpt lat="43.68182" lon="1.45267">
        <ele>190.8537</ele>
        <time>2022-08-10T10:11:32.116Z</time>
      </trkpt>
      <trkpt lat="43.68177" lon="1.45252">
        <ele>190.800287</ele>
        <time>2022-08-10T10:11:34.089Z</time>
      </trkpt>
      <trkpt lat="43.68174" lon="1.45236">
        <ele>190.747914</ele>
        <time>2022-08-10T10:11:36.108Z</time>
      </trkpt>
      <trkpt lat="43.6817" lon="1.45221">
        <ele>190.696122</ele>
        <time>2022-08-10T10:11:38.104Z</time>
      </trkpt>
      <trkpt lat="43.68165" lon="1.45206">
        <ele>190.646519</ele>
        <time>2022-08-10T10:11:40.099Z</time>
      </trkpt>
      <trkpt lat="43.68152" lon="1.45209">
        <ele>190.588153</ele>
        <time>2022-08-10T10:11:43.095Z</time>
      </trkpt>
      <trkpt lat="43.68143" lon="1.45219">
        <ele>190.53761</ele>
        <time>2022-08-10T10:11:45.105Z</time>
      </trkpt>
      <trkpt lat="43.68134" lon="1.45228">
        <ele>190.487083</ele>
        <time>2022-08-10T10:11:47.124Z</time>
      </trkpt>
      <trkpt lat="43.68124" lon="1.45237">
        <ele>190.436557</ele>
        <time>2022-08-10T10:11:49.129Z</time>
      </trkpt>
      <trkpt lat="43.68115" lon="1.45246">
        <ele>190.385303</ele>
        <time>2022-08-10T10:11:51.118Z</time>
      </trkpt>
      <trkpt lat="43.68105" lon="1.45256">
        <ele>190.333267</ele>
        <time>2022-08-10T10:11:53.121Z</time>
      </trkpt>
      <trkpt lat="43.68095" lon="1.45264">
        <ele>190.28105</ele>
        <time>2022-08-10T10:11:55.093Z</time>
      </trkpt>
      <trkpt lat="43.68085" lon="1.45273">
        <ele>190.228132</ele>
        <time>2022-08-10T10:11:57.118Z</time>
      </trkpt>
      <trkpt lat="43.68075" lon="1.45282">
        <ele>190.18877</ele>
        <time>2022-08-10T10:11:59.102Z</time>
      </trkpt>
      <trkpt lat="43.68065" lon="1.45291">
        <ele>190.15125</ele>
        <time>2022-08-10T10:12:01.181Z</time>
      </trkpt>
      <trkpt lat="43.68055" lon="1.453">
        <ele>190.114094</ele>
        <time>2022-08-10T10:12:03.133Z</time>
      </trkpt>
      <trkpt lat="43.68045" lon="1.45308">
        <ele>190.078226</ele>
        <time>2022-08-10T10:12:05.103Z</time>
      </trkpt>
      <trkpt lat="43.68034" lon="1.45315">
        <ele>190.040184</ele>
        <time>2022-08-10T10:12:07.120Z</time>
      </trkpt>
      <trkpt lat="43.68022" lon="1.4532">
        <ele>190.001421</ele>
        <time>2022-08-10T10:12:09.119Z</time>
      </trkpt>
      <trkpt lat="43.68011" lon="1.45326">
        <ele>189.963148</ele>
        <time>2022-08-10T10:12:11.125Z</time>
      </trkpt>
      <trkpt lat="43.68" lon="1.45332">
        <ele>189.924961</ele>
        <time>2022-08-10T10:12:13.130Z</time>
      </trkpt>
      <trkpt lat="43.67989" lon="1.45339">
        <ele>189.886894</ele>
        <time>2022-08-10T10:12:15.120Z</time>
      </trkpt>
      <trkpt lat="43.67978" lon="1.45343">
        <ele>189.849671</ele>
        <time>2022-08-10T10:12:17.129Z</time>
      </trkpt>
      <trkpt lat="43.67966" lon="1.45345">
        <ele>189.813352</ele>
        <time>2022-08-10T10:12:19.099Z</time>
      </trkpt>
      <trkpt lat="43.67959" lon="1.45357">
        <ele>189.777834</ele>
        <time>2022-08-10T10:12:21.125Z</time>
      </trkpt>
      <trkpt lat="43.6795" lon="1.45367">
        <ele>189.740651</ele>
        <time>2022-08-10T10:12:23.138Z</time>
      </trkpt>
      <trkpt lat="43.67939" lon="1.45373">
        <ele>189.703636</ele>
        <time>2022-08-10T10:12:25.100Z</time>
      </trkpt>
      <trkpt lat="43.67928" lon="1.4538">
        <ele>189.66655</ele>
        <time>2022-08-10T10:12:27.106Z</time>
      </trkpt>
      <trkpt lat="43.67918" lon="1.45388">
        <ele>189.611064</ele>
        <time>2022-08-10T10:12:29.121Z</time>
      </trkpt>
      <trkpt lat="43.67907" lon="1.45395">
        <ele>189.545736</ele>
        <time>2022-08-10T10:12:31.111Z</time>
      </trkpt>
      <trkpt lat="43.67897" lon="1.45403">
        <ele>189.478938</ele>
        <time>2022-08-10T10:12:33.133Z</time>
      </trkpt>
      <trkpt lat="43.67886" lon="1.45411">
        <ele>189.41282</ele>
        <time>2022-08-10T10:12:35.100Z</time>
      </trkpt>
      <trkpt lat="43.67876" lon="1.4542">
        <ele>189.347266</ele>
        <time>2022-08-10T10:12:37.133Z</time>
      </trkpt>
      <trkpt lat="43.67866" lon="1.45428">
        <ele>189.281859</ele>
        <time>2022-08-10T10:12:39.101Z</time>
      </trkpt>
      <trkpt lat="43.67855" lon="1.45435">
        <ele>189.217925</ele>
        <time>2022-08-10T10:12:41.102Z</time>
      </trkpt>
      <trkpt lat="43.67844" lon="1.45434">
        <ele>189.154873</ele>
        <time>2022-08-10T10:12:43.108Z</time>
      </trkpt>
      <trkpt lat="43.67833" lon="1.45426">
        <ele>189.088307</ele>
        <time>2022-08-10T10:12:45.106Z</time>
      </trkpt>
      <trkpt lat="43.67823" lon="1.45417">
        <ele>189.021037</ele>
        <time>2022-08-10T10:12:47.113Z</time>
      </trkpt>
      <trkpt lat="43.67814" lon="1.45407">
        <ele>188.954925</ele>
        <time>2022-08-10T10:12:49.102Z</time>
      </trkpt>
      <trkpt lat="43.67804" lon="1.45398">
        <ele>188.888272</ele>
        <time>2022-08-10T10:12:51.118Z</time>
      </trkpt>
      <trkpt lat="43.67792" lon="1.45393">
        <ele>188.822467</ele>
        <time>2022-08-10T10:12:53.114Z</time>
      </trkpt>
      <trkpt lat="43.67781" lon="1.45385">
        <ele>188.756027</ele>
        <time>2022-08-10T10:12:55.134Z</time>
      </trkpt>
      <trkpt lat="43.67772" lon="1.45376">
        <ele>188.690721</ele>
        <time>2022-08-10T10:12:57.099Z</time>
      </trkpt>
      <trkpt lat="43.67761" lon="1.45367">
        <ele>188.669881</ele>
        <time>2022-08-10T10:12:59.115Z</time>
      </trkpt>
      <trkpt lat="43.67751" lon="1.45359">
        <ele>188.684425</ele>
        <time>2022-08-10T10:13:01.113Z</time>
      </trkpt>
      <trkpt lat="43.6774" lon="1.45352">
        <ele>188.699196</ele>
        <time>2022-08-10T10:13:03.118Z</time>
      </trkpt>
      <trkpt lat="43.6773" lon="1.45344">
        <ele>188.713551</ele>
        <time>2022-08-10T10:13:05.096Z</time>
      </trkpt>
      <trkpt lat="43.67719" lon="1.45336">
        <ele>188.727967</ele>
        <time>2022-08-10T10:13:07.106Z</time>
      </trkpt>
      <trkpt lat="43.67708" lon="1.45329">
        <ele>188.742375</ele>
        <time>2022-08-10T10:13:09.101Z</time>
      </trkpt>
      <trkpt lat="43.67698" lon="1.45324">
        <ele>188.756018</ele>
        <time>2022-08-10T10:13:11.115Z</time>
      </trkpt>
      <trkpt lat="43.67686" lon="1.45321">
        <ele>188.77065</ele>
        <time>2022-08-10T10:13:13.127Z</time>
      </trkpt>
      <trkpt lat="43.67675" lon="1.45319">
        <ele>188.784534</ele>
        <time>2022-08-10T10:13:15.107Z</time>
      </trkpt>
      <trkpt lat="43.67663" lon="1.45318">
        <ele>188.798829</ele>
        <time>2022-08-10T10:13:17.116Z</time>
      </trkpt>
      <trkpt lat="43.67652" lon="1.45312">
        <ele>188.81278</ele>
        <time>2022-08-10T10:13:19.119Z</time>
      </trkpt>
      <trkpt lat="43.67642" lon="1.4531">
        <ele>188.826147</ele>
        <time>2022-08-10T10:13:21.124Z</time>
      </trkpt>
      <trkpt lat="43.67631" lon="1.45314">
        <ele>188.839655</ele>
        <time>2022-08-10T10:13:23.103Z</time>
      </trkpt>
      <trkpt lat="43.67619" lon="1.45315">
        <ele>188.853675</ele>
        <time>2022-08-10T10:13:25.110Z</time>
      </trkpt>
      <trkpt lat="43.67607" lon="1.45317">
        <ele>188.868239</ele>
        <time>2022-08-10T10:13:27.129Z</time>
      </trkpt>
      <trkpt lat="43.67596" lon="1.4532">
        <ele>188.87603</ele>
        <time>2022-08-10T10:13:29.141Z</time>
      </trkpt>
      <trkpt lat="43.67584" lon="1.45326">
        <ele>188.849353</ele>
        <time>2022-08-10T10:13:31.102Z</time>
      </trkpt>
      <trkpt lat="43.67574" lon="1.45333">
        <ele>188.8226</ele>
        <time>2022-08-10T10:13:33.120Z</time>
      </trkpt>
      <trkpt lat="43.67563" lon="1.4534">
        <ele>188.795776</ele>
        <time>2022-08-10T10:13:35.104Z</time>
      </trkpt>
      <trkpt lat="43.67553" lon="1.45348">
        <ele>188.769802</ele>
        <time>2022-08-10T10:13:37.097Z</time>
      </trkpt>
      <trkpt lat="43.67542" lon="1.45358">
        <ele>188.741904</ele>
        <time>2022-08-10T10:13:39.128Z</time>
      </trkpt>
      <trkpt lat="43.67532" lon="1.45366">
        <ele>188.715901</ele>
        <time>2022-08-10T10:13:41.128Z</time>
      </trkpt>
      <trkpt lat="43.67522" lon="1.45375">
        <ele>188.688779</ele>
        <time>2022-08-10T10:13:43.106Z</time>
      </trkpt>
      <trkpt lat="43.67512" lon="1.45383">
        <ele>188.662122</ele>
        <time>2022-08-10T10:13:45.113Z</time>
      </trkpt>
      <trkpt lat="43.67501" lon="1.4539">
        <ele>188.635349</ele>
        <time>2022-08-10T10:13:47.117Z</time>
      </trkpt>
      <trkpt lat="43.67489" lon="1.45388">
        <ele>188.608416</ele>
        <time>2022-08-10T10:13:49.125Z</time>
      </trkpt>
      <trkpt lat="43.67478" lon="1.45379">
        <ele>188.580881</ele>
        <time>2022-08-10T10:13:51.103Z</time>
      </trkpt>
      <trkpt lat="43.67468" lon="1.45369">
        <ele>188.553041</ele>
        <time>2022-08-10T10:13:53.113Z</time>
      </trkpt>
      <trkpt lat="43.67461" lon="1.45355">
        <ele>188.525057</ele>
        <time>2022-08-10T10:13:55.120Z</time>
      </trkpt>
      <trkpt lat="43.67455" lon="1.45339">
        <ele>188.496416</ele>
        <time>2022-08-10T10:13:57.104Z</time>
      </trkpt>
      <trkpt lat="43.6745" lon="1.45322">
        <ele>188.485972</ele>
        <time>2022-08-10T10:13:59.122Z</time>
      </trkpt>
      <trkpt lat="43.67444" lon="1.45306">
        <ele>188.50316</ele>
        <time>2022-08-10T10:14:01.103Z</time>
      </trkpt>
      <trkpt lat="43.67438" lon="1.45289">
        <ele>188.520508</ele>
        <time>2022-08-10T10:14:03.124Z</time>
      </trkpt>
      <trkpt lat="43.67435" lon="1.45272">
        <ele>188.537009</ele>
        <time>2022-08-10T10:14:05.114Z</time>
      </trkpt>
      <trkpt lat="43.67422" lon="1.45274">
        <ele>188.553455</ele>
        <time>2022-08-10T10:14:08.112Z</time>
      </trkpt>
      <trkpt lat="43.67411" lon="1.45282">
        <ele>188.569703</ele>
        <time>2022-08-10T10:14:10.111Z</time>
      </trkpt>
      <trkpt lat="43.674" lon="1.4529">
        <ele>188.585803</ele>
        <time>2022-08-10T10:14:12.114Z</time>
      </trkpt>
      <trkpt lat="43.67388" lon="1.45298">
        <ele>188.60206</ele>
        <time>2022-08-10T10:14:14.116Z</time>
      </trkpt>
      <trkpt lat="43.67377" lon="1.45303">
        <ele>188.618101</ele>
        <time>2022-08-10T10:14:16.105Z</time>
      </trkpt>
      <trkpt lat="43.67364" lon="1.45304">
        <ele>188.634009</ele>
        <time>2022-08-10T10:14:18.141Z</time>
      </trkpt>
      <trkpt lat="43.67352" lon="1.45301">
        <ele>188.649842</ele>
        <time>2022-08-10T10:14:20.097Z</time>
      </trkpt>
      <trkpt lat="43.6734" lon="1.45298">
        <ele>188.665754</ele>
        <time>2022-08-10T10:14:22.114Z</time>
      </trkpt>
      <trkpt lat="43.67328" lon="1.45296">
        <ele>188.682227</ele>
        <time>2022-08-10T10:14:24.100Z</time>
      </trkpt>
      <trkpt lat="43.67315" lon="1.45296">
        <ele>188.698282</ele>
        <time>2022-08-10T10:14:26.093Z</time>
      </trkpt>
      <trkpt lat="43.67304" lon="1.45302">
        <ele>188.703925</ele>
        <time>2022-08-10T10:14:28.103Z</time>
      </trkpt>
      <trkpt lat="43.67293" lon="1.45309">
        <ele>188.647925</ele>
        <time>2022-08-10T10:14:30.135Z</time>
      </trkpt>
      <trkpt lat="43.67281" lon="1.45313">
        <ele>188.592973</ele>
        <time>2022-08-10T10:14:32.106Z</time>
      </trkpt>
      <trkpt lat="43.67271" lon="1.45313">
        <ele>188.546749</ele>
        <time>2022-08-10T10:14:34.112Z</time>
      </trkpt>
      <trkpt lat="43.67264" lon="1.45302">
        <ele>188.497553</ele>
        <time>2022-08-10T10:14:36.117Z</time>
      </trkpt>
      <trkpt lat="43.6726" lon="1.45286">
        <ele>188.442139</ele>
        <time>2022-08-10T10:14:38.118Z</time>
      </trkpt>
      <trkpt lat="43.67255" lon="1.4527">
        <ele>188.385179</ele>
        <time>2022-08-10T10:14:40.113Z</time>
      </trkpt>
      <trkpt lat="43.67251" lon="1.45254">
        <ele>188.329147</ele>
        <time>2022-08-10T10:14:42.110Z</time>
      </trkpt>
      <trkpt lat="43.67246" lon="1.45238">
        <ele>188.272187</ele>
        <time>2022-08-10T10:14:44.156Z</time>
      </trkpt>
      <trkpt lat="43.67242" lon="1.45222">
        <ele>188.215544</ele>
        <time>2022-08-10T10:14:46.118Z</time>
      </trkpt>
      <trkpt lat="43.67236" lon="1.45207">
        <ele>188.159252</ele>
        <time>2022-08-10T10:14:48.103Z</time>
      </trkpt>
      <trkpt lat="43.67232" lon="1.45191">
        <ele>188.103362</ele>
        <time>2022-08-10T10:14:50.107Z</time>
      </trkpt>
      <trkpt lat="43.67228" lon="1.45176">
        <ele>188.047802</ele>
        <time>2022-08-10T10:14:52.101Z</time>
      </trkpt>
      <trkpt lat="43.67223" lon="1.45161">
        <ele>187.992539</ele>
        <time>2022-08-10T10:14:54.093Z</time>
      </trkpt>
      <trkpt lat="43.67217" lon="1.45146">
        <ele>187.93828</ele>
        <time>2022-08-10T10:14:56.114Z</time>
      </trkpt>
      <trkpt lat="43.67214" lon="1.45132">
        <ele>187.88916</ele>
        <time>2022-08-10T10:14:58.110Z</time>
      </trkpt>
      <trkpt lat="43.67209" lon="1.45121">
        <ele>187.827146</ele>
        <time>2022-08-10T10:15:00.102Z</time>
      </trkpt>
      <trkpt lat="43.67198" lon="1.4512">
        <ele>187.750241</ele>
        <time>2022-08-10T10:15:03.101Z</time>
      </trkpt>
      <trkpt lat="43.67189" lon="1.45125">
        <ele>187.680427</ele>
        <time>2022-08-10T10:15:05.105Z</time>
      </trkpt>
      <trkpt lat="43.67178" lon="1.45131">
        <ele>187.60337</ele>
        <time>2022-08-10T10:15:07.115Z</time>
      </trkpt>
      <trkpt lat="43.67168" lon="1.45138">
        <ele>187.526137</ele>
        <time>2022-08-10T10:15:09.139Z</time>
      </trkpt>
      <trkpt lat="43.67157" lon="1.45142">
        <ele>187.448921</ele>
        <time>2022-08-10T10:15:11.122Z</time>
      </trkpt>
      <trkpt lat="43.67147" lon="1.45133">
        <ele>187.36847</ele>
        <time>2022-08-10T10:15:13.096Z</time>
      </trkpt>
      <trkpt lat="43.67135" lon="1.4513">
        <ele>187.287098</ele>
        <time>2022-08-10T10:15:15.121Z</time>
      </trkpt>
      <trkpt lat="43.67124" lon="1.45135">
        <ele>187.205335</ele>
        <time>2022-08-10T10:15:17.096Z</time>
      </trkpt>
      <trkpt lat="43.67113" lon="1.45143">
        <ele>187.122236</ele>
        <time>2022-08-10T10:15:19.121Z</time>
      </trkpt>
      <trkpt lat="43.67101" lon="1.45151">
        <ele>187.036132</ele>
        <time>2022-08-10T10:15:21.121Z</time>
      </trkpt>
      <trkpt lat="43.6709" lon="1.45159">
        <ele>186.951297</ele>
        <time>2022-08-10T10:15:23.136Z</time>
      </trkpt>
      <trkpt lat="43.67078" lon="1.45159">
        <ele>186.867852</ele>
        <time>2022-08-10T10:15:25.102Z</time>
      </trkpt>
      <trkpt lat="43.6707" lon="1.45147">
        <ele>186.78825</ele>
        <time>2022-08-10T10:15:27.137Z</time>
      </trkpt>
      <trkpt lat="43.67061" lon="1.45139">
        <ele>186.713386</ele>
        <time>2022-08-10T10:15:29.106Z</time>
      </trkpt>
      <trkpt lat="43.67051" lon="1.45142">
        <ele>186.651076</ele>
        <time>2022-08-10T10:15:31.119Z</time>
      </trkpt>
      <trkpt lat="43.67041" lon="1.4515">
        <ele>186.595251</ele>
        <time>2022-08-10T10:15:33.121Z</time>
      </trkpt>
      <trkpt lat="43.6703" lon="1.45157">
        <ele>186.538104</ele>
        <time>2022-08-10T10:15:35.099Z</time>
      </trkpt>
      <trkpt lat="43.67018" lon="1.45158">
        <ele>186.482291</ele>
        <time>2022-08-10T10:15:37.113Z</time>
      </trkpt>
      <trkpt lat="43.67011" lon="1.45147">
        <ele>186.429281</ele>
        <time>2022-08-10T10:15:39.122Z</time>
      </trkpt>
      <trkpt lat="43.67007" lon="1.45131">
        <ele>186.37268</ele>
        <time>2022-08-10T10:15:41.114Z</time>
      </trkpt>
      <trkpt lat="43.67001" lon="1.45117">
        <ele>186.315245</ele>
        <time>2022-08-10T10:15:43.106Z</time>
      </trkpt>
      <trkpt lat="43.66994" lon="1.45104">
        <ele>186.257107</ele>
        <time>2022-08-10T10:15:45.107Z</time>
      </trkpt>
      <trkpt lat="43.66987" lon="1.45091">
        <ele>186.199274</ele>
        <time>2022-08-10T10:15:47.124Z</time>
      </trkpt>
      <trkpt lat="43.6698" lon="1.45077">
        <ele>186.14085</ele>
        <time>2022-08-10T10:15:49.105Z</time>
      </trkpt>
      <trkpt lat="43.66973" lon="1.45064">
        <ele>186.08245</ele>
        <time>2022-08-10T10:15:51.129Z</time>
      </trkpt>
      <trkpt lat="43.66966" lon="1.4505">
        <ele>186.024613</ele>
        <time>2022-08-10T10:15:53.121Z</time>
      </trkpt>
      <trkpt lat="43.66959" lon="1.45036">
        <ele>185.96702</ele>
        <time>2022-08-10T10:15:55.108Z</time>
      </trkpt>
      <trkpt lat="43.66954" lon="1.45022">
        <ele>185.909507</ele>
        <time>2022-08-10T10:15:57.127Z</time>
      </trkpt>
      <trkpt lat="43.66948" lon="1.45007">
        <ele>185.851149</ele>
        <time>2022-08-10T10:15:59.119Z</time>
      </trkpt>
      <trkpt lat="43.66943" lon="1.44992">
        <ele>185.799976</ele>
        <time>2022-08-10T10:16:01.131Z</time>
      </trkpt>
      <trkpt lat="43.66937" lon="1.44978">
        <ele>185.812234</ele>
        <time>2022-08-10T10:16:03.132Z</time>
      </trkpt>
      <trkpt lat="43.66932" lon="1.44963">
        <ele>185.824296</ele>
        <time>2022-08-10T10:16:05.104Z</time>
      </trkpt>
      <trkpt lat="43.66924" lon="1.4495">
        <ele>185.836665</ele>
        <time>2022-08-10T10:16:07.114Z</time>
      </trkpt>
      <trkpt lat="43.66915" lon="1.4494">
        <ele>185.848937</ele>
        <time>2022-08-10T10:16:09.131Z</time>
      </trkpt>
      <trkpt lat="43.66903" lon="1.44936">
        <ele>185.861198</ele>
        <time>2022-08-10T10:16:11.110Z</time>
      </trkpt>
      <trkpt lat="43.66891" lon="1.44933">
        <ele>185.873344</ele>
        <time>2022-08-10T10:16:13.110Z</time>
      </trkpt>
      <trkpt lat="43.66879" lon="1.44931">
        <ele>185.885851</ele>
        <time>2022-08-10T10:16:15.120Z</time>
      </trkpt>
      <trkpt lat="43.66867" lon="1.44928">
        <ele>185.898277</ele>
        <time>2022-08-10T10:16:17.104Z</time>
      </trkpt>
      <trkpt lat="43.66856" lon="1.44926">
        <ele>185.910198</ele>
        <time>2022-08-10T10:16:19.116Z</time>
      </trkpt>
      <trkpt lat="43.66844" lon="1.44923">
        <ele>185.922168</ele>
        <time>2022-08-10T10:16:21.168Z</time>
      </trkpt>
      <trkpt lat="43.66833" lon="1.44919">
        <ele>185.934411</ele>
        <time>2022-08-10T10:16:23.090Z</time>
      </trkpt>
      <trkpt lat="43.66821" lon="1.44915">
        <ele>185.946584</ele>
        <time>2022-08-10T10:16:25.118Z</time>
      </trkpt>
      <trkpt lat="43.6681" lon="1.4491">
        <ele>185.95861</ele>
        <time>2022-08-10T10:16:27.111Z</time>
      </trkpt>
      <trkpt lat="43.66798" lon="1.44905">
        <ele>185.971143</ele>
        <time>2022-08-10T10:16:29.107Z</time>
      </trkpt>
      <trkpt lat="43.66788" lon="1.44898">
        <ele>185.985111</ele>
        <time>2022-08-10T10:16:31.123Z</time>
      </trkpt>
      <trkpt lat="43.66778" lon="1.4489">
        <ele>186.054099</ele>
        <time>2022-08-10T10:16:33.096Z</time>
      </trkpt>
      <trkpt lat="43.66768" lon="1.4488">
        <ele>186.125693</ele>
        <time>2022-08-10T10:16:35.120Z</time>
      </trkpt>
      <trkpt lat="43.6676" lon="1.44868">
        <ele>186.196174</ele>
        <time>2022-08-10T10:16:37.100Z</time>
      </trkpt>
      <trkpt lat="43.66757" lon="1.44852">
        <ele>186.266625</ele>
        <time>2022-08-10T10:16:39.123Z</time>
      </trkpt>
      <trkpt lat="43.66754" lon="1.44835">
        <ele>186.341945</ele>
        <time>2022-08-10T10:16:41.106Z</time>
      </trkpt>
      <trkpt lat="43.66747" lon="1.44823">
        <ele>186.409652</ele>
        <time>2022-08-10T10:16:43.114Z</time>
      </trkpt>
      <trkpt lat="43.66736" lon="1.44819">
        <ele>186.478589</ele>
        <time>2022-08-10T10:16:45.116Z</time>
      </trkpt>
      <trkpt lat="43.66725" lon="1.44824">
        <ele>186.549215</ele>
        <time>2022-08-10T10:16:47.098Z</time>
      </trkpt>
      <trkpt lat="43.66715" lon="1.44834">
        <ele>186.620522</ele>
        <time>2022-08-10T10:16:49.101Z</time>
      </trkpt>
      <trkpt lat="43.66705" lon="1.44842">
        <ele>186.690143</ele>
        <time>2022-08-10T10:16:51.102Z</time>
      </trkpt>
      <trkpt lat="43.66695" lon="1.4485">
        <ele>186.760139</ele>
        <time>2022-08-10T10:16:53.122Z</time>
      </trkpt>
      <trkpt lat="43.66684" lon="1.44856">
        <ele>186.829717</ele>
        <time>2022-08-10T10:16:55.104Z</time>
      </trkpt>
      <trkpt lat="43.66673" lon="1.44859">
        <ele>186.898583</ele>
        <time>2022-08-10T10:16:57.103Z</time>
      </trkpt>
      <trkpt lat="43.66661" lon="1.44861">
        <ele>186.967766</ele>
        <time>2022-08-10T10:16:59.108Z</time>
      </trkpt>
      <trkpt lat="43.6665" lon="1.44861">
        <ele>187.037113</ele>
        <time>2022-08-10T10:17:01.100Z</time>
      </trkpt>
      <trkpt lat="43.66639" lon="1.44856">
        <ele>187.105944</ele>
        <time>2022-08-10T10:17:03.112Z</time>
      </trkpt>
      <trkpt lat="43.66628" lon="1.44848">
        <ele>187.184264</ele>
        <time>2022-08-10T10:17:05.105Z</time>
      </trkpt>
      <trkpt lat="43.66621" lon="1.44834">
        <ele>187.262011</ele>
        <time>2022-08-10T10:17:07.119Z</time>
      </trkpt>
      <trkpt lat="43.66612" lon="1.44822">
        <ele>187.340237</ele>
        <time>2022-08-10T10:17:09.112Z</time>
      </trkpt>
      <trkpt lat="43.66604" lon="1.4481">
        <ele>187.415997</ele>
        <time>2022-08-10T10:17:11.106Z</time>
      </trkpt>
      <trkpt lat="43.66596" lon="1.44797">
        <ele>187.491495</ele>
        <time>2022-08-10T10:17:13.118Z</time>
      </trkpt>
      <trkpt lat="43.66589" lon="1.44785">
        <ele>187.566492</ele>
        <time>2022-08-10T10:17:15.100Z</time>
      </trkpt>
      <trkpt lat="43.66581" lon="1.44773">
        <ele>187.640461</ele>
        <time>2022-08-10T10:17:17.118Z</time>
      </trkpt>
      <trkpt lat="43.66573" lon="1.44762">
        <ele>187.712513</ele>
        <time>2022-08-10T10:17:19.099Z</time>
      </trkpt>
      <trkpt lat="43.66565" lon="1.4475">
        <ele>187.784895</ele>
        <time>2022-08-10T10:17:21.118Z</time>
      </trkpt>
      <trkpt lat="43.66557" lon="1.4474">
        <ele>187.852034</ele>
        <time>2022-08-10T10:17:23.120Z</time>
      </trkpt>
      <trkpt lat="43.66549" lon="1.44731">
        <ele>187.917699</ele>
        <time>2022-08-10T10:17:25.110Z</time>
      </trkpt>
      <trkpt lat="43.6654" lon="1.44725">
        <ele>187.981849</ele>
        <time>2022-08-10T10:17:27.119Z</time>
      </trkpt>
      <trkpt lat="43.66531" lon="1.44719">
        <ele>188.048626</ele>
        <time>2022-08-10T10:17:29.107Z</time>
      </trkpt>
      <trkpt lat="43.66521" lon="1.44713">
        <ele>188.113388</ele>
        <time>2022-08-10T10:17:31.121Z</time>
      </trkpt>
      <trkpt lat="43.66511" lon="1.44708">
        <ele>188.180845</ele>
        <time>2022-08-10T10:17:34.148Z</time>
      </trkpt>
      <trkpt lat="43.66507" lon="1.4472">
        <ele>188.202841</ele>
        <time>2022-08-10T10:17:37.113Z</time>
      </trkpt>
      <trkpt lat="43.66503" lon="1.44732">
        <ele>188.209395</ele>
        <time>2022-08-10T10:17:39.109Z</time>
      </trkpt>
      <trkpt lat="43.66498" lon="1.44745">
        <ele>188.216462</ele>
        <time>2022-08-10T10:17:41.118Z</time>
      </trkpt>
      <trkpt lat="43.66494" lon="1.44759">
        <ele>188.223746</ele>
        <time>2022-08-10T10:17:43.106Z</time>
      </trkpt>
      <trkpt lat="43.66488" lon="1.44772">
        <ele>188.231349</ele>
        <time>2022-08-10T10:17:45.098Z</time>
      </trkpt>
      <trkpt lat="43.66482" lon="1.44786">
        <ele>188.23918</ele>
        <time>2022-08-10T10:17:47.108Z</time>
      </trkpt>
      <trkpt lat="43.66476" lon="1.448">
        <ele>188.247079</ele>
        <time>2022-08-10T10:17:49.109Z</time>
      </trkpt>
      <trkpt lat="43.6647" lon="1.44814">
        <ele>188.255193</ele>
        <time>2022-08-10T10:17:51.113Z</time>
      </trkpt>
      <trkpt lat="43.66464" lon="1.44829">
        <ele>188.263474</ele>
        <time>2022-08-10T10:17:53.095Z</time>
      </trkpt>
      <trkpt lat="43.66459" lon="1.44844">
        <ele>188.271767</ele>
        <time>2022-08-10T10:17:55.112Z</time>
      </trkpt>
      <trkpt lat="43.66454" lon="1.4486">
        <ele>188.280077</ele>
        <time>2022-08-10T10:17:57.136Z</time>
      </trkpt>
      <trkpt lat="43.66451" lon="1.44876">
        <ele>188.288237</ele>
        <time>2022-08-10T10:17:59.117Z</time>
      </trkpt>
      <trkpt lat="43.66447" lon="1.44892">
        <ele>188.296475</ele>
        <time>2022-08-10T10:18:01.117Z</time>
      </trkpt>
      <trkpt lat="43.66441" lon="1.44907">
        <ele>188.304661</ele>
        <time>2022-08-10T10:18:03.113Z</time>
      </trkpt>
      <trkpt lat="43.66434" lon="1.4492">
        <ele>188.312569</ele>
        <time>2022-08-10T10:18:05.120Z</time>
      </trkpt>
      <trkpt lat="43.6643" lon="1.44935">
        <ele>188.326104</ele>
        <time>2022-08-10T10:18:07.106Z</time>
      </trkpt>
      <trkpt lat="43.66426" lon="1.4495">
        <ele>188.38764</ele>
        <time>2022-08-10T10:18:09.103Z</time>
      </trkpt>
      <trkpt lat="43.66421" lon="1.44964">
        <ele>188.449931</ele>
        <time>2022-08-10T10:18:11.096Z</time>
      </trkpt>
      <trkpt lat="43.66416" lon="1.44978">
        <ele>188.51212</ele>
        <time>2022-08-10T10:18:13.113Z</time>
      </trkpt>
      <trkpt lat="43.66413" lon="1.44994">
        <ele>188.574223</ele>
        <time>2022-08-10T10:18:15.105Z</time>
      </trkpt>
      <trkpt lat="43.66407" lon="1.45008">
        <ele>188.637203</ele>
        <time>2022-08-10T10:18:17.106Z</time>
      </trkpt>
      <trkpt lat="43.66402" lon="1.45022">
        <ele>188.698557</ele>
        <time>2022-08-10T10:18:19.111Z</time>
      </trkpt>
      <trkpt lat="43.66398" lon="1.45036">
        <ele>188.755531</ele>
        <time>2022-08-10T10:18:21.100Z</time>
      </trkpt>
      <trkpt lat="43.66397" lon="1.45051">
        <ele>188.817021</ele>
        <time>2022-08-10T10:18:23.103Z</time>
      </trkpt>
      <trkpt lat="43.66396" lon="1.45067">
        <ele>188.877359</ele>
        <time>2022-08-10T10:18:25.106Z</time>
      </trkpt>
      <trkpt lat="43.66392" lon="1.45083">
        <ele>188.941149</ele>
        <time>2022-08-10T10:18:27.116Z</time>
      </trkpt>
      <trkpt lat="43.66388" lon="1.45097">
        <ele>189.002518</ele>
        <time>2022-08-10T10:18:29.131Z</time>
      </trkpt>
      <trkpt lat="43.66382" lon="1.4511">
        <ele>189.062607</ele>
        <time>2022-08-10T10:18:31.105Z</time>
      </trkpt>
      <trkpt lat="43.66377" lon="1.45125">
        <ele>189.12665</ele>
        <time>2022-08-10T10:18:34.113Z</time>
      </trkpt>
      <trkpt lat="43.66371" lon="1.45136">
        <ele>189.179835</ele>
        <time>2022-08-10T10:18:36.096Z</time>
      </trkpt>
      <trkpt lat="43.66364" lon="1.4515">
        <ele>189.246878</ele>
        <time>2022-08-10T10:18:38.112Z</time>
      </trkpt>
      <trkpt lat="43.66357" lon="1.45163">
        <ele>189.282877</ele>
        <time>2022-08-10T10:18:40.124Z</time>
      </trkpt>
      <trkpt lat="43.6636" lon="1.45178">
        <ele>189.277333</ele>
        <time>2022-08-10T10:18:42.141Z</time>
      </trkpt>
      <trkpt lat="43.6636" lon="1.45192">
        <ele>189.272516</ele>
        <time>2022-08-10T10:18:44.107Z</time>
      </trkpt>
      <trkpt lat="43.66355" lon="1.45205">
        <ele>189.267244</ele>
        <time>2022-08-10T10:18:46.107Z</time>
      </trkpt>
      <trkpt lat="43.66351" lon="1.45223">
        <ele>189.260783</ele>
        <time>2022-08-10T10:18:48.087Z</time>
      </trkpt>
      <trkpt lat="43.66347" lon="1.45241">
        <ele>189.254181</ele>
        <time>2022-08-10T10:18:50.121Z</time>
      </trkpt>
      <trkpt lat="43.66339" lon="1.45254">
        <ele>189.248303</ele>
        <time>2022-08-10T10:18:52.107Z</time>
      </trkpt>
      <trkpt lat="43.66333" lon="1.45265">
        <ele>189.243615</ele>
        <time>2022-08-10T10:18:54.106Z</time>
      </trkpt>
      <trkpt lat="43.66328" lon="1.45277">
        <ele>189.238581</ele>
        <time>2022-08-10T10:18:56.117Z</time>
      </trkpt>
      <trkpt lat="43.66322" lon="1.4529">
        <ele>189.233211</ele>
        <time>2022-08-10T10:18:58.107Z</time>
      </trkpt>
      <trkpt lat="43.66315" lon="1.45302">
        <ele>189.227961</ele>
        <time>2022-08-10T10:19:00.103Z</time>
      </trkpt>
      <trkpt lat="43.6631" lon="1.45314">
        <ele>189.222905</ele>
        <time>2022-08-10T10:19:02.121Z</time>
      </trkpt>
      <trkpt lat="43.66304" lon="1.45328">
        <ele>189.217638</ele>
        <time>2022-08-10T10:19:04.115Z</time>
      </trkpt>
      <trkpt lat="43.66299" lon="1.45341">
        <ele>189.212313</ele>
        <time>2022-08-10T10:19:06.129Z</time>
      </trkpt>
      <trkpt lat="43.66293" lon="1.45354">
        <ele>189.206921</ele>
        <time>2022-08-10T10:19:08.103Z</time>
      </trkpt>
      <trkpt lat="43.66287" lon="1.45366">
        <ele>189.201763</ele>
        <time>2022-08-10T10:19:10.137Z</time>
      </trkpt>
      <trkpt lat="43.66281" lon="1.45379">
        <ele>189.203468</ele>
        <time>2022-08-10T10:19:12.122Z</time>
      </trkpt>
      <trkpt lat="43.66277" lon="1.45393">
        <ele>189.218633</ele>
        <time>2022-08-10T10:19:14.124Z</time>
      </trkpt>
      <trkpt lat="43.66272" lon="1.45407">
        <ele>189.234555</ele>
        <time>2022-08-10T10:19:16.130Z</time>
      </trkpt>
      <trkpt lat="43.66268" lon="1.45422">
        <ele>189.250518</ele>
        <time>2022-08-10T10:19:18.105Z</time>
      </trkpt>
      <trkpt lat="43.66263" lon="1.45437">
        <ele>189.266902</ele>
        <time>2022-08-10T10:19:20.108Z</time>
      </trkpt>
      <trkpt lat="43.6626" lon="1.45452">
        <ele>189.282641</ele>
        <time>2022-08-10T10:19:22.094Z</time>
      </trkpt>
      <trkpt lat="43.66256" lon="1.45467">
        <ele>189.298502</ele>
        <time>2022-08-10T10:19:24.104Z</time>
      </trkpt>
      <trkpt lat="43.66252" lon="1.45481">
        <ele>189.313611</ele>
        <time>2022-08-10T10:19:26.104Z</time>
      </trkpt>
      <trkpt lat="43.66247" lon="1.45495">
        <ele>189.329593</ele>
        <time>2022-08-10T10:19:28.114Z</time>
      </trkpt>
      <trkpt lat="43.66243" lon="1.4551">
        <ele>189.346159</ele>
        <time>2022-08-10T10:19:30.141Z</time>
      </trkpt>
      <trkpt lat="43.66239" lon="1.45525">
        <ele>189.362601</ele>
        <time>2022-08-10T10:19:32.120Z</time>
      </trkpt>
      <trkpt lat="43.66236" lon="1.4554">
        <ele>189.378477</ele>
        <time>2022-08-10T10:19:34.112Z</time>
      </trkpt>
      <trkpt lat="43.66231" lon="1.45555">
        <ele>189.394253</ele>
        <time>2022-08-10T10:19:36.137Z</time>
      </trkpt>
      <trkpt lat="43.66227" lon="1.4557">
        <ele>189.41067</ele>
        <time>2022-08-10T10:19:38.105Z</time>
      </trkpt>
      <trkpt lat="43.66222" lon="1.45584">
        <ele>189.426684</ele>
        <time>2022-08-10T10:19:40.105Z</time>
      </trkpt>
      <trkpt lat="43.66218" lon="1.45599">
        <ele>189.443024</ele>
        <time>2022-08-10T10:19:42.123Z</time>
      </trkpt>
      <trkpt lat="43.66213" lon="1.45614">
        <ele>189.46673</ele>
        <time>2022-08-10T10:19:44.143Z</time>
      </trkpt>
      <trkpt lat="43.66208" lon="1.45628">
        <ele>189.494486</ele>
        <time>2022-08-10T10:19:46.113Z</time>
      </trkpt>
      <trkpt lat="43.66198" lon="1.45633">
        <ele>189.52098</ele>
        <time>2022-08-10T10:19:48.139Z</time>
      </trkpt>
      <trkpt lat="43.66189" lon="1.45625">
        <ele>189.548</ele>
        <time>2022-08-10T10:19:50.122Z</time>
      </trkpt>
      <trkpt lat="43.6618" lon="1.45613">
        <ele>189.576341</ele>
        <time>2022-08-10T10:19:52.120Z</time>
      </trkpt>
      <trkpt lat="43.66172" lon="1.45602">
        <ele>189.604134</ele>
        <time>2022-08-10T10:19:54.150Z</time>
      </trkpt>
      <trkpt lat="43.66165" lon="1.45592">
        <ele>189.630516</ele>
        <time>2022-08-10T10:19:56.103Z</time>
      </trkpt>
      <trkpt lat="43.66156" lon="1.45583">
        <ele>189.656404</ele>
        <time>2022-08-10T10:19:58.097Z</time>
      </trkpt>
      <trkpt lat="43.66147" lon="1.45575">
        <ele>189.684327</ele>
        <time>2022-08-10T10:20:00.132Z</time>
      </trkpt>
      <trkpt lat="43.66136" lon="1.45565">
        <ele>189.715135</ele>
        <time>2022-08-10T10:20:02.106Z</time>
      </trkpt>
      <trkpt lat="43.66126" lon="1.45556">
        <ele>189.744755</ele>
        <time>2022-08-10T10:20:04.104Z</time>
      </trkpt>
      <trkpt lat="43.66118" lon="1.45549">
        <ele>189.76768</ele>
        <time>2022-08-10T10:20:06.102Z</time>
      </trkpt>
      <trkpt lat="43.66108" lon="1.45545">
        <ele>189.792326</ele>
        <time>2022-08-10T10:20:11.114Z</time>
      </trkpt>
      <trkpt lat="43.66099" lon="1.45539">
        <ele>189.81849</ele>
        <time>2022-08-10T10:20:13.114Z</time>
      </trkpt>
      <trkpt lat="43.66087" lon="1.45532">
        <ele>189.848353</ele>
        <time>2022-08-10T10:20:15.116Z</time>
      </trkpt>
      <trkpt lat="43.66077" lon="1.45532">
        <ele>189.874789</ele>
        <time>2022-08-10T10:20:17.107Z</time>
      </trkpt>
      <trkpt lat="43.66066" lon="1.45534">
        <ele>189.945512</ele>
        <time>2022-08-10T10:20:19.129Z</time>
      </trkpt>
      <trkpt lat="43.66055" lon="1.4553">
        <ele>190.074656</ele>
        <time>2022-08-10T10:20:21.100Z</time>
      </trkpt>
      <trkpt lat="43.66045" lon="1.45523">
        <ele>190.209284</ele>
        <time>2022-08-10T10:20:23.109Z</time>
      </trkpt>
      <trkpt lat="43.66034" lon="1.45516">
        <ele>190.342259</ele>
        <time>2022-08-10T10:20:25.129Z</time>
      </trkpt>
      <trkpt lat="43.66024" lon="1.45506">
        <ele>190.488397</ele>
        <time>2022-08-10T10:20:27.086Z</time>
      </trkpt>
      <trkpt lat="43.66015" lon="1.45496">
        <ele>190.619875</ele>
        <time>2022-08-10T10:20:29.097Z</time>
      </trkpt>
      <trkpt lat="43.66006" lon="1.45489">
        <ele>190.746898</ele>
        <time>2022-08-10T10:20:31.117Z</time>
      </trkpt>
      <trkpt lat="43.65995" lon="1.45483">
        <ele>190.874954</ele>
        <time>2022-08-10T10:20:33.096Z</time>
      </trkpt>
      <trkpt lat="43.65985" lon="1.45479">
        <ele>191.003216</ele>
        <time>2022-08-10T10:20:35.098Z</time>
      </trkpt>
      <trkpt lat="43.65976" lon="1.45471">
        <ele>191.121667</ele>
        <time>2022-08-10T10:20:37.103Z</time>
      </trkpt>
      <trkpt lat="43.65969" lon="1.45459">
        <ele>191.249695</ele>
        <time>2022-08-10T10:20:39.104Z</time>
      </trkpt>
      <trkpt lat="43.65959" lon="1.45452">
        <ele>191.384232</ele>
        <time>2022-08-10T10:20:41.108Z</time>
      </trkpt>
      <trkpt lat="43.65946" lon="1.45451">
        <ele>191.535189</ele>
        <time>2022-08-10T10:20:43.117Z</time>
      </trkpt>
      <trkpt lat="43.65934" lon="1.45456">
        <ele>191.683174</ele>
        <time>2022-08-10T10:20:45.110Z</time>
      </trkpt>
      <trkpt lat="43.65924" lon="1.45466">
        <ele>191.825967</ele>
        <time>2022-08-10T10:20:47.098Z</time>
      </trkpt>
      <trkpt lat="43.65912" lon="1.45471">
        <ele>191.965853</ele>
        <time>2022-08-10T10:20:49.119Z</time>
      </trkpt>
      <trkpt lat="43.659" lon="1.45473">
        <ele>191.907969</ele>
        <time>2022-08-10T10:20:51.092Z</time>
      </trkpt>
      <trkpt lat="43.65888" lon="1.45474">
        <ele>191.82962</ele>
        <time>2022-08-10T10:20:53.111Z</time>
      </trkpt>
      <trkpt lat="43.65876" lon="1.45475">
        <ele>191.751742</ele>
        <time>2022-08-10T10:20:55.103Z</time>
      </trkpt>
      <trkpt lat="43.65864" lon="1.45477">
        <ele>191.671081</ele>
        <time>2022-08-10T10:20:57.108Z</time>
      </trkpt>
      <trkpt lat="43.65852" lon="1.4548">
        <ele>191.59335</ele>
        <time>2022-08-10T10:20:59.109Z</time>
      </trkpt>
      <trkpt lat="43.65841" lon="1.45484">
        <ele>191.515969</ele>
        <time>2022-08-10T10:21:01.115Z</time>
      </trkpt>
      <trkpt lat="43.65829" lon="1.45487">
        <ele>191.440286</ele>
        <time>2022-08-10T10:21:03.123Z</time>
      </trkpt>
      <trkpt lat="43.65818" lon="1.45491">
        <ele>191.363541</ele>
        <time>2022-08-10T10:21:05.124Z</time>
      </trkpt>
      <trkpt lat="43.65807" lon="1.45495">
        <ele>191.288267</ele>
        <time>2022-08-10T10:21:07.114Z</time>
      </trkpt>
      <trkpt lat="43.65795" lon="1.45492">
        <ele>191.212887</ele>
        <time>2022-08-10T10:21:09.121Z</time>
      </trkpt>
      <trkpt lat="43.65784" lon="1.45488">
        <ele>191.134993</ele>
        <time>2022-08-10T10:21:11.103Z</time>
      </trkpt>
      <trkpt lat="43.65772" lon="1.45484">
        <ele>191.057711</ele>
        <time>2022-08-10T10:21:13.105Z</time>
      </trkpt>
      <trkpt lat="43.65761" lon="1.45482">
        <ele>190.981766</ele>
        <time>2022-08-10T10:21:15.098Z</time>
      </trkpt>
      <trkpt lat="43.65749" lon="1.45478">
        <ele>190.903486</ele>
        <time>2022-08-10T10:21:17.107Z</time>
      </trkpt>
      <trkpt lat="43.65737" lon="1.45477">
        <ele>190.824119</ele>
        <time>2022-08-10T10:21:19.100Z</time>
      </trkpt>
      <trkpt lat="43.65725" lon="1.45474">
        <ele>190.756896</ele>
        <time>2022-08-10T10:21:21.109Z</time>
      </trkpt>
      <trkpt lat="43.65712" lon="1.45469">
        <ele>190.687825</ele>
        <time>2022-08-10T10:21:23.103Z</time>
      </trkpt>
      <trkpt lat="43.65699" lon="1.45464">
        <ele>190.620348</ele>
        <time>2022-08-10T10:21:25.101Z</time>
      </trkpt>
      <trkpt lat="43.65687" lon="1.45458">
        <ele>190.553052</ele>
        <time>2022-08-10T10:21:27.099Z</time>
      </trkpt>
      <trkpt lat="43.65674" lon="1.45453">
        <ele>190.486463</ele>
        <time>2022-08-10T10:21:29.113Z</time>
      </trkpt>
      <trkpt lat="43.65662" lon="1.45449">
        <ele>190.421567</ele>
        <time>2022-08-10T10:21:31.095Z</time>
      </trkpt>
      <trkpt lat="43.65651" lon="1.45444">
        <ele>190.358926</ele>
        <time>2022-08-10T10:21:33.110Z</time>
      </trkpt>
      <trkpt lat="43.65639" lon="1.45439">
        <ele>190.296997</ele>
        <time>2022-08-10T10:21:35.133Z</time>
      </trkpt>
      <trkpt lat="43.65628" lon="1.45434">
        <ele>190.234467</ele>
        <time>2022-08-10T10:21:37.110Z</time>
      </trkpt>
      <trkpt lat="43.65616" lon="1.45428">
        <ele>190.171485</ele>
        <time>2022-08-10T10:21:39.124Z</time>
      </trkpt>
      <trkpt lat="43.65605" lon="1.45424">
        <ele>190.109971</ele>
        <time>2022-08-10T10:21:41.108Z</time>
      </trkpt>
      <trkpt lat="43.65594" lon="1.4542">
        <ele>190.052785</ele>
        <time>2022-08-10T10:21:43.109Z</time>
      </trkpt>
      <trkpt lat="43.65582" lon="1.45416">
        <ele>189.990276</ele>
        <time>2022-08-10T10:21:45.099Z</time>
      </trkpt>
      <trkpt lat="43.65571" lon="1.45412">
        <ele>189.928458</ele>
        <time>2022-08-10T10:21:47.106Z</time>
      </trkpt>
      <trkpt lat="43.65559" lon="1.45408">
        <ele>189.877803</ele>
        <time>2022-08-10T10:21:49.101Z</time>
      </trkpt>
      <trkpt lat="43.65548" lon="1.45404">
        <ele>189.873581</ele>
        <time>2022-08-10T10:21:51.101Z</time>
      </trkpt>
      <trkpt lat="43.65537" lon="1.454">
        <ele>189.869429</ele>
        <time>2022-08-10T10:21:53.102Z</time>
      </trkpt>
      <trkpt lat="43.65526" lon="1.45396">
        <ele>189.865248</ele>
        <time>2022-08-10T10:21:55.096Z</time>
      </trkpt>
      <trkpt lat="43.65514" lon="1.45392">
        <ele>189.861032</ele>
        <time>2022-08-10T10:21:57.097Z</time>
      </trkpt>
      <trkpt lat="43.65503" lon="1.45388">
        <ele>189.85672</ele>
        <time>2022-08-10T10:21:59.119Z</time>
      </trkpt>
      <trkpt lat="43.65492" lon="1.45384">
        <ele>189.852462</ele>
        <time>2022-08-10T10:22:01.123Z</time>
      </trkpt>
      <trkpt lat="43.6548" lon="1.45379">
        <ele>189.848156</ele>
        <time>2022-08-10T10:22:03.106Z</time>
      </trkpt>
      <trkpt lat="43.65469" lon="1.45374">
        <ele>189.843913</ele>
        <time>2022-08-10T10:22:05.119Z</time>
      </trkpt>
      <trkpt lat="43.65457" lon="1.4537">
        <ele>189.839621</ele>
        <time>2022-08-10T10:22:07.122Z</time>
      </trkpt>
      <trkpt lat="43.65446" lon="1.45366">
        <ele>189.835427</ele>
        <time>2022-08-10T10:22:09.099Z</time>
      </trkpt>
      <trkpt lat="43.65438" lon="1.4536">
        <ele>189.832037</ele>
        <time>2022-08-10T10:22:11.112Z</time>
      </trkpt>
      <trkpt lat="43.65439" lon="1.45347">
        <ele>189.828439</ele>
        <time>2022-08-10T10:22:13.107Z</time>
      </trkpt>
      <trkpt lat="43.65448" lon="1.45335">
        <ele>189.824196</ele>
        <time>2022-08-10T10:22:15.109Z</time>
      </trkpt>
      <trkpt lat="43.65457" lon="1.45325">
        <ele>189.819809</ele>
        <time>2022-08-10T10:22:17.111Z</time>
      </trkpt>
      <trkpt lat="43.65466" lon="1.45313">
        <ele>189.815496</ele>
        <time>2022-08-10T10:22:19.125Z</time>
      </trkpt>
      <trkpt lat="43.65475" lon="1.45302">
        <ele>189.830679</ele>
        <time>2022-08-10T10:22:21.120Z</time>
      </trkpt>
      <trkpt lat="43.65484" lon="1.45292">
        <ele>189.865209</ele>
        <time>2022-08-10T10:22:23.120Z</time>
      </trkpt>
      <trkpt lat="43.65492" lon="1.4528">
        <ele>189.89961</ele>
        <time>2022-08-10T10:22:25.097Z</time>
      </trkpt>
      <trkpt lat="43.65499" lon="1.45266">
        <ele>189.934598</ele>
        <time>2022-08-10T10:22:27.185Z</time>
      </trkpt>
      <trkpt lat="43.65508" lon="1.45256">
        <ele>189.969609</ele>
        <time>2022-08-10T10:22:29.096Z</time>
      </trkpt>
      <trkpt lat="43.65518" lon="1.45246">
        <ele>190.004161</ele>
        <time>2022-08-10T10:22:31.098Z</time>
      </trkpt>
      <trkpt lat="43.65527" lon="1.45235">
        <ele>190.038468</ele>
        <time>2022-08-10T10:22:33.112Z</time>
      </trkpt>
      <trkpt lat="43.65537" lon="1.45225">
        <ele>190.073941</ele>
        <time>2022-08-10T10:22:35.105Z</time>
      </trkpt>
      <trkpt lat="43.65547" lon="1.45214">
        <ele>190.110172</ele>
        <time>2022-08-10T10:22:37.096Z</time>
      </trkpt>
      <trkpt lat="43.65556" lon="1.45204">
        <ele>190.144172</ele>
        <time>2022-08-10T10:22:39.135Z</time>
      </trkpt>
      <trkpt lat="43.65566" lon="1.45194">
        <ele>190.179522</ele>
        <time>2022-08-10T10:22:41.114Z</time>
      </trkpt>
      <trkpt lat="43.65575" lon="1.45184">
        <ele>190.213696</ele>
        <time>2022-08-10T10:22:43.097Z</time>
      </trkpt>
      <trkpt lat="43.65584" lon="1.45173">
        <ele>190.247224</ele>
        <time>2022-08-10T10:22:45.111Z</time>
      </trkpt>
      <trkpt lat="43.65592" lon="1.45162">
        <ele>190.279878</ele>
        <time>2022-08-10T10:22:47.111Z</time>
      </trkpt>
      <trkpt lat="43.65602" lon="1.45152">
        <ele>190.315852</ele>
        <time>2022-08-10T10:22:49.129Z</time>
      </trkpt>
      <trkpt lat="43.65605" lon="1.45135">
        <ele>190.362396</ele>
        <time>2022-08-10T10:22:51.106Z</time>
      </trkpt>
      <trkpt lat="43.65602" lon="1.4512">
        <ele>190.415771</ele>
        <time>2022-08-10T10:22:53.106Z</time>
      </trkpt>
      <trkpt lat="43.65594" lon="1.45107">
        <ele>190.469848</ele>
        <time>2022-08-10T10:22:55.110Z</time>
      </trkpt>
      <trkpt lat="43.65587" lon="1.45095">
        <ele>190.522168</ele>
        <time>2022-08-10T10:22:57.120Z</time>
      </trkpt>
      <trkpt lat="43.65578" lon="1.45084">
        <ele>190.576376</ele>
        <time>2022-08-10T10:22:59.104Z</time>
      </trkpt>
      <trkpt lat="43.6557" lon="1.45074">
        <ele>190.625908</ele>
        <time>2022-08-10T10:23:01.117Z</time>
      </trkpt>
      <trkpt lat="43.65563" lon="1.45065">
        <ele>190.668003</ele>
        <time>2022-08-10T10:23:03.116Z</time>
      </trkpt>
      <trkpt lat="43.65556" lon="1.45054">
        <ele>190.718038</ele>
        <time>2022-08-10T10:23:05.105Z</time>
      </trkpt>
      <trkpt lat="43.65548" lon="1.45043">
        <ele>190.771547</ele>
        <time>2022-08-10T10:23:07.138Z</time>
      </trkpt>
      <trkpt lat="43.6554" lon="1.45031">
        <ele>190.826263</ele>
        <time>2022-08-10T10:23:09.097Z</time>
      </trkpt>
      <trkpt lat="43.65533" lon="1.45019">
        <ele>190.876297</ele>
        <time>2022-08-10T10:23:11.122Z</time>
      </trkpt>
      <trkpt lat="43.65524" lon="1.45011">
        <ele>190.923862</ele>
        <time>2022-08-10T10:23:13.098Z</time>
      </trkpt>
      <trkpt lat="43.65516" lon="1.44998">
        <ele>190.978859</ele>
        <time>2022-08-10T10:23:15.103Z</time>
      </trkpt>
      <trkpt lat="43.65509" lon="1.44986">
        <ele>191.032846</ele>
        <time>2022-08-10T10:23:17.110Z</time>
      </trkpt>
      <trkpt lat="43.655" lon="1.44974">
        <ele>191.089382</ele>
        <time>2022-08-10T10:23:19.116Z</time>
      </trkpt>
      <trkpt lat="43.65491" lon="1.44962">
        <ele>191.146093</ele>
        <time>2022-08-10T10:23:21.113Z</time>
      </trkpt>
      <trkpt lat="43.65483" lon="1.4495">
        <ele>191.139248</ele>
        <time>2022-08-10T10:23:23.108Z</time>
      </trkpt>
      <trkpt lat="43.65477" lon="1.44937">
        <ele>191.117554</ele>
        <time>2022-08-10T10:23:25.141Z</time>
      </trkpt>
      <trkpt lat="43.65477" lon="1.4492">
        <ele>191.09448</ele>
        <time>2022-08-10T10:23:27.122Z</time>
      </trkpt>
      <trkpt lat="43.65482" lon="1.44905">
        <ele>191.072709</ele>
        <time>2022-08-10T10:23:29.126Z</time>
      </trkpt>
      <trkpt lat="43.65488" lon="1.44892">
        <ele>191.050583</ele>
        <time>2022-08-10T10:23:31.100Z</time>
      </trkpt>
      <trkpt lat="43.65495" lon="1.44878">
        <ele>191.0279</ele>
        <time>2022-08-10T10:23:33.107Z</time>
      </trkpt>
      <trkpt lat="43.65502" lon="1.44865">
        <ele>191.005333</ele>
        <time>2022-08-10T10:23:35.104Z</time>
      </trkpt>
      <trkpt lat="43.65508" lon="1.44851">
        <ele>190.983307</ele>
        <time>2022-08-10T10:23:37.106Z</time>
      </trkpt>
      <trkpt lat="43.65513" lon="1.44836">
        <ele>190.961389</ele>
        <time>2022-08-10T10:23:39.111Z</time>
      </trkpt>
      <trkpt lat="43.65518" lon="1.44822">
        <ele>190.939151</ele>
        <time>2022-08-10T10:23:41.108Z</time>
      </trkpt>
      <trkpt lat="43.65526" lon="1.4481">
        <ele>190.916593</ele>
        <time>2022-08-10T10:23:43.092Z</time>
      </trkpt>
      <trkpt lat="43.65535" lon="1.44799">
        <ele>190.894976</ele>
        <time>2022-08-10T10:23:45.102Z</time>
      </trkpt>
      <trkpt lat="43.65543" lon="1.44787">
        <ele>190.872191</ele>
        <time>2022-08-10T10:23:47.109Z</time>
      </trkpt>
      <trkpt lat="43.6555" lon="1.44773">
        <ele>190.848625</ele>
        <time>2022-08-10T10:23:49.101Z</time>
      </trkpt>
      <trkpt lat="43.65557" lon="1.44759">
        <ele>190.825727</ele>
        <time>2022-08-10T10:23:51.102Z</time>
      </trkpt>
      <trkpt lat="43.65564" lon="1.44746">
        <ele>190.817636</ele>
        <time>2022-08-10T10:23:53.116Z</time>
      </trkpt>
      <trkpt lat="43.6557" lon="1.44732">
        <ele>190.817636</ele>
        <time>2022-08-10T10:23:55.094Z</time>
      </trkpt>
      <trkpt lat="43.65577" lon="1.4472">
        <ele>190.817636</ele>
        <time>2022-08-10T10:23:57.107Z</time>
      </trkpt>
      <trkpt lat="43.65583" lon="1.44707">
        <ele>190.817636</ele>
        <time>2022-08-10T10:23:59.109Z</time>
      </trkpt>
      <trkpt lat="43.65589" lon="1.44696">
        <ele>190.817636</ele>
        <time>2022-08-10T10:24:01.123Z</time>
      </trkpt>
      <trkpt lat="43.65595" lon="1.44683">
        <ele>190.817636</ele>
        <time>2022-08-10T10:24:03.106Z</time>
      </trkpt>
      <trkpt lat="43.65602" lon="1.44671">
        <ele>190.817636</ele>
        <time>2022-08-10T10:24:05.103Z</time>
      </trkpt>
      <trkpt lat="43.65607" lon="1.4466">
        <ele>190.817636</ele>
        <time>2022-08-10T10:24:07.101Z</time>
      </trkpt>
      <trkpt lat="43.65606" lon="1.44646">
        <ele>190.817636</ele>
        <time>2022-08-10T10:24:10.098Z</time>
      </trkpt>
      <trkpt lat="43.65596" lon="1.44638">
        <ele>190.817636</ele>
        <time>2022-08-10T10:24:14.104Z</time>
      </trkpt>
      <trkpt lat="43.65586" lon="1.44633">
        <ele>190.817636</ele>
        <time>2022-08-10T10:24:17.104Z</time>
      </trkpt>
      <trkpt lat="43.65577" lon="1.44627">
        <ele>190.817636</ele>
        <time>2022-08-10T10:24:20.107Z</time>
      </trkpt>
      <trkpt lat="43.65572" lon="1.44612">
        <ele>190.817636</ele>
        <time>2022-08-10T10:24:24.103Z</time>
      </trkpt>
      <trkpt lat="43.65563" lon="1.44609">
        <ele>190.817636</ele>
        <time>2022-08-10T10:24:29.092Z</time>
      </trkpt>
      <trkpt lat="43.65567" lon="1.44594">
        <ele>190.817636</ele>
        <time>2022-08-10T10:24:52.105Z</time>
      </trkpt>
      <trkpt lat="43.65573" lon="1.44583">
        <ele>190.817636</ele>
        <time>2022-08-10T10:24:57.088Z</time>
      </trkpt>
      <trkpt lat="43.65566" lon="1.44574">
        <ele>190.817636</ele>
        <time>2022-08-10T10:25:48.102Z</time>
      </trkpt>
    </trkseg>
  </trk>
</gpx>